<?xml version="1.0" encoding="UTF-8" standalone="no" ?><gpx xmlns="http://www.topografix.com/GPX/1/1" xmlns:gpxx="http://www.garmin.com/xmlschemas/GpxExtensions/v3" xmlns:wptx1="http://www.garmin.com/xmlschemas/WaypointExtension/v1" xmlns:gpxtpx="http://www.garmin.com/xmlschemas/TrackPointExtension/v1" creator="Dakota 20" version="1.1" xmlns:xsi="http://www.w3.org/2001/XMLSchema-instance" xsi:schemaLocation="http://www.topografix.com/GPX/1/1 http://www.topografix.com/GPX/1/1/gpx.xsd http://www.garmin.com/xmlschemas/GpxExtensions/v3 http://www8.garmin.com/xmlschemas/GpxExtensionsv3.xsd http://www.garmin.com/xmlschemas/WaypointExtension/v1 http://www8.garmin.com/xmlschemas/WaypointExtensionv1.xsd http://www.garmin.com/xmlschemas/TrackPointExtension/v1 http://www.garmin.com/xmlschemas/TrackPointExtensionv1.xsd"><metadata><link href="http://www.garmin.com"><text>Garmin International</text></link><time>2022-07-16T16:21:07Z</time></metadata><trk><name>16-ИЮЛ-22 19:21:06</name><extensions><gpxx:TrackExtension><gpxx:DisplayColor>DarkRed</gpxx:DisplayColor></gpxx:TrackExtension></extensions><trkseg><trkpt lat="51.3125089277" lon="37.8534387331"><ele>74.64</ele><time>2022-07-16T05:44:42Z</time></trkpt><trkpt lat="51.3125031441" lon="37.8532320354"><ele>76.56</ele><time>2022-07-16T05:44:46Z</time></trkpt><trkpt lat="51.3125003781" lon="37.8531160299"><ele>75.12</ele><time>2022-07-16T05:44:48Z</time></trkpt><trkpt lat="51.3123642560" lon="37.8521175776"><ele>75.60</ele><time>2022-07-16T05:45:03Z</time></trkpt><trkpt lat="51.3123345003" lon="37.8519362770"><ele>75.60</ele><time>2022-07-16T05:45:06Z</time></trkpt><trkpt lat="51.3122931775" lon="37.8516795393"><ele>75.60</ele><time>2022-07-16T05:45:10Z</time></trkpt><trkpt lat="51.3122073468" lon="37.8510505613"><ele>76.08</ele><time>2022-07-16T05:45:19Z</time></trkpt><trkpt lat="51.3121797703" lon="37.8508230764"><ele>76.56</ele><time>2022-07-16T05:45:22Z</time></trkpt><trkpt lat="51.3120371103" lon="37.8493030183"><ele>76.56</ele><time>2022-07-16T05:45:42Z</time></trkpt><trkpt lat="51.3119487651" lon="37.8486592881"><ele>77.04</ele><time>2022-07-16T05:45:50Z</time></trkpt><trkpt lat="51.3119259663" lon="37.8485013731"><ele>77.04</ele><time>2022-07-16T05:45:52Z</time></trkpt><trkpt lat="51.3118113019" lon="37.8475092072"><ele>76.56</ele><time>2022-07-16T05:46:05Z</time></trkpt><trkpt lat="51.3114880957" lon="37.8468081448"><ele>76.08</ele><time>2022-07-16T05:46:17Z</time></trkpt><trkpt lat="51.3113735151" lon="37.8465820011"><ele>76.56</ele><time>2022-07-16T05:46:21Z</time></trkpt><trkpt lat="51.3112690765" lon="37.8464321326"><ele>76.56</ele><time>2022-07-16T05:46:24Z</time></trkpt><trkpt lat="51.3110860996" lon="37.8463521693"><ele>77.04</ele><time>2022-07-16T05:46:28Z</time></trkpt><trkpt lat="51.3102999609" lon="37.8464613855"><ele>78.00</ele><time>2022-07-16T05:46:43Z</time></trkpt><trkpt lat="51.3099200930" lon="37.8464926500"><ele>78.00</ele><time>2022-07-16T05:46:50Z</time></trkpt><trkpt lat="51.3092743512" lon="37.8460096009"><ele>78.00</ele><time>2022-07-16T05:47:03Z</time></trkpt><trkpt lat="51.3088808209" lon="37.8455802798"><ele>78.00</ele><time>2022-07-16T05:47:12Z</time></trkpt><trkpt lat="51.3087142725" lon="37.8448153473"><ele>78.00</ele><time>2022-07-16T05:47:22Z</time></trkpt><trkpt lat="51.3083751407" lon="37.8435798548"><ele>78.48</ele><time>2022-07-16T05:47:37Z</time></trkpt><trkpt lat="51.3083184790" lon="37.8434299864"><ele>78.48</ele><time>2022-07-16T05:47:39Z</time></trkpt><trkpt lat="51.3080148865" lon="37.8430399764"><ele>78.97</ele><time>2022-07-16T05:47:46Z</time></trkpt><trkpt lat="51.3077988010" lon="37.8429292515"><ele>78.97</ele><time>2022-07-16T05:47:50Z</time></trkpt><trkpt lat="51.3073439151" lon="37.8429585882"><ele>79.45</ele><time>2022-07-16T05:47:58Z</time></trkpt><trkpt lat="51.3066288549" lon="37.8430913575"><ele>79.45</ele><time>2022-07-16T05:48:11Z</time></trkpt><trkpt lat="51.3062263560" lon="37.8431139886"><ele>79.45</ele><time>2022-07-16T05:48:19Z</time></trkpt><trkpt lat="51.3051867485" lon="37.8432135656"><ele>79.45</ele><time>2022-07-16T05:48:37Z</time></trkpt><trkpt lat="51.3046962395" lon="37.8431535512"><ele>80.41</ele><time>2022-07-16T05:48:46Z</time></trkpt><trkpt lat="51.3045444433" lon="37.8431094624"><ele>79.45</ele><time>2022-07-16T05:48:49Z</time></trkpt><trkpt lat="51.3042863645" lon="37.8429972287"><ele>79.45</ele><time>2022-07-16T05:48:54Z</time></trkpt><trkpt lat="51.3040714525" lon="37.8429333586"><ele>79.93</ele><time>2022-07-16T05:48:58Z</time></trkpt><trkpt lat="51.3039078377" lon="37.8428751882"><ele>80.41</ele><time>2022-07-16T05:49:02Z</time></trkpt><trkpt lat="51.3036956917" lon="37.8429615218"><ele>80.89</ele><time>2022-07-16T05:49:07Z</time></trkpt><trkpt lat="51.3035301492" lon="37.8431232087"><ele>80.89</ele><time>2022-07-16T05:49:11Z</time></trkpt><trkpt lat="51.3032058533" lon="37.8430645354"><ele>81.37</ele><time>2022-07-16T05:49:19Z</time></trkpt><trkpt lat="51.3027749397" lon="37.8425218910"><ele>80.89</ele><time>2022-07-16T05:49:30Z</time></trkpt><trkpt lat="51.3025883585" lon="37.8422975074"><ele>80.89</ele><time>2022-07-16T05:49:36Z</time></trkpt><trkpt lat="51.3026754465" lon="37.8419900592"><ele>81.37</ele><time>2022-07-16T05:49:44Z</time></trkpt><trkpt lat="51.3026442658" lon="37.8418848664"><ele>81.37</ele><time>2022-07-16T05:49:46Z</time></trkpt><trkpt lat="51.3025450241" lon="37.8415275458"><ele>81.37</ele><time>2022-07-16T05:49:52Z</time></trkpt><trkpt lat="51.3024082314" lon="37.8412801120"><ele>81.37</ele><time>2022-07-16T05:49:57Z</time></trkpt><trkpt lat="51.3022348098" lon="37.8411247954"><ele>81.37</ele><time>2022-07-16T05:50:02Z</time></trkpt><trkpt lat="51.3018738013" lon="37.8409838956"><ele>82.33</ele><time>2022-07-16T05:50:15Z</time></trkpt><trkpt lat="51.3018764835" lon="37.8409812134"><ele>82.33</ele><time>2022-07-16T05:50:25Z</time></trkpt><trkpt lat="51.3017982803" lon="37.8410805389"><ele>82.33</ele><time>2022-07-16T05:50:37Z</time></trkpt><trkpt lat="51.3018123619" lon="37.8410426527"><ele>82.81</ele><time>2022-07-16T05:51:00Z</time></trkpt><trkpt lat="51.3018225040" lon="37.8410118073"><ele>83.29</ele><time>2022-07-16T05:51:11Z</time></trkpt><trkpt lat="51.3018285390" lon="37.8410052694"><ele>83.29</ele><time>2022-07-16T05:51:18Z</time></trkpt><trkpt lat="51.3018550258" lon="37.8409052733"><ele>85.21</ele><time>2022-07-16T05:51:29Z</time></trkpt><trkpt lat="51.3018387649" lon="37.8408625256"><ele>85.21</ele><time>2022-07-16T05:51:32Z</time></trkpt><trkpt lat="51.3018317241" lon="37.8406896908"><ele>85.69</ele><time>2022-07-16T05:51:46Z</time></trkpt><trkpt lat="51.3018110208" lon="37.8405637108"><ele>86.18</ele><time>2022-07-16T05:52:09Z</time></trkpt><trkpt lat="51.3018038962" lon="37.8405112401"><ele>85.21</ele><time>2022-07-16T05:52:22Z</time></trkpt><trkpt lat="51.3018030580" lon="37.8405086417"><ele>84.73</ele><time>2022-07-16T05:52:24Z</time></trkpt><trkpt lat="51.3017818518" lon="37.8404109925"><ele>84.25</ele><time>2022-07-16T05:52:31Z</time></trkpt><trkpt lat="51.3017634954" lon="37.8403000999"><ele>84.25</ele><time>2022-07-16T05:52:35Z</time></trkpt><trkpt lat="51.3017228432" lon="37.8400968388"><ele>84.73</ele><time>2022-07-16T05:52:42Z</time></trkpt><trkpt lat="51.3015893195" lon="37.8400203120"><ele>85.69</ele><time>2022-07-16T05:52:49Z</time></trkpt><trkpt lat="51.3015310653" lon="37.8399950825"><ele>85.69</ele><time>2022-07-16T05:52:51Z</time></trkpt><trkpt lat="51.3015732262" lon="37.8398433700"><ele>86.18</ele><time>2022-07-16T05:52:56Z</time></trkpt><trkpt lat="51.3020261005" lon="37.8395413700"><ele>86.18</ele><time>2022-07-16T05:53:07Z</time></trkpt><trkpt lat="51.3023220655" lon="37.8392418008"><ele>86.66</ele><time>2022-07-16T05:53:14Z</time></trkpt><trkpt lat="51.3027660549" lon="37.8388490248"><ele>87.14</ele><time>2022-07-16T05:53:25Z</time></trkpt><trkpt lat="51.3028722536" lon="37.8387591708"><ele>88.10</ele><time>2022-07-16T05:53:28Z</time></trkpt><trkpt lat="51.3030296657" lon="37.8383255750"><ele>88.10</ele><time>2022-07-16T05:53:37Z</time></trkpt><trkpt lat="51.3029906061" lon="37.8382249922"><ele>88.10</ele><time>2022-07-16T05:53:39Z</time></trkpt><trkpt lat="51.3028140832" lon="37.8378341440"><ele>91.46</ele><time>2022-07-16T05:53:49Z</time></trkpt><trkpt lat="51.3027470279" lon="37.8376717865"><ele>94.35</ele><time>2022-07-16T05:54:02Z</time></trkpt><trkpt lat="51.3026993349" lon="37.8375734668"><ele>97.23</ele><time>2022-07-16T05:54:15Z</time></trkpt><trkpt lat="51.3026560005" lon="37.8374895640"><ele>99.63</ele><time>2022-07-16T05:54:27Z</time></trkpt><trkpt lat="51.3026269153" lon="37.8373754863"><ele>103.00</ele><time>2022-07-16T05:54:38Z</time></trkpt><trkpt lat="51.3025860954" lon="37.8372760769"><ele>104.44</ele><time>2022-07-16T05:54:49Z</time></trkpt><trkpt lat="51.3025048748" lon="37.8371680342"><ele>104.44</ele><time>2022-07-16T05:54:53Z</time></trkpt><trkpt lat="51.3023172878" lon="37.8367157467"><ele>107.81</ele><time>2022-07-16T05:55:06Z</time></trkpt><trkpt lat="51.3021043874" lon="37.8363124095"><ele>111.17</ele><time>2022-07-16T05:55:20Z</time></trkpt><trkpt lat="51.3020416908" lon="37.8361800592"><ele>113.09</ele><time>2022-07-16T05:55:25Z</time></trkpt><trkpt lat="51.3019092567" lon="37.8358739521"><ele>116.46</ele><time>2022-07-16T05:55:36Z</time></trkpt><trkpt lat="51.3017891441" lon="37.8355976846"><ele>119.82</ele><time>2022-07-16T05:55:46Z</time></trkpt><trkpt lat="51.3017655909" lon="37.8355469741"><ele>120.30</ele><time>2022-07-16T05:55:48Z</time></trkpt><trkpt lat="51.3017573766" lon="37.8354692739"><ele>120.78</ele><time>2022-07-16T05:55:59Z</time></trkpt><trkpt lat="51.3017236814" lon="37.8354321420"><ele>121.74</ele><time>2022-07-16T05:56:20Z</time></trkpt><trkpt lat="51.3016061671" lon="37.8351723030"><ele>125.11</ele><time>2022-07-16T05:56:30Z</time></trkpt><trkpt lat="51.3015621621" lon="37.8350389469"><ele>127.03</ele><time>2022-07-16T05:56:41Z</time></trkpt><trkpt lat="51.3015450630" lon="37.8350298107"><ele>127.03</ele><time>2022-07-16T05:56:54Z</time></trkpt><trkpt lat="51.3014353439" lon="37.8348045889"><ele>129.43</ele><time>2022-07-16T05:57:04Z</time></trkpt><trkpt lat="51.3013179973" lon="37.8345153295"><ele>133.28</ele><time>2022-07-16T05:57:14Z</time></trkpt><trkpt lat="51.3012980483" lon="37.8344213683"><ele>134.24</ele><time>2022-07-16T05:57:17Z</time></trkpt><trkpt lat="51.3015918341" lon="37.8340234794"><ele>136.16</ele><time>2022-07-16T05:57:29Z</time></trkpt><trkpt lat="51.3021200616" lon="37.8334212396"><ele>138.57</ele><time>2022-07-16T05:57:46Z</time></trkpt><trkpt lat="51.3022133522" lon="37.8332683537"><ele>138.09</ele><time>2022-07-16T05:57:51Z</time></trkpt><trkpt lat="51.3022054732" lon="37.8329129610"><ele>140.01</ele><time>2022-07-16T05:57:56Z</time></trkpt><trkpt lat="51.3019562792" lon="37.8323195223"><ele>143.37</ele><time>2022-07-16T05:58:09Z</time></trkpt><trkpt lat="51.3017040677" lon="37.8317935579"><ele>146.74</ele><time>2022-07-16T05:58:22Z</time></trkpt><trkpt lat="51.3014490064" lon="37.8311907314"><ele>149.62</ele><time>2022-07-16T05:58:35Z</time></trkpt><trkpt lat="51.3012033328" lon="37.8306475002"><ele>153.47</ele><time>2022-07-16T05:58:47Z</time></trkpt><trkpt lat="51.3010144047" lon="37.8302170057"><ele>154.43</ele><time>2022-07-16T05:59:00Z</time></trkpt><trkpt lat="51.3008837309" lon="37.8302561492"><ele>155.39</ele><time>2022-07-16T05:59:04Z</time></trkpt><trkpt lat="51.3007238042" lon="37.8304370306"><ele>153.95</ele><time>2022-07-16T05:59:08Z</time></trkpt><trkpt lat="51.3006348722" lon="37.8304339293"><ele>153.47</ele><time>2022-07-16T05:59:16Z</time></trkpt><trkpt lat="51.3006762788" lon="37.8303911816"><ele>153.47</ele><time>2022-07-16T05:59:28Z</time></trkpt><trkpt lat="51.3006725069" lon="37.8303493559"><ele>153.95</ele><time>2022-07-16T05:59:58Z</time></trkpt><trkpt lat="51.3006974850" lon="37.8303553071"><ele>154.91</ele><time>2022-07-16T06:00:10Z</time></trkpt><trkpt lat="51.3007072080" lon="37.8303482663"><ele>155.39</ele><time>2022-07-16T06:00:27Z</time></trkpt><trkpt lat="51.3006882649" lon="37.8303780220"><ele>155.39</ele><time>2022-07-16T06:00:39Z</time></trkpt><trkpt lat="51.3006863371" lon="37.8303708136"><ele>155.39</ele><time>2022-07-16T06:00:50Z</time></trkpt><trkpt lat="51.3006613590" lon="37.8303779382"><ele>155.87</ele><time>2022-07-16T06:01:17Z</time></trkpt><trkpt lat="51.3006421644" lon="37.8303781897"><ele>155.87</ele><time>2022-07-16T06:01:21Z</time></trkpt><trkpt lat="51.3006110676" lon="37.8303621802"><ele>156.35</ele><time>2022-07-16T06:01:35Z</time></trkpt><trkpt lat="51.3006161805" lon="37.8303391300"><ele>156.83</ele><time>2022-07-16T06:02:04Z</time></trkpt><trkpt lat="51.3005912025" lon="37.8303480987"><ele>157.31</ele><time>2022-07-16T06:02:38Z</time></trkpt><trkpt lat="51.3005869277" lon="37.8303684667"><ele>158.27</ele><time>2022-07-16T06:03:08Z</time></trkpt><trkpt lat="51.3005991653" lon="37.8303496074"><ele>158.75</ele><time>2022-07-16T06:03:23Z</time></trkpt><trkpt lat="51.3006122410" lon="37.8303576540"><ele>159.24</ele><time>2022-07-16T06:03:41Z</time></trkpt><trkpt lat="51.3005543221" lon="37.8304087836"><ele>159.24</ele><time>2022-07-16T06:03:45Z</time></trkpt><trkpt lat="51.3003635500" lon="37.8307277150"><ele>158.27</ele><time>2022-07-16T06:03:54Z</time></trkpt><trkpt lat="51.3003008533" lon="37.8308017273"><ele>158.27</ele><time>2022-07-16T06:03:56Z</time></trkpt><trkpt lat="51.2999778148" lon="37.8311827686"><ele>158.27</ele><time>2022-07-16T06:04:04Z</time></trkpt><trkpt lat="51.2998122722" lon="37.8313544299"><ele>157.79</ele><time>2022-07-16T06:04:08Z</time></trkpt><trkpt lat="51.2990448251" lon="37.8322483599"><ele>156.35</ele><time>2022-07-16T06:04:26Z</time></trkpt><trkpt lat="51.2989617605" lon="37.8323554806"><ele>155.87</ele><time>2022-07-16T06:04:28Z</time></trkpt><trkpt lat="51.2984256539" lon="37.8329215944"><ele>153.95</ele><time>2022-07-16T06:04:41Z</time></trkpt><trkpt lat="51.2983493786" lon="37.8329877276"><ele>153.47</ele><time>2022-07-16T06:04:51Z</time></trkpt><trkpt lat="51.2983425055" lon="37.8329904098"><ele>153.95</ele><time>2022-07-16T06:05:09Z</time></trkpt><trkpt lat="51.2983023562" lon="37.8330495860"><ele>153.47</ele><time>2022-07-16T06:05:12Z</time></trkpt><trkpt lat="51.2978629768" lon="37.8335448727"><ele>150.10</ele><time>2022-07-16T06:05:22Z</time></trkpt><trkpt lat="51.2975702807" lon="37.8338801488"><ele>148.18</ele><time>2022-07-16T06:05:27Z</time></trkpt><trkpt lat="51.2973937578" lon="37.8340799734"><ele>146.26</ele><time>2022-07-16T06:05:30Z</time></trkpt><trkpt lat="51.2969946954" lon="37.8345196880"><ele>143.37</ele><time>2022-07-16T06:05:40Z</time></trkpt><trkpt lat="51.2968008220" lon="37.8347291518"><ele>142.89</ele><time>2022-07-16T06:05:51Z</time></trkpt><trkpt lat="51.2967456691" lon="37.8347869869"><ele>142.89</ele><time>2022-07-16T06:06:03Z</time></trkpt><trkpt lat="51.2967449985" lon="37.8347858135"><ele>142.89</ele><time>2022-07-16T06:06:05Z</time></trkpt><trkpt lat="51.2966814637" lon="37.8348760027"><ele>142.41</ele><time>2022-07-16T06:06:09Z</time></trkpt><trkpt lat="51.2966158334" lon="37.8349583130"><ele>142.41</ele><time>2022-07-16T06:06:11Z</time></trkpt><trkpt lat="51.2963819783" lon="37.8352645040"><ele>141.93</ele><time>2022-07-16T06:06:17Z</time></trkpt><trkpt lat="51.2957347278" lon="37.8359757084"><ele>141.93</ele><time>2022-07-16T06:06:32Z</time></trkpt><trkpt lat="51.2952434644" lon="37.8365131561"><ele>142.41</ele><time>2022-07-16T06:06:43Z</time></trkpt><trkpt lat="51.2946362793" lon="37.8371499293"><ele>141.93</ele><time>2022-07-16T06:06:57Z</time></trkpt><trkpt lat="51.2943978980" lon="37.8374378476"><ele>142.41</ele><time>2022-07-16T06:07:03Z</time></trkpt><trkpt lat="51.2938361429" lon="37.8380585276"><ele>140.49</ele><time>2022-07-16T06:07:17Z</time></trkpt><trkpt lat="51.2936770543" lon="37.8382954840"><ele>140.01</ele><time>2022-07-16T06:07:22Z</time></trkpt><trkpt lat="51.2935701851" lon="37.8384269960"><ele>140.01</ele><time>2022-07-16T06:07:26Z</time></trkpt><trkpt lat="51.2935500685" lon="37.8384383116"><ele>140.97</ele><time>2022-07-16T06:07:40Z</time></trkpt><trkpt lat="51.2935724482" lon="37.8384112380"><ele>141.45</ele><time>2022-07-16T06:08:03Z</time></trkpt><trkpt lat="51.2935492303" lon="37.8384186141"><ele>141.45</ele><time>2022-07-16T06:08:22Z</time></trkpt><trkpt lat="51.2935497332" lon="37.8384434246"><ele>141.93</ele><time>2022-07-16T06:09:01Z</time></trkpt><trkpt lat="51.2935541756" lon="37.8384533152"><ele>142.41</ele><time>2022-07-16T06:09:11Z</time></trkpt><trkpt lat="51.2935773097" lon="37.8384421673"><ele>141.93</ele><time>2022-07-16T06:09:21Z</time></trkpt><trkpt lat="51.2935685925" lon="37.8383991681"><ele>141.45</ele><time>2022-07-16T06:09:23Z</time></trkpt><trkpt lat="51.2935129367" lon="37.8382658958"><ele>140.49</ele><time>2022-07-16T06:09:28Z</time></trkpt><trkpt lat="51.2933764793" lon="37.8383124992"><ele>139.53</ele><time>2022-07-16T06:09:33Z</time></trkpt><trkpt lat="51.2926838826" lon="37.8390871547"><ele>137.61</ele><time>2022-07-16T06:09:49Z</time></trkpt><trkpt lat="51.2926014885" lon="37.8391868994"><ele>138.09</ele><time>2022-07-16T06:09:51Z</time></trkpt><trkpt lat="51.2925417256" lon="37.8394498397"><ele>138.57</ele><time>2022-07-16T06:09:56Z</time></trkpt><trkpt lat="51.2927131355" lon="37.8397857025"><ele>141.45</ele><time>2022-07-16T06:10:10Z</time></trkpt><trkpt lat="51.2927866448" lon="37.8400849365"><ele>143.37</ele><time>2022-07-16T06:10:23Z</time></trkpt><trkpt lat="51.2927835435" lon="37.8400755487"><ele>143.37</ele><time>2022-07-16T06:10:40Z</time></trkpt><trkpt lat="51.2927516922" lon="37.8401026223"><ele>143.37</ele><time>2022-07-16T06:10:43Z</time></trkpt><trkpt lat="51.2925243750" lon="37.8404471185"><ele>142.89</ele><time>2022-07-16T06:10:56Z</time></trkpt><trkpt lat="51.2924768496" lon="37.8405300993"><ele>142.41</ele><time>2022-07-16T06:11:00Z</time></trkpt><trkpt lat="51.2924910989" lon="37.8405537363"><ele>142.41</ele><time>2022-07-16T06:11:04Z</time></trkpt><trkpt lat="51.2926305737" lon="37.8402200527"><ele>143.37</ele><time>2022-07-16T06:11:16Z</time></trkpt><trkpt lat="51.2929640058" lon="37.8399913106"><ele>144.34</ele><time>2022-07-16T06:11:27Z</time></trkpt><trkpt lat="51.2931874674" lon="37.8397726268"><ele>144.34</ele><time>2022-07-16T06:11:34Z</time></trkpt><trkpt lat="51.2932839431" lon="37.8396463953"><ele>144.34</ele><time>2022-07-16T06:11:37Z</time></trkpt><trkpt lat="51.2938403338" lon="37.8390749171"><ele>144.82</ele><time>2022-07-16T06:11:52Z</time></trkpt><trkpt lat="51.2938761245" lon="37.8390399646"><ele>144.82</ele><time>2022-07-16T06:11:53Z</time></trkpt><trkpt lat="51.2939746119" lon="37.8390750010"><ele>146.26</ele><time>2022-07-16T06:11:57Z</time></trkpt><trkpt lat="51.2942501251" lon="37.8396285418"><ele>146.74</ele><time>2022-07-16T06:12:12Z</time></trkpt><trkpt lat="51.2942859996" lon="37.8396983631"><ele>146.26</ele><time>2022-07-16T06:12:17Z</time></trkpt><trkpt lat="51.2941937149" lon="37.8396049887"><ele>146.74</ele><time>2022-07-16T06:12:24Z</time></trkpt><trkpt lat="51.2941896077" lon="37.8395955171"><ele>146.74</ele><time>2022-07-16T06:12:36Z</time></trkpt><trkpt lat="51.2941905297" lon="37.8395987861"><ele>146.74</ele><time>2022-07-16T06:12:42Z</time></trkpt><trkpt lat="51.2942186929" lon="37.8396236803"><ele>146.74</ele><time>2022-07-16T06:12:44Z</time></trkpt><trkpt lat="51.2944168411" lon="37.8400131036"><ele>145.78</ele><time>2022-07-16T06:12:58Z</time></trkpt><trkpt lat="51.2944688927" lon="37.8401353955"><ele>145.30</ele><time>2022-07-16T06:13:02Z</time></trkpt><trkpt lat="51.2946304958" lon="37.8404938057"><ele>143.37</ele><time>2022-07-16T06:13:11Z</time></trkpt><trkpt lat="51.2947323360" lon="37.8406917863"><ele>141.45</ele><time>2022-07-16T06:13:15Z</time></trkpt><trkpt lat="51.2948381994" lon="37.8409721609"><ele>137.13</ele><time>2022-07-16T06:13:20Z</time></trkpt><trkpt lat="51.2949604075" lon="37.8412666172"><ele>133.28</ele><time>2022-07-16T06:13:26Z</time></trkpt><trkpt lat="51.2949790992" lon="37.8413197584"><ele>132.80</ele><time>2022-07-16T06:13:27Z</time></trkpt><trkpt lat="51.2950467411" lon="37.8414117079"><ele>130.40</ele><time>2022-07-16T06:13:29Z</time></trkpt><trkpt lat="51.2952696159" lon="37.8415390290"><ele>126.55</ele><time>2022-07-16T06:13:34Z</time></trkpt><trkpt lat="51.2953132018" lon="37.8415262047"><ele>126.07</ele><time>2022-07-16T06:13:35Z</time></trkpt><trkpt lat="51.2955078296" lon="37.8414621670"><ele>125.59</ele><time>2022-07-16T06:13:40Z</time></trkpt><trkpt lat="51.2956384197" lon="37.8416079283"><ele>121.74</ele><time>2022-07-16T06:13:50Z</time></trkpt><trkpt lat="51.2956657447" lon="37.8416460659"><ele>121.26</ele><time>2022-07-16T06:13:52Z</time></trkpt><trkpt lat="51.2957979273" lon="37.8419100959"><ele>116.94</ele><time>2022-07-16T06:13:58Z</time></trkpt><trkpt lat="51.2958924752" lon="37.8421376646"><ele>114.05</ele><time>2022-07-16T06:14:01Z</time></trkpt><trkpt lat="51.2959769648" lon="37.8423541691"><ele>111.65</ele><time>2022-07-16T06:14:04Z</time></trkpt><trkpt lat="51.2960459478" lon="37.8425393254"><ele>110.21</ele><time>2022-07-16T06:14:07Z</time></trkpt><trkpt lat="51.2963638734" lon="37.8431348596"><ele>108.29</ele><time>2022-07-16T06:14:17Z</time></trkpt><trkpt lat="51.2968529575" lon="37.8443725314"><ele>107.81</ele><time>2022-07-16T06:14:34Z</time></trkpt><trkpt lat="51.2972506788" lon="37.8452030942"><ele>107.81</ele><time>2022-07-16T06:14:47Z</time></trkpt><trkpt lat="51.2974921614" lon="37.8457611613"><ele>107.81</ele><time>2022-07-16T06:14:56Z</time></trkpt><trkpt lat="51.2976596318" lon="37.8457371052"><ele>107.32</ele><time>2022-07-16T06:15:01Z</time></trkpt><trkpt lat="51.2977608014" lon="37.8456383664"><ele>107.32</ele><time>2022-07-16T06:15:05Z</time></trkpt><trkpt lat="51.2980022002" lon="37.8457437269"><ele>106.36</ele><time>2022-07-16T06:15:13Z</time></trkpt><trkpt lat="51.2980778888" lon="37.8457863070"><ele>106.84</ele><time>2022-07-16T06:15:15Z</time></trkpt><trkpt lat="51.2981890328" lon="37.8458642587"><ele>106.84</ele><time>2022-07-16T06:15:18Z</time></trkpt><trkpt lat="51.2983712554" lon="37.8459923342"><ele>105.88</ele><time>2022-07-16T06:15:23Z</time></trkpt><trkpt lat="51.2985007558" lon="37.8462821804"><ele>105.40</ele><time>2022-07-16T06:15:31Z</time></trkpt><trkpt lat="51.2986756861" lon="37.8466909658"><ele>105.40</ele><time>2022-07-16T06:15:41Z</time></trkpt><trkpt lat="51.2987971399" lon="37.8467632178"><ele>106.84</ele><time>2022-07-16T06:15:48Z</time></trkpt><trkpt lat="51.2990696356" lon="37.8465778939"><ele>107.81</ele><time>2022-07-16T06:15:59Z</time></trkpt><trkpt lat="51.2991511915" lon="37.8464146145"><ele>108.29</ele><time>2022-07-16T06:16:02Z</time></trkpt><trkpt lat="51.2993762456" lon="37.8460984491"><ele>107.32</ele><time>2022-07-16T06:16:09Z</time></trkpt><trkpt lat="51.2995869666" lon="37.8460381832"><ele>107.81</ele><time>2022-07-16T06:16:14Z</time></trkpt><trkpt lat="51.2996684387" lon="37.8460709564"><ele>107.81</ele><time>2022-07-16T06:16:16Z</time></trkpt><trkpt lat="51.2998640724" lon="37.8461696114"><ele>108.77</ele><time>2022-07-16T06:16:21Z</time></trkpt><trkpt lat="51.3000019547" lon="37.8463442065"><ele>109.25</ele><time>2022-07-16T06:16:25Z</time></trkpt><trkpt lat="51.3005511370" lon="37.8471716680"><ele>109.73</ele><time>2022-07-16T06:16:41Z</time></trkpt><trkpt lat="51.3007286657" lon="37.8474526294"><ele>109.73</ele><time>2022-07-16T06:16:47Z</time></trkpt><trkpt lat="51.3007440884" lon="37.8474766016"><ele>109.25</ele><time>2022-07-16T06:16:56Z</time></trkpt><trkpt lat="51.3007720001" lon="37.8475299105"><ele>109.73</ele><time>2022-07-16T06:16:59Z</time></trkpt><trkpt lat="51.3014014810" lon="37.8480693698"><ele>109.73</ele><time>2022-07-16T06:17:13Z</time></trkpt><trkpt lat="51.3016476575" lon="37.8482629079"><ele>109.73</ele><time>2022-07-16T06:17:18Z</time></trkpt><trkpt lat="51.3017330691" lon="37.8485169634"><ele>109.73</ele><time>2022-07-16T06:17:22Z</time></trkpt><trkpt lat="51.3016106095" lon="37.8499258775"><ele>110.21</ele><time>2022-07-16T06:17:38Z</time></trkpt><trkpt lat="51.3016262837" lon="37.8501889855"><ele>110.21</ele><time>2022-07-16T06:17:41Z</time></trkpt><trkpt lat="51.3016537763" lon="37.8503575455"><ele>110.21</ele><time>2022-07-16T06:17:43Z</time></trkpt><trkpt lat="51.3018155470" lon="37.8508927301"><ele>110.21</ele><time>2022-07-16T06:17:50Z</time></trkpt><trkpt lat="51.3020214066" lon="37.8510985058"><ele>109.73</ele><time>2022-07-16T06:17:56Z</time></trkpt><trkpt lat="51.3023356441" lon="37.8510213923"><ele>108.77</ele><time>2022-07-16T06:18:02Z</time></trkpt><trkpt lat="51.3025723491" lon="37.8509429377"><ele>108.77</ele><time>2022-07-16T06:18:08Z</time></trkpt><trkpt lat="51.3029521331" lon="37.8507653251"><ele>108.29</ele><time>2022-07-16T06:18:18Z</time></trkpt><trkpt lat="51.3030262291" lon="37.8509072307"><ele>108.29</ele><time>2022-07-16T06:18:22Z</time></trkpt><trkpt lat="51.3030592538" lon="37.8509790637"><ele>108.29</ele><time>2022-07-16T06:18:24Z</time></trkpt><trkpt lat="51.3031523768" lon="37.8510157764"><ele>107.81</ele><time>2022-07-16T06:18:33Z</time></trkpt><trkpt lat="51.3032756746" lon="37.8510443587"><ele>108.29</ele><time>2022-07-16T06:18:45Z</time></trkpt><trkpt lat="51.3033068553" lon="37.8510547522"><ele>109.73</ele><time>2022-07-16T06:18:50Z</time></trkpt><trkpt lat="51.3033539616" lon="37.8511084802"><ele>108.29</ele><time>2022-07-16T06:18:53Z</time></trkpt><trkpt lat="51.3035564683" lon="37.8509694245"><ele>108.77</ele><time>2022-07-16T06:19:04Z</time></trkpt><trkpt lat="51.3035072666" lon="37.8508172929"><ele>108.77</ele><time>2022-07-16T06:19:10Z</time></trkpt><trkpt lat="51.3036084361" lon="37.8507359046"><ele>109.25</ele><time>2022-07-16T06:19:16Z</time></trkpt><trkpt lat="51.3037137128" lon="37.8506171331"><ele>108.77</ele><time>2022-07-16T06:19:21Z</time></trkpt><trkpt lat="51.3037884794" lon="37.8505501617"><ele>108.77</ele><time>2022-07-16T06:19:25Z</time></trkpt><trkpt lat="51.3040763140" lon="37.8509115893"><ele>108.77</ele><time>2022-07-16T06:19:36Z</time></trkpt><trkpt lat="51.3043735363" lon="37.8508514911"><ele>109.25</ele><time>2022-07-16T06:19:45Z</time></trkpt><trkpt lat="51.3045964111" lon="37.8506079130"><ele>109.73</ele><time>2022-07-16T06:19:54Z</time></trkpt><trkpt lat="51.3046746142" lon="37.8504786640"><ele>110.21</ele><time>2022-07-16T06:19:57Z</time></trkpt><trkpt lat="51.3047663122" lon="37.8504754789"><ele>111.65</ele><time>2022-07-16T06:20:02Z</time></trkpt><trkpt lat="51.3049502112" lon="37.8507636487"><ele>112.13</ele><time>2022-07-16T06:20:11Z</time></trkpt><trkpt lat="51.3049865887" lon="37.8508825880"><ele>111.65</ele><time>2022-07-16T06:20:13Z</time></trkpt><trkpt lat="51.3051365409" lon="37.8514284175"><ele>110.69</ele><time>2022-07-16T06:20:20Z</time></trkpt><trkpt lat="51.3052835595" lon="37.8517242987"><ele>110.69</ele><time>2022-07-16T06:20:24Z</time></trkpt><trkpt lat="51.3053589128" lon="37.8518641926"><ele>110.69</ele><time>2022-07-16T06:20:26Z</time></trkpt><trkpt lat="51.3055200130" lon="37.8522457369"><ele>110.21</ele><time>2022-07-16T06:20:31Z</time></trkpt><trkpt lat="51.3056101184" lon="37.8524830285"><ele>110.69</ele><time>2022-07-16T06:20:34Z</time></trkpt><trkpt lat="51.3057292253" lon="37.8527877945"><ele>111.17</ele><time>2022-07-16T06:20:38Z</time></trkpt><trkpt lat="51.3060147967" lon="37.8537429962"><ele>111.65</ele><time>2022-07-16T06:20:50Z</time></trkpt><trkpt lat="51.3063472230" lon="37.8540191799"><ele>112.13</ele><time>2022-07-16T06:20:59Z</time></trkpt><trkpt lat="51.3065125141" lon="37.8539758455"><ele>112.13</ele><time>2022-07-16T06:21:02Z</time></trkpt><trkpt lat="51.3066351414" lon="37.8539325111"><ele>111.65</ele><time>2022-07-16T06:21:04Z</time></trkpt><trkpt lat="51.3068349659" lon="37.8541151527"><ele>112.13</ele><time>2022-07-16T06:21:09Z</time></trkpt><trkpt lat="51.3072304241" lon="37.8545816056"><ele>112.61</ele><time>2022-07-16T06:21:19Z</time></trkpt><trkpt lat="51.3082820177" lon="37.8544001374"><ele>111.65</ele><time>2022-07-16T06:21:37Z</time></trkpt><trkpt lat="51.3092277478" lon="37.8542810306"><ele>111.65</ele><time>2022-07-16T06:21:53Z</time></trkpt><trkpt lat="51.3104099315" lon="37.8543014824"><ele>112.13</ele><time>2022-07-16T06:22:14Z</time></trkpt><trkpt lat="51.3115569949" lon="37.8542579804"><ele>112.13</ele><time>2022-07-16T06:22:35Z</time></trkpt><trkpt lat="51.3124342449" lon="37.8539911844"><ele>111.65</ele><time>2022-07-16T06:22:52Z</time></trkpt><trkpt lat="51.3125015516" lon="37.8542797733"><ele>113.09</ele><time>2022-07-16T06:23:00Z</time></trkpt><trkpt lat="51.3125265297" lon="37.8544910811"><ele>114.05</ele><time>2022-07-16T06:23:08Z</time></trkpt><trkpt lat="51.3125998713" lon="37.8544920031"><ele>117.42</ele><time>2022-07-16T06:23:22Z</time></trkpt><trkpt lat="51.3126132824" lon="37.8544938471"><ele>119.34</ele><time>2022-07-16T06:23:27Z</time></trkpt><trkpt lat="51.3126842771" lon="37.8545685299"><ele>122.22</ele><time>2022-07-16T06:23:42Z</time></trkpt><trkpt lat="51.3126893900" lon="37.8546242695"><ele>121.74</ele><time>2022-07-16T06:23:45Z</time></trkpt><trkpt lat="51.3127128594" lon="37.8553378209"><ele>121.74</ele><time>2022-07-16T06:24:01Z</time></trkpt><trkpt lat="51.3127230853" lon="37.8553800657"><ele>121.74</ele><time>2022-07-16T06:24:03Z</time></trkpt><trkpt lat="51.3127551880" lon="37.8553886991"><ele>120.78</ele><time>2022-07-16T06:24:06Z</time></trkpt><trkpt lat="51.3128532562" lon="37.8553988412"><ele>117.42</ele><time>2022-07-16T06:24:11Z</time></trkpt><trkpt lat="51.3128745463" lon="37.8553198837"><ele>115.50</ele><time>2022-07-16T06:24:14Z</time></trkpt><trkpt lat="51.3129245024" lon="37.8552219830"><ele>114.05</ele><time>2022-07-16T06:24:16Z</time></trkpt><trkpt lat="51.3130134344" lon="37.8551966697"><ele>114.53</ele><time>2022-07-16T06:24:18Z</time></trkpt><trkpt lat="51.3131054677" lon="37.8552026208"><ele>114.53</ele><time>2022-07-16T06:24:20Z</time></trkpt><trkpt lat="51.3133044541" lon="37.8552136850"><ele>115.01</ele><time>2022-07-16T06:24:25Z</time></trkpt><trkpt lat="51.3135212101" lon="37.8552053869"><ele>114.53</ele><time>2022-07-16T06:24:30Z</time></trkpt><trkpt lat="51.3136569131" lon="37.8552157804"><ele>115.01</ele><time>2022-07-16T06:24:33Z</time></trkpt><trkpt lat="51.3138536364" lon="37.8553175367"><ele>115.50</ele><time>2022-07-16T06:24:38Z</time></trkpt><trkpt lat="51.3140229508" lon="37.8552620485"><ele>114.53</ele><time>2022-07-16T06:24:44Z</time></trkpt><trkpt lat="51.3145578839" lon="37.8554324526"><ele>116.46</ele><time>2022-07-16T06:24:59Z</time></trkpt><trkpt lat="51.3146430440" lon="37.8554328717"><ele>116.94</ele><time>2022-07-16T06:25:01Z</time></trkpt><trkpt lat="51.3147307187" lon="37.8554431815"><ele>116.94</ele><time>2022-07-16T06:25:03Z</time></trkpt><trkpt lat="51.3149352372" lon="37.8555238992"><ele>116.94</ele><time>2022-07-16T06:25:08Z</time></trkpt><trkpt lat="51.3151647337" lon="37.8556576744"><ele>116.94</ele><time>2022-07-16T06:25:13Z</time></trkpt><trkpt lat="51.3156295102" lon="37.8560373746"><ele>118.38</ele><time>2022-07-16T06:25:24Z</time></trkpt><trkpt lat="51.3158710767" lon="37.8561258875"><ele>117.90</ele><time>2022-07-16T06:25:29Z</time></trkpt><trkpt lat="51.3160006609" lon="37.8561967146"><ele>118.38</ele><time>2022-07-16T06:25:32Z</time></trkpt><trkpt lat="51.3161142357" lon="37.8565969504"><ele>118.86</ele><time>2022-07-16T06:25:38Z</time></trkpt><trkpt lat="51.3160957117" lon="37.8569194861"><ele>119.34</ele><time>2022-07-16T06:25:42Z</time></trkpt><trkpt lat="51.3161149900" lon="37.8578184452"><ele>119.82</ele><time>2022-07-16T06:25:54Z</time></trkpt><trkpt lat="51.3161200192" lon="37.8579010069"><ele>120.30</ele><time>2022-07-16T06:25:55Z</time></trkpt><trkpt lat="51.3161391299" lon="37.8580662142"><ele>119.82</ele><time>2022-07-16T06:25:57Z</time></trkpt><trkpt lat="51.3163287286" lon="37.8583757579"><ele>119.82</ele><time>2022-07-16T06:26:03Z</time></trkpt><trkpt lat="51.3171726186" lon="37.8582822997"><ele>118.86</ele><time>2022-07-16T06:26:18Z</time></trkpt><trkpt lat="51.3173457049" lon="37.8582218662"><ele>117.90</ele><time>2022-07-16T06:26:21Z</time></trkpt><trkpt lat="51.3175149355" lon="37.8581523802"><ele>117.42</ele><time>2022-07-16T06:26:24Z</time></trkpt><trkpt lat="51.3178133313" lon="37.8584605828"><ele>117.42</ele><time>2022-07-16T06:26:31Z</time></trkpt><trkpt lat="51.3178419136" lon="37.8585422225"><ele>116.94</ele><time>2022-07-16T06:26:32Z</time></trkpt><trkpt lat="51.3179887645" lon="37.8589164745"><ele>116.94</ele><time>2022-07-16T06:26:37Z</time></trkpt><trkpt lat="51.3182112202" lon="37.8597260825"><ele>117.42</ele><time>2022-07-16T06:26:47Z</time></trkpt><trkpt lat="51.3184270542" lon="37.8604583256"><ele>117.42</ele><time>2022-07-16T06:26:56Z</time></trkpt><trkpt lat="51.3185743243" lon="37.8613390122"><ele>116.94</ele><time>2022-07-16T06:27:06Z</time></trkpt><trkpt lat="51.3185164891" lon="37.8626420628"><ele>117.42</ele><time>2022-07-16T06:27:21Z</time></trkpt><trkpt lat="51.3185587339" lon="37.8633248527"><ele>117.90</ele><time>2022-07-16T06:27:29Z</time></trkpt><trkpt lat="51.3186127972" lon="37.8645614348"><ele>118.38</ele><time>2022-07-16T06:27:45Z</time></trkpt><trkpt lat="51.3186408766" lon="37.8648931067"><ele>118.86</ele><time>2022-07-16T06:27:49Z</time></trkpt><trkpt lat="51.3187946845" lon="37.8659926448"><ele>117.90</ele><time>2022-07-16T06:28:05Z</time></trkpt><trkpt lat="51.3188419584" lon="37.8661143500"><ele>118.38</ele><time>2022-07-16T06:28:08Z</time></trkpt><trkpt lat="51.3187864702" lon="37.8660849296"><ele>118.38</ele><time>2022-07-16T06:28:13Z</time></trkpt><trkpt lat="51.3187685329" lon="37.8658718616"><ele>118.38</ele><time>2022-07-16T06:28:17Z</time></trkpt><trkpt lat="51.3189330697" lon="37.8658278566"><ele>117.42</ele><time>2022-07-16T06:28:26Z</time></trkpt><trkpt lat="51.3193804957" lon="37.8657271061"><ele>117.42</ele><time>2022-07-16T06:28:40Z</time></trkpt><trkpt lat="51.3194425218" lon="37.8657061514"><ele>117.90</ele><time>2022-07-16T06:28:43Z</time></trkpt><trkpt lat="51.3195177913" lon="37.8660739493"><ele>117.90</ele><time>2022-07-16T06:28:53Z</time></trkpt><trkpt lat="51.3195141032" lon="37.8661143500"><ele>117.90</ele><time>2022-07-16T06:28:54Z</time></trkpt><trkpt lat="51.3195749559" lon="37.8664352093"><ele>117.90</ele><time>2022-07-16T06:29:01Z</time></trkpt><trkpt lat="51.3195931446" lon="37.8666717466"><ele>118.38</ele><time>2022-07-16T06:29:08Z</time></trkpt><trkpt lat="51.3196275942" lon="37.8668025043"><ele>118.38</ele><time>2022-07-16T06:29:12Z</time></trkpt><trkpt lat="51.3196445256" lon="37.8669564798"><ele>118.38</ele><time>2022-07-16T06:29:16Z</time></trkpt><trkpt lat="51.3197158556" lon="37.8670542967"><ele>117.42</ele><time>2022-07-16T06:29:21Z</time></trkpt><trkpt lat="51.3199881837" lon="37.8672077693"><ele>117.42</ele><time>2022-07-16T06:29:32Z</time></trkpt><trkpt lat="51.3203718234" lon="37.8674002178"><ele>117.90</ele><time>2022-07-16T06:29:41Z</time></trkpt><trkpt lat="51.3208110351" lon="37.8677484859"><ele>118.38</ele><time>2022-07-16T06:29:51Z</time></trkpt><trkpt lat="51.3209619932" lon="37.8680072352"><ele>118.38</ele><time>2022-07-16T06:29:57Z</time></trkpt><trkpt lat="51.3209489174" lon="37.8681641445"><ele>118.38</ele><time>2022-07-16T06:29:59Z</time></trkpt><trkpt lat="51.3208588120" lon="37.8699431196"><ele>119.34</ele><time>2022-07-16T06:30:20Z</time></trkpt><trkpt lat="51.3207773399" lon="37.8714324161"><ele>119.82</ele><time>2022-07-16T06:30:37Z</time></trkpt><trkpt lat="51.3207702991" lon="37.8715162352"><ele>119.34</ele><time>2022-07-16T06:30:38Z</time></trkpt><trkpt lat="51.3206786849" lon="37.8723768890"><ele>119.82</ele><time>2022-07-16T06:30:51Z</time></trkpt><trkpt lat="51.3206384517" lon="37.8724626359"><ele>120.30</ele><time>2022-07-16T06:30:54Z</time></trkpt><trkpt lat="51.3204713166" lon="37.8733869921"><ele>120.78</ele><time>2022-07-16T06:31:07Z</time></trkpt><trkpt lat="51.3202566560" lon="37.8747757059"><ele>122.22</ele><time>2022-07-16T06:31:24Z</time></trkpt><trkpt lat="51.3204553910" lon="37.8760733921"><ele>122.22</ele><time>2022-07-16T06:31:39Z</time></trkpt><trkpt lat="51.3208517712" lon="37.8776779398"><ele>122.71</ele><time>2022-07-16T06:31:58Z</time></trkpt><trkpt lat="51.3212613948" lon="37.8785494901"><ele>122.71</ele><time>2022-07-16T06:32:10Z</time></trkpt><trkpt lat="51.3217108324" lon="37.8796953801"><ele>122.71</ele><time>2022-07-16T06:32:26Z</time></trkpt><trkpt lat="51.3219677377" lon="37.8802930098"><ele>123.67</ele><time>2022-07-16T06:32:35Z</time></trkpt><trkpt lat="51.3220948074" lon="37.8807731252"><ele>124.15</ele><time>2022-07-16T06:32:42Z</time></trkpt><trkpt lat="51.3224781118" lon="37.8818134032"><ele>126.07</ele><time>2022-07-16T06:32:59Z</time></trkpt><trkpt lat="51.3228616677" lon="37.8827121109"><ele>128.95</ele><time>2022-07-16T06:33:16Z</time></trkpt><trkpt lat="51.3229309022" lon="37.8829759732"><ele>129.92</ele><time>2022-07-16T06:33:26Z</time></trkpt><trkpt lat="51.3229388651" lon="37.8829814214"><ele>129.92</ele><time>2022-07-16T06:33:52Z</time></trkpt><trkpt lat="51.3229348417" lon="37.8829825111"><ele>129.92</ele><time>2022-07-16T06:34:13Z</time></trkpt><trkpt lat="51.3229531981" lon="37.8830250911"><ele>129.92</ele><time>2022-07-16T06:34:15Z</time></trkpt><trkpt lat="51.3231118675" lon="37.8834708408"><ele>131.36</ele><time>2022-07-16T06:34:24Z</time></trkpt><trkpt lat="51.3232794218" lon="37.8838985693"><ele>132.32</ele><time>2022-07-16T06:34:31Z</time></trkpt><trkpt lat="51.3233720418" lon="37.8841113858"><ele>132.80</ele><time>2022-07-16T06:34:35Z</time></trkpt><trkpt lat="51.3236418553" lon="37.8845987935"><ele>134.24</ele><time>2022-07-16T06:34:48Z</time></trkpt><trkpt lat="51.3236489799" lon="37.8845946863"><ele>134.72</ele><time>2022-07-16T06:35:15Z</time></trkpt><trkpt lat="51.3236457109" lon="37.8845946025"><ele>134.72</ele><time>2022-07-16T06:35:30Z</time></trkpt><trkpt lat="51.3237090781" lon="37.8846049123"><ele>134.24</ele><time>2022-07-16T06:35:34Z</time></trkpt><trkpt lat="51.3238006085" lon="37.8847440518"><ele>134.72</ele><time>2022-07-16T06:35:38Z</time></trkpt><trkpt lat="51.3240119163" lon="37.8849746380"><ele>136.16</ele><time>2022-07-16T06:35:44Z</time></trkpt><trkpt lat="51.3245999906" lon="37.8855474573"><ele>139.05</ele><time>2022-07-16T06:36:01Z</time></trkpt><trkpt lat="51.3248301577" lon="37.8856880218"><ele>140.49</ele><time>2022-07-16T06:36:07Z</time></trkpt><trkpt lat="51.3251495920" lon="37.8857910354"><ele>141.45</ele><time>2022-07-16T06:36:15Z</time></trkpt><trkpt lat="51.3253928348" lon="37.8859065380"><ele>141.45</ele><time>2022-07-16T06:36:21Z</time></trkpt><trkpt lat="51.3259419333" lon="37.8860020079"><ele>142.41</ele><time>2022-07-16T06:36:33Z</time></trkpt><trkpt lat="51.3266009185" lon="37.8860497009"><ele>143.37</ele><time>2022-07-16T06:36:47Z</time></trkpt><trkpt lat="51.3270229474" lon="37.8861154988"><ele>143.37</ele><time>2022-07-16T06:36:56Z</time></trkpt><trkpt lat="51.3277188968" lon="37.8864869010"><ele>144.82</ele><time>2022-07-16T06:37:11Z</time></trkpt><trkpt lat="51.3277604710" lon="37.8865218535"><ele>144.82</ele><time>2022-07-16T06:37:12Z</time></trkpt><trkpt lat="51.3284394890" lon="37.8872576170"><ele>145.30</ele><time>2022-07-16T06:37:28Z</time></trkpt><trkpt lat="51.3288727496" lon="37.8879751917"><ele>144.82</ele><time>2022-07-16T06:37:43Z</time></trkpt><trkpt lat="51.3291630149" lon="37.8885195963"><ele>144.82</ele><time>2022-07-16T06:37:56Z</time></trkpt><trkpt lat="51.3297070842" lon="37.8896147758"><ele>145.30</ele><time>2022-07-16T06:38:13Z</time></trkpt><trkpt lat="51.3298681006" lon="37.8898078110"><ele>145.78</ele><time>2022-07-16T06:38:17Z</time></trkpt><trkpt lat="51.3299506623" lon="37.8898905404"><ele>145.78</ele><time>2022-07-16T06:38:19Z</time></trkpt><trkpt lat="51.3300551008" lon="37.8900385648"><ele>146.26</ele><time>2022-07-16T06:38:22Z</time></trkpt><trkpt lat="51.3301991858" lon="37.8903579153"><ele>145.30</ele><time>2022-07-16T06:38:27Z</time></trkpt><trkpt lat="51.3303304464" lon="37.8907343466"><ele>146.74</ele><time>2022-07-16T06:38:33Z</time></trkpt><trkpt lat="51.3305406645" lon="37.8909938503"><ele>146.74</ele><time>2022-07-16T06:38:39Z</time></trkpt><trkpt lat="51.3307585940" lon="37.8913380951"><ele>147.22</ele><time>2022-07-16T06:38:46Z</time></trkpt><trkpt lat="51.3310240488" lon="37.8921025246"><ele>147.70</ele><time>2022-07-16T06:38:57Z</time></trkpt><trkpt lat="51.3312784396" lon="37.8924669698"><ele>148.18</ele><time>2022-07-16T06:39:04Z</time></trkpt><trkpt lat="51.3313333411" lon="37.8925949614"><ele>147.70</ele><time>2022-07-16T06:39:06Z</time></trkpt><trkpt lat="51.3315118756" lon="37.8929665312"><ele>148.18</ele><time>2022-07-16T06:39:12Z</time></trkpt><trkpt lat="51.3316225167" lon="37.8931522742"><ele>147.70</ele><time>2022-07-16T06:39:15Z</time></trkpt><trkpt lat="51.3317582197" lon="37.8935976047"><ele>148.18</ele><time>2022-07-16T06:39:21Z</time></trkpt><trkpt lat="51.3319804240" lon="37.8939203080"><ele>147.70</ele><time>2022-07-16T06:39:27Z</time></trkpt><trkpt lat="51.3320668414" lon="37.8941162769"><ele>147.22</ele><time>2022-07-16T06:39:30Z</time></trkpt><trkpt lat="51.3322732877" lon="37.8946155868"><ele>143.85</ele><time>2022-07-16T06:39:36Z</time></trkpt><trkpt lat="51.3323481381" lon="37.8949612565"><ele>142.89</ele><time>2022-07-16T06:39:40Z</time></trkpt><trkpt lat="51.3324804883" lon="37.8953012265"><ele>142.89</ele><time>2022-07-16T06:39:45Z</time></trkpt><trkpt lat="51.3326310273" lon="37.8956101835"><ele>144.34</ele><time>2022-07-16T06:39:50Z</time></trkpt><trkpt lat="51.3328181952" lon="37.8960398398"><ele>145.78</ele><time>2022-07-16T06:39:58Z</time></trkpt><trkpt lat="51.3329080492" lon="37.8962524887"><ele>146.74</ele><time>2022-07-16T06:40:02Z</time></trkpt><trkpt lat="51.3329917006" lon="37.8964783810"><ele>146.74</ele><time>2022-07-16T06:40:06Z</time></trkpt><trkpt lat="51.3330460154" lon="37.8966686502"><ele>147.22</ele><time>2022-07-16T06:40:09Z</time></trkpt><trkpt lat="51.3334824611" lon="37.8977173101"><ele>147.70</ele><time>2022-07-16T06:40:25Z</time></trkpt><trkpt lat="51.3340044022" lon="37.8989159223"><ele>148.66</ele><time>2022-07-16T06:40:43Z</time></trkpt><trkpt lat="51.3344497327" lon="37.8999317251"><ele>149.62</ele><time>2022-07-16T06:40:59Z</time></trkpt><trkpt lat="51.3344731182" lon="37.8999883868"><ele>149.62</ele><time>2022-07-16T06:41:00Z</time></trkpt><trkpt lat="51.3345307857" lon="37.9000858683"><ele>150.10</ele><time>2022-07-16T06:41:02Z</time></trkpt><trkpt lat="51.3346330449" lon="37.9003612977"><ele>151.06</ele><time>2022-07-16T06:41:07Z</time></trkpt><trkpt lat="51.3348415028" lon="37.9008264095"><ele>152.99</ele><time>2022-07-16T06:41:16Z</time></trkpt><trkpt lat="51.3349676505" lon="37.9011698160"><ele>153.47</ele><time>2022-07-16T06:41:22Z</time></trkpt><trkpt lat="51.3351397309" lon="37.9014175851"><ele>152.99</ele><time>2022-07-16T06:41:27Z</time></trkpt><trkpt lat="51.3352575805" lon="37.9016405437"><ele>153.47</ele><time>2022-07-16T06:41:31Z</time></trkpt><trkpt lat="51.3356671203" lon="37.9025872797"><ele>154.43</ele><time>2022-07-16T06:41:47Z</time></trkpt><trkpt lat="51.3358164020" lon="37.9030230548"><ele>154.91</ele><time>2022-07-16T06:41:54Z</time></trkpt><trkpt lat="51.3362436276" lon="37.9040316492"><ele>156.83</ele><time>2022-07-16T06:42:11Z</time></trkpt><trkpt lat="51.3366246689" lon="37.9048182908"><ele>158.27</ele><time>2022-07-16T06:42:26Z</time></trkpt><trkpt lat="51.3367369026" lon="37.9050317779"><ele>158.27</ele><time>2022-07-16T06:42:30Z</time></trkpt><trkpt lat="51.3368549198" lon="37.9053284135"><ele>158.75</ele><time>2022-07-16T06:42:35Z</time></trkpt><trkpt lat="51.3371704146" lon="37.9060663562"><ele>160.68</ele><time>2022-07-16T06:42:50Z</time></trkpt><trkpt lat="51.3374893460" lon="37.9067996889"><ele>162.60</ele><time>2022-07-16T06:43:06Z</time></trkpt><trkpt lat="51.3379014004" lon="37.9077623505"><ele>163.08</ele><time>2022-07-16T06:43:23Z</time></trkpt><trkpt lat="51.3379246183" lon="37.9078197666"><ele>163.08</ele><time>2022-07-16T06:43:24Z</time></trkpt><trkpt lat="51.3379662763" lon="37.9079347663"><ele>163.56</ele><time>2022-07-16T06:43:26Z</time></trkpt><trkpt lat="51.3380175736" lon="37.9083326552"><ele>164.04</ele><time>2022-07-16T06:43:32Z</time></trkpt><trkpt lat="51.3382188231" lon="37.9090737831"><ele>163.08</ele><time>2022-07-16T06:43:43Z</time></trkpt><trkpt lat="51.3382488303" lon="37.9091388267"><ele>163.08</ele><time>2022-07-16T06:43:44Z</time></trkpt><trkpt lat="51.3384841941" lon="37.9096601810"><ele>163.08</ele><time>2022-07-16T06:43:52Z</time></trkpt><trkpt lat="51.3387721963" lon="37.9104092717"><ele>164.52</ele><time>2022-07-16T06:44:05Z</time></trkpt><trkpt lat="51.3392332848" lon="37.9114963207"><ele>167.41</ele><time>2022-07-16T06:44:24Z</time></trkpt><trkpt lat="51.3396761846" lon="37.9124997184"><ele>170.29</ele><time>2022-07-16T06:44:42Z</time></trkpt><trkpt lat="51.3399327546" lon="37.9130872898"><ele>171.25</ele><time>2022-07-16T06:44:53Z</time></trkpt><trkpt lat="51.3401071820" lon="37.9130806681"><ele>172.21</ele><time>2022-07-16T06:44:58Z</time></trkpt><trkpt lat="51.3403700385" lon="37.9127583001"><ele>172.21</ele><time>2022-07-16T06:45:05Z</time></trkpt><trkpt lat="51.3412213046" lon="37.9123164900"><ele>174.62</ele><time>2022-07-16T06:45:23Z</time></trkpt><trkpt lat="51.3421828765" lon="37.9120164178"><ele>172.21</ele><time>2022-07-16T06:45:39Z</time></trkpt><trkpt lat="51.3423037436" lon="37.9119970556"><ele>172.69</ele><time>2022-07-16T06:45:41Z</time></trkpt><trkpt lat="51.3425407838" lon="37.9120228719"><ele>172.69</ele><time>2022-07-16T06:45:45Z</time></trkpt><trkpt lat="51.3436357956" lon="37.9126700386"><ele>174.14</ele><time>2022-07-16T06:46:05Z</time></trkpt><trkpt lat="51.3445845433" lon="37.9132341407"><ele>176.06</ele><time>2022-07-16T06:46:24Z</time></trkpt><trkpt lat="51.3453811593" lon="37.9137925431"><ele>179.42</ele><time>2022-07-16T06:46:42Z</time></trkpt><trkpt lat="51.3460857421" lon="37.9146114551"><ele>181.35</ele><time>2022-07-16T06:47:01Z</time></trkpt><trkpt lat="51.3469055761" lon="37.9155553412"><ele>178.94</ele><time>2022-07-16T06:47:19Z</time></trkpt><trkpt lat="51.3477779645" lon="37.9165744130"><ele>177.98</ele><time>2022-07-16T06:47:36Z</time></trkpt><trkpt lat="51.3482032623" lon="37.9170886427"><ele>180.87</ele><time>2022-07-16T06:47:47Z</time></trkpt><trkpt lat="51.3484455831" lon="37.9173427820"><ele>184.23</ele><time>2022-07-16T06:47:55Z</time></trkpt><trkpt lat="51.3489232678" lon="37.9179306049"><ele>184.23</ele><time>2022-07-16T06:48:09Z</time></trkpt><trkpt lat="51.3496156130" lon="37.9187526181"><ele>183.27</ele><time>2022-07-16T06:48:24Z</time></trkpt><trkpt lat="51.3504599221" lon="37.9197225720"><ele>180.38</ele><time>2022-07-16T06:48:41Z</time></trkpt><trkpt lat="51.3512498327" lon="37.9206389654"><ele>179.42</ele><time>2022-07-16T06:48:57Z</time></trkpt><trkpt lat="51.3522134162" lon="37.9217177164"><ele>179.90</ele><time>2022-07-16T06:49:18Z</time></trkpt><trkpt lat="51.3527368661" lon="37.9226704873"><ele>181.83</ele><time>2022-07-16T06:49:33Z</time></trkpt><trkpt lat="51.3533268683" lon="37.9238431156"><ele>184.23</ele><time>2022-07-16T06:49:52Z</time></trkpt><trkpt lat="51.3538664114" lon="37.9249144904"><ele>185.19</ele><time>2022-07-16T06:50:08Z</time></trkpt><trkpt lat="51.3544347044" lon="37.9260264337"><ele>186.15</ele><time>2022-07-16T06:50:24Z</time></trkpt><trkpt lat="51.3548042625" lon="37.9267576709"><ele>185.67</ele><time>2022-07-16T06:50:35Z</time></trkpt><trkpt lat="51.3551270496" lon="37.9270685557"><ele>184.23</ele><time>2022-07-16T06:50:42Z</time></trkpt><trkpt lat="51.3552945200" lon="37.9271596670"><ele>185.19</ele><time>2022-07-16T06:50:46Z</time></trkpt><trkpt lat="51.3554601464" lon="37.9272200167"><ele>185.67</ele><time>2022-07-16T06:50:50Z</time></trkpt><trkpt lat="51.3556646649" lon="37.9272687156"><ele>186.15</ele><time>2022-07-16T06:50:55Z</time></trkpt><trkpt lat="51.3559433632" lon="37.9274822865"><ele>186.15</ele><time>2022-07-16T06:51:02Z</time></trkpt><trkpt lat="51.3560866937" lon="37.9277566262"><ele>186.63</ele><time>2022-07-16T06:51:07Z</time></trkpt><trkpt lat="51.3563404139" lon="37.9286239855"><ele>185.19</ele><time>2022-07-16T06:51:19Z</time></trkpt><trkpt lat="51.3564409968" lon="37.9288166855"><ele>184.71</ele><time>2022-07-16T06:51:22Z</time></trkpt><trkpt lat="51.3565357961" lon="37.9291462619"><ele>184.71</ele><time>2022-07-16T06:51:27Z</time></trkpt><trkpt lat="51.3568139914" lon="37.9295203462"><ele>185.19</ele><time>2022-07-16T06:51:35Z</time></trkpt><trkpt lat="51.3571000658" lon="37.9299578816"><ele>185.19</ele><time>2022-07-16T06:51:44Z</time></trkpt><trkpt lat="51.3570770156" lon="37.9304908868"><ele>182.79</ele><time>2022-07-16T06:51:51Z</time></trkpt><trkpt lat="51.3570534624" lon="37.9305660725"><ele>182.31</ele><time>2022-07-16T06:51:52Z</time></trkpt><trkpt lat="51.3567964733" lon="37.9311589245"><ele>178.94</ele><time>2022-07-16T06:52:00Z</time></trkpt><trkpt lat="51.3566186931" lon="37.9314049333"><ele>176.54</ele><time>2022-07-16T06:52:04Z</time></trkpt><trkpt lat="51.3564392366" lon="37.9315687157"><ele>175.58</ele><time>2022-07-16T06:52:07Z</time></trkpt><trkpt lat="51.3563079759" lon="37.9316338431"><ele>174.62</ele><time>2022-07-16T06:52:09Z</time></trkpt><trkpt lat="51.3559060637" lon="37.9320490826"><ele>176.06</ele><time>2022-07-16T06:52:18Z</time></trkpt><trkpt lat="51.3557827659" lon="37.9323508311"><ele>179.90</ele><time>2022-07-16T06:52:28Z</time></trkpt><trkpt lat="51.3555742241" lon="37.9326145258"><ele>182.79</ele><time>2022-07-16T06:52:39Z</time></trkpt><trkpt lat="51.3551497646" lon="37.9328424297"><ele>184.23</ele><time>2022-07-16T06:52:52Z</time></trkpt><trkpt lat="51.3549148198" lon="37.9329458624"><ele>183.75</ele><time>2022-07-16T06:52:57Z</time></trkpt><trkpt lat="51.3542653061" lon="37.9331830703"><ele>184.71</ele><time>2022-07-16T06:53:11Z</time></trkpt><trkpt lat="51.3541385718" lon="37.9332421627"><ele>185.19</ele><time>2022-07-16T06:53:14Z</time></trkpt><trkpt lat="51.3536069915" lon="37.9336353578"><ele>186.15</ele><time>2022-07-16T06:53:27Z</time></trkpt><trkpt lat="51.3532543648" lon="37.9338730685"><ele>186.63</ele><time>2022-07-16T06:53:35Z</time></trkpt><trkpt lat="51.3527869061" lon="37.9343404435"><ele>188.56</ele><time>2022-07-16T06:53:49Z</time></trkpt><trkpt lat="51.3526421506" lon="37.9344515037"><ele>188.56</ele><time>2022-07-16T06:53:53Z</time></trkpt><trkpt lat="51.3522634562" lon="37.9344519228"><ele>189.04</ele><time>2022-07-16T06:54:04Z</time></trkpt><trkpt lat="51.3522126619" lon="37.9346374981"><ele>189.04</ele><time>2022-07-16T06:54:10Z</time></trkpt><trkpt lat="51.3522223849" lon="37.9348395858"><ele>190.00</ele><time>2022-07-16T06:54:16Z</time></trkpt><trkpt lat="51.3521564193" lon="37.9353071284"><ele>190.96</ele><time>2022-07-16T06:54:28Z</time></trkpt><trkpt lat="51.3521358836" lon="37.9358966276"><ele>192.40</ele><time>2022-07-16T06:54:39Z</time></trkpt><trkpt lat="51.3522062916" lon="37.9360928480"><ele>193.36</ele><time>2022-07-16T06:54:44Z</time></trkpt><trkpt lat="51.3522507157" lon="37.9363034014"><ele>193.84</ele><time>2022-07-16T06:54:49Z</time></trkpt><trkpt lat="51.3522467762" lon="37.9367624782"><ele>195.28</ele><time>2022-07-16T06:54:58Z</time></trkpt><trkpt lat="51.3522649650" lon="37.9373772908"><ele>197.21</ele><time>2022-07-16T06:55:09Z</time></trkpt><trkpt lat="51.3522656355" lon="37.9380242899"><ele>199.61</ele><time>2022-07-16T06:55:20Z</time></trkpt><trkpt lat="51.3522559125" lon="37.9383114539"><ele>200.57</ele><time>2022-07-16T06:55:27Z</time></trkpt><trkpt lat="51.3522247318" lon="37.9384190775"><ele>201.05</ele><time>2022-07-16T06:55:29Z</time></trkpt><trkpt lat="51.3519230671" lon="37.9388889670"><ele>201.05</ele><time>2022-07-16T06:55:41Z</time></trkpt><trkpt lat="51.3516115118" lon="37.9390996881"><ele>201.05</ele><time>2022-07-16T06:55:51Z</time></trkpt><trkpt lat="51.3514661696" lon="37.9393197130"><ele>201.53</ele><time>2022-07-16T06:55:56Z</time></trkpt><trkpt lat="51.3513045665" lon="37.9394923802"><ele>202.01</ele><time>2022-07-16T06:56:01Z</time></trkpt><trkpt lat="51.3511657622" lon="37.9396524746"><ele>203.46</ele><time>2022-07-16T06:56:08Z</time></trkpt><trkpt lat="51.3509429712" lon="37.9399802070"><ele>204.42</ele><time>2022-07-16T06:56:16Z</time></trkpt><trkpt lat="51.3508586492" lon="37.9400871601"><ele>204.42</ele><time>2022-07-16T06:56:19Z</time></trkpt><trkpt lat="51.3507396262" lon="37.9401792772"><ele>204.42</ele><time>2022-07-16T06:56:23Z</time></trkpt><trkpt lat="51.3506533764" lon="37.9403712228"><ele>204.90</ele><time>2022-07-16T06:56:26Z</time></trkpt><trkpt lat="51.3505364489" lon="37.9405556247"><ele>204.90</ele><time>2022-07-16T06:56:30Z</time></trkpt><trkpt lat="51.3502341136" lon="37.9410371650"><ele>204.90</ele><time>2022-07-16T06:56:41Z</time></trkpt><trkpt lat="51.3499151822" lon="37.9414576851"><ele>204.42</ele><time>2022-07-16T06:56:52Z</time></trkpt><trkpt lat="51.3497993443" lon="37.9416432604"><ele>204.90</ele><time>2022-07-16T06:56:56Z</time></trkpt><trkpt lat="51.3496718556" lon="37.9418932088"><ele>205.38</ele><time>2022-07-16T06:57:02Z</time></trkpt><trkpt lat="51.3495509047" lon="37.9420054425"><ele>204.90</ele><time>2022-07-16T06:57:06Z</time></trkpt><trkpt lat="51.3495142758" lon="37.9420815501"><ele>204.90</ele><time>2022-07-16T06:57:10Z</time></trkpt><trkpt lat="51.3493170496" lon="37.9425159004"><ele>205.38</ele><time>2022-07-16T06:57:21Z</time></trkpt><trkpt lat="51.3492257707" lon="37.9427891504"><ele>205.86</ele><time>2022-07-16T06:57:26Z</time></trkpt><trkpt lat="51.3489961904" lon="37.9430438764"><ele>206.82</ele><time>2022-07-16T06:57:33Z</time></trkpt><trkpt lat="51.3488513511" lon="37.9430984426"><ele>206.34</ele><time>2022-07-16T06:57:37Z</time></trkpt><trkpt lat="51.3487927616" lon="37.9431500752"><ele>206.82</ele><time>2022-07-16T06:57:39Z</time></trkpt><trkpt lat="51.3487237785" lon="37.9432975966"><ele>207.30</ele><time>2022-07-16T06:57:43Z</time></trkpt><trkpt lat="51.3485991396" lon="37.9434752930"><ele>207.30</ele><time>2022-07-16T06:57:48Z</time></trkpt><trkpt lat="51.3483811263" lon="37.9437833279"><ele>207.78</ele><time>2022-07-16T06:57:56Z</time></trkpt><trkpt lat="51.3483118080" lon="37.9439801350"><ele>207.78</ele><time>2022-07-16T06:58:02Z</time></trkpt><trkpt lat="51.3480642065" lon="37.9443323426"><ele>208.74</ele><time>2022-07-16T06:58:12Z</time></trkpt><trkpt lat="51.3478881028" lon="37.9445056804"><ele>208.26</ele><time>2022-07-16T06:58:17Z</time></trkpt><trkpt lat="51.3475757092" lon="37.9445302393"><ele>207.30</ele><time>2022-07-16T06:58:28Z</time></trkpt><trkpt lat="51.3475402538" lon="37.9445283115"><ele>207.30</ele><time>2022-07-16T06:58:29Z</time></trkpt><trkpt lat="51.3474244997" lon="37.9446024075"><ele>207.78</ele><time>2022-07-16T06:58:33Z</time></trkpt><trkpt lat="51.3473161217" lon="37.9445975460"><ele>207.30</ele><time>2022-07-16T06:58:39Z</time></trkpt><trkpt lat="51.3470291253" lon="37.9444294889"><ele>208.26</ele><time>2022-07-16T06:58:49Z</time></trkpt><trkpt lat="51.3469384331" lon="37.9443676304"><ele>208.74</ele><time>2022-07-16T06:58:52Z</time></trkpt><trkpt lat="51.3468769100" lon="37.9443761799"><ele>208.74</ele><time>2022-07-16T06:58:57Z</time></trkpt><trkpt lat="51.3468106929" lon="37.9444039240"><ele>208.74</ele><time>2022-07-16T06:59:06Z</time></trkpt><trkpt lat="51.3467998803" lon="37.9443597514"><ele>208.74</ele><time>2022-07-16T06:59:09Z</time></trkpt><trkpt lat="51.3466264587" lon="37.9442608450"><ele>209.22</ele><time>2022-07-16T06:59:18Z</time></trkpt><trkpt lat="51.3466013130" lon="37.9444319196"><ele>208.74</ele><time>2022-07-16T06:59:23Z</time></trkpt><trkpt lat="51.3465582300" lon="37.9448096920"><ele>209.70</ele><time>2022-07-16T06:59:32Z</time></trkpt><trkpt lat="51.3464359380" lon="37.9450702854"><ele>210.19</ele><time>2022-07-16T06:59:42Z</time></trkpt><trkpt lat="51.3462791964" lon="37.9451581277"><ele>210.19</ele><time>2022-07-16T06:59:51Z</time></trkpt><trkpt lat="51.3462242950" lon="37.9451776575"><ele>210.19</ele><time>2022-07-16T06:59:54Z</time></trkpt><trkpt lat="51.3461812958" lon="37.9452628177"><ele>210.67</ele><time>2022-07-16T06:59:58Z</time></trkpt><trkpt lat="51.3460132387" lon="37.9454576131"><ele>210.67</ele><time>2022-07-16T07:00:10Z</time></trkpt><trkpt lat="51.3459657971" lon="37.9455311224"><ele>210.67</ele><time>2022-07-16T07:00:16Z</time></trkpt><trkpt lat="51.3458178565" lon="37.9455893766"><ele>210.19</ele><time>2022-07-16T07:00:23Z</time></trkpt><trkpt lat="51.3456787169" lon="37.9458089825"><ele>210.19</ele><time>2022-07-16T07:00:32Z</time></trkpt><trkpt lat="51.3456296828" lon="37.9458830785"><ele>210.19</ele><time>2022-07-16T07:00:36Z</time></trkpt><trkpt lat="51.3453558460" lon="37.9459886905"><ele>209.70</ele><time>2022-07-16T07:00:47Z</time></trkpt><trkpt lat="51.3451240025" lon="37.9461681470"><ele>210.19</ele><time>2022-07-16T07:00:55Z</time></trkpt><trkpt lat="51.3449072465" lon="37.9462346155"><ele>208.26</ele><time>2022-07-16T07:01:02Z</time></trkpt><trkpt lat="51.3445194997" lon="37.9464752600"><ele>208.26</ele><time>2022-07-16T07:01:12Z</time></trkpt><trkpt lat="51.3441036735" lon="37.9467328358"><ele>207.78</ele><time>2022-07-16T07:01:23Z</time></trkpt><trkpt lat="51.3440260570" lon="37.9467552993"><ele>207.78</ele><time>2022-07-16T07:01:25Z</time></trkpt><trkpt lat="51.3438744284" lon="37.9468444828"><ele>207.78</ele><time>2022-07-16T07:01:29Z</time></trkpt><trkpt lat="51.3437626138" lon="37.9469003063"><ele>207.30</ele><time>2022-07-16T07:01:32Z</time></trkpt><trkpt lat="51.3434276730" lon="37.9470337462"><ele>206.82</ele><time>2022-07-16T07:01:41Z</time></trkpt><trkpt lat="51.3433155231" lon="37.9470573831"><ele>206.34</ele><time>2022-07-16T07:01:44Z</time></trkpt><trkpt lat="51.3431420177" lon="37.9472110234"><ele>205.86</ele><time>2022-07-16T07:01:50Z</time></trkpt><trkpt lat="51.3430782314" lon="37.9478520714"><ele>206.34</ele><time>2022-07-16T07:02:01Z</time></trkpt><trkpt lat="51.3430809136" lon="37.9478951544"><ele>206.34</ele><time>2022-07-16T07:02:02Z</time></trkpt><trkpt lat="51.3431066461" lon="37.9481622018"><ele>206.34</ele><time>2022-07-16T07:02:06Z</time></trkpt><trkpt lat="51.3430902176" lon="37.9487741645"><ele>207.30</ele><time>2022-07-16T07:02:16Z</time></trkpt><trkpt lat="51.3430042192" lon="37.9497294500"><ele>209.22</ele><time>2022-07-16T07:02:28Z</time></trkpt><trkpt lat="51.3430274371" lon="37.9503052030"><ele>210.19</ele><time>2022-07-16T07:02:37Z</time></trkpt><trkpt lat="51.3429621421" lon="37.9510398768"><ele>211.15</ele><time>2022-07-16T07:02:46Z</time></trkpt><trkpt lat="51.3430034649" lon="37.9516250174"><ele>213.07</ele><time>2022-07-16T07:02:56Z</time></trkpt><trkpt lat="51.3430043869" lon="37.9521561787"><ele>212.59</ele><time>2022-07-16T07:03:06Z</time></trkpt><trkpt lat="51.3430079911" lon="37.9522069730"><ele>212.59</ele><time>2022-07-16T07:03:07Z</time></trkpt><trkpt lat="51.3429833483" lon="37.9528965522"><ele>213.55</ele><time>2022-07-16T07:03:19Z</time></trkpt><trkpt lat="51.3429665007" lon="37.9529454187"><ele>213.55</ele><time>2022-07-16T07:03:20Z</time></trkpt><trkpt lat="51.3429136109" lon="37.9532375280"><ele>214.51</ele><time>2022-07-16T07:03:24Z</time></trkpt><trkpt lat="51.3429510780" lon="37.9536665138"><ele>214.99</ele><time>2022-07-16T07:03:31Z</time></trkpt><trkpt lat="51.3429902215" lon="37.9544014391"><ele>214.99</ele><time>2022-07-16T07:03:42Z</time></trkpt><trkpt lat="51.3429932389" lon="37.9545414168"><ele>214.99</ele><time>2022-07-16T07:03:44Z</time></trkpt><trkpt lat="51.3430067338" lon="37.9546962306"><ele>214.99</ele><time>2022-07-16T07:03:46Z</time></trkpt><trkpt lat="51.3429678418" lon="37.9554889072"><ele>214.99</ele><time>2022-07-16T07:03:56Z</time></trkpt><trkpt lat="51.3429698534" lon="37.9561464675"><ele>214.51</ele><time>2022-07-16T07:04:05Z</time></trkpt><trkpt lat="51.3429594599" lon="37.9567727633"><ele>214.99</ele><time>2022-07-16T07:04:14Z</time></trkpt><trkpt lat="51.3429649081" lon="37.9568413273"><ele>214.99</ele><time>2022-07-16T07:04:15Z</time></trkpt><trkpt lat="51.3430002797" lon="37.9572070297"><ele>214.03</ele><time>2022-07-16T07:04:20Z</time></trkpt><trkpt lat="51.3429468870" lon="37.9579722136"><ele>213.07</ele><time>2022-07-16T07:04:29Z</time></trkpt><trkpt lat="51.3429230824" lon="37.9583676718"><ele>212.59</ele><time>2022-07-16T07:04:34Z</time></trkpt><trkpt lat="51.3430768065" lon="37.9586723540"><ele>212.59</ele><time>2022-07-16T07:04:40Z</time></trkpt><trkpt lat="51.3432446122" lon="37.9587206338"><ele>212.59</ele><time>2022-07-16T07:04:44Z</time></trkpt><trkpt lat="51.3434052933" lon="37.9587155208"><ele>212.59</ele><time>2022-07-16T07:04:48Z</time></trkpt><trkpt lat="51.3437001687" lon="37.9586643912"><ele>212.59</ele><time>2022-07-16T07:04:55Z</time></trkpt><trkpt lat="51.3437929563" lon="37.9586688336"><ele>212.59</ele><time>2022-07-16T07:04:57Z</time></trkpt><trkpt lat="51.3441106305" lon="37.9586637206"><ele>212.11</ele><time>2022-07-16T07:05:04Z</time></trkpt><trkpt lat="51.3445760775" lon="37.9587288480"><ele>211.63</ele><time>2022-07-16T07:05:14Z</time></trkpt><trkpt lat="51.3449281175" lon="37.9587693326"><ele>211.15</ele><time>2022-07-16T07:05:22Z</time></trkpt><trkpt lat="51.3450847752" lon="37.9587124195"><ele>211.63</ele><time>2022-07-16T07:05:26Z</time></trkpt><trkpt lat="51.3454070594" lon="37.9587363079"><ele>213.07</ele><time>2022-07-16T07:05:34Z</time></trkpt><trkpt lat="51.3454795629" lon="37.9588642996"><ele>213.55</ele><time>2022-07-16T07:05:38Z</time></trkpt><trkpt lat="51.3455081452" lon="37.9589850828"><ele>214.03</ele><time>2022-07-16T07:05:41Z</time></trkpt><trkpt lat="51.3456106558" lon="37.9595781863"><ele>215.47</ele><time>2022-07-16T07:05:53Z</time></trkpt><trkpt lat="51.3458211254" lon="37.9601522628"><ele>213.55</ele><time>2022-07-16T07:06:04Z</time></trkpt><trkpt lat="51.3458897732" lon="37.9602074996"><ele>213.07</ele><time>2022-07-16T07:06:05Z</time></trkpt><trkpt lat="51.3461652026" lon="37.9603156261"><ele>212.59</ele><time>2022-07-16T07:06:11Z</time></trkpt><trkpt lat="51.3464035001" lon="37.9605037998"><ele>212.59</ele><time>2022-07-16T07:06:17Z</time></trkpt><trkpt lat="51.3467788417" lon="37.9608777165"><ele>212.59</ele><time>2022-07-16T07:06:26Z</time></trkpt><trkpt lat="51.3468723837" lon="37.9609296005"><ele>212.59</ele><time>2022-07-16T07:06:28Z</time></trkpt><trkpt lat="51.3470235094" lon="37.9610800557"><ele>211.63</ele><time>2022-07-16T07:06:32Z</time></trkpt><trkpt lat="51.3471485674" lon="37.9613352846"><ele>210.19</ele><time>2022-07-16T07:06:36Z</time></trkpt><trkpt lat="51.3472501561" lon="37.9614991508"><ele>211.63</ele><time>2022-07-16T07:06:39Z</time></trkpt><trkpt lat="51.3472836837" lon="37.9615465924"><ele>212.11</ele><time>2022-07-16T07:06:40Z</time></trkpt><trkpt lat="51.3473406807" lon="37.9616479296"><ele>212.59</ele><time>2022-07-16T07:06:42Z</time></trkpt><trkpt lat="51.3475830015" lon="37.9621035699"><ele>213.55</ele><time>2022-07-16T07:06:51Z</time></trkpt><trkpt lat="51.3475842588" lon="37.9621194955"><ele>213.55</ele><time>2022-07-16T07:06:52Z</time></trkpt><trkpt lat="51.3475517370" lon="37.9621816054"><ele>213.55</ele><time>2022-07-16T07:06:55Z</time></trkpt><trkpt lat="51.3475382421" lon="37.9622838646"><ele>214.03</ele><time>2022-07-16T07:06:58Z</time></trkpt><trkpt lat="51.3475378230" lon="37.9624002054"><ele>213.55</ele><time>2022-07-16T07:07:03Z</time></trkpt><trkpt lat="51.3475520723" lon="37.9624594655"><ele>214.03</ele><time>2022-07-16T07:07:05Z</time></trkpt><trkpt lat="51.3475545868" lon="37.9625771474"><ele>214.03</ele><time>2022-07-16T07:07:10Z</time></trkpt><trkpt lat="51.3475595322" lon="37.9626442865"><ele>214.03</ele><time>2022-07-16T07:07:13Z</time></trkpt><trkpt lat="51.3475824147" lon="37.9626980983"><ele>214.03</ele><time>2022-07-16T07:07:16Z</time></trkpt><trkpt lat="51.3475975860" lon="37.9630817380"><ele>214.03</ele><time>2022-07-16T07:07:27Z</time></trkpt><trkpt lat="51.3475861028" lon="37.9631148465"><ele>214.03</ele><time>2022-07-16T07:07:28Z</time></trkpt><trkpt lat="51.3475218974" lon="37.9632399045"><ele>214.51</ele><time>2022-07-16T07:07:34Z</time></trkpt><trkpt lat="51.3475018647" lon="37.9632658046"><ele>214.03</ele><time>2022-07-16T07:07:36Z</time></trkpt><trkpt lat="51.3474699296" lon="37.9637716524"><ele>213.07</ele><time>2022-07-16T07:07:47Z</time></trkpt><trkpt lat="51.3474054728" lon="37.9641739000"><ele>213.07</ele><time>2022-07-16T07:07:53Z</time></trkpt><trkpt lat="51.3473312929" lon="37.9648640659"><ele>213.07</ele><time>2022-07-16T07:08:00Z</time></trkpt><trkpt lat="51.3473624736" lon="37.9656174313"><ele>214.03</ele><time>2022-07-16T07:08:11Z</time></trkpt><trkpt lat="51.3474063948" lon="37.9657137394"><ele>214.03</ele><time>2022-07-16T07:08:13Z</time></trkpt><trkpt lat="51.3475374039" lon="37.9660022445"><ele>214.51</ele><time>2022-07-16T07:08:19Z</time></trkpt><trkpt lat="51.3477233145" lon="37.9662895761"><ele>214.51</ele><time>2022-07-16T07:08:25Z</time></trkpt><trkpt lat="51.3477874361" lon="37.9664285481"><ele>214.51</ele><time>2022-07-16T07:08:29Z</time></trkpt><trkpt lat="51.3478959817" lon="37.9666108545"><ele>214.51</ele><time>2022-07-16T07:08:36Z</time></trkpt><trkpt lat="51.3480561599" lon="37.9670151975"><ele>215.47</ele><time>2022-07-16T07:08:46Z</time></trkpt><trkpt lat="51.3482403941" lon="37.9672906268"><ele>216.91</ele><time>2022-07-16T07:08:56Z</time></trkpt><trkpt lat="51.3482573256" lon="37.9673441034"><ele>215.47</ele><time>2022-07-16T07:09:10Z</time></trkpt><trkpt lat="51.3482626900" lon="37.9673740268"><ele>216.43</ele><time>2022-07-16T07:09:28Z</time></trkpt><trkpt lat="51.3482980616" lon="37.9674088117"><ele>216.43</ele><time>2022-07-16T07:09:32Z</time></trkpt><trkpt lat="51.3483174238" lon="37.9674777947"><ele>215.95</ele><time>2022-07-16T07:09:35Z</time></trkpt><trkpt lat="51.3484039251" lon="37.9676432535"><ele>216.43</ele><time>2022-07-16T07:09:42Z</time></trkpt><trkpt lat="51.3485208526" lon="37.9680885002"><ele>216.91</ele><time>2022-07-16T07:09:53Z</time></trkpt><trkpt lat="51.3485673722" lon="37.9682734050"><ele>216.43</ele><time>2022-07-16T07:09:57Z</time></trkpt><trkpt lat="51.3486821204" lon="37.9686877225"><ele>216.43</ele><time>2022-07-16T07:10:07Z</time></trkpt><trkpt lat="51.3487500139" lon="37.9688199889"><ele>216.43</ele><time>2022-07-16T07:10:13Z</time></trkpt><trkpt lat="51.3487968687" lon="37.9689295404"><ele>216.43</ele><time>2022-07-16T07:10:22Z</time></trkpt><trkpt lat="51.3487837929" lon="37.9689582903"><ele>216.43</ele><time>2022-07-16T07:10:24Z</time></trkpt><trkpt lat="51.3486067671" lon="37.9691151157"><ele>216.43</ele><time>2022-07-16T07:10:35Z</time></trkpt><trkpt lat="51.3485987205" lon="37.9691407643"><ele>216.43</ele><time>2022-07-16T07:10:36Z</time></trkpt><trkpt lat="51.3485338446" lon="37.9692500643"><ele>215.95</ele><time>2022-07-16T07:10:41Z</time></trkpt><trkpt lat="51.3483720738" lon="37.9694306105"><ele>215.95</ele><time>2022-07-16T07:10:49Z</time></trkpt><trkpt lat="51.3480560761" lon="37.9698030185"><ele>214.51</ele><time>2022-07-16T07:11:01Z</time></trkpt><trkpt lat="51.3478316087" lon="37.9702151567"><ele>213.55</ele><time>2022-07-16T07:11:09Z</time></trkpt><trkpt lat="51.3475715183" lon="37.9706130456"><ele>213.07</ele><time>2022-07-16T07:11:16Z</time></trkpt><trkpt lat="51.3474193029" lon="37.9708429612"><ele>212.59</ele><time>2022-07-16T07:11:20Z</time></trkpt><trkpt lat="51.3472278602" lon="37.9711341485"><ele>211.63</ele><time>2022-07-16T07:11:25Z</time></trkpt><trkpt lat="51.3471529260" lon="37.9712462146"><ele>211.15</ele><time>2022-07-16T07:11:27Z</time></trkpt><trkpt lat="51.3469896466" lon="37.9714591987"><ele>210.67</ele><time>2022-07-16T07:11:31Z</time></trkpt><trkpt lat="51.3465726469" lon="37.9721916933"><ele>209.22</ele><time>2022-07-16T07:11:44Z</time></trkpt><trkpt lat="51.3463866524" lon="37.9724423122"><ele>207.78</ele><time>2022-07-16T07:11:50Z</time></trkpt><trkpt lat="51.3463038392" lon="37.9725902528"><ele>207.78</ele><time>2022-07-16T07:11:52Z</time></trkpt><trkpt lat="51.3461797033" lon="37.9728216771"><ele>207.30</ele><time>2022-07-16T07:11:56Z</time></trkpt><trkpt lat="51.3460592553" lon="37.9730435461"><ele>206.82</ele><time>2022-07-16T07:12:00Z</time></trkpt><trkpt lat="51.3459398132" lon="37.9732522555"><ele>206.34</ele><time>2022-07-16T07:12:04Z</time></trkpt><trkpt lat="51.3457072992" lon="37.9737297725"><ele>205.38</ele><time>2022-07-16T07:12:13Z</time></trkpt><trkpt lat="51.3453981746" lon="37.9742370453"><ele>204.42</ele><time>2022-07-16T07:12:24Z</time></trkpt><trkpt lat="51.3453781419" lon="37.9742705729"><ele>203.94</ele><time>2022-07-16T07:12:25Z</time></trkpt><trkpt lat="51.3452752959" lon="37.9742746800"><ele>203.46</ele><time>2022-07-16T07:12:34Z</time></trkpt><trkpt lat="51.3451369945" lon="37.9739844985"><ele>202.49</ele><time>2022-07-16T07:12:46Z</time></trkpt><trkpt lat="51.3450663351" lon="37.9739233945"><ele>202.01</ele><time>2022-07-16T07:12:49Z</time></trkpt><trkpt lat="51.3450048957" lon="37.9737662338"><ele>202.01</ele><time>2022-07-16T07:12:56Z</time></trkpt><trkpt lat="51.3449912332" lon="37.9736866057"><ele>202.01</ele><time>2022-07-16T07:12:59Z</time></trkpt><trkpt lat="51.3448292110" lon="37.9732287861"><ele>201.53</ele><time>2022-07-16T07:13:11Z</time></trkpt><trkpt lat="51.3448227569" lon="37.9732077476"><ele>201.53</ele><time>2022-07-16T07:13:19Z</time></trkpt><trkpt lat="51.3448429573" lon="37.9731308855"><ele>201.53</ele><time>2022-07-16T07:13:23Z</time></trkpt><trkpt lat="51.3448515069" lon="37.9729555361"><ele>201.53</ele><time>2022-07-16T07:13:28Z</time></trkpt><trkpt lat="51.3448657561" lon="37.9727936815"><ele>201.53</ele><time>2022-07-16T07:13:37Z</time></trkpt><trkpt lat="51.3448540214" lon="37.9728334118"><ele>201.53</ele><time>2022-07-16T07:13:47Z</time></trkpt><trkpt lat="51.3448459748" lon="37.9731390160"><ele>202.01</ele><time>2022-07-16T07:13:57Z</time></trkpt><trkpt lat="51.3448528480" lon="37.9732281994"><ele>202.01</ele><time>2022-07-16T07:13:59Z</time></trkpt><trkpt lat="51.3448588829" lon="37.9733062349"><ele>202.01</ele><time>2022-07-16T07:14:01Z</time></trkpt><trkpt lat="51.3448690251" lon="37.9734807462"><ele>202.01</ele><time>2022-07-16T07:14:06Z</time></trkpt><trkpt lat="51.3449740503" lon="37.9738350492"><ele>202.49</ele><time>2022-07-16T07:14:15Z</time></trkpt><trkpt lat="51.3450495712" lon="37.9739598557"><ele>202.98</ele><time>2022-07-16T07:14:19Z</time></trkpt><trkpt lat="51.3450894691" lon="37.9740852490"><ele>203.46</ele><time>2022-07-16T07:14:22Z</time></trkpt><trkpt lat="51.3451941591" lon="37.9742772784"><ele>203.94</ele><time>2022-07-16T07:14:28Z</time></trkpt><trkpt lat="51.3453352265" lon="37.9745417275"><ele>204.42</ele><time>2022-07-16T07:14:37Z</time></trkpt><trkpt lat="51.3453605399" lon="37.9750084318"><ele>204.90</ele><time>2022-07-16T07:14:49Z</time></trkpt><trkpt lat="51.3453514036" lon="37.9751857929"><ele>204.42</ele><time>2022-07-16T07:14:55Z</time></trkpt><trkpt lat="51.3453659881" lon="37.9753054027"><ele>204.42</ele><time>2022-07-16T07:14:59Z</time></trkpt><trkpt lat="51.3453773875" lon="37.9753271956"><ele>204.42</ele><time>2022-07-16T07:15:00Z</time></trkpt><trkpt lat="51.3455199637" lon="37.9754282814"><ele>204.90</ele><time>2022-07-16T07:15:09Z</time></trkpt><trkpt lat="51.3455219753" lon="37.9754019622"><ele>205.38</ele><time>2022-07-16T07:15:11Z</time></trkpt><trkpt lat="51.3454482146" lon="37.9753453005"><ele>204.90</ele><time>2022-07-16T07:15:16Z</time></trkpt><trkpt lat="51.3453928940" lon="37.9751875531"><ele>204.42</ele><time>2022-07-16T07:15:22Z</time></trkpt><trkpt lat="51.3454082329" lon="37.9750575498"><ele>204.90</ele><time>2022-07-16T07:15:25Z</time></trkpt><trkpt lat="51.3453277666" lon="37.9749525245"><ele>204.42</ele><time>2022-07-16T07:15:30Z</time></trkpt><trkpt lat="51.3452973403" lon="37.9749370180"><ele>203.94</ele><time>2022-07-16T07:15:32Z</time></trkpt><trkpt lat="51.3452360686" lon="37.9749147221"><ele>203.94</ele><time>2022-07-16T07:15:37Z</time></trkpt><trkpt lat="51.3450323883" lon="37.9747962859"><ele>202.98</ele><time>2022-07-16T07:15:49Z</time></trkpt><trkpt lat="51.3449999504" lon="37.9747544602"><ele>202.49</ele><time>2022-07-16T07:15:52Z</time></trkpt><trkpt lat="51.3447810989" lon="37.9744251352"><ele>201.53</ele><time>2022-07-16T07:16:03Z</time></trkpt><trkpt lat="51.3447028119" lon="37.9743048549"><ele>201.05</ele><time>2022-07-16T07:16:08Z</time></trkpt><trkpt lat="51.3445846271" lon="37.9742284119"><ele>200.57</ele><time>2022-07-16T07:16:13Z</time></trkpt><trkpt lat="51.3444880676" lon="37.9741631169"><ele>200.57</ele><time>2022-07-16T07:16:23Z</time></trkpt><trkpt lat="51.3443712238" lon="37.9740587622"><ele>199.61</ele><time>2022-07-16T07:16:29Z</time></trkpt><trkpt lat="51.3440489396" lon="37.9737809859"><ele>198.17</ele><time>2022-07-16T07:16:41Z</time></trkpt><trkpt lat="51.3438223768" lon="37.9735560995"><ele>196.25</ele><time>2022-07-16T07:16:51Z</time></trkpt><trkpt lat="51.3438005839" lon="37.9735560995"><ele>196.25</ele><time>2022-07-16T07:16:52Z</time></trkpt><trkpt lat="51.3436773699" lon="37.9735315405"><ele>196.25</ele><time>2022-07-16T07:16:56Z</time></trkpt><trkpt lat="51.3432442769" lon="37.9734692629"><ele>195.28</ele><time>2022-07-16T07:17:07Z</time></trkpt><trkpt lat="51.3429048099" lon="37.9733494017"><ele>191.92</ele><time>2022-07-16T07:17:15Z</time></trkpt><trkpt lat="51.3428504951" lon="37.9733354039"><ele>190.96</ele><time>2022-07-16T07:17:17Z</time></trkpt><trkpt lat="51.3427344896" lon="37.9732561950"><ele>187.59</ele><time>2022-07-16T07:17:22Z</time></trkpt><trkpt lat="51.3426474016" lon="37.9732096754"><ele>184.23</ele><time>2022-07-16T07:17:26Z</time></trkpt><trkpt lat="51.3425490819" lon="37.9731708672"><ele>180.87</ele><time>2022-07-16T07:17:29Z</time></trkpt><trkpt lat="51.3424459845" lon="37.9731249344"><ele>177.50</ele><time>2022-07-16T07:17:32Z</time></trkpt><trkpt lat="51.3422868960" lon="37.9730883054"><ele>173.66</ele><time>2022-07-16T07:17:43Z</time></trkpt><trkpt lat="51.3422410470" lon="37.9730685242"><ele>172.21</ele><time>2022-07-16T07:17:49Z</time></trkpt><trkpt lat="51.3421808649" lon="37.9729913268"><ele>168.85</ele><time>2022-07-16T07:17:57Z</time></trkpt><trkpt lat="51.3420641050" lon="37.9729314800"><ele>167.89</ele><time>2022-07-16T07:18:08Z</time></trkpt><trkpt lat="51.3419739995" lon="37.9729107767"><ele>167.89</ele><time>2022-07-16T07:18:16Z</time></trkpt><trkpt lat="51.3418242149" lon="37.9727657698"><ele>168.37</ele><time>2022-07-16T07:18:23Z</time></trkpt><trkpt lat="51.3415849954" lon="37.9727386124"><ele>171.73</ele><time>2022-07-16T07:18:32Z</time></trkpt><trkpt lat="51.3413684908" lon="37.9727913346"><ele>175.10</ele><time>2022-07-16T07:18:40Z</time></trkpt><trkpt lat="51.3412431814" lon="37.9728443921"><ele>177.02</ele><time>2022-07-16T07:18:47Z</time></trkpt><trkpt lat="51.3411419280" lon="37.9728562105"><ele>179.90</ele><time>2022-07-16T07:18:54Z</time></trkpt><trkpt lat="51.3411107473" lon="37.9728663526"><ele>180.87</ele><time>2022-07-16T07:18:56Z</time></trkpt><trkpt lat="51.3410885353" lon="37.9728814401"><ele>181.83</ele><time>2022-07-16T07:18:57Z</time></trkpt><trkpt lat="51.3410047162" lon="37.9729458131"><ele>183.27</ele><time>2022-07-16T07:19:03Z</time></trkpt><trkpt lat="51.3409576099" lon="37.9731170554"><ele>183.75</ele><time>2022-07-16T07:19:08Z</time></trkpt><trkpt lat="51.3409560174" lon="37.9731817637"><ele>183.75</ele><time>2022-07-16T07:19:10Z</time></trkpt><trkpt lat="51.3408390060" lon="37.9734878708"><ele>185.67</ele><time>2022-07-16T07:19:19Z</time></trkpt><trkpt lat="51.3407577015" lon="37.9735010304"><ele>188.56</ele><time>2022-07-16T07:19:26Z</time></trkpt><trkpt lat="51.3406944182" lon="37.9734798241"><ele>189.52</ele><time>2022-07-16T07:19:30Z</time></trkpt><trkpt lat="51.3405650854" lon="37.9734632280"><ele>190.96</ele><time>2022-07-16T07:19:38Z</time></trkpt><trkpt lat="51.3405445497" lon="37.9734701011"><ele>191.44</ele><time>2022-07-16T07:19:52Z</time></trkpt><trkpt lat="51.3405321445" lon="37.9734704364"><ele>191.44</ele><time>2022-07-16T07:20:18Z</time></trkpt><trkpt lat="51.3405314740" lon="37.9734712746"><ele>191.44</ele><time>2022-07-16T07:20:19Z</time></trkpt><trkpt lat="51.3404667657" lon="37.9734385014"><ele>192.40</ele><time>2022-07-16T07:20:23Z</time></trkpt><trkpt lat="51.3402617443" lon="37.9732742161"><ele>194.80</ele><time>2022-07-16T07:20:34Z</time></trkpt><trkpt lat="51.3398522045" lon="37.9731589649"><ele>194.80</ele><time>2022-07-16T07:20:46Z</time></trkpt><trkpt lat="51.3393930439" lon="37.9731131159"><ele>191.44</ele><time>2022-07-16T07:20:53Z</time></trkpt><trkpt lat="51.3388625532" lon="37.9730978608"><ele>190.96</ele><time>2022-07-16T07:21:00Z</time></trkpt><trkpt lat="51.3388338033" lon="37.9730953462"><ele>191.92</ele><time>2022-07-16T07:21:01Z</time></trkpt><trkpt lat="51.3387569413" lon="37.9730966873"><ele>193.84</ele><time>2022-07-16T07:21:04Z</time></trkpt><trkpt lat="51.3386480603" lon="37.9730944242"><ele>196.25</ele><time>2022-07-16T07:21:09Z</time></trkpt><trkpt lat="51.3383222558" lon="37.9730733857"><ele>199.61</ele><time>2022-07-16T07:21:23Z</time></trkpt><trkpt lat="51.3378919289" lon="37.9730540235"><ele>199.61</ele><time>2022-07-16T07:21:36Z</time></trkpt><trkpt lat="51.3375355303" lon="37.9730768222"><ele>200.57</ele><time>2022-07-16T07:21:46Z</time></trkpt><trkpt lat="51.3371699117" lon="37.9730511736"><ele>203.46</ele><time>2022-07-16T07:21:56Z</time></trkpt><trkpt lat="51.3367498107" lon="37.9730467312"><ele>204.42</ele><time>2022-07-16T07:22:06Z</time></trkpt><trkpt lat="51.3363777380" lon="37.9730148800"><ele>204.90</ele><time>2022-07-16T07:22:17Z</time></trkpt><trkpt lat="51.3361163065" lon="37.9730325658"><ele>205.38</ele><time>2022-07-16T07:22:27Z</time></trkpt><trkpt lat="51.3359964453" lon="37.9731018841"><ele>205.38</ele><time>2022-07-16T07:22:38Z</time></trkpt><trkpt lat="51.3359978702" lon="37.9731038958"><ele>205.38</ele><time>2022-07-16T07:22:39Z</time></trkpt><trkpt lat="51.3361998741" lon="37.9731066618"><ele>204.90</ele><time>2022-07-16T07:22:48Z</time></trkpt><trkpt lat="51.3363121077" lon="37.9731047340"><ele>204.90</ele><time>2022-07-16T07:22:53Z</time></trkpt><trkpt lat="51.3363596331" lon="37.9732090887"><ele>204.42</ele><time>2022-07-16T07:22:59Z</time></trkpt><trkpt lat="51.3363680989" lon="37.9734406807"><ele>204.42</ele><time>2022-07-16T07:23:05Z</time></trkpt><trkpt lat="51.3363560289" lon="37.9735604580"><ele>204.42</ele><time>2022-07-16T07:23:08Z</time></trkpt><trkpt lat="51.3364090864" lon="37.9738762882"><ele>204.42</ele><time>2022-07-16T07:23:17Z</time></trkpt><trkpt lat="51.3364618924" lon="37.9740544036"><ele>203.94</ele><time>2022-07-16T07:23:23Z</time></trkpt><trkpt lat="51.3365498185" lon="37.9742602631"><ele>204.42</ele><time>2022-07-16T07:23:31Z</time></trkpt><trkpt lat="51.3366452046" lon="37.9745015781"><ele>202.98</ele><time>2022-07-16T07:23:40Z</time></trkpt><trkpt lat="51.3366989326" lon="37.9747507721"><ele>202.49</ele><time>2022-07-16T07:23:47Z</time></trkpt><trkpt lat="51.3367719389" lon="37.9750252794"><ele>202.01</ele><time>2022-07-16T07:23:55Z</time></trkpt><trkpt lat="51.3367493916" lon="37.9752488248"><ele>202.01</ele><time>2022-07-16T07:24:02Z</time></trkpt><trkpt lat="51.3367331307" lon="37.9753870424"><ele>201.53</ele><time>2022-07-16T07:24:06Z</time></trkpt><trkpt lat="51.3367379922" lon="37.9755482264"><ele>201.05</ele><time>2022-07-16T07:24:11Z</time></trkpt><trkpt lat="51.3367592823" lon="37.9756920598"><ele>201.53</ele><time>2022-07-16T07:24:16Z</time></trkpt><trkpt lat="51.3367953245" lon="37.9758130945"><ele>201.53</ele><time>2022-07-16T07:24:19Z</time></trkpt><trkpt lat="51.3367995992" lon="37.9758407548"><ele>201.05</ele><time>2022-07-16T07:24:20Z</time></trkpt><trkpt lat="51.3368327077" lon="37.9759708419"><ele>201.05</ele><time>2022-07-16T07:24:24Z</time></trkpt><trkpt lat="51.3369986694" lon="37.9761556629"><ele>200.57</ele><time>2022-07-16T07:24:34Z</time></trkpt><trkpt lat="51.3372513838" lon="37.9762544855"><ele>198.65</ele><time>2022-07-16T07:24:45Z</time></trkpt><trkpt lat="51.3372789603" lon="37.9762694892"><ele>198.65</ele><time>2022-07-16T07:24:46Z</time></trkpt><trkpt lat="51.3375019189" lon="37.9765285738"><ele>197.21</ele><time>2022-07-16T07:24:56Z</time></trkpt><trkpt lat="51.3375768531" lon="37.9766006581"><ele>196.73</ele><time>2022-07-16T07:25:00Z</time></trkpt><trkpt lat="51.3376140688" lon="37.9766735807"><ele>196.25</ele><time>2022-07-16T07:25:03Z</time></trkpt><trkpt lat="51.3376510330" lon="37.9767877422"><ele>195.77</ele><time>2022-07-16T07:25:07Z</time></trkpt><trkpt lat="51.3376816269" lon="37.9768984672"><ele>195.77</ele><time>2022-07-16T07:25:11Z</time></trkpt><trkpt lat="51.3376935292" lon="37.9771345016"><ele>195.28</ele><time>2022-07-16T07:25:20Z</time></trkpt><trkpt lat="51.3376941998" lon="37.9771843739"><ele>195.28</ele><time>2022-07-16T07:25:22Z</time></trkpt><trkpt lat="51.3377063535" lon="37.9773079231"><ele>194.80</ele><time>2022-07-16T07:25:27Z</time></trkpt><trkpt lat="51.3376573194" lon="37.9775520880"><ele>193.84</ele><time>2022-07-16T07:25:35Z</time></trkpt><trkpt lat="51.3376673777" lon="37.9776023794"><ele>193.84</ele><time>2022-07-16T07:25:37Z</time></trkpt><trkpt lat="51.3377719838" lon="37.9777715262"><ele>191.44</ele><time>2022-07-16T07:25:44Z</time></trkpt><trkpt lat="51.3380515203" lon="37.9778982606"><ele>190.00</ele><time>2022-07-16T07:25:53Z</time></trkpt><trkpt lat="51.3382532727" lon="37.9780653957"><ele>189.04</ele><time>2022-07-16T07:26:00Z</time></trkpt><trkpt lat="51.3383344933" lon="37.9782886896"><ele>188.56</ele><time>2022-07-16T07:26:06Z</time></trkpt><trkpt lat="51.3382728025" lon="37.9786809627"><ele>187.59</ele><time>2022-07-16T07:26:16Z</time></trkpt><trkpt lat="51.3381336629" lon="37.9789755028"><ele>186.63</ele><time>2022-07-16T07:26:25Z</time></trkpt><trkpt lat="51.3380641770" lon="37.9791027401"><ele>187.59</ele><time>2022-07-16T07:26:29Z</time></trkpt><trkpt lat="51.3379179966" lon="37.9793687817"><ele>187.59</ele><time>2022-07-16T07:26:37Z</time></trkpt><trkpt lat="51.3378303219" lon="37.9795121122"><ele>187.59</ele><time>2022-07-16T07:26:42Z</time></trkpt><trkpt lat="51.3377775159" lon="37.9796314705"><ele>188.08</ele><time>2022-07-16T07:26:46Z</time></trkpt><trkpt lat="51.3376638573" lon="37.9798356537"><ele>188.56</ele><time>2022-07-16T07:26:54Z</time></trkpt><trkpt lat="51.3375929464" lon="37.9799595382"><ele>189.52</ele><time>2022-07-16T07:26:58Z</time></trkpt><trkpt lat="51.3375322614" lon="37.9801557586"><ele>188.08</ele><time>2022-07-16T07:27:04Z</time></trkpt><trkpt lat="51.3374383003" lon="37.9801773001"><ele>188.56</ele><time>2022-07-16T07:27:08Z</time></trkpt><trkpt lat="51.3372052833" lon="37.9802208859"><ele>190.48</ele><time>2022-07-16T07:27:18Z</time></trkpt><trkpt lat="51.3371917885" lon="37.9802124202"><ele>190.96</ele><time>2022-07-16T07:27:21Z</time></trkpt><trkpt lat="51.3368415087" lon="37.9801933933"><ele>191.92</ele><time>2022-07-16T07:27:33Z</time></trkpt><trkpt lat="51.3364468887" lon="37.9802050442"><ele>192.88</ele><time>2022-07-16T07:27:43Z</time></trkpt><trkpt lat="51.3360311463" lon="37.9801959079"><ele>192.88</ele><time>2022-07-16T07:27:55Z</time></trkpt><trkpt lat="51.3359302282" lon="37.9802016914"><ele>193.36</ele><time>2022-07-16T07:27:59Z</time></trkpt><trkpt lat="51.3358977903" lon="37.9803003464"><ele>192.40</ele><time>2022-07-16T07:28:03Z</time></trkpt><trkpt lat="51.3358925935" lon="37.9805054516"><ele>191.44</ele><time>2022-07-16T07:28:08Z</time></trkpt><trkpt lat="51.3359981216" lon="37.9808159173"><ele>189.04</ele><time>2022-07-16T07:28:15Z</time></trkpt><trkpt lat="51.3361189049" lon="37.9809759278"><ele>187.11</ele><time>2022-07-16T07:28:20Z</time></trkpt><trkpt lat="51.3363416959" lon="37.9809892550"><ele>187.59</ele><time>2022-07-16T07:28:30Z</time></trkpt><trkpt lat="51.3365776464" lon="37.9811354354"><ele>186.63</ele><time>2022-07-16T07:28:39Z</time></trkpt><trkpt lat="51.3367031235" lon="37.9815167282"><ele>183.27</ele><time>2022-07-16T07:28:46Z</time></trkpt><trkpt lat="51.3367099967" lon="37.9815543629"><ele>182.79</ele><time>2022-07-16T07:28:47Z</time></trkpt><trkpt lat="51.3367275987" lon="37.9816211667"><ele>181.35</ele><time>2022-07-16T07:28:49Z</time></trkpt><trkpt lat="51.3367329631" lon="37.9817225877"><ele>178.46</ele><time>2022-07-16T07:28:53Z</time></trkpt><trkpt lat="51.3367467932" lon="37.9818460532"><ele>176.54</ele><time>2022-07-16T07:28:56Z</time></trkpt><trkpt lat="51.3367691729" lon="37.9818570334"><ele>176.06</ele><time>2022-07-16T07:28:57Z</time></trkpt><trkpt lat="51.3368555065" lon="37.9821542557"><ele>174.62</ele><time>2022-07-16T07:29:02Z</time></trkpt><trkpt lat="51.3368425146" lon="37.9825529829"><ele>170.77</ele><time>2022-07-16T07:29:11Z</time></trkpt><trkpt lat="51.3368484657" lon="37.9826007597"><ele>170.29</ele><time>2022-07-16T07:29:12Z</time></trkpt><trkpt lat="51.3370813150" lon="37.9829206131"><ele>167.89</ele><time>2022-07-16T07:29:18Z</time></trkpt><trkpt lat="51.3373025972" lon="37.9832094535"><ele>164.52</ele><time>2022-07-16T07:29:30Z</time></trkpt><trkpt lat="51.3373276591" lon="37.9832249600"><ele>164.52</ele><time>2022-07-16T07:29:32Z</time></trkpt><trkpt lat="51.3374099694" lon="37.9832648579"><ele>164.52</ele><time>2022-07-16T07:29:37Z</time></trkpt><trkpt lat="51.3375835586" lon="37.9833692964"><ele>165.48</ele><time>2022-07-16T07:29:48Z</time></trkpt><trkpt lat="51.3376714010" lon="37.9834365193"><ele>166.45</ele><time>2022-07-16T07:29:52Z</time></trkpt><trkpt lat="51.3377521187" lon="37.9834561329"><ele>167.41</ele><time>2022-07-16T07:29:56Z</time></trkpt><trkpt lat="51.3378884085" lon="37.9834882356"><ele>168.85</ele><time>2022-07-16T07:30:04Z</time></trkpt><trkpt lat="51.3380905800" lon="37.9834123794"><ele>170.29</ele><time>2022-07-16T07:30:14Z</time></trkpt><trkpt lat="51.3381110318" lon="37.9833989684"><ele>170.77</ele><time>2022-07-16T07:30:16Z</time></trkpt><trkpt lat="51.3383220043" lon="37.9831451643"><ele>170.77</ele><time>2022-07-16T07:30:25Z</time></trkpt><trkpt lat="51.3383426238" lon="37.9830891732"><ele>170.77</ele><time>2022-07-16T07:30:27Z</time></trkpt><trkpt lat="51.3384752255" lon="37.9828010034"><ele>170.77</ele><time>2022-07-16T07:30:34Z</time></trkpt><trkpt lat="51.3385002036" lon="37.9826014303"><ele>172.21</ele><time>2022-07-16T07:30:38Z</time></trkpt><trkpt lat="51.3385393471" lon="37.9822515696"><ele>173.66</ele><time>2022-07-16T07:30:46Z</time></trkpt><trkpt lat="51.3385374192" lon="37.9821773898"><ele>173.66</ele><time>2022-07-16T07:30:47Z</time></trkpt><trkpt lat="51.3385427836" lon="37.9819520004"><ele>174.62</ele><time>2022-07-16T07:31:00Z</time></trkpt><trkpt lat="51.3385397661" lon="37.9819346499"><ele>174.14</ele><time>2022-07-16T07:31:30Z</time></trkpt><trkpt lat="51.3385460526" lon="37.9818902258"><ele>174.62</ele><time>2022-07-16T07:31:49Z</time></trkpt><trkpt lat="51.3385478966" lon="37.9818382580"><ele>175.10</ele><time>2022-07-16T07:31:51Z</time></trkpt><trkpt lat="51.3385447115" lon="37.9816920776"><ele>175.58</ele><time>2022-07-16T07:31:56Z</time></trkpt><trkpt lat="51.3385488186" lon="37.9814732261"><ele>177.02</ele><time>2022-07-16T07:32:03Z</time></trkpt><trkpt lat="51.3384841103" lon="37.9812047537"><ele>178.46</ele><time>2022-07-16T07:32:12Z</time></trkpt><trkpt lat="51.3384852838" lon="37.9811596591"><ele>178.46</ele><time>2022-07-16T07:32:13Z</time></trkpt><trkpt lat="51.3384825177" lon="37.9811041709"><ele>178.94</ele><time>2022-07-16T07:32:15Z</time></trkpt><trkpt lat="51.3384655025" lon="37.9809447471"><ele>179.90</ele><time>2022-07-16T07:32:20Z</time></trkpt><trkpt lat="51.3384032249" lon="37.9807060305"><ele>180.87</ele><time>2022-07-16T07:32:28Z</time></trkpt><trkpt lat="51.3385201525" lon="37.9806176852"><ele>179.90</ele><time>2022-07-16T07:32:35Z</time></trkpt><trkpt lat="51.3387181330" lon="37.9806961399"><ele>178.46</ele><time>2022-07-16T07:32:44Z</time></trkpt><trkpt lat="51.3388655707" lon="37.9808194377"><ele>177.02</ele><time>2022-07-16T07:32:52Z</time></trkpt><trkpt lat="51.3389763795" lon="37.9809602536"><ele>174.62</ele><time>2022-07-16T07:32:58Z</time></trkpt><trkpt lat="51.3391325343" lon="37.9810814559"><ele>171.73</ele><time>2022-07-16T07:33:05Z</time></trkpt><trkpt lat="51.3392185327" lon="37.9811052606"><ele>169.81</ele><time>2022-07-16T07:33:09Z</time></trkpt><trkpt lat="51.3393128291" lon="37.9810329247"><ele>168.37</ele><time>2022-07-16T07:33:14Z</time></trkpt><trkpt lat="51.3394605182" lon="37.9808289092"><ele>167.89</ele><time>2022-07-16T07:33:23Z</time></trkpt><trkpt lat="51.3395150844" lon="37.9807640333"><ele>167.89</ele><time>2022-07-16T07:33:26Z</time></trkpt><trkpt lat="51.3397243805" lon="37.9806422442"><ele>167.41</ele><time>2022-07-16T07:33:36Z</time></trkpt><trkpt lat="51.3397793658" lon="37.9806191940"><ele>167.89</ele><time>2022-07-16T07:33:39Z</time></trkpt><trkpt lat="51.3399355207" lon="37.9807187710"><ele>166.45</ele><time>2022-07-16T07:33:47Z</time></trkpt><trkpt lat="51.3399584033" lon="37.9809570685"><ele>165.00</ele><time>2022-07-16T07:33:52Z</time></trkpt><trkpt lat="51.3398006558" lon="37.9813939333"><ele>165.00</ele><time>2022-07-16T07:34:03Z</time></trkpt><trkpt lat="51.3397589978" lon="37.9815300554"><ele>165.00</ele><time>2022-07-16T07:34:06Z</time></trkpt><trkpt lat="51.3396377955" lon="37.9820414353"><ele>165.00</ele><time>2022-07-16T07:34:15Z</time></trkpt><trkpt lat="51.3396257255" lon="37.9823042080"><ele>164.04</ele><time>2022-07-16T07:34:19Z</time></trkpt><trkpt lat="51.3396068662" lon="37.9825968202"><ele>162.60</ele><time>2022-07-16T07:34:23Z</time></trkpt><trkpt lat="51.3395871688" lon="37.9828183539"><ele>161.16</ele><time>2022-07-16T07:34:26Z</time></trkpt><trkpt lat="51.3395099714" lon="37.9831918515"><ele>157.31</ele><time>2022-07-16T07:34:33Z</time></trkpt><trkpt lat="51.3394897711" lon="37.9833464138"><ele>156.35</ele><time>2022-07-16T07:34:37Z</time></trkpt><trkpt lat="51.3394590095" lon="37.9835325759"><ele>155.39</ele><time>2022-07-16T07:34:48Z</time></trkpt><trkpt lat="51.3394541480" lon="37.9835384432"><ele>155.39</ele><time>2022-07-16T07:34:51Z</time></trkpt><trkpt lat="51.3393363822" lon="37.9839031398"><ele>152.99</ele><time>2022-07-16T07:34:58Z</time></trkpt><trkpt lat="51.3391731028" lon="37.9843923915"><ele>151.54</ele><time>2022-07-16T07:35:04Z</time></trkpt><trkpt lat="51.3390281796" lon="37.9847383127"><ele>150.58</ele><time>2022-07-16T07:35:09Z</time></trkpt><trkpt lat="51.3389891200" lon="37.9855525307"><ele>150.58</ele><time>2022-07-16T07:35:21Z</time></trkpt><trkpt lat="51.3389282674" lon="37.9860059079"><ele>149.62</ele><time>2022-07-16T07:35:28Z</time></trkpt><trkpt lat="51.3389069773" lon="37.9862874560"><ele>149.14</ele><time>2022-07-16T07:35:32Z</time></trkpt><trkpt lat="51.3388755452" lon="37.9869280849"><ele>148.66</ele><time>2022-07-16T07:35:43Z</time></trkpt><trkpt lat="51.3388013653" lon="37.9875016585"><ele>148.18</ele><time>2022-07-16T07:35:52Z</time></trkpt><trkpt lat="51.3387102541" lon="37.9883176368"><ele>147.22</ele><time>2022-07-16T07:36:04Z</time></trkpt><trkpt lat="51.3386931550" lon="37.9887415934"><ele>147.22</ele><time>2022-07-16T07:36:10Z</time></trkpt><trkpt lat="51.3387478050" lon="37.9898714740"><ele>147.22</ele><time>2022-07-16T07:36:26Z</time></trkpt><trkpt lat="51.3388798200" lon="37.9908856004"><ele>145.30</ele><time>2022-07-16T07:36:40Z</time></trkpt><trkpt lat="51.3389890362" lon="37.9913699068"><ele>144.34</ele><time>2022-07-16T07:36:47Z</time></trkpt><trkpt lat="51.3390052132" lon="37.9920835420"><ele>143.85</ele><time>2022-07-16T07:37:00Z</time></trkpt><trkpt lat="51.3389975019" lon="37.9921900760"><ele>143.85</ele><time>2022-07-16T07:37:04Z</time></trkpt><trkpt lat="51.3389791455" lon="37.9922526889"><ele>144.34</ele><time>2022-07-16T07:37:08Z</time></trkpt><trkpt lat="51.3389617950" lon="37.9922252800"><ele>144.34</ele><time>2022-07-16T07:37:11Z</time></trkpt><trkpt lat="51.3390494697" lon="37.9919677041"><ele>143.85</ele><time>2022-07-16T07:37:18Z</time></trkpt><trkpt lat="51.3391727675" lon="37.9920987971"><ele>143.85</ele><time>2022-07-16T07:37:25Z</time></trkpt><trkpt lat="51.3393675629" lon="37.9924240150"><ele>143.85</ele><time>2022-07-16T07:37:34Z</time></trkpt><trkpt lat="51.3394995779" lon="37.9925451335"><ele>144.34</ele><time>2022-07-16T07:37:39Z</time></trkpt><trkpt lat="51.3395431638" lon="37.9926057346"><ele>145.30</ele><time>2022-07-16T07:37:42Z</time></trkpt><trkpt lat="51.3395851571" lon="37.9928333033"><ele>144.82</ele><time>2022-07-16T07:37:53Z</time></trkpt><trkpt lat="51.3395999093" lon="37.9928255081"><ele>144.82</ele><time>2022-07-16T07:38:00Z</time></trkpt><trkpt lat="51.3395760208" lon="37.9928928148"><ele>144.82</ele><time>2022-07-16T07:38:04Z</time></trkpt><trkpt lat="51.3395246398" lon="37.9929964151"><ele>144.82</ele><time>2022-07-16T07:38:13Z</time></trkpt><trkpt lat="51.3395302556" lon="37.9929940682"><ele>144.82</ele><time>2022-07-16T07:38:14Z</time></trkpt><trkpt lat="51.3396052737" lon="37.9928591195"><ele>145.30</ele><time>2022-07-16T07:38:24Z</time></trkpt><trkpt lat="51.3396211155" lon="37.9928414337"><ele>145.30</ele><time>2022-07-16T07:38:26Z</time></trkpt><trkpt lat="51.3397185970" lon="37.9929822497"><ele>148.66</ele><time>2022-07-16T07:38:39Z</time></trkpt><trkpt lat="51.3397947885" lon="37.9930702597"><ele>151.54</ele><time>2022-07-16T07:38:50Z</time></trkpt><trkpt lat="51.3398377039" lon="37.9931238201"><ele>154.91</ele><time>2022-07-16T07:39:04Z</time></trkpt><trkpt lat="51.3398500253" lon="37.9931632988"><ele>156.35</ele><time>2022-07-16T07:39:19Z</time></trkpt><trkpt lat="51.3398756739" lon="37.9931985028"><ele>156.35</ele><time>2022-07-16T07:40:03Z</time></trkpt><trkpt lat="51.3398908451" lon="37.9931866005"><ele>157.31</ele><time>2022-07-16T07:40:38Z</time></trkpt><trkpt lat="51.3399367779" lon="37.9932041187"><ele>160.20</ele><time>2022-07-16T07:40:48Z</time></trkpt><trkpt lat="51.3399393763" lon="37.9932112433"><ele>160.20</ele><time>2022-07-16T07:41:04Z</time></trkpt><trkpt lat="51.3399347663" lon="37.9932150990"><ele>160.68</ele><time>2022-07-16T07:41:36Z</time></trkpt><trkpt lat="51.3399575651" lon="37.9932461120"><ele>162.12</ele><time>2022-07-16T07:41:39Z</time></trkpt><trkpt lat="51.3400104549" lon="37.9932864290"><ele>165.00</ele><time>2022-07-16T07:41:50Z</time></trkpt><trkpt lat="51.3400320802" lon="37.9932710063"><ele>165.48</ele><time>2022-07-16T07:42:03Z</time></trkpt><trkpt lat="51.3400281407" lon="37.9932727665"><ele>165.48</ele><time>2022-07-16T07:42:32Z</time></trkpt><trkpt lat="51.3400796056" lon="37.9933419172"><ele>168.37</ele><time>2022-07-16T07:42:43Z</time></trkpt><trkpt lat="51.3401183300" lon="37.9934045300"><ele>170.29</ele><time>2022-07-16T07:42:58Z</time></trkpt><trkpt lat="51.3401258737" lon="37.9934475292"><ele>170.77</ele><time>2022-07-16T07:43:13Z</time></trkpt><trkpt lat="51.3401214313" lon="37.9934334476"><ele>170.77</ele><time>2022-07-16T07:43:36Z</time></trkpt><trkpt lat="51.3401426375" lon="37.9934632033"><ele>171.25</ele><time>2022-07-16T07:43:54Z</time></trkpt><trkpt lat="51.3401537016" lon="37.9934842419"><ele>171.25</ele><time>2022-07-16T07:43:56Z</time></trkpt><trkpt lat="51.3402690366" lon="37.9937770218"><ele>171.73</ele><time>2022-07-16T07:44:12Z</time></trkpt><trkpt lat="51.3402383588" lon="37.9939366970"><ele>168.85</ele><time>2022-07-16T07:44:18Z</time></trkpt><trkpt lat="51.3401799370" lon="37.9940598272"><ele>165.00</ele><time>2022-07-16T07:44:21Z</time></trkpt><trkpt lat="51.3401055895" lon="37.9944198299"><ele>162.60</ele><time>2022-07-16T07:44:33Z</time></trkpt><trkpt lat="51.3400230277" lon="37.9947154596"><ele>165.96</ele><time>2022-07-16T07:44:44Z</time></trkpt><trkpt lat="51.3399882428" lon="37.9948646575"><ele>169.33</ele><time>2022-07-16T07:44:51Z</time></trkpt><trkpt lat="51.3399751671" lon="37.9950162023"><ele>173.17</ele><time>2022-07-16T07:45:01Z</time></trkpt><trkpt lat="51.3399828784" lon="37.9950265959"><ele>172.21</ele><time>2022-07-16T07:45:23Z</time></trkpt><trkpt lat="51.3399989717" lon="37.9952022806"><ele>168.37</ele><time>2022-07-16T07:45:30Z</time></trkpt><trkpt lat="51.3400090300" lon="37.9953349661"><ele>165.48</ele><time>2022-07-16T07:45:33Z</time></trkpt><trkpt lat="51.3400082756" lon="37.9954819847"><ele>161.64</ele><time>2022-07-16T07:45:36Z</time></trkpt><trkpt lat="51.3399771787" lon="37.9958982300"><ele>160.20</ele><time>2022-07-16T07:45:47Z</time></trkpt><trkpt lat="51.3399311621" lon="37.9961169977"><ele>162.12</ele><time>2022-07-16T07:45:55Z</time></trkpt><trkpt lat="51.3399156556" lon="37.9962122999"><ele>164.04</ele><time>2022-07-16T07:45:59Z</time></trkpt><trkpt lat="51.3398957904" lon="37.9963221867"><ele>166.93</ele><time>2022-07-16T07:46:05Z</time></trkpt><trkpt lat="51.3398390450" lon="37.9963959474"><ele>166.45</ele><time>2022-07-16T07:46:09Z</time></trkpt><trkpt lat="51.3397947047" lon="37.9964889865"><ele>164.52</ele><time>2022-07-16T07:46:11Z</time></trkpt><trkpt lat="51.3397051021" lon="37.9968214128"><ele>159.72</ele><time>2022-07-16T07:46:15Z</time></trkpt><trkpt lat="51.3396845665" lon="37.9969397653"><ele>162.12</ele><time>2022-07-16T07:46:20Z</time></trkpt><trkpt lat="51.3397269789" lon="37.9972269293"><ele>161.16</ele><time>2022-07-16T07:46:32Z</time></trkpt><trkpt lat="51.3396862429" lon="37.9976249021"><ele>160.20</ele><time>2022-07-16T07:46:42Z</time></trkpt><trkpt lat="51.3397039287" lon="37.9976061266"><ele>160.20</ele><time>2022-07-16T07:47:03Z</time></trkpt><trkpt lat="51.3396957982" lon="37.9976447672"><ele>160.68</ele><time>2022-07-16T07:47:37Z</time></trkpt><trkpt lat="51.3397176750" lon="37.9980133194"><ele>158.27</ele><time>2022-07-16T07:47:50Z</time></trkpt><trkpt lat="51.3397124782" lon="37.9981022514"><ele>156.83</ele><time>2022-07-16T07:47:52Z</time></trkpt><trkpt lat="51.3395917788" lon="37.9982848093"><ele>159.72</ele><time>2022-07-16T07:48:02Z</time></trkpt><trkpt lat="51.3395548984" lon="37.9983465001"><ele>161.64</ele><time>2022-07-16T07:48:10Z</time></trkpt><trkpt lat="51.3395167608" lon="37.9984314926"><ele>165.00</ele><time>2022-07-16T07:48:20Z</time></trkpt><trkpt lat="51.3394848257" lon="37.9985160660"><ele>168.37</ele><time>2022-07-16T07:48:31Z</time></trkpt><trkpt lat="51.3394670561" lon="37.9985569697"><ele>168.85</ele><time>2022-07-16T07:48:49Z</time></trkpt><trkpt lat="51.3394693192" lon="37.9985457379"><ele>169.33</ele><time>2022-07-16T07:49:11Z</time></trkpt><trkpt lat="51.3394575845" lon="37.9985491745"><ele>169.33</ele><time>2022-07-16T07:49:26Z</time></trkpt><trkpt lat="51.3394549862" lon="37.9985453188"><ele>168.85</ele><time>2022-07-16T07:49:46Z</time></trkpt><trkpt lat="51.3394420780" lon="37.9986026511"><ele>170.77</ele><time>2022-07-16T07:50:07Z</time></trkpt><trkpt lat="51.3394290861" lon="37.9986418784"><ele>171.73</ele><time>2022-07-16T07:50:11Z</time></trkpt><trkpt lat="51.3393902779" lon="37.9987172317"><ele>172.21</ele><time>2022-07-16T07:50:24Z</time></trkpt><trkpt lat="51.3393892720" lon="37.9987192433"><ele>172.21</ele><time>2022-07-16T07:50:26Z</time></trkpt><trkpt lat="51.3392875995" lon="37.9988173116"><ele>168.85</ele><time>2022-07-16T07:50:34Z</time></trkpt><trkpt lat="51.3392807264" lon="37.9988303035"><ele>168.37</ele><time>2022-07-16T07:50:35Z</time></trkpt><trkpt lat="51.3392284233" lon="37.9989302997"><ele>168.85</ele><time>2022-07-16T07:50:41Z</time></trkpt><trkpt lat="51.3392306026" lon="37.9989924934"><ele>169.81</ele><time>2022-07-16T07:50:44Z</time></trkpt><trkpt lat="51.3391891122" lon="37.9990542680"><ele>171.25</ele><time>2022-07-16T07:50:51Z</time></trkpt><trkpt lat="51.3391316123" lon="37.9991788231"><ele>173.66</ele><time>2022-07-16T07:51:00Z</time></trkpt><trkpt lat="51.3390975818" lon="37.9992778972"><ele>175.10</ele><time>2022-07-16T07:51:06Z</time></trkpt><trkpt lat="51.3390650600" lon="37.9993315414"><ele>175.10</ele><time>2022-07-16T07:51:10Z</time></trkpt><trkpt lat="51.3390013576" lon="37.9994854331"><ele>174.14</ele><time>2022-07-16T07:51:21Z</time></trkpt><trkpt lat="51.3389893714" lon="37.9995264206"><ele>174.62</ele><time>2022-07-16T07:51:26Z</time></trkpt><trkpt lat="51.3389653992" lon="37.9995840043"><ele>173.66</ele><time>2022-07-16T07:51:31Z</time></trkpt><trkpt lat="51.3388992660" lon="37.9997399077"><ele>173.17</ele><time>2022-07-16T07:51:42Z</time></trkpt><trkpt lat="51.3388343062" lon="37.9999497905"><ele>173.66</ele><time>2022-07-16T07:51:55Z</time></trkpt><trkpt lat="51.3388207275" lon="38.0000933725"><ele>176.06</ele><time>2022-07-16T07:52:06Z</time></trkpt><trkpt lat="51.3388125971" lon="38.0001087952"><ele>176.06</ele><time>2022-07-16T07:52:11Z</time></trkpt><trkpt lat="51.3387338910" lon="38.0003287364"><ele>174.14</ele><time>2022-07-16T07:52:22Z</time></trkpt><trkpt lat="51.3386978488" lon="38.0004449934"><ele>172.69</ele><time>2022-07-16T07:52:26Z</time></trkpt><trkpt lat="51.3386706077" lon="38.0005597416"><ele>172.21</ele><time>2022-07-16T07:52:35Z</time></trkpt><trkpt lat="51.3386189751" lon="38.0007453170"><ele>174.14</ele><time>2022-07-16T07:52:47Z</time></trkpt><trkpt lat="51.3385301270" lon="38.0009165592"><ele>172.69</ele><time>2022-07-16T07:53:00Z</time></trkpt><trkpt lat="51.3384013809" lon="38.0011008773"><ele>170.29</ele><time>2022-07-16T07:53:15Z</time></trkpt><trkpt lat="51.3383988664" lon="38.0010997877"><ele>169.81</ele><time>2022-07-16T07:53:18Z</time></trkpt><trkpt lat="51.3383524306" lon="38.0012418609"><ele>170.77</ele><time>2022-07-16T07:53:28Z</time></trkpt><trkpt lat="51.3382603135" lon="38.0014188029"><ele>170.77</ele><time>2022-07-16T07:53:36Z</time></trkpt><trkpt lat="51.3382165600" lon="38.0015535001"><ele>171.25</ele><time>2022-07-16T07:53:41Z</time></trkpt><trkpt lat="51.3380895741" lon="38.0020249821"><ele>171.25</ele><time>2022-07-16T07:53:55Z</time></trkpt><trkpt lat="51.3380068447" lon="38.0022089649"><ele>167.89</ele><time>2022-07-16T07:54:01Z</time></trkpt><trkpt lat="51.3379362691" lon="38.0024247151"><ele>165.00</ele><time>2022-07-16T07:54:05Z</time></trkpt><trkpt lat="51.3378665317" lon="38.0028025713"><ele>165.00</ele><time>2022-07-16T07:54:14Z</time></trkpt><trkpt lat="51.3378746621" lon="38.0029450636"><ele>169.33</ele><time>2022-07-16T07:54:25Z</time></trkpt><trkpt lat="51.3378796913" lon="38.0030369293"><ele>172.21</ele><time>2022-07-16T07:54:39Z</time></trkpt><trkpt lat="51.3378587365" lon="38.0031613167"><ele>174.14</ele><time>2022-07-16T07:54:49Z</time></trkpt><trkpt lat="51.3378368597" lon="38.0033064075"><ele>175.58</ele><time>2022-07-16T07:55:03Z</time></trkpt><trkpt lat="51.3378398772" lon="38.0033153761"><ele>175.58</ele><time>2022-07-16T07:55:06Z</time></trkpt><trkpt lat="51.3378326688" lon="38.0033664219"><ele>175.58</ele><time>2022-07-16T07:55:09Z</time></trkpt><trkpt lat="51.3378142286" lon="38.0035724491"><ele>175.58</ele><time>2022-07-16T07:55:16Z</time></trkpt><trkpt lat="51.3377817068" lon="38.0037226528"><ele>175.10</ele><time>2022-07-16T07:55:22Z</time></trkpt><trkpt lat="51.3377035037" lon="38.0038935598"><ele>171.73</ele><time>2022-07-16T07:55:35Z</time></trkpt><trkpt lat="51.3376231212" lon="38.0039826594"><ele>167.89</ele><time>2022-07-16T07:55:41Z</time></trkpt><trkpt lat="51.3375580776" lon="38.0040233955"><ele>164.52</ele><time>2022-07-16T07:55:44Z</time></trkpt><trkpt lat="51.3374649547" lon="38.0040741898"><ele>160.20</ele><time>2022-07-16T07:55:48Z</time></trkpt><trkpt lat="51.3374320976" lon="38.0040912051"><ele>158.75</ele><time>2022-07-16T07:55:49Z</time></trkpt><trkpt lat="51.3373107277" lon="38.0041258223"><ele>152.99</ele><time>2022-07-16T07:55:52Z</time></trkpt><trkpt lat="51.3371899445" lon="38.0041710846"><ele>147.70</ele><time>2022-07-16T07:55:55Z</time></trkpt><trkpt lat="51.3371542376" lon="38.0041974038"><ele>143.37</ele><time>2022-07-16T07:55:57Z</time></trkpt><trkpt lat="51.3371600211" lon="38.0042017624"><ele>143.37</ele><time>2022-07-16T07:56:06Z</time></trkpt><trkpt lat="51.3369365595" lon="38.0042303447"><ele>140.97</ele><time>2022-07-16T07:56:16Z</time></trkpt><trkpt lat="51.3367872778" lon="38.0042773671"><ele>140.49</ele><time>2022-07-16T07:56:28Z</time></trkpt><trkpt lat="51.3366247527" lon="38.0042903591"><ele>139.53</ele><time>2022-07-16T07:56:38Z</time></trkpt><trkpt lat="51.3364543486" lon="38.0047472566"><ele>139.05</ele><time>2022-07-16T07:56:51Z</time></trkpt><trkpt lat="51.3362617325" lon="38.0052085128"><ele>139.53</ele><time>2022-07-16T07:57:03Z</time></trkpt><trkpt lat="51.3361398596" lon="38.0053156335"><ele>139.53</ele><time>2022-07-16T07:57:08Z</time></trkpt><trkpt lat="51.3359791785" lon="38.0056255125"><ele>139.53</ele><time>2022-07-16T07:57:15Z</time></trkpt><trkpt lat="51.3359240256" lon="38.0057414342"><ele>139.53</ele><time>2022-07-16T07:57:17Z</time></trkpt><trkpt lat="51.3358521089" lon="38.0059082340"><ele>139.53</ele><time>2022-07-16T07:57:20Z</time></trkpt><trkpt lat="51.3357576448" lon="38.0061637145"><ele>139.53</ele><time>2022-07-16T07:57:24Z</time></trkpt><trkpt lat="51.3356010709" lon="38.0065164249"><ele>139.53</ele><time>2022-07-16T07:57:30Z</time></trkpt><trkpt lat="51.3354927767" lon="38.0067438260"><ele>139.53</ele><time>2022-07-16T07:57:34Z</time></trkpt><trkpt lat="51.3353188522" lon="38.0071339197"><ele>139.53</ele><time>2022-07-16T07:57:40Z</time></trkpt><trkpt lat="51.3350378070" lon="38.0075018015"><ele>139.53</ele><time>2022-07-16T07:57:47Z</time></trkpt><trkpt lat="51.3348555006" lon="38.0076889694"><ele>140.01</ele><time>2022-07-16T07:57:51Z</time></trkpt><trkpt lat="51.3342327252" lon="38.0083653890"><ele>139.05</ele><time>2022-07-16T07:58:04Z</time></trkpt><trkpt lat="51.3335481752" lon="38.0091168266"><ele>138.57</ele><time>2022-07-16T07:58:18Z</time></trkpt><trkpt lat="51.3327604439" lon="38.0100043025"><ele>137.61</ele><time>2022-07-16T07:58:36Z</time></trkpt><trkpt lat="51.3326342963" lon="38.0101141892"><ele>137.13</ele><time>2022-07-16T07:58:39Z</time></trkpt><trkpt lat="51.3325281814" lon="38.0105296802"><ele>136.16</ele><time>2022-07-16T07:58:46Z</time></trkpt><trkpt lat="51.3325770479" lon="38.0106905289"><ele>136.16</ele><time>2022-07-16T07:58:48Z</time></trkpt><trkpt lat="51.3330637850" lon="38.0118194036"><ele>137.13</ele><time>2022-07-16T07:59:05Z</time></trkpt><trkpt lat="51.3332121447" lon="38.0121275224"><ele>137.61</ele><time>2022-07-16T07:59:10Z</time></trkpt><trkpt lat="51.3332493603" lon="38.0122439470"><ele>137.13</ele><time>2022-07-16T07:59:17Z</time></trkpt><trkpt lat="51.3332456723" lon="38.0122618005"><ele>137.13</ele><time>2022-07-16T07:59:28Z</time></trkpt><trkpt lat="51.3334428985" lon="38.0126031954"><ele>138.57</ele><time>2022-07-16T07:59:38Z</time></trkpt><trkpt lat="51.3340368401" lon="38.0135116260"><ele>141.45</ele><time>2022-07-16T07:59:58Z</time></trkpt><trkpt lat="51.3346999325" lon="38.0145833362"><ele>141.93</ele><time>2022-07-16T08:00:17Z</time></trkpt><trkpt lat="51.3354204409" lon="38.0159501731"><ele>142.41</ele><time>2022-07-16T08:00:37Z</time></trkpt><trkpt lat="51.3360423781" lon="38.0172407348"><ele>141.93</ele><time>2022-07-16T08:00:54Z</time></trkpt><trkpt lat="51.3368132617" lon="38.0185746308"><ele>141.45</ele><time>2022-07-16T08:01:13Z</time></trkpt><trkpt lat="51.3376998156" lon="38.0200594850"><ele>141.93</ele><time>2022-07-16T08:01:35Z</time></trkpt><trkpt lat="51.3377825450" lon="38.0201809388"><ele>141.93</ele><time>2022-07-16T08:01:37Z</time></trkpt><trkpt lat="51.3379230257" lon="38.0203140434"><ele>142.41</ele><time>2022-07-16T08:01:40Z</time></trkpt><trkpt lat="51.3381692860" lon="38.0204199906"><ele>142.41</ele><time>2022-07-16T08:01:45Z</time></trkpt><trkpt lat="51.3382966910" lon="38.0206555221"><ele>142.41</ele><time>2022-07-16T08:01:49Z</time></trkpt><trkpt lat="51.3385944162" lon="38.0216595903"><ele>140.97</ele><time>2022-07-16T08:02:01Z</time></trkpt><trkpt lat="51.3386427797" lon="38.0221950263"><ele>139.53</ele><time>2022-07-16T08:02:07Z</time></trkpt><trkpt lat="51.3385685161" lon="38.0225392710"><ele>138.09</ele><time>2022-07-16T08:02:11Z</time></trkpt><trkpt lat="51.3382202480" lon="38.0230301991"><ele>136.64</ele><time>2022-07-16T08:02:20Z</time></trkpt><trkpt lat="51.3380418811" lon="38.0231873598"><ele>136.16</ele><time>2022-07-16T08:02:24Z</time></trkpt><trkpt lat="51.3375512045" lon="38.0234624539"><ele>135.68</ele><time>2022-07-16T08:02:35Z</time></trkpt><trkpt lat="51.3371505495" lon="38.0236974824"><ele>134.72</ele><time>2022-07-16T08:02:44Z</time></trkpt><trkpt lat="51.3369704224" lon="38.0238382146"><ele>133.76</ele><time>2022-07-16T08:02:49Z</time></trkpt><trkpt lat="51.3368398324" lon="38.0236528907"><ele>134.24</ele><time>2022-07-16T08:02:57Z</time></trkpt><trkpt lat="51.3367807399" lon="38.0231189635"><ele>134.72</ele><time>2022-07-16T08:03:06Z</time></trkpt><trkpt lat="51.3366767205" lon="38.0230472144"><ele>134.24</ele><time>2022-07-16T08:03:12Z</time></trkpt><trkpt lat="51.3366327155" lon="38.0230389163"><ele>133.76</ele><time>2022-07-16T08:03:22Z</time></trkpt><trkpt lat="51.3365938235" lon="38.0230411794"><ele>132.80</ele><time>2022-07-16T08:03:26Z</time></trkpt><trkpt lat="51.3365095854" lon="38.0230671633"><ele>132.80</ele><time>2022-07-16T08:03:43Z</time></trkpt><trkpt lat="51.3364768121" lon="38.0230623018"><ele>133.28</ele><time>2022-07-16T08:04:02Z</time></trkpt><trkpt lat="51.3363957591" lon="38.0230813287"><ele>134.24</ele><time>2022-07-16T08:04:14Z</time></trkpt><trkpt lat="51.3362784963" lon="38.0231156945"><ele>134.72</ele><time>2022-07-16T08:04:20Z</time></trkpt><trkpt lat="51.3362001255" lon="38.0235285871"><ele>132.32</ele><time>2022-07-16T08:04:27Z</time></trkpt><trkpt lat="51.3360780012" lon="38.0240861513"><ele>132.32</ele><time>2022-07-16T08:04:37Z</time></trkpt><trkpt lat="51.3358863909" lon="38.0247239303"><ele>133.76</ele><time>2022-07-16T08:04:50Z</time></trkpt><trkpt lat="51.3356567267" lon="38.0254630465"><ele>133.76</ele><time>2022-07-16T08:05:04Z</time></trkpt><trkpt lat="51.3354290742" lon="38.0259263981"><ele>133.28</ele><time>2022-07-16T08:05:15Z</time></trkpt><trkpt lat="51.3354024198" lon="38.0262910947"><ele>133.28</ele><time>2022-07-16T08:05:22Z</time></trkpt><trkpt lat="51.3356079441" lon="38.0272772256"><ele>133.76</ele><time>2022-07-16T08:05:38Z</time></trkpt><trkpt lat="51.3358214311" lon="38.0281543918"><ele>133.76</ele><time>2022-07-16T08:05:53Z</time></trkpt><trkpt lat="51.3359638397" lon="38.0288782530"><ele>133.76</ele><time>2022-07-16T08:06:08Z</time></trkpt><trkpt lat="51.3360270392" lon="38.0290796701"><ele>133.28</ele><time>2022-07-16T08:06:18Z</time></trkpt><trkpt lat="51.3360325713" lon="38.0290879682"><ele>133.28</ele><time>2022-07-16T08:06:47Z</time></trkpt><trkpt lat="51.3360318169" lon="38.0290599726"><ele>132.80</ele><time>2022-07-16T08:07:29Z</time></trkpt><trkpt lat="51.3360283803" lon="38.0290583801"><ele>132.80</ele><time>2022-07-16T08:08:10Z</time></trkpt><trkpt lat="51.3360258657" lon="38.0290735513"><ele>132.80</ele><time>2022-07-16T08:08:51Z</time></trkpt><trkpt lat="51.3360249437" lon="38.0290768202"><ele>132.80</ele><time>2022-07-16T08:09:28Z</time></trkpt><trkpt lat="51.3360264525" lon="38.0290718749"><ele>132.80</ele><time>2022-07-16T08:10:09Z</time></trkpt><trkpt lat="51.3360279612" lon="38.0290708691"><ele>132.80</ele><time>2022-07-16T08:10:53Z</time></trkpt><trkpt lat="51.3360304758" lon="38.0290735513"><ele>132.80</ele><time>2022-07-16T08:11:34Z</time></trkpt><trkpt lat="51.3360329904" lon="38.0290604755"><ele>133.28</ele><time>2022-07-16T08:12:12Z</time></trkpt><trkpt lat="51.3360251114" lon="38.0290557817"><ele>133.28</ele><time>2022-07-16T08:12:48Z</time></trkpt><trkpt lat="51.3360269554" lon="38.0290810112"><ele>133.76</ele><time>2022-07-16T08:13:30Z</time></trkpt><trkpt lat="51.3360246085" lon="38.0290636607"><ele>133.76</ele><time>2022-07-16T08:14:10Z</time></trkpt><trkpt lat="51.3360249437" lon="38.0290617328"><ele>134.24</ele><time>2022-07-16T08:14:53Z</time></trkpt><trkpt lat="51.3360235188" lon="38.0290630739"><ele>134.24</ele><time>2022-07-16T08:15:37Z</time></trkpt><trkpt lat="51.3360202499" lon="38.0290764850"><ele>134.24</ele><time>2022-07-16T08:16:24Z</time></trkpt><trkpt lat="51.3360220101" lon="38.0290722940"><ele>134.24</ele><time>2022-07-16T08:17:01Z</time></trkpt><trkpt lat="51.3360205013" lon="38.0290800054"><ele>134.24</ele><time>2022-07-16T08:17:43Z</time></trkpt><trkpt lat="51.3360199984" lon="38.0290799215"><ele>134.24</ele><time>2022-07-16T08:18:24Z</time></trkpt><trkpt lat="51.3360184897" lon="38.0290734675"><ele>134.24</ele><time>2022-07-16T08:19:08Z</time></trkpt><trkpt lat="51.3360194117" lon="38.0290705338"><ele>134.24</ele><time>2022-07-16T08:19:52Z</time></trkpt><trkpt lat="51.3360210042" lon="38.0290611461"><ele>134.24</ele><time>2022-07-16T08:20:30Z</time></trkpt><trkpt lat="51.3360282965" lon="38.0290660914"><ele>134.24</ele><time>2022-07-16T08:21:14Z</time></trkpt><trkpt lat="51.3360283803" lon="38.0290686898"><ele>134.24</ele><time>2022-07-16T08:21:30Z</time></trkpt><trkpt lat="51.3360178191" lon="38.0290850345"><ele>135.20</ele><time>2022-07-16T08:21:47Z</time></trkpt><trkpt lat="51.3360105269" lon="38.0291086715"><ele>135.20</ele><time>2022-07-16T08:21:53Z</time></trkpt><trkpt lat="51.3360765763" lon="38.0295634735"><ele>135.20</ele><time>2022-07-16T08:22:04Z</time></trkpt><trkpt lat="51.3362657558" lon="38.0305516999"><ele>135.20</ele><time>2022-07-16T08:22:22Z</time></trkpt><trkpt lat="51.3364540972" lon="38.0315504037"><ele>135.20</ele><time>2022-07-16T08:22:39Z</time></trkpt><trkpt lat="51.3365534227" lon="38.0326586589"><ele>135.68</ele><time>2022-07-16T08:22:57Z</time></trkpt><trkpt lat="51.3366268482" lon="38.0331666861"><ele>136.64</ele><time>2022-07-16T08:23:05Z</time></trkpt><trkpt lat="51.3367611263" lon="38.0334142875"><ele>135.20</ele><time>2022-07-16T08:23:10Z</time></trkpt><trkpt lat="51.3368115854" lon="38.0335147865"><ele>135.20</ele><time>2022-07-16T08:23:12Z</time></trkpt><trkpt lat="51.3370335381" lon="38.0338448659"><ele>135.68</ele><time>2022-07-16T08:23:19Z</time></trkpt><trkpt lat="51.3370933849" lon="38.0339446105"><ele>135.68</ele><time>2022-07-16T08:23:21Z</time></trkpt><trkpt lat="51.3372357097" lon="38.0342182796"><ele>135.20</ele><time>2022-07-16T08:23:26Z</time></trkpt><trkpt lat="51.3373984024" lon="38.0345196929"><ele>135.68</ele><time>2022-07-16T08:23:32Z</time></trkpt><trkpt lat="51.3375696447" lon="38.0353114475"><ele>137.13</ele><time>2022-07-16T08:23:47Z</time></trkpt><trkpt lat="51.3376170862" lon="38.0361139309"><ele>138.09</ele><time>2022-07-16T08:24:01Z</time></trkpt><trkpt lat="51.3378573116" lon="38.0368765164"><ele>139.05</ele><time>2022-07-16T08:24:16Z</time></trkpt><trkpt lat="51.3379283901" lon="38.0370223615"><ele>139.05</ele><time>2022-07-16T08:24:19Z</time></trkpt><trkpt lat="51.3381459005" lon="38.0372729804"><ele>138.57</ele><time>2022-07-16T08:24:25Z</time></trkpt><trkpt lat="51.3387913909" lon="38.0378492363"><ele>138.09</ele><time>2022-07-16T08:24:42Z</time></trkpt><trkpt lat="51.3392290100" lon="38.0382192973"><ele>138.09</ele><time>2022-07-16T08:24:54Z</time></trkpt><trkpt lat="51.3394039404" lon="38.0383606162"><ele>137.61</ele><time>2022-07-16T08:24:59Z</time></trkpt><trkpt lat="51.3399605826" lon="38.0388412345"><ele>136.64</ele><time>2022-07-16T08:25:13Z</time></trkpt><trkpt lat="51.3400385343" lon="38.0388983153"><ele>136.64</ele><time>2022-07-16T08:25:15Z</time></trkpt><trkpt lat="51.3402431365" lon="38.0389444157"><ele>136.64</ele><time>2022-07-16T08:25:20Z</time></trkpt><trkpt lat="51.3404307235" lon="38.0389590841"><ele>135.20</ele><time>2022-07-16T08:25:24Z</time></trkpt><trkpt lat="51.3406123593" lon="38.0388869997"><ele>134.72</ele><time>2022-07-16T08:25:28Z</time></trkpt><trkpt lat="51.3407374173" lon="38.0387886800"><ele>135.20</ele><time>2022-07-16T08:25:31Z</time></trkpt><trkpt lat="51.3410483021" lon="38.0389217846"><ele>135.68</ele><time>2022-07-16T08:25:40Z</time></trkpt><trkpt lat="51.3410647307" lon="38.0389859062"><ele>135.68</ele><time>2022-07-16T08:25:41Z</time></trkpt><trkpt lat="51.3412225619" lon="38.0396596435"><ele>135.20</ele><time>2022-07-16T08:25:51Z</time></trkpt><trkpt lat="51.3412797265" lon="38.0403248314"><ele>135.20</ele><time>2022-07-16T08:26:00Z</time></trkpt><trkpt lat="51.3414772041" lon="38.0416739825"><ele>135.68</ele><time>2022-07-16T08:26:20Z</time></trkpt><trkpt lat="51.3418224547" lon="38.0426215567"><ele>135.20</ele><time>2022-07-16T08:26:36Z</time></trkpt><trkpt lat="51.3423505984" lon="38.0437537003"><ele>136.16</ele><time>2022-07-16T08:26:55Z</time></trkpt><trkpt lat="51.3427557796" lon="38.0445973389"><ele>136.16</ele><time>2022-07-16T08:27:09Z</time></trkpt><trkpt lat="51.3430249225" lon="38.0451357085"><ele>136.64</ele><time>2022-07-16T08:27:18Z</time></trkpt><trkpt lat="51.3434815686" lon="38.0459457356"><ele>137.13</ele><time>2022-07-16T08:27:34Z</time></trkpt><trkpt lat="51.3435192034" lon="38.0459626671"><ele>137.13</ele><time>2022-07-16T08:27:35Z</time></trkpt><trkpt lat="51.3438116480" lon="38.0459550396"><ele>136.64</ele><time>2022-07-16T08:27:44Z</time></trkpt><trkpt lat="51.3438664656" lon="38.0459094420"><ele>136.16</ele><time>2022-07-16T08:27:46Z</time></trkpt><trkpt lat="51.3440064434" lon="38.0454120599"><ele>135.20</ele><time>2022-07-16T08:27:55Z</time></trkpt><trkpt lat="51.3442832138" lon="38.0453302525"><ele>135.20</ele><time>2022-07-16T08:28:02Z</time></trkpt><trkpt lat="51.3443702180" lon="38.0453455076"><ele>134.72</ele><time>2022-07-16T08:28:04Z</time></trkpt><trkpt lat="51.3446207531" lon="38.0455221981"><ele>134.24</ele><time>2022-07-16T08:28:10Z</time></trkpt><trkpt lat="51.3447490800" lon="38.0457171611"><ele>134.24</ele><time>2022-07-16T08:28:14Z</time></trkpt><trkpt lat="51.3448635768" lon="38.0459433049"><ele>134.24</ele><time>2022-07-16T08:28:18Z</time></trkpt><trkpt lat="51.3450567797" lon="38.0462795030"><ele>134.24</ele><time>2022-07-16T08:28:25Z</time></trkpt><trkpt lat="51.3451637328" lon="38.0466118455"><ele>134.24</ele><time>2022-07-16T08:28:31Z</time></trkpt><trkpt lat="51.3452275191" lon="38.0469350517"><ele>134.24</ele><time>2022-07-16T08:28:39Z</time></trkpt><trkpt lat="51.3451872859" lon="38.0472286697"><ele>135.68</ele><time>2022-07-16T08:28:51Z</time></trkpt><trkpt lat="51.3451188058" lon="38.0475189351"><ele>137.13</ele><time>2022-07-16T08:29:02Z</time></trkpt><trkpt lat="51.3450965099" lon="38.0475747585"><ele>137.61</ele><time>2022-07-16T08:29:06Z</time></trkpt><trkpt lat="51.3450966775" lon="38.0476367008"><ele>137.13</ele><time>2022-07-16T08:29:10Z</time></trkpt><trkpt lat="51.3450717833" lon="38.0477473419"><ele>137.13</ele><time>2022-07-16T08:29:17Z</time></trkpt><trkpt lat="51.3451442868" lon="38.0477972981"><ele>137.13</ele><time>2022-07-16T08:29:23Z</time></trkpt><trkpt lat="51.3455142640" lon="38.0478143133"><ele>136.16</ele><time>2022-07-16T08:29:38Z</time></trkpt><trkpt lat="51.3455386553" lon="38.0478328373"><ele>136.64</ele><time>2022-07-16T08:29:39Z</time></trkpt><trkpt lat="51.3456188701" lon="38.0480045825"><ele>137.13</ele><time>2022-07-16T08:29:44Z</time></trkpt><trkpt lat="51.3458836544" lon="38.0483315606"><ele>137.13</ele><time>2022-07-16T08:29:56Z</time></trkpt><trkpt lat="51.3461890910" lon="38.0486105941"><ele>137.13</ele><time>2022-07-16T08:30:09Z</time></trkpt><trkpt lat="51.3466010615" lon="38.0488597881"><ele>136.16</ele><time>2022-07-16T08:30:23Z</time></trkpt><trkpt lat="51.3470116071" lon="38.0490357243"><ele>136.16</ele><time>2022-07-16T08:30:36Z</time></trkpt><trkpt lat="51.3473838475" lon="38.0491399113"><ele>136.16</ele><time>2022-07-16T08:30:48Z</time></trkpt><trkpt lat="51.3476361427" lon="38.0492497142"><ele>135.68</ele><time>2022-07-16T08:30:58Z</time></trkpt><trkpt lat="51.3475753739" lon="38.0495440867"><ele>136.16</ele><time>2022-07-16T08:31:07Z</time></trkpt><trkpt lat="51.3475653995" lon="38.0495825596"><ele>136.64</ele><time>2022-07-16T08:31:08Z</time></trkpt><trkpt lat="51.3473664131" lon="38.0501412135"><ele>137.61</ele><time>2022-07-16T08:31:24Z</time></trkpt><trkpt lat="51.3470992818" lon="38.0503844563"><ele>138.09</ele><time>2022-07-16T08:31:36Z</time></trkpt><trkpt lat="51.3469815999" lon="38.0506589636"><ele>138.09</ele><time>2022-07-16T08:31:43Z</time></trkpt><trkpt lat="51.3468857948" lon="38.0507315509"><ele>138.09</ele><time>2022-07-16T08:31:47Z</time></trkpt><trkpt lat="51.3464820385" lon="38.0510977563"><ele>138.57</ele><time>2022-07-16T08:32:03Z</time></trkpt><trkpt lat="51.3463850599" lon="38.0516573321"><ele>139.53</ele><time>2022-07-16T08:32:15Z</time></trkpt><trkpt lat="51.3464183360" lon="38.0520102102"><ele>140.01</ele><time>2022-07-16T08:32:22Z</time></trkpt><trkpt lat="51.3465280551" lon="38.0520922691"><ele>140.01</ele><time>2022-07-16T08:32:26Z</time></trkpt><trkpt lat="51.3466105331" lon="38.0520915985"><ele>140.01</ele><time>2022-07-16T08:32:28Z</time></trkpt><trkpt lat="51.3469819352" lon="38.0520006549"><ele>140.01</ele><time>2022-07-16T08:32:36Z</time></trkpt><trkpt lat="51.3471564464" lon="38.0519834720"><ele>139.05</ele><time>2022-07-16T08:32:40Z</time></trkpt><trkpt lat="51.3472788222" lon="38.0520466715"><ele>139.05</ele><time>2022-07-16T08:32:43Z</time></trkpt><trkpt lat="51.3475424331" lon="38.0520867370"><ele>139.05</ele><time>2022-07-16T08:32:50Z</time></trkpt><trkpt lat="51.3475633878" lon="38.0520448275"><ele>138.09</ele><time>2022-07-16T08:32:59Z</time></trkpt><trkpt lat="51.3475334644" lon="38.0520545505"><ele>138.09</ele><time>2022-07-16T08:33:00Z</time></trkpt><trkpt lat="51.3473053090" lon="38.0525366776"><ele>139.05</ele><time>2022-07-16T08:33:11Z</time></trkpt><trkpt lat="51.3471748866" lon="38.0536342878"><ele>140.01</ele><time>2022-07-16T08:33:27Z</time></trkpt><trkpt lat="51.3471369166" lon="38.0539439153"><ele>140.49</ele><time>2022-07-16T08:33:31Z</time></trkpt><trkpt lat="51.3470831048" lon="38.0543667823"><ele>140.49</ele><time>2022-07-16T08:33:37Z</time></trkpt><trkpt lat="51.3472057320" lon="38.0547102727"><ele>140.49</ele><time>2022-07-16T08:33:43Z</time></trkpt><trkpt lat="51.3478276692" lon="38.0551213212"><ele>140.01</ele><time>2022-07-16T08:33:58Z</time></trkpt><trkpt lat="51.3485585712" lon="38.0556298513"><ele>139.53</ele><time>2022-07-16T08:34:15Z</time></trkpt><trkpt lat="51.3486697152" lon="38.0559286661"><ele>139.05</ele><time>2022-07-16T08:34:20Z</time></trkpt><trkpt lat="51.3486572262" lon="38.0566556286"><ele>139.53</ele><time>2022-07-16T08:34:32Z</time></trkpt><trkpt lat="51.3487662748" lon="38.0567051657"><ele>139.53</ele><time>2022-07-16T08:34:37Z</time></trkpt><trkpt lat="51.3488720544" lon="38.0566719733"><ele>139.05</ele><time>2022-07-16T08:34:41Z</time></trkpt><trkpt lat="51.3489642553" lon="38.0569244362"><ele>139.05</ele><time>2022-07-16T08:34:47Z</time></trkpt><trkpt lat="51.3491728809" lon="38.0579246487"><ele>139.05</ele><time>2022-07-16T08:35:02Z</time></trkpt><trkpt lat="51.3492252678" lon="38.0581093859"><ele>139.05</ele><time>2022-07-16T08:35:05Z</time></trkpt><trkpt lat="51.3493864518" lon="38.0588845443"><ele>140.49</ele><time>2022-07-16T08:35:17Z</time></trkpt><trkpt lat="51.3494780660" lon="38.0597680807"><ele>140.97</ele><time>2022-07-16T08:35:30Z</time></trkpt><trkpt lat="51.3495318778" lon="38.0599543266"><ele>140.97</ele><time>2022-07-16T08:35:33Z</time></trkpt><trkpt lat="51.3499523140" lon="38.0607455783"><ele>141.45</ele><time>2022-07-16T08:35:48Z</time></trkpt><trkpt lat="51.3499934692" lon="38.0608648527"><ele>141.93</ele><time>2022-07-16T08:35:50Z</time></trkpt><trkpt lat="51.3503504544" lon="38.0618319567"><ele>142.89</ele><time>2022-07-16T08:36:08Z</time></trkpt><trkpt lat="51.3506661169" lon="38.0625881720"><ele>143.37</ele><time>2022-07-16T08:36:21Z</time></trkpt><trkpt lat="51.3512060791" lon="38.0633742269"><ele>143.85</ele><time>2022-07-16T08:36:37Z</time></trkpt><trkpt lat="51.3514576200" lon="38.0634468980"><ele>142.89</ele><time>2022-07-16T08:36:43Z</time></trkpt><trkpt lat="51.3515499048" lon="38.0634040665"><ele>142.89</ele><time>2022-07-16T08:36:45Z</time></trkpt><trkpt lat="51.3521528151" lon="38.0635670107"><ele>142.89</ele><time>2022-07-16T08:36:57Z</time></trkpt><trkpt lat="51.3529324997" lon="38.0638743751"><ele>142.41</ele><time>2022-07-16T08:37:13Z</time></trkpt><trkpt lat="51.3538110908" lon="38.0642122496"><ele>141.93</ele><time>2022-07-16T08:37:29Z</time></trkpt><trkpt lat="51.3547160849" lon="38.0645790417"><ele>141.45</ele><time>2022-07-16T08:37:45Z</time></trkpt><trkpt lat="51.3557126932" lon="38.0650060996"><ele>140.49</ele><time>2022-07-16T08:38:03Z</time></trkpt><trkpt lat="51.3565787952" lon="38.0653440580"><ele>140.49</ele><time>2022-07-16T08:38:19Z</time></trkpt><trkpt lat="51.3575345837" lon="38.0656146258"><ele>140.49</ele><time>2022-07-16T08:38:37Z</time></trkpt><trkpt lat="51.3580739591" lon="38.0659325514"><ele>140.49</ele><time>2022-07-16T08:38:48Z</time></trkpt><trkpt lat="51.3587339502" lon="38.0660825036"><ele>140.49</ele><time>2022-07-16T08:39:01Z</time></trkpt><trkpt lat="51.3589314278" lon="38.0660553463"><ele>140.97</ele><time>2022-07-16T08:39:05Z</time></trkpt><trkpt lat="51.3592139818" lon="38.0661134329"><ele>140.97</ele><time>2022-07-16T08:39:11Z</time></trkpt><trkpt lat="51.3599145412" lon="38.0661065597"><ele>140.49</ele><time>2022-07-16T08:39:25Z</time></trkpt><trkpt lat="51.3607076369" lon="38.0656476505"><ele>140.01</ele><time>2022-07-16T08:39:41Z</time></trkpt><trkpt lat="51.3613770157" lon="38.0652238615"><ele>140.97</ele><time>2022-07-16T08:39:56Z</time></trkpt><trkpt lat="51.3615135569" lon="38.0651292298"><ele>140.97</ele><time>2022-07-16T08:39:59Z</time></trkpt><trkpt lat="51.3617909141" lon="38.0650072731"><ele>140.97</ele><time>2022-07-16T08:40:05Z</time></trkpt><trkpt lat="51.3619241863" lon="38.0649251305"><ele>140.97</ele><time>2022-07-16T08:40:08Z</time></trkpt><trkpt lat="51.3626496401" lon="38.0648153275"><ele>141.45</ele><time>2022-07-16T08:40:23Z</time></trkpt><trkpt lat="51.3635544665" lon="38.0648527108"><ele>140.49</ele><time>2022-07-16T08:40:41Z</time></trkpt><trkpt lat="51.3642235938" lon="38.0648933630"><ele>140.97</ele><time>2022-07-16T08:40:55Z</time></trkpt><trkpt lat="51.3650437631" lon="38.0649831332"><ele>140.97</ele><time>2022-07-16T08:41:11Z</time></trkpt><trkpt lat="51.3656182587" lon="38.0650758371"><ele>143.85</ele><time>2022-07-16T08:41:25Z</time></trkpt><trkpt lat="51.3662947621" lon="38.0652737338"><ele>145.30</ele><time>2022-07-16T08:41:41Z</time></trkpt><trkpt lat="51.3668186311" lon="38.0653072614"><ele>144.34</ele><time>2022-07-16T08:41:52Z</time></trkpt><trkpt lat="51.3672781270" lon="38.0649615079"><ele>144.34</ele><time>2022-07-16T08:42:02Z</time></trkpt><trkpt lat="51.3676512055" lon="38.0641023628"><ele>142.89</ele><time>2022-07-16T08:42:14Z</time></trkpt><trkpt lat="51.3675947115" lon="38.0628535431"><ele>142.41</ele><time>2022-07-16T08:42:28Z</time></trkpt><trkpt lat="51.3672622014" lon="38.0613325629"><ele>142.89</ele><time>2022-07-16T08:42:45Z</time></trkpt><trkpt lat="51.3670720160" lon="38.0595984310"><ele>143.37</ele><time>2022-07-16T08:43:03Z</time></trkpt><trkpt lat="51.3670937251" lon="38.0578897800"><ele>142.89</ele><time>2022-07-16T08:43:20Z</time></trkpt><trkpt lat="51.3671171106" lon="38.0560631119"><ele>140.97</ele><time>2022-07-16T08:43:38Z</time></trkpt><trkpt lat="51.3673317712" lon="38.0548089277"><ele>140.01</ele><time>2022-07-16T08:43:51Z</time></trkpt><trkpt lat="51.3679081947" lon="38.0539222900"><ele>140.01</ele><time>2022-07-16T08:44:04Z</time></trkpt><trkpt lat="51.3686877117" lon="38.0527997017"><ele>139.05</ele><time>2022-07-16T08:44:21Z</time></trkpt><trkpt lat="51.3691959064" lon="38.0518993177"><ele>138.57</ele><time>2022-07-16T08:44:34Z</time></trkpt><trkpt lat="51.3698114734" lon="38.0507756397"><ele>137.61</ele><time>2022-07-16T08:44:52Z</time></trkpt><trkpt lat="51.3698435761" lon="38.0507231690"><ele>137.61</ele><time>2022-07-16T08:44:53Z</time></trkpt><trkpt lat="51.3702863920" lon="38.0501568876"><ele>139.05</ele><time>2022-07-16T08:45:08Z</time></trkpt><trkpt lat="51.3705545291" lon="38.0504326522"><ele>138.57</ele><time>2022-07-16T08:45:19Z</time></trkpt><trkpt lat="51.3706513401" lon="38.0505439639"><ele>139.05</ele><time>2022-07-16T08:45:28Z</time></trkpt><trkpt lat="51.3706439640" lon="38.0505370907"><ele>139.05</ele><time>2022-07-16T08:45:46Z</time></trkpt><trkpt lat="51.3707629871" lon="38.0507476442"><ele>140.01</ele><time>2022-07-16T08:45:53Z</time></trkpt><trkpt lat="51.3710568566" lon="38.0509649031"><ele>140.97</ele><time>2022-07-16T08:46:04Z</time></trkpt><trkpt lat="51.3711296115" lon="38.0510143563"><ele>140.97</ele><time>2022-07-16T08:46:17Z</time></trkpt><trkpt lat="51.3712630514" lon="38.0510990135"><ele>141.45</ele><time>2022-07-16T08:46:29Z</time></trkpt><trkpt lat="51.3712696731" lon="38.0510928109"><ele>141.45</ele><time>2022-07-16T08:46:53Z</time></trkpt><trkpt lat="51.3712668233" lon="38.0510931462"><ele>141.45</ele><time>2022-07-16T08:47:02Z</time></trkpt><trkpt lat="51.3712524064" lon="38.0510512367"><ele>141.45</ele><time>2022-07-16T08:47:06Z</time></trkpt><trkpt lat="51.3710493129" lon="38.0509644840"><ele>140.97</ele><time>2022-07-16T08:47:18Z</time></trkpt><trkpt lat="51.3709504902" lon="38.0509085767"><ele>140.49</ele><time>2022-07-16T08:47:26Z</time></trkpt><trkpt lat="51.3709855266" lon="38.0508758035"><ele>140.97</ele><time>2022-07-16T08:47:32Z</time></trkpt><trkpt lat="51.3710530009" lon="38.0509634782"><ele>140.97</ele><time>2022-07-16T08:47:46Z</time></trkpt><trkpt lat="51.3710491452" lon="38.0509610474"><ele>140.97</ele><time>2022-07-16T08:48:21Z</time></trkpt><trkpt lat="51.3710483070" lon="38.0509581137"><ele>140.97</ele><time>2022-07-16T08:48:47Z</time></trkpt><trkpt lat="51.3710472174" lon="38.0509579461"><ele>140.97</ele><time>2022-07-16T08:49:11Z</time></trkpt><trkpt lat="51.3710474689" lon="38.0509576946"><ele>140.97</ele><time>2022-07-16T08:49:13Z</time></trkpt><trkpt lat="51.3711501472" lon="38.0510037951"><ele>141.45</ele><time>2022-07-16T08:49:19Z</time></trkpt><trkpt lat="51.3716856670" lon="38.0512550846"><ele>141.93</ele><time>2022-07-16T08:49:35Z</time></trkpt><trkpt lat="51.3719343580" lon="38.0513678212"><ele>142.41</ele><time>2022-07-16T08:49:42Z</time></trkpt><trkpt lat="51.3720507827" lon="38.0514557473"><ele>141.93</ele><time>2022-07-16T08:49:45Z</time></trkpt><trkpt lat="51.3722439855" lon="38.0517309252"><ele>140.97</ele><time>2022-07-16T08:49:51Z</time></trkpt><trkpt lat="51.3723683730" lon="38.0519098788"><ele>141.45</ele><time>2022-07-16T08:49:55Z</time></trkpt><trkpt lat="51.3727817684" lon="38.0522775929"><ele>141.45</ele><time>2022-07-16T08:50:06Z</time></trkpt><trkpt lat="51.3730911445" lon="38.0526819360"><ele>141.93</ele><time>2022-07-16T08:50:15Z</time></trkpt><trkpt lat="51.3733385783" lon="38.0536813941"><ele>140.49</ele><time>2022-07-16T08:50:29Z</time></trkpt><trkpt lat="51.3733944017" lon="38.0540986452"><ele>140.01</ele><time>2022-07-16T08:50:34Z</time></trkpt><trkpt lat="51.3735017739" lon="38.0545485858"><ele>140.49</ele><time>2022-07-16T08:50:40Z</time></trkpt><trkpt lat="51.3737771194" lon="38.0555129237"><ele>140.97</ele><time>2022-07-16T08:50:54Z</time></trkpt><trkpt lat="51.3738141675" lon="38.0556423403"><ele>141.45</ele><time>2022-07-16T08:50:56Z</time></trkpt><trkpt lat="51.3738712482" lon="38.0559123214"><ele>141.45</ele><time>2022-07-16T08:51:00Z</time></trkpt><trkpt lat="51.3740258943" lon="38.0564014893"><ele>141.45</ele><time>2022-07-16T08:51:07Z</time></trkpt><trkpt lat="51.3742013276" lon="38.0569155514"><ele>140.49</ele><time>2022-07-16T08:51:14Z</time></trkpt><trkpt lat="51.3744760025" lon="38.0573653243"><ele>140.01</ele><time>2022-07-16T08:51:22Z</time></trkpt><trkpt lat="51.3749826886" lon="38.0581552349"><ele>140.49</ele><time>2022-07-16T08:51:36Z</time></trkpt><trkpt lat="51.3755836710" lon="38.0594038870"><ele>140.97</ele><time>2022-07-16T08:51:56Z</time></trkpt><trkpt lat="51.3757049572" lon="38.0598353874"><ele>140.97</ele><time>2022-07-16T08:52:02Z</time></trkpt><trkpt lat="51.3758037798" lon="38.0603558198"><ele>140.97</ele><time>2022-07-16T08:52:09Z</time></trkpt><trkpt lat="51.3762299996" lon="38.0613882188"><ele>140.97</ele><time>2022-07-16T08:52:25Z</time></trkpt><trkpt lat="51.3763032574" lon="38.0615369976"><ele>141.45</ele><time>2022-07-16T08:52:28Z</time></trkpt><trkpt lat="51.3763954584" lon="38.0616729520"><ele>141.45</ele><time>2022-07-16T08:52:31Z</time></trkpt><trkpt lat="51.3766569737" lon="38.0619771313"><ele>141.45</ele><time>2022-07-16T08:52:38Z</time></trkpt><trkpt lat="51.3772222493" lon="38.0630005617"><ele>142.41</ele><time>2022-07-16T08:52:56Z</time></trkpt><trkpt lat="51.3777242415" lon="38.0638692621"><ele>143.37</ele><time>2022-07-16T08:53:12Z</time></trkpt><trkpt lat="51.3780535664" lon="38.0645871721"><ele>145.30</ele><time>2022-07-16T08:53:26Z</time></trkpt><trkpt lat="51.3782841526" lon="38.0647649523"><ele>145.30</ele><time>2022-07-16T08:53:32Z</time></trkpt><trkpt lat="51.3785943668" lon="38.0646989029"><ele>145.30</ele><time>2022-07-16T08:53:39Z</time></trkpt><trkpt lat="51.3788442314" lon="38.0644903611"><ele>145.78</ele><time>2022-07-16T08:53:45Z</time></trkpt><trkpt lat="51.3789253682" lon="38.0644215457"><ele>145.78</ele><time>2022-07-16T08:53:47Z</time></trkpt><trkpt lat="51.3790824451" lon="38.0642588530"><ele>145.78</ele><time>2022-07-16T08:53:51Z</time></trkpt><trkpt lat="51.3796692621" lon="38.0633785855"><ele>143.37</ele><time>2022-07-16T08:54:06Z</time></trkpt><trkpt lat="51.3803144172" lon="38.0628651939"><ele>140.97</ele><time>2022-07-16T08:54:17Z</time></trkpt><trkpt lat="51.3806332648" lon="38.0628105439"><ele>140.97</ele><time>2022-07-16T08:54:23Z</time></trkpt><trkpt lat="51.3809237815" lon="38.0629900843"><ele>140.01</ele><time>2022-07-16T08:54:29Z</time></trkpt><trkpt lat="51.3812707923" lon="38.0633891467"><ele>140.97</ele><time>2022-07-16T08:54:39Z</time></trkpt><trkpt lat="51.3813060801" lon="38.0634266976"><ele>140.97</ele><time>2022-07-16T08:54:40Z</time></trkpt><trkpt lat="51.3814832736" lon="38.0635765661"><ele>140.49</ele><time>2022-07-16T08:54:44Z</time></trkpt><trkpt lat="51.3816065714" lon="38.0637123529"><ele>140.01</ele><time>2022-07-16T08:54:47Z</time></trkpt><trkpt lat="51.3822080567" lon="38.0641078949"><ele>140.49</ele><time>2022-07-16T08:55:01Z</time></trkpt><trkpt lat="51.3827898446" lon="38.0644469429"><ele>142.41</ele><time>2022-07-16T08:55:15Z</time></trkpt><trkpt lat="51.3833439723" lon="38.0644720048"><ele>145.78</ele><time>2022-07-16T08:55:29Z</time></trkpt><trkpt lat="51.3838420250" lon="38.0647527147"><ele>148.66</ele><time>2022-07-16T08:55:43Z</time></trkpt><trkpt lat="51.3841099106" lon="38.0652424693"><ele>149.14</ele><time>2022-07-16T08:55:53Z</time></trkpt><trkpt lat="51.3842357229" lon="38.0654250272"><ele>149.14</ele><time>2022-07-16T08:55:57Z</time></trkpt><trkpt lat="51.3848720770" lon="38.0661016144"><ele>150.10</ele><time>2022-07-16T08:56:14Z</time></trkpt><trkpt lat="51.3853642624" lon="38.0666379724"><ele>152.51</ele><time>2022-07-16T08:56:31Z</time></trkpt><trkpt lat="51.3854851294" lon="38.0667700712"><ele>152.03</ele><time>2022-07-16T08:56:40Z</time></trkpt><trkpt lat="51.3854806032" lon="38.0667712446"><ele>152.03</ele><time>2022-07-16T08:57:17Z</time></trkpt><trkpt lat="51.3854753226" lon="38.0667712446"><ele>152.03</ele><time>2022-07-16T08:57:51Z</time></trkpt><trkpt lat="51.3854719698" lon="38.0667684786"><ele>152.03</ele><time>2022-07-16T08:58:31Z</time></trkpt><trkpt lat="51.3854814414" lon="38.0667766929"><ele>152.51</ele><time>2022-07-16T08:59:01Z</time></trkpt><trkpt lat="51.3857719582" lon="38.0671260506"><ele>152.03</ele><time>2022-07-16T08:59:12Z</time></trkpt><trkpt lat="51.3863177039" lon="38.0675614905"><ele>148.66</ele><time>2022-07-16T08:59:24Z</time></trkpt><trkpt lat="51.3866178598" lon="38.0677567050"><ele>147.70</ele><time>2022-07-16T08:59:30Z</time></trkpt><trkpt lat="51.3869447540" lon="38.0680532567"><ele>147.70</ele><time>2022-07-16T08:59:38Z</time></trkpt><trkpt lat="51.3873242866" lon="38.0682561826"><ele>146.74</ele><time>2022-07-16T08:59:46Z</time></trkpt><trkpt lat="51.3874603249" lon="38.0683323741"><ele>146.74</ele><time>2022-07-16T08:59:49Z</time></trkpt><trkpt lat="51.3882368244" lon="38.0689140782"><ele>147.70</ele><time>2022-07-16T09:00:08Z</time></trkpt><trkpt lat="51.3887843303" lon="38.0695871450"><ele>146.74</ele><time>2022-07-16T09:00:23Z</time></trkpt><trkpt lat="51.3892212790" lon="38.0700668413"><ele>146.74</ele><time>2022-07-16T09:00:35Z</time></trkpt><trkpt lat="51.3897445612" lon="38.0707410816"><ele>147.22</ele><time>2022-07-16T09:00:50Z</time></trkpt><trkpt lat="51.3899397757" lon="38.0710604321"><ele>146.74</ele><time>2022-07-16T09:00:56Z</time></trkpt><trkpt lat="51.3901413605" lon="38.0715799425"><ele>146.74</ele><time>2022-07-16T09:01:04Z</time></trkpt><trkpt lat="51.3906223141" lon="38.0727542471"><ele>145.30</ele><time>2022-07-16T09:01:22Z</time></trkpt><trkpt lat="51.3910238072" lon="38.0737065151"><ele>146.26</ele><time>2022-07-16T09:01:38Z</time></trkpt><trkpt lat="51.3911823090" lon="38.0740050785"><ele>146.74</ele><time>2022-07-16T09:01:44Z</time></trkpt><trkpt lat="51.3913826365" lon="38.0746315420"><ele>146.26</ele><time>2022-07-16T09:01:54Z</time></trkpt><trkpt lat="51.3914205227" lon="38.0747630540"><ele>145.78</ele><time>2022-07-16T09:01:56Z</time></trkpt><trkpt lat="51.3914968818" lon="38.0750385672"><ele>145.78</ele><time>2022-07-16T09:02:00Z</time></trkpt><trkpt lat="51.3915452454" lon="38.0756912660"><ele>146.26</ele><time>2022-07-16T09:02:09Z</time></trkpt><trkpt lat="51.3916055951" lon="38.0761909112"><ele>146.26</ele><time>2022-07-16T09:02:16Z</time></trkpt><trkpt lat="51.3916159049" lon="38.0763292126"><ele>146.26</ele><time>2022-07-16T09:02:18Z</time></trkpt><trkpt lat="51.3916195929" lon="38.0774100590"><ele>146.74</ele><time>2022-07-16T09:02:33Z</time></trkpt><trkpt lat="51.3916293159" lon="38.0774692353"><ele>146.26</ele><time>2022-07-16T09:02:40Z</time></trkpt><trkpt lat="51.3916309923" lon="38.0774719175"><ele>146.26</ele><time>2022-07-16T09:02:49Z</time></trkpt><trkpt lat="51.3916133065" lon="38.0775750149"><ele>146.74</ele><time>2022-07-16T09:02:53Z</time></trkpt><trkpt lat="51.3915654458" lon="38.0778720696"><ele>146.74</ele><time>2022-07-16T09:02:58Z</time></trkpt><trkpt lat="51.3914762624" lon="38.0782809388"><ele>146.74</ele><time>2022-07-16T09:03:04Z</time></trkpt><trkpt lat="51.3914434891" lon="38.0784934200"><ele>146.74</ele><time>2022-07-16T09:03:07Z</time></trkpt><trkpt lat="51.3913295791" lon="38.0793930497"><ele>147.22</ele><time>2022-07-16T09:03:19Z</time></trkpt><trkpt lat="51.3912692294" lon="38.0796882603"><ele>147.22</ele><time>2022-07-16T09:03:23Z</time></trkpt><trkpt lat="51.3911160920" lon="38.0800991412"><ele>146.26</ele><time>2022-07-16T09:03:29Z</time></trkpt><trkpt lat="51.3909648824" lon="38.0804257002"><ele>146.74</ele><time>2022-07-16T09:03:34Z</time></trkpt><trkpt lat="51.3908864278" lon="38.0806769896"><ele>147.22</ele><time>2022-07-16T09:03:38Z</time></trkpt><trkpt lat="51.3908405788" lon="38.0815262441"><ele>149.62</ele><time>2022-07-16T09:03:53Z</time></trkpt><trkpt lat="51.3908456918" lon="38.0823052581"><ele>151.54</ele><time>2022-07-16T09:04:08Z</time></trkpt><trkpt lat="51.3909546565" lon="38.0830626469"><ele>152.03</ele><time>2022-07-16T09:04:21Z</time></trkpt><trkpt lat="51.3910951372" lon="38.0842178408"><ele>150.10</ele><time>2022-07-16T09:04:38Z</time></trkpt><trkpt lat="51.3912120648" lon="38.0854599550"><ele>152.03</ele><time>2022-07-16T09:04:58Z</time></trkpt><trkpt lat="51.3912171777" lon="38.0859045312"><ele>155.39</ele><time>2022-07-16T09:05:08Z</time></trkpt><trkpt lat="51.3911434170" lon="38.0865335930"><ele>158.27</ele><time>2022-07-16T09:05:23Z</time></trkpt><trkpt lat="51.3910283335" lon="38.0873870384"><ele>159.72</ele><time>2022-07-16T09:05:39Z</time></trkpt><trkpt lat="51.3909890223" lon="38.0882803816"><ele>159.72</ele><time>2022-07-16T09:05:54Z</time></trkpt><trkpt lat="51.3908630423" lon="38.0892795045"><ele>157.31</ele><time>2022-07-16T09:06:08Z</time></trkpt><trkpt lat="51.3908542413" lon="38.0893691909"><ele>156.83</ele><time>2022-07-16T09:06:09Z</time></trkpt><trkpt lat="51.3909943867" lon="38.0899202172"><ele>153.47</ele><time>2022-07-16T09:06:16Z</time></trkpt><trkpt lat="51.3911637012" lon="38.0901136715"><ele>150.10</ele><time>2022-07-16T09:06:20Z</time></trkpt><trkpt lat="51.3914926071" lon="38.0902808066"><ele>146.74</ele><time>2022-07-16T09:06:26Z</time></trkpt><trkpt lat="51.3917585649" lon="38.0902494583"><ele>145.30</ele><time>2022-07-16T09:06:31Z</time></trkpt><trkpt lat="51.3920702878" lon="38.0900957342"><ele>144.34</ele><time>2022-07-16T09:06:37Z</time></trkpt><trkpt lat="51.3922862057" lon="38.0900290143"><ele>143.37</ele><time>2022-07-16T09:06:41Z</time></trkpt><trkpt lat="51.3924907241" lon="38.0900995061"><ele>142.89</ele><time>2022-07-16T09:06:45Z</time></trkpt><trkpt lat="51.3930277526" lon="38.0905585829"><ele>141.93</ele><time>2022-07-16T09:06:58Z</time></trkpt><trkpt lat="51.3931400701" lon="38.0906432401"><ele>141.93</ele><time>2022-07-16T09:07:01Z</time></trkpt><trkpt lat="51.3935821317" lon="38.0908827111"><ele>142.41</ele><time>2022-07-16T09:07:13Z</time></trkpt><trkpt lat="51.3936532941" lon="38.0909463298"><ele>142.89</ele><time>2022-07-16T09:07:15Z</time></trkpt><trkpt lat="51.3940929249" lon="38.0913656764"><ele>142.41</ele><time>2022-07-16T09:07:29Z</time></trkpt><trkpt lat="51.3945319690" lon="38.0917852744"><ele>142.89</ele><time>2022-07-16T09:07:43Z</time></trkpt><trkpt lat="51.3947977591" lon="38.0921473727"><ele>143.37</ele><time>2022-07-16T09:07:52Z</time></trkpt><trkpt lat="51.3950486295" lon="38.0924684834"><ele>142.41</ele><time>2022-07-16T09:08:01Z</time></trkpt><trkpt lat="51.3951552473" lon="38.0927259754"><ele>142.41</ele><time>2022-07-16T09:08:10Z</time></trkpt><trkpt lat="51.3953367155" lon="38.0931467470"><ele>142.41</ele><time>2022-07-16T09:08:20Z</time></trkpt><trkpt lat="51.3953467738" lon="38.0931903329"><ele>142.41</ele><time>2022-07-16T09:08:22Z</time></trkpt><trkpt lat="51.3954178523" lon="38.0933486670"><ele>141.93</ele><time>2022-07-16T09:08:27Z</time></trkpt><trkpt lat="51.3956931140" lon="38.0939066503"><ele>141.93</ele><time>2022-07-16T09:08:40Z</time></trkpt><trkpt lat="51.3960694615" lon="38.0944332015"><ele>142.41</ele><time>2022-07-16T09:08:53Z</time></trkpt><trkpt lat="51.3964653388" lon="38.0950198509"><ele>142.89</ele><time>2022-07-16T09:09:08Z</time></trkpt><trkpt lat="51.3969700970" lon="38.0957411136"><ele>144.34</ele><time>2022-07-16T09:09:26Z</time></trkpt><trkpt lat="51.3974703290" lon="38.0965892784"><ele>144.82</ele><time>2022-07-16T09:09:43Z</time></trkpt><trkpt lat="51.3978648651" lon="38.0971062742"><ele>144.34</ele><time>2022-07-16T09:09:56Z</time></trkpt><trkpt lat="51.3979352731" lon="38.0972076952"><ele>143.85</ele><time>2022-07-16T09:10:05Z</time></trkpt><trkpt lat="51.3979402184" lon="38.0972091202"><ele>143.85</ele><time>2022-07-16T09:10:15Z</time></trkpt><trkpt lat="51.3979995623" lon="38.0973081943"><ele>143.85</ele><time>2022-07-16T09:10:19Z</time></trkpt><trkpt lat="51.3983169850" lon="38.0978363380"><ele>144.34</ele><time>2022-07-16T09:10:34Z</time></trkpt><trkpt lat="51.3986390177" lon="38.0986001808"><ele>144.34</ele><time>2022-07-16T09:10:49Z</time></trkpt><trkpt lat="51.3986631576" lon="38.0986492988"><ele>143.85</ele><time>2022-07-16T09:10:50Z</time></trkpt><trkpt lat="51.3989039697" lon="38.0991818011"><ele>143.85</ele><time>2022-07-16T09:11:02Z</time></trkpt><trkpt lat="51.3989607152" lon="38.0993446615"><ele>143.85</ele><time>2022-07-16T09:11:10Z</time></trkpt><trkpt lat="51.3991123438" lon="38.0998747330"><ele>144.34</ele><time>2022-07-16T09:11:22Z</time></trkpt><trkpt lat="51.3993202988" lon="38.1005549245"><ele>145.30</ele><time>2022-07-16T09:11:35Z</time></trkpt><trkpt lat="51.3994334545" lon="38.1012347806"><ele>144.34</ele><time>2022-07-16T09:11:46Z</time></trkpt><trkpt lat="51.3995642122" lon="38.1021273695"><ele>144.34</ele><time>2022-07-16T09:12:00Z</time></trkpt><trkpt lat="51.3996027689" lon="38.1024208199"><ele>144.34</ele><time>2022-07-16T09:12:05Z</time></trkpt><trkpt lat="51.3997246418" lon="38.1030356325"><ele>145.30</ele><time>2022-07-16T09:12:15Z</time></trkpt><trkpt lat="51.3998848200" lon="38.1035525445"><ele>145.30</ele><time>2022-07-16T09:12:24Z</time></trkpt><trkpt lat="51.3999256399" lon="38.1036494393"><ele>145.30</ele><time>2022-07-16T09:12:26Z</time></trkpt><trkpt lat="51.4000711497" lon="38.1039150618"><ele>144.82</ele><time>2022-07-16T09:12:31Z</time></trkpt><trkpt lat="51.4002504386" lon="38.1042752322"><ele>144.82</ele><time>2022-07-16T09:12:37Z</time></trkpt><trkpt lat="51.4003834594" lon="38.1044955924"><ele>144.82</ele><time>2022-07-16T09:12:41Z</time></trkpt><trkpt lat="51.4010380860" lon="38.1053808052"><ele>144.82</ele><time>2022-07-16T09:12:58Z</time></trkpt><trkpt lat="51.4013442770" lon="38.1056808773"><ele>145.30</ele><time>2022-07-16T09:13:08Z</time></trkpt><trkpt lat="51.4017362148" lon="38.1059718132"><ele>145.78</ele><time>2022-07-16T09:13:18Z</time></trkpt><trkpt lat="51.4020906016" lon="38.1062090211"><ele>145.78</ele><time>2022-07-16T09:13:29Z</time></trkpt><trkpt lat="51.4025184140" lon="38.1066160463"><ele>146.26</ele><time>2022-07-16T09:13:41Z</time></trkpt><trkpt lat="51.4027335774" lon="38.1068175472"><ele>145.30</ele><time>2022-07-16T09:13:46Z</time></trkpt><trkpt lat="51.4030862041" lon="38.1071342994"><ele>144.82</ele><time>2022-07-16T09:13:57Z</time></trkpt><trkpt lat="51.4033750445" lon="38.1075363792"><ele>145.30</ele><time>2022-07-16T09:14:10Z</time></trkpt><trkpt lat="51.4034632221" lon="38.1076409854"><ele>145.78</ele><time>2022-07-16T09:14:15Z</time></trkpt><trkpt lat="51.4037941396" lon="38.1078912690"><ele>146.26</ele><time>2022-07-16T09:14:27Z</time></trkpt><trkpt lat="51.4039964788" lon="38.1081748288"><ele>147.22</ele><time>2022-07-16T09:14:37Z</time></trkpt><trkpt lat="51.4042512886" lon="38.1085171457"><ele>147.22</ele><time>2022-07-16T09:14:47Z</time></trkpt><trkpt lat="51.4046035800" lon="38.1091094110"><ele>145.78</ele><time>2022-07-16T09:15:00Z</time></trkpt><trkpt lat="51.4048523549" lon="38.1096732616"><ele>144.82</ele><time>2022-07-16T09:15:13Z</time></trkpt><trkpt lat="51.4050074201" lon="38.1100697257"><ele>144.82</ele><time>2022-07-16T09:15:23Z</time></trkpt><trkpt lat="51.4052119385" lon="38.1106533576"><ele>144.82</ele><time>2022-07-16T09:15:35Z</time></trkpt><trkpt lat="51.4055964164" lon="38.1113643106"><ele>143.85</ele><time>2022-07-16T09:15:49Z</time></trkpt><trkpt lat="51.4058411680" lon="38.1119602639"><ele>143.37</ele><time>2022-07-16T09:16:01Z</time></trkpt><trkpt lat="51.4061884303" lon="38.1125164032"><ele>144.82</ele><time>2022-07-16T09:16:15Z</time></trkpt><trkpt lat="51.4065597486" lon="38.1126408745"><ele>146.74</ele><time>2022-07-16T09:16:27Z</time></trkpt><trkpt lat="51.4069906622" lon="38.1125731487"><ele>145.78</ele><time>2022-07-16T09:16:38Z</time></trkpt><trkpt lat="51.4070339967" lon="38.1125662755"><ele>145.78</ele><time>2022-07-16T09:16:39Z</time></trkpt><trkpt lat="51.4073238429" lon="38.1124659441"><ele>144.82</ele><time>2022-07-16T09:16:46Z</time></trkpt><trkpt lat="51.4074884634" lon="38.1123763416"><ele>144.82</ele><time>2022-07-16T09:16:51Z</time></trkpt><trkpt lat="51.4078021143" lon="38.1123387069"><ele>144.82</ele><time>2022-07-16T09:17:02Z</time></trkpt><trkpt lat="51.4081805572" lon="38.1121816300"><ele>145.30</ele><time>2022-07-16T09:17:14Z</time></trkpt><trkpt lat="51.4084698167" lon="38.1120387185"><ele>145.30</ele><time>2022-07-16T09:17:25Z</time></trkpt><trkpt lat="51.4089451544" lon="38.1119020097"><ele>145.78</ele><time>2022-07-16T09:17:39Z</time></trkpt><trkpt lat="51.4092796762" lon="38.1116294302"><ele>146.74</ele><time>2022-07-16T09:17:52Z</time></trkpt><trkpt lat="51.4094105177" lon="38.1114992592"><ele>147.70</ele><time>2022-07-16T09:18:02Z</time></trkpt><trkpt lat="51.4095293730" lon="38.1114178710"><ele>148.18</ele><time>2022-07-16T09:18:06Z</time></trkpt><trkpt lat="51.4099586103" lon="38.1113260053"><ele>150.10</ele><time>2022-07-16T09:18:18Z</time></trkpt><trkpt lat="51.4102552459" lon="38.1114026159"><ele>152.99</ele><time>2022-07-16T09:18:29Z</time></trkpt><trkpt lat="51.4105797932" lon="38.1115062162"><ele>153.95</ele><time>2022-07-16T09:18:41Z</time></trkpt><trkpt lat="51.4110186696" lon="38.1117588468"><ele>155.39</ele><time>2022-07-16T09:18:55Z</time></trkpt><trkpt lat="51.4111417998" lon="38.1118471082"><ele>156.83</ele><time>2022-07-16T09:19:01Z</time></trkpt><trkpt lat="51.4114236832" lon="38.1120385509"><ele>160.20</ele><time>2022-07-16T09:19:12Z</time></trkpt><trkpt lat="51.4117887150" lon="38.1122036744"><ele>162.60</ele><time>2022-07-16T09:19:25Z</time></trkpt><trkpt lat="51.4120883681" lon="38.1121045165"><ele>164.52</ele><time>2022-07-16T09:19:37Z</time></trkpt><trkpt lat="51.4125484508" lon="38.1119788717"><ele>165.48</ele><time>2022-07-16T09:19:52Z</time></trkpt><trkpt lat="51.4128050208" lon="38.1121501140"><ele>163.56</ele><time>2022-07-16T09:19:59Z</time></trkpt><trkpt lat="51.4129167516" lon="38.1122972164"><ele>162.60</ele><time>2022-07-16T09:20:06Z</time></trkpt><trkpt lat="51.4130599983" lon="38.1130981911"><ele>159.24</ele><time>2022-07-16T09:20:15Z</time></trkpt><trkpt lat="51.4131135587" lon="38.1135489698"><ele>157.79</ele><time>2022-07-16T09:20:19Z</time></trkpt><trkpt lat="51.4130796120" lon="38.1141613517"><ele>156.35</ele><time>2022-07-16T09:20:24Z</time></trkpt><trkpt lat="51.4130087849" lon="38.1145430636"><ele>154.91</ele><time>2022-07-16T09:20:27Z</time></trkpt><trkpt lat="51.4129287377" lon="38.1150562037"><ele>151.54</ele><time>2022-07-16T09:20:31Z</time></trkpt><trkpt lat="51.4128982276" lon="38.1153295375"><ele>148.18</ele><time>2022-07-16T09:20:34Z</time></trkpt><trkpt lat="51.4128668793" lon="38.1154412683"><ele>147.70</ele><time>2022-07-16T09:20:36Z</time></trkpt><trkpt lat="51.4126203675" lon="38.1155199744"><ele>146.26</ele><time>2022-07-16T09:20:42Z</time></trkpt><trkpt lat="51.4123166911" lon="38.1156692561"><ele>146.26</ele><time>2022-07-16T09:20:47Z</time></trkpt><trkpt lat="51.4115147106" lon="38.1164214481"><ele>144.82</ele><time>2022-07-16T09:21:02Z</time></trkpt><trkpt lat="51.4106926136" lon="38.1170732249"><ele>144.82</ele><time>2022-07-16T09:21:16Z</time></trkpt><trkpt lat="51.4098289423" lon="38.1176889595"><ele>143.85</ele><time>2022-07-16T09:21:30Z</time></trkpt><trkpt lat="51.4092813525" lon="38.1180637144"><ele>143.85</ele><time>2022-07-16T09:21:40Z</time></trkpt><trkpt lat="51.4085493609" lon="38.1185600068"><ele>144.34</ele><time>2022-07-16T09:21:53Z</time></trkpt><trkpt lat="51.4077305328" lon="38.1192045752"><ele>143.85</ele><time>2022-07-16T09:22:06Z</time></trkpt><trkpt lat="51.4070328232" lon="38.1198389176"><ele>143.37</ele><time>2022-07-16T09:22:18Z</time></trkpt><trkpt lat="51.4061894361" lon="38.1201632973"><ele>143.85</ele><time>2022-07-16T09:22:33Z</time></trkpt><trkpt lat="51.4055723604" lon="38.1204066239"><ele>143.37</ele><time>2022-07-16T09:22:44Z</time></trkpt><trkpt lat="51.4049004670" lon="38.1208194327"><ele>142.89</ele><time>2022-07-16T09:22:56Z</time></trkpt><trkpt lat="51.4041818865" lon="38.1211652700"><ele>142.41</ele><time>2022-07-16T09:23:10Z</time></trkpt><trkpt lat="51.4040306769" lon="38.1212472450"><ele>142.89</ele><time>2022-07-16T09:23:14Z</time></trkpt><trkpt lat="51.4040241390" lon="38.1215986982"><ele>140.97</ele><time>2022-07-16T09:23:21Z</time></trkpt><trkpt lat="51.4039961435" lon="38.1217071600"><ele>141.45</ele><time>2022-07-16T09:23:30Z</time></trkpt><trkpt lat="51.4039976522" lon="38.1217058189"><ele>141.45</ele><time>2022-07-16T09:23:31Z</time></trkpt><trkpt lat="51.4038942195" lon="38.1217456330"><ele>141.93</ele><time>2022-07-16T09:23:46Z</time></trkpt><trkpt lat="51.4038773719" lon="38.1217628159"><ele>141.93</ele><time>2022-07-16T09:24:16Z</time></trkpt><trkpt lat="51.4038940519" lon="38.1217727903"><ele>141.93</ele><time>2022-07-16T09:24:48Z</time></trkpt><trkpt lat="51.4039130788" lon="38.1217797473"><ele>141.93</ele><time>2022-07-16T09:25:14Z</time></trkpt><trkpt lat="51.4039000869" lon="38.1217651628"><ele>141.93</ele><time>2022-07-16T09:25:48Z</time></trkpt><trkpt lat="51.4039082173" lon="38.1217708625"><ele>141.93</ele><time>2022-07-16T09:26:28Z</time></trkpt><trkpt lat="51.4038802218" lon="38.1217804179"><ele>141.93</ele><time>2022-07-16T09:27:00Z</time></trkpt><trkpt lat="51.4038761146" lon="38.1217726227"><ele>142.41</ele><time>2022-07-16T09:27:37Z</time></trkpt><trkpt lat="51.4038723428" lon="38.1217686832"><ele>142.41</ele><time>2022-07-16T09:28:15Z</time></trkpt><trkpt lat="51.4038784616" lon="38.1217647437"><ele>141.93</ele><time>2022-07-16T09:28:36Z</time></trkpt><trkpt lat="51.4038714208" lon="38.1217590440"><ele>141.93</ele><time>2022-07-16T09:28:42Z</time></trkpt><trkpt lat="51.4037066326" lon="38.1218991894"><ele>142.41</ele><time>2022-07-16T09:28:52Z</time></trkpt><trkpt lat="51.4036910422" lon="38.1219315436"><ele>142.41</ele><time>2022-07-16T09:28:53Z</time></trkpt><trkpt lat="51.4034550078" lon="38.1225558277"><ele>142.89</ele><time>2022-07-16T09:29:04Z</time></trkpt><trkpt lat="51.4030715358" lon="38.1228642818"><ele>143.85</ele><time>2022-07-16T09:29:13Z</time></trkpt><trkpt lat="51.4027342480" lon="38.1228615995"><ele>143.85</ele><time>2022-07-16T09:29:20Z</time></trkpt><trkpt lat="51.4024297334" lon="38.1231650244"><ele>143.85</ele><time>2022-07-16T09:29:28Z</time></trkpt><trkpt lat="51.4018709119" lon="38.1246965658"><ele>144.34</ele><time>2022-07-16T09:29:49Z</time></trkpt><trkpt lat="51.4012576081" lon="38.1262521632"><ele>144.34</ele><time>2022-07-16T09:30:09Z</time></trkpt><trkpt lat="51.4007182326" lon="38.1275971234"><ele>144.34</ele><time>2022-07-16T09:30:26Z</time></trkpt><trkpt lat="51.4001296554" lon="38.1289264094"><ele>145.78</ele><time>2022-07-16T09:30:44Z</time></trkpt><trkpt lat="51.4000268094" lon="38.1291146670"><ele>145.78</ele><time>2022-07-16T09:30:47Z</time></trkpt><trkpt lat="51.3998683076" lon="38.1293005776"><ele>146.26</ele><time>2022-07-16T09:30:53Z</time></trkpt><trkpt lat="51.3997256476" lon="38.1295706425"><ele>146.26</ele><time>2022-07-16T09:30:59Z</time></trkpt><trkpt lat="51.3995599374" lon="38.1298391987"><ele>147.70</ele><time>2022-07-16T09:31:04Z</time></trkpt><trkpt lat="51.3994155172" lon="38.1299769133"><ele>147.70</ele><time>2022-07-16T09:31:08Z</time></trkpt><trkpt lat="51.3988184743" lon="38.1304514967"><ele>147.70</ele><time>2022-07-16T09:31:22Z</time></trkpt><trkpt lat="51.3983414602" lon="38.1308450270"><ele>148.18</ele><time>2022-07-16T09:31:36Z</time></trkpt><trkpt lat="51.3982135523" lon="38.1310164370"><ele>148.18</ele><time>2022-07-16T09:31:40Z</time></trkpt><trkpt lat="51.3977635279" lon="38.1313228793"><ele>148.66</ele><time>2022-07-16T09:31:53Z</time></trkpt><trkpt lat="51.3972907886" lon="38.1318486761"><ele>150.10</ele><time>2022-07-16T09:32:11Z</time></trkpt><trkpt lat="51.3970431034" lon="38.1323681027"><ele>151.54</ele><time>2022-07-16T09:32:24Z</time></trkpt><trkpt lat="51.3968811650" lon="38.1326556858"><ele>152.03</ele><time>2022-07-16T09:32:33Z</time></trkpt><trkpt lat="51.3967318833" lon="38.1329842564"><ele>152.51</ele><time>2022-07-16T09:32:42Z</time></trkpt><trkpt lat="51.3963801786" lon="38.1337026693"><ele>153.47</ele><time>2022-07-16T09:32:58Z</time></trkpt><trkpt lat="51.3960415497" lon="38.1345920730"><ele>153.95</ele><time>2022-07-16T09:33:15Z</time></trkpt><trkpt lat="51.3960133865" lon="38.1347112637"><ele>153.95</ele><time>2022-07-16T09:33:17Z</time></trkpt><trkpt lat="51.3958382048" lon="38.1350851804"><ele>154.43</ele><time>2022-07-16T09:33:24Z</time></trkpt><trkpt lat="51.3957791124" lon="38.1351935584"><ele>154.43</ele><time>2022-07-16T09:33:26Z</time></trkpt><trkpt lat="51.3955921121" lon="38.1354896910"><ele>155.39</ele><time>2022-07-16T09:33:32Z</time></trkpt><trkpt lat="51.3954257313" lon="38.1357145775"><ele>155.87</ele><time>2022-07-16T09:33:37Z</time></trkpt><trkpt lat="51.3948695920" lon="38.1365243532"><ele>156.83</ele><time>2022-07-16T09:33:53Z</time></trkpt><trkpt lat="51.3942878041" lon="38.1373845879"><ele>158.27</ele><time>2022-07-16T09:34:10Z</time></trkpt><trkpt lat="51.3941535261" lon="38.1375819817"><ele>158.75</ele><time>2022-07-16T09:34:14Z</time></trkpt><trkpt lat="51.3937004004" lon="38.1382212695"><ele>160.20</ele><time>2022-07-16T09:34:28Z</time></trkpt><trkpt lat="51.3932316005" lon="38.1389218289"><ele>161.16</ele><time>2022-07-16T09:34:44Z</time></trkpt><trkpt lat="51.3929275051" lon="38.1393864378"><ele>162.12</ele><time>2022-07-16T09:34:55Z</time></trkpt><trkpt lat="51.3925861940" lon="38.1399177667"><ele>162.60</ele><time>2022-07-16T09:35:07Z</time></trkpt><trkpt lat="51.3921034802" lon="38.1405925099"><ele>163.08</ele><time>2022-07-16T09:35:22Z</time></trkpt><trkpt lat="51.3919124566" lon="38.1408782490"><ele>163.56</ele><time>2022-07-16T09:35:28Z</time></trkpt><trkpt lat="51.3914128952" lon="38.1416184548"><ele>164.04</ele><time>2022-07-16T09:35:43Z</time></trkpt><trkpt lat="51.3908719271" lon="38.1424409710"><ele>165.48</ele><time>2022-07-16T09:35:59Z</time></trkpt><trkpt lat="51.3908130862" lon="38.1425383687"><ele>165.48</ele><time>2022-07-16T09:36:01Z</time></trkpt><trkpt lat="51.3907178678" lon="38.1426723115"><ele>165.48</ele><time>2022-07-16T09:36:04Z</time></trkpt><trkpt lat="51.3905452006" lon="38.1430080906"><ele>165.48</ele><time>2022-07-16T09:36:10Z</time></trkpt><trkpt lat="51.3902346510" lon="38.1434409320"><ele>165.96</ele><time>2022-07-16T09:36:19Z</time></trkpt><trkpt lat="51.3900815137" lon="38.1437073927"><ele>165.96</ele><time>2022-07-16T09:36:24Z</time></trkpt><trkpt lat="51.3899387699" lon="38.1439673994"><ele>165.96</ele><time>2022-07-16T09:36:29Z</time></trkpt><trkpt lat="51.3893834688" lon="38.1447994709"><ele>166.93</ele><time>2022-07-16T09:36:46Z</time></trkpt><trkpt lat="51.3892822154" lon="38.1449240260"><ele>167.41</ele><time>2022-07-16T09:36:49Z</time></trkpt><trkpt lat="51.3888176065" lon="38.1456108391"><ele>168.37</ele><time>2022-07-16T09:37:04Z</time></trkpt><trkpt lat="51.3884324580" lon="38.1461713370"><ele>168.85</ele><time>2022-07-16T09:37:16Z</time></trkpt><trkpt lat="51.3883083221" lon="38.1463430822"><ele>168.85</ele><time>2022-07-16T09:37:20Z</time></trkpt><trkpt lat="51.3881501555" lon="38.1465638615"><ele>169.33</ele><time>2022-07-16T09:37:25Z</time></trkpt><trkpt lat="51.3879897259" lon="38.1467998121"><ele>169.81</ele><time>2022-07-16T09:37:30Z</time></trkpt><trkpt lat="51.3875311520" lon="38.1474479008"><ele>171.25</ele><time>2022-07-16T09:37:45Z</time></trkpt><trkpt lat="51.3872339297" lon="38.1478813291"><ele>172.21</ele><time>2022-07-16T09:37:55Z</time></trkpt><trkpt lat="51.3869649544" lon="38.1482905336"><ele>173.17</ele><time>2022-07-16T09:38:04Z</time></trkpt><trkpt lat="51.3868062850" lon="38.1484994106"><ele>173.66</ele><time>2022-07-16T09:38:09Z</time></trkpt><trkpt lat="51.3867400680" lon="38.1485833135"><ele>174.14</ele><time>2022-07-16T09:38:11Z</time></trkpt><trkpt lat="51.3866330311" lon="38.1486818008"><ele>174.62</ele><time>2022-07-16T09:38:14Z</time></trkpt><trkpt lat="51.3863171171" lon="38.1489367783"><ele>174.62</ele><time>2022-07-16T09:38:22Z</time></trkpt><trkpt lat="51.3862448651" lon="38.1490182504"><ele>174.62</ele><time>2022-07-16T09:38:24Z</time></trkpt><trkpt lat="51.3857974391" lon="38.1496211607"><ele>175.58</ele><time>2022-07-16T09:38:39Z</time></trkpt><trkpt lat="51.3853951078" lon="38.1501439400"><ele>177.02</ele><time>2022-07-16T09:38:54Z</time></trkpt><trkpt lat="51.3851787709" lon="38.1504533999"><ele>177.98</ele><time>2022-07-16T09:39:06Z</time></trkpt><trkpt lat="51.3848243840" lon="38.1508895103"><ele>178.94</ele><time>2022-07-16T09:39:20Z</time></trkpt><trkpt lat="51.3846398983" lon="38.1511095352"><ele>179.90</ele><time>2022-07-16T09:39:29Z</time></trkpt><trkpt lat="51.3842730224" lon="38.1516641658"><ele>181.83</ele><time>2022-07-16T09:39:46Z</time></trkpt><trkpt lat="51.3840298634" lon="38.1520466320"><ele>182.79</ele><time>2022-07-16T09:39:59Z</time></trkpt><trkpt lat="51.3837708626" lon="38.1524253264"><ele>183.75</ele><time>2022-07-16T09:40:12Z</time></trkpt><trkpt lat="51.3834942598" lon="38.1528699864"><ele>185.67</ele><time>2022-07-16T09:40:27Z</time></trkpt><trkpt lat="51.3832205068" lon="38.1533249561"><ele>187.11</ele><time>2022-07-16T09:40:42Z</time></trkpt><trkpt lat="51.3829627633" lon="38.1537089311"><ele>188.56</ele><time>2022-07-16T09:40:55Z</time></trkpt><trkpt lat="51.3826813828" lon="38.1541621406"><ele>190.48</ele><time>2022-07-16T09:41:10Z</time></trkpt><trkpt lat="51.3824477792" lon="38.1545533240"><ele>191.92</ele><time>2022-07-16T09:41:23Z</time></trkpt><trkpt lat="51.3822534867" lon="38.1548550725"><ele>193.36</ele><time>2022-07-16T09:41:33Z</time></trkpt><trkpt lat="51.3819958270" lon="38.1552859861"><ele>195.28</ele><time>2022-07-16T09:41:47Z</time></trkpt><trkpt lat="51.3816867862" lon="38.1557420455"><ele>197.69</ele><time>2022-07-16T09:42:02Z</time></trkpt><trkpt lat="51.3813238498" lon="38.1562556047"><ele>199.61</ele><time>2022-07-16T09:42:17Z</time></trkpt><trkpt lat="51.3810415473" lon="38.1566581875"><ele>202.01</ele><time>2022-07-16T09:42:29Z</time></trkpt><trkpt lat="51.3806885015" lon="38.1571429130"><ele>204.42</ele><time>2022-07-16T09:42:44Z</time></trkpt><trkpt lat="51.3802767824" lon="38.1575318333"><ele>206.34</ele><time>2022-07-16T09:42:59Z</time></trkpt><trkpt lat="51.3798765466" lon="38.1573787797"><ele>207.30</ele><time>2022-07-16T09:43:11Z</time></trkpt><trkpt lat="51.3793753088" lon="38.1568210479"><ele>207.78</ele><time>2022-07-16T09:43:25Z</time></trkpt><trkpt lat="51.3791513443" lon="38.1567465328"><ele>208.26</ele><time>2022-07-16T09:43:30Z</time></trkpt><trkpt lat="51.3789781742" lon="38.1567732710"><ele>208.74</ele><time>2022-07-16T09:43:34Z</time></trkpt><trkpt lat="51.3783455081" lon="38.1572269835"><ele>210.67</ele><time>2022-07-16T09:43:50Z</time></trkpt><trkpt lat="51.3775822520" lon="38.1577785127"><ele>211.63</ele><time>2022-07-16T09:44:08Z</time></trkpt><trkpt lat="51.3770159706" lon="38.1584895495"><ele>212.59</ele><time>2022-07-16T09:44:23Z</time></trkpt><trkpt lat="51.3763578236" lon="38.1592726707"><ele>214.03</ele><time>2022-07-16T09:44:40Z</time></trkpt><trkpt lat="51.3757264148" lon="38.1599798519"><ele>215.95</ele><time>2022-07-16T09:44:57Z</time></trkpt><trkpt lat="51.3749389350" lon="38.1604321394"><ele>217.40</ele><time>2022-07-16T09:45:14Z</time></trkpt><trkpt lat="51.3741270639" lon="38.1607536692"><ele>218.36</ele><time>2022-07-16T09:45:31Z</time></trkpt><trkpt lat="51.3734405860" lon="38.1612546556"><ele>219.32</ele><time>2022-07-16T09:45:48Z</time></trkpt><trkpt lat="51.3728776574" lon="38.1619568076"><ele>221.24</ele><time>2022-07-16T09:46:03Z</time></trkpt><trkpt lat="51.3722257130" lon="38.1626382563"><ele>221.24</ele><time>2022-07-16T09:46:19Z</time></trkpt><trkpt lat="51.3718531374" lon="38.1631834153"><ele>219.32</ele><time>2022-07-16T09:46:29Z</time></trkpt><trkpt lat="51.3716393150" lon="38.1635404844"><ele>219.32</ele><time>2022-07-16T09:46:35Z</time></trkpt><trkpt lat="51.3715665601" lon="38.1636535563"><ele>219.32</ele><time>2022-07-16T09:46:37Z</time></trkpt><trkpt lat="51.3710376620" lon="38.1644636672"><ele>219.32</ele><time>2022-07-16T09:46:50Z</time></trkpt><trkpt lat="51.3702977076" lon="38.1654695794"><ele>219.32</ele><time>2022-07-16T09:47:06Z</time></trkpt><trkpt lat="51.3697051071" lon="38.1664333306"><ele>218.84</ele><time>2022-07-16T09:47:21Z</time></trkpt><trkpt lat="51.3690929767" lon="38.1673619617"><ele>219.32</ele><time>2022-07-16T09:47:36Z</time></trkpt><trkpt lat="51.3684353326" lon="38.1682964601"><ele>219.32</ele><time>2022-07-16T09:47:52Z</time></trkpt><trkpt lat="51.3679542951" lon="38.1689971872"><ele>219.32</ele><time>2022-07-16T09:48:04Z</time></trkpt><trkpt lat="51.3677938655" lon="38.1695442740"><ele>218.84</ele><time>2022-07-16T09:48:12Z</time></trkpt><trkpt lat="51.3677956257" lon="38.1697720941"><ele>218.84</ele><time>2022-07-16T09:48:15Z</time></trkpt><trkpt lat="51.3678033371" lon="38.1699275784"><ele>218.84</ele><time>2022-07-16T09:48:17Z</time></trkpt><trkpt lat="51.3677483518" lon="38.1707510166"><ele>219.80</ele><time>2022-07-16T09:48:28Z</time></trkpt><trkpt lat="51.3677113038" lon="38.1708873063"><ele>219.32</ele><time>2022-07-16T09:48:30Z</time></trkpt><trkpt lat="51.3676328491" lon="38.1710903160"><ele>219.32</ele><time>2022-07-16T09:48:33Z</time></trkpt><trkpt lat="51.3670513127" lon="38.1721222121"><ele>218.36</ele><time>2022-07-16T09:48:50Z</time></trkpt><trkpt lat="51.3666605484" lon="38.1725816242"><ele>217.88</ele><time>2022-07-16T09:49:00Z</time></trkpt><trkpt lat="51.3665142842" lon="38.1728280522"><ele>217.40</ele><time>2022-07-16T09:49:04Z</time></trkpt><trkpt lat="51.3664096780" lon="38.1739683263"><ele>218.36</ele><time>2022-07-16T09:49:18Z</time></trkpt><trkpt lat="51.3663974404" lon="38.1740449369"><ele>218.36</ele><time>2022-07-16T09:49:19Z</time></trkpt><trkpt lat="51.3659875654" lon="38.1749655213"><ele>218.36</ele><time>2022-07-16T09:49:34Z</time></trkpt><trkpt lat="51.3653429132" lon="38.1759068090"><ele>218.36</ele><time>2022-07-16T09:49:51Z</time></trkpt><trkpt lat="51.3647513185" lon="38.1767611764"><ele>218.36</ele><time>2022-07-16T09:50:06Z</time></trkpt><trkpt lat="51.3640776649" lon="38.1777183898"><ele>218.84</ele><time>2022-07-16T09:50:23Z</time></trkpt><trkpt lat="51.3634404726" lon="38.1786994915"><ele>219.80</ele><time>2022-07-16T09:50:40Z</time></trkpt><trkpt lat="51.3633587491" lon="38.1788065284"><ele>219.80</ele><time>2022-07-16T09:50:42Z</time></trkpt><trkpt lat="51.3628799748" lon="38.1793182436"><ele>219.32</ele><time>2022-07-16T09:50:53Z</time></trkpt><trkpt lat="51.3627244066" lon="38.1795282103"><ele>219.32</ele><time>2022-07-16T09:50:57Z</time></trkpt><trkpt lat="51.3626200520" lon="38.1797060743"><ele>219.32</ele><time>2022-07-16T09:51:00Z</time></trkpt><trkpt lat="51.3624748774" lon="38.1800238322"><ele>219.32</ele><time>2022-07-16T09:51:05Z</time></trkpt><trkpt lat="51.3623722829" lon="38.1801960804"><ele>218.84</ele><time>2022-07-16T09:51:08Z</time></trkpt><trkpt lat="51.3616500143" lon="38.1809377111"><ele>220.28</ele><time>2022-07-16T09:51:25Z</time></trkpt><trkpt lat="51.3609252311" lon="38.1816745643"><ele>219.80</ele><time>2022-07-16T09:51:41Z</time></trkpt><trkpt lat="51.3602982648" lon="38.1823405065"><ele>219.80</ele><time>2022-07-16T09:51:55Z</time></trkpt><trkpt lat="51.3602175470" lon="38.1824627984"><ele>219.32</ele><time>2022-07-16T09:51:57Z</time></trkpt><trkpt lat="51.3597717974" lon="38.1832747534"><ele>219.80</ele><time>2022-07-16T09:52:10Z</time></trkpt><trkpt lat="51.3590277359" lon="38.1842551008"><ele>218.36</ele><time>2022-07-16T09:52:27Z</time></trkpt><trkpt lat="51.3583328761" lon="38.1850925367"><ele>218.36</ele><time>2022-07-16T09:52:43Z</time></trkpt><trkpt lat="51.3576305564" lon="38.1858538650"><ele>218.36</ele><time>2022-07-16T09:52:59Z</time></trkpt><trkpt lat="51.3571062684" lon="38.1864761375"><ele>217.88</ele><time>2022-07-16T09:53:12Z</time></trkpt><trkpt lat="51.3568818010" lon="38.1867167819"><ele>217.40</ele><time>2022-07-16T09:53:17Z</time></trkpt><trkpt lat="51.3567009196" lon="38.1869539060"><ele>217.40</ele><time>2022-07-16T09:53:22Z</time></trkpt><trkpt lat="51.3564469479" lon="38.1872391421"><ele>218.36</ele><time>2022-07-16T09:53:29Z</time></trkpt><trkpt lat="51.3563625421" lon="38.1876579858"><ele>218.84</ele><time>2022-07-16T09:53:37Z</time></trkpt><trkpt lat="51.3565294258" lon="38.1879534479"><ele>218.84</ele><time>2022-07-16T09:53:43Z</time></trkpt><trkpt lat="51.3567401469" lon="38.1885149516"><ele>218.84</ele><time>2022-07-16T09:53:52Z</time></trkpt><trkpt lat="51.3571967091" lon="38.1892631203"><ele>218.36</ele><time>2022-07-16T09:54:07Z</time></trkpt><trkpt lat="51.3573796023" lon="38.1894646212"><ele>218.36</ele><time>2022-07-16T09:54:12Z</time></trkpt><trkpt lat="51.3580573630" lon="38.1903396081"><ele>218.36</ele><time>2022-07-16T09:54:29Z</time></trkpt><trkpt lat="51.3586362172" lon="38.1912136730"><ele>217.40</ele><time>2022-07-16T09:54:44Z</time></trkpt><trkpt lat="51.3586711697" lon="38.1912732683"><ele>217.40</ele><time>2022-07-16T09:54:45Z</time></trkpt><trkpt lat="51.3588839862" lon="38.1918710656"><ele>216.91</ele><time>2022-07-16T09:54:53Z</time></trkpt><trkpt lat="51.3591958769" lon="38.1927401014"><ele>215.47</ele><time>2022-07-16T09:55:05Z</time></trkpt><trkpt lat="51.3593383692" lon="38.1932622939"><ele>214.99</ele><time>2022-07-16T09:55:12Z</time></trkpt><trkpt lat="51.3594252057" lon="38.1934668124"><ele>214.99</ele><time>2022-07-16T09:55:15Z</time></trkpt><trkpt lat="51.3594995532" lon="38.1937445048"><ele>214.99</ele><time>2022-07-16T09:55:19Z</time></trkpt><trkpt lat="51.3596914150" lon="38.1943409611"><ele>214.99</ele><time>2022-07-16T09:55:28Z</time></trkpt><trkpt lat="51.3599200733" lon="38.1950437836"><ele>214.99</ele><time>2022-07-16T09:55:38Z</time></trkpt><trkpt lat="51.3604354765" lon="38.1960089598"><ele>214.99</ele><time>2022-07-16T09:55:53Z</time></trkpt><trkpt lat="51.3610335253" lon="38.1970733777"><ele>215.47</ele><time>2022-07-16T09:56:10Z</time></trkpt><trkpt lat="51.3614103757" lon="38.1977081392"><ele>215.47</ele><time>2022-07-16T09:56:20Z</time></trkpt><trkpt lat="51.3615953643" lon="38.1980261486"><ele>215.47</ele><time>2022-07-16T09:56:25Z</time></trkpt><trkpt lat="51.3618338294" lon="38.1985982135"><ele>215.47</ele><time>2022-07-16T09:56:33Z</time></trkpt><trkpt lat="51.3624894619" lon="38.1997906230"><ele>213.07</ele><time>2022-07-16T09:56:50Z</time></trkpt><trkpt lat="51.3630042784" lon="38.2007073518"><ele>210.19</ele><time>2022-07-16T09:57:03Z</time></trkpt><trkpt lat="51.3632560708" lon="38.2012015488"><ele>210.19</ele><time>2022-07-16T09:57:10Z</time></trkpt><trkpt lat="51.3638838753" lon="38.2024944574"><ele>205.86</ele><time>2022-07-16T09:57:27Z</time></trkpt><trkpt lat="51.3641836960" lon="38.2031657640"><ele>202.98</ele><time>2022-07-16T09:57:35Z</time></trkpt><trkpt lat="51.3644877076" lon="38.2038923074"><ele>200.09</ele><time>2022-07-16T09:57:43Z</time></trkpt><trkpt lat="51.3647683337" lon="38.2045877539"><ele>196.73</ele><time>2022-07-16T09:57:50Z</time></trkpt><trkpt lat="51.3648561761" lon="38.2048113830"><ele>196.25</ele><time>2022-07-16T09:57:52Z</time></trkpt><trkpt lat="51.3650535699" lon="38.2053937577"><ele>193.84</ele><time>2022-07-16T09:57:57Z</time></trkpt><trkpt lat="51.3652317692" lon="38.2063756138"><ele>190.48</ele><time>2022-07-16T09:58:05Z</time></trkpt><trkpt lat="51.3652544841" lon="38.2065010909"><ele>190.00</ele><time>2022-07-16T09:58:06Z</time></trkpt><trkpt lat="51.3654746767" lon="38.2073728926"><ele>186.63</ele><time>2022-07-16T09:58:13Z</time></trkpt><trkpt lat="51.3655150775" lon="38.2074937597"><ele>186.63</ele><time>2022-07-16T09:58:14Z</time></trkpt><trkpt lat="51.3657516148" lon="38.2082146872"><ele>183.27</ele><time>2022-07-16T09:58:20Z</time></trkpt><trkpt lat="51.3657858130" lon="38.2083409186"><ele>182.79</ele><time>2022-07-16T09:58:21Z</time></trkpt><trkpt lat="51.3661442231" lon="38.2093164884"><ele>179.42</ele><time>2022-07-16T09:58:29Z</time></trkpt><trkpt lat="51.3663525134" lon="38.2100874558"><ele>175.58</ele><time>2022-07-16T09:58:35Z</time></trkpt><trkpt lat="51.3665207382" lon="38.2110783644"><ele>172.21</ele><time>2022-07-16T09:58:42Z</time></trkpt><trkpt lat="51.3666214049" lon="38.2121423632"><ele>169.33</ele><time>2022-07-16T09:58:50Z</time></trkpt><trkpt lat="51.3667278551" lon="38.2127428427"><ele>166.45</ele><time>2022-07-16T09:58:56Z</time></trkpt><trkpt lat="51.3666643202" lon="38.2135999762"><ele>164.52</ele><time>2022-07-16T09:59:07Z</time></trkpt><trkpt lat="51.3665929902" lon="38.2137189154"><ele>164.52</ele><time>2022-07-16T09:59:09Z</time></trkpt><trkpt lat="51.3663738035" lon="38.2140797563"><ele>163.56</ele><time>2022-07-16T09:59:15Z</time></trkpt><trkpt lat="51.3662720472" lon="38.2144467998"><ele>162.12</ele><time>2022-07-16T09:59:19Z</time></trkpt><trkpt lat="51.3660605717" lon="38.2158298139"><ele>159.24</ele><time>2022-07-16T09:59:32Z</time></trkpt><trkpt lat="51.3660744019" lon="38.2162126154"><ele>159.24</ele><time>2022-07-16T09:59:37Z</time></trkpt><trkpt lat="51.3660357613" lon="38.2171176095"><ele>162.12</ele><time>2022-07-16T09:59:51Z</time></trkpt><trkpt lat="51.3660644274" lon="38.2178563904"><ele>164.04</ele><time>2022-07-16T10:00:04Z</time></trkpt><trkpt lat="51.3660538662" lon="38.2187242527"><ele>166.45</ele><time>2022-07-16T10:00:19Z</time></trkpt><trkpt lat="51.3661396969" lon="38.2193217985"><ele>165.96</ele><time>2022-07-16T10:00:28Z</time></trkpt><trkpt lat="51.3662397768" lon="38.2195807993"><ele>165.96</ele><time>2022-07-16T10:00:32Z</time></trkpt><trkpt lat="51.3663085084" lon="38.2196898479"><ele>166.45</ele><time>2022-07-16T10:00:34Z</time></trkpt><trkpt lat="51.3671418373" lon="38.2204864640"><ele>164.52</ele><time>2022-07-16T10:00:53Z</time></trkpt><trkpt lat="51.3678995613" lon="38.2211830840"><ele>162.60</ele><time>2022-07-16T10:01:10Z</time></trkpt><trkpt lat="51.3681980409" lon="38.2214228064"><ele>161.64</ele><time>2022-07-16T10:01:20Z</time></trkpt><trkpt lat="51.3685941696" lon="38.2207310479"><ele>161.16</ele><time>2022-07-16T10:01:32Z</time></trkpt><trkpt lat="51.3688432798" lon="38.2205163036"><ele>160.68</ele><time>2022-07-16T10:01:37Z</time></trkpt><trkpt lat="51.3694013469" lon="38.2195236348"><ele>157.79</ele><time>2022-07-16T10:01:50Z</time></trkpt><trkpt lat="51.3695015945" lon="38.2193497941"><ele>157.31</ele><time>2022-07-16T10:01:52Z</time></trkpt><trkpt lat="51.3698991481" lon="38.2191249076"><ele>156.35</ele><time>2022-07-16T10:01:58Z</time></trkpt><trkpt lat="51.3708240073" lon="38.2197525445"><ele>155.87</ele><time>2022-07-16T10:02:14Z</time></trkpt><trkpt lat="51.3717062864" lon="38.2203454804"><ele>155.87</ele><time>2022-07-16T10:02:31Z</time></trkpt><trkpt lat="51.3724959455" lon="38.2209967542"><ele>155.87</ele><time>2022-07-16T10:02:47Z</time></trkpt><trkpt lat="51.3731972594" lon="38.2217855752"><ele>155.87</ele><time>2022-07-16T10:03:02Z</time></trkpt><trkpt lat="51.3739949651" lon="38.2227169722"><ele>155.87</ele><time>2022-07-16T10:03:19Z</time></trkpt><trkpt lat="51.3747530244" lon="38.2235940546"><ele>156.35</ele><time>2022-07-16T10:03:35Z</time></trkpt><trkpt lat="51.3755563460" lon="38.2245324925"><ele>156.35</ele><time>2022-07-16T10:03:52Z</time></trkpt><trkpt lat="51.3763536327" lon="38.2254736125"><ele>157.79</ele><time>2022-07-16T10:04:10Z</time></trkpt><trkpt lat="51.3768801000" lon="38.2260147482"><ele>157.31</ele><time>2022-07-16T10:04:22Z</time></trkpt><trkpt lat="51.3770989515" lon="38.2262845617"><ele>155.87</ele><time>2022-07-16T10:04:28Z</time></trkpt><trkpt lat="51.3771823514" lon="38.2266029902"><ele>155.87</ele><time>2022-07-16T10:04:34Z</time></trkpt><trkpt lat="51.3768987916" lon="38.2270904817"><ele>156.35</ele><time>2022-07-16T10:04:45Z</time></trkpt><trkpt lat="51.3766696304" lon="38.2274776418"><ele>156.83</ele><time>2022-07-16T10:04:53Z</time></trkpt><trkpt lat="51.3763025869" lon="38.2283930294"><ele>156.83</ele><time>2022-07-16T10:05:10Z</time></trkpt><trkpt lat="51.3761360385" lon="38.2288681157"><ele>157.31</ele><time>2022-07-16T10:05:19Z</time></trkpt><trkpt lat="51.3758738525" lon="38.2297225669"><ele>157.79</ele><time>2022-07-16T10:05:33Z</time></trkpt><trkpt lat="51.3758747745" lon="38.2300454378"><ele>157.79</ele><time>2022-07-16T10:05:38Z</time></trkpt><trkpt lat="51.3759098109" lon="38.2301739324"><ele>157.79</ele><time>2022-07-16T10:05:40Z</time></trkpt><trkpt lat="51.3758784626" lon="38.2309293933"><ele>159.24</ele><time>2022-07-16T10:05:53Z</time></trkpt><trkpt lat="51.3756291848" lon="38.2315994427"><ele>162.12</ele><time>2022-07-16T10:06:07Z</time></trkpt><trkpt lat="51.3753871992" lon="38.2325435802"><ele>163.56</ele><time>2022-07-16T10:06:23Z</time></trkpt><trkpt lat="51.3753566891" lon="38.2327458356"><ele>164.04</ele><time>2022-07-16T10:06:26Z</time></trkpt><trkpt lat="51.3751350716" lon="38.2338151988"><ele>165.48</ele><time>2022-07-16T10:06:43Z</time></trkpt><trkpt lat="51.3749541901" lon="38.2347590849"><ele>166.45</ele><time>2022-07-16T10:06:58Z</time></trkpt><trkpt lat="51.3748930860" lon="38.2351327501"><ele>166.45</ele><time>2022-07-16T10:07:04Z</time></trkpt><trkpt lat="51.3749121130" lon="38.2353687007"><ele>166.45</ele><time>2022-07-16T10:07:08Z</time></trkpt><trkpt lat="51.3751127757" lon="38.2358296216"><ele>168.37</ele><time>2022-07-16T10:07:22Z</time></trkpt><trkpt lat="51.3753840979" lon="38.2363527361"><ele>171.25</ele><time>2022-07-16T10:07:38Z</time></trkpt><trkpt lat="51.3756435178" lon="38.2369859889"><ele>173.66</ele><time>2022-07-16T10:07:54Z</time></trkpt><trkpt lat="51.3759221323" lon="38.2375186589"><ele>174.14</ele><time>2022-07-16T10:08:07Z</time></trkpt><trkpt lat="51.3762359507" lon="38.2380020432"><ele>174.14</ele><time>2022-07-16T10:08:18Z</time></trkpt><trkpt lat="51.3763206080" lon="38.2381606288"><ele>173.66</ele><time>2022-07-16T10:08:21Z</time></trkpt><trkpt lat="51.3763728272" lon="38.2384157740"><ele>173.66</ele><time>2022-07-16T10:08:25Z</time></trkpt><trkpt lat="51.3763921894" lon="38.2391254697"><ele>174.62</ele><time>2022-07-16T10:08:40Z</time></trkpt><trkpt lat="51.3763453346" lon="38.2398301363"><ele>175.58</ele><time>2022-07-16T10:08:56Z</time></trkpt><trkpt lat="51.3765305746" lon="38.2402892131"><ele>174.14</ele><time>2022-07-16T10:09:08Z</time></trkpt><trkpt lat="51.3766295649" lon="38.2405437715"><ele>170.77</ele><time>2022-07-16T10:09:16Z</time></trkpt><trkpt lat="51.3766320795" lon="38.2405687496"><ele>170.77</ele><time>2022-07-16T10:09:17Z</time></trkpt><trkpt lat="51.3766324148" lon="38.2406470366"><ele>169.33</ele><time>2022-07-16T10:09:20Z</time></trkpt><trkpt lat="51.3766500168" lon="38.2408078015"><ele>165.96</ele><time>2022-07-16T10:09:26Z</time></trkpt><trkpt lat="51.3766677864" lon="38.2409683987"><ele>163.56</ele><time>2022-07-16T10:09:30Z</time></trkpt><trkpt lat="51.3766532019" lon="38.2410287485"><ele>164.04</ele><time>2022-07-16T10:09:42Z</time></trkpt><trkpt lat="51.3766395394" lon="38.2410449255"><ele>163.08</ele><time>2022-07-16T10:10:11Z</time></trkpt><trkpt lat="51.3767036609" lon="38.2409709971"><ele>163.56</ele><time>2022-07-16T10:10:18Z</time></trkpt><trkpt lat="51.3770657592" lon="38.2407967374"><ele>163.08</ele><time>2022-07-16T10:10:32Z</time></trkpt><trkpt lat="51.3773666695" lon="38.2408653013"><ele>162.60</ele><time>2022-07-16T10:10:43Z</time></trkpt><trkpt lat="51.3776653167" lon="38.2409699913"><ele>162.12</ele><time>2022-07-16T10:10:54Z</time></trkpt><trkpt lat="51.3776358962" lon="38.2411915250"><ele>163.08</ele><time>2022-07-16T10:11:03Z</time></trkpt><trkpt lat="51.3772353251" lon="38.2416257076"><ele>165.00</ele><time>2022-07-16T10:11:19Z</time></trkpt><trkpt lat="51.3767971192" lon="38.2421390153"><ele>167.41</ele><time>2022-07-16T10:11:36Z</time></trkpt><trkpt lat="51.3766212668" lon="38.2424884569"><ele>170.77</ele><time>2022-07-16T10:11:47Z</time></trkpt><trkpt lat="51.3764906768" lon="38.2428611163"><ele>174.14</ele><time>2022-07-16T10:11:59Z</time></trkpt><trkpt lat="51.3763733301" lon="38.2432440855"><ele>177.50</ele><time>2022-07-16T10:12:12Z</time></trkpt><trkpt lat="51.3762795366" lon="38.2436105423"><ele>180.87</ele><time>2022-07-16T10:12:25Z</time></trkpt><trkpt lat="51.3762284908" lon="38.2440874726"><ele>182.79</ele><time>2022-07-16T10:12:39Z</time></trkpt><trkpt lat="51.3762608450" lon="38.2446390018"><ele>185.67</ele><time>2022-07-16T10:12:53Z</time></trkpt><trkpt lat="51.3763149921" lon="38.2451720070"><ele>188.56</ele><time>2022-07-16T10:13:07Z</time></trkpt><trkpt lat="51.3763487712" lon="38.2456446625"><ele>191.44</ele><time>2022-07-16T10:13:18Z</time></trkpt><trkpt lat="51.3764472585" lon="38.2463115267"><ele>193.36</ele><time>2022-07-16T10:13:33Z</time></trkpt><trkpt lat="51.3764235377" lon="38.2470276766"><ele>194.80</ele><time>2022-07-16T10:13:47Z</time></trkpt><trkpt lat="51.3763218652" lon="38.2474922016"><ele>195.77</ele><time>2022-07-16T10:13:58Z</time></trkpt><trkpt lat="51.3762237132" lon="38.2480467483"><ele>197.69</ele><time>2022-07-16T10:14:09Z</time></trkpt><trkpt lat="51.3761160895" lon="38.2487230841"><ele>200.09</ele><time>2022-07-16T10:14:23Z</time></trkpt><trkpt lat="51.3760012574" lon="38.2494858373"><ele>202.49</ele><time>2022-07-16T10:14:38Z</time></trkpt><trkpt lat="51.3758198731" lon="38.2503462397"><ele>205.38</ele><time>2022-07-16T10:14:55Z</time></trkpt><trkpt lat="51.3755653147" lon="38.2511687558"><ele>206.82</ele><time>2022-07-16T10:15:11Z</time></trkpt><trkpt lat="51.3753756322" lon="38.2518061996"><ele>207.30</ele><time>2022-07-16T10:15:22Z</time></trkpt><trkpt lat="51.3750396855" lon="38.2530411053"><ele>208.26</ele><time>2022-07-16T10:15:40Z</time></trkpt><trkpt lat="51.3748625759" lon="38.2541984785"><ele>208.74</ele><time>2022-07-16T10:15:54Z</time></trkpt><trkpt lat="51.3748390228" lon="38.2557455264"><ele>209.70</ele><time>2022-07-16T10:16:13Z</time></trkpt><trkpt lat="51.3749722112" lon="38.2569511794"><ele>209.70</ele><time>2022-07-16T10:16:28Z</time></trkpt><trkpt lat="51.3751851954" lon="38.2585013285"><ele>209.70</ele><time>2022-07-16T10:16:47Z</time></trkpt><trkpt lat="51.3754095789" lon="38.2600125019"><ele>209.22</ele><time>2022-07-16T10:17:05Z</time></trkpt><trkpt lat="51.3755333796" lon="38.2612972800"><ele>208.26</ele><time>2022-07-16T10:17:20Z</time></trkpt><trkpt lat="51.3752985187" lon="38.2622537389"><ele>207.78</ele><time>2022-07-16T10:17:33Z</time></trkpt><trkpt lat="51.3752447907" lon="38.2623839099"><ele>207.78</ele><time>2022-07-16T10:17:35Z</time></trkpt><trkpt lat="51.3751908112" lon="38.2627452537"><ele>207.30</ele><time>2022-07-16T10:17:40Z</time></trkpt><trkpt lat="51.3751959242" lon="38.2637080830"><ele>207.30</ele><time>2022-07-16T10:17:56Z</time></trkpt><trkpt lat="51.3751917332" lon="38.2638758048"><ele>206.82</ele><time>2022-07-16T10:17:59Z</time></trkpt><trkpt lat="51.3751498237" lon="38.2640592009"><ele>207.30</ele><time>2022-07-16T10:18:02Z</time></trkpt><trkpt lat="51.3748940080" lon="38.2648302522"><ele>206.82</ele><time>2022-07-16T10:18:13Z</time></trkpt><trkpt lat="51.3747874741" lon="38.2651928533"><ele>206.82</ele><time>2022-07-16T10:18:18Z</time></trkpt><trkpt lat="51.3746068440" lon="38.2658302970"><ele>205.86</ele><time>2022-07-16T10:18:27Z</time></trkpt><trkpt lat="51.3745514397" lon="38.2665401604"><ele>205.86</ele><time>2022-07-16T10:18:38Z</time></trkpt><trkpt lat="51.3746611588" lon="38.2678052410"><ele>206.82</ele><time>2022-07-16T10:18:55Z</time></trkpt><trkpt lat="51.3747805171" lon="38.2689248119"><ele>208.26</ele><time>2022-07-16T10:19:10Z</time></trkpt><trkpt lat="51.3749091793" lon="38.2701100968"><ele>209.70</ele><time>2022-07-16T10:19:27Z</time></trkpt><trkpt lat="51.3750197366" lon="38.2709974051"><ele>211.63</ele><time>2022-07-16T10:19:40Z</time></trkpt><trkpt lat="51.3752076589" lon="38.2721863780"><ele>213.07</ele><time>2022-07-16T10:19:58Z</time></trkpt><trkpt lat="51.3752857782" lon="38.2726629730"><ele>213.55</ele><time>2022-07-16T10:20:05Z</time></trkpt><trkpt lat="51.3754326291" lon="38.2736827154"><ele>215.47</ele><time>2022-07-16T10:20:21Z</time></trkpt><trkpt lat="51.3755743671" lon="38.2746157050"><ele>216.91</ele><time>2022-07-16T10:20:37Z</time></trkpt><trkpt lat="51.3757426757" lon="38.2757622655"><ele>218.36</ele><time>2022-07-16T10:20:55Z</time></trkpt><trkpt lat="51.3759097271" lon="38.2769341394"><ele>220.28</ele><time>2022-07-16T10:21:13Z</time></trkpt><trkpt lat="51.3760238886" lon="38.2777603436"><ele>221.24</ele><time>2022-07-16T10:21:26Z</time></trkpt><trkpt lat="51.3761356194" lon="38.2785323169"><ele>222.20</ele><time>2022-07-16T10:21:40Z</time></trkpt><trkpt lat="51.3761739247" lon="38.2786672655"><ele>222.68</ele><time>2022-07-16T10:21:50Z</time></trkpt><trkpt lat="51.3761806302" lon="38.2786905672"><ele>222.20</ele><time>2022-07-16T10:22:14Z</time></trkpt><trkpt lat="51.3764175028" lon="38.2788255159"><ele>222.20</ele><time>2022-07-16T10:22:26Z</time></trkpt><trkpt lat="51.3769606501" lon="38.2787929103"><ele>221.72</ele><time>2022-07-16T10:22:38Z</time></trkpt><trkpt lat="51.3777503092" lon="38.2785899844"><ele>221.72</ele><time>2022-07-16T10:22:54Z</time></trkpt><trkpt lat="51.3785002381" lon="38.2782960311"><ele>222.20</ele><time>2022-07-16T10:23:10Z</time></trkpt><trkpt lat="51.3793339860" lon="38.2780506928"><ele>223.16</ele><time>2022-07-16T10:23:28Z</time></trkpt><trkpt lat="51.3793769013" lon="38.2780364435"><ele>223.16</ele><time>2022-07-16T10:23:29Z</time></trkpt><trkpt lat="51.3801478688" lon="38.2778150775"><ele>225.09</ele><time>2022-07-16T10:23:47Z</time></trkpt><trkpt lat="51.3808466680" lon="38.2776038535"><ele>226.53</ele><time>2022-07-16T10:24:04Z</time></trkpt><trkpt lat="51.3815307152" lon="38.2773448527"><ele>228.45</ele><time>2022-07-16T10:24:20Z</time></trkpt><trkpt lat="51.3823408261" lon="38.2770674955"><ele>229.41</ele><time>2022-07-16T10:24:39Z</time></trkpt><trkpt lat="51.3824326079" lon="38.2770357281"><ele>229.89</ele><time>2022-07-16T10:24:41Z</time></trkpt><trkpt lat="51.3828471769" lon="38.2769105025"><ele>229.89</ele><time>2022-07-16T10:24:50Z</time></trkpt><trkpt lat="51.3830489293" lon="38.2768930681"><ele>230.37</ele><time>2022-07-16T10:24:54Z</time></trkpt><trkpt lat="51.3840478007" lon="38.2765194867"><ele>230.85</ele><time>2022-07-16T10:25:14Z</time></trkpt><trkpt lat="51.3847833127" lon="38.2761500962"><ele>230.37</ele><time>2022-07-16T10:25:29Z</time></trkpt><trkpt lat="51.3858062401" lon="38.2757070288"><ele>229.41</ele><time>2022-07-16T10:25:49Z</time></trkpt><trkpt lat="51.3866547402" lon="38.2753268257"><ele>227.97</ele><time>2022-07-16T10:26:06Z</time></trkpt><trkpt lat="51.3873325009" lon="38.2750082295"><ele>228.45</ele><time>2022-07-16T10:26:20Z</time></trkpt><trkpt lat="51.3878664281" lon="38.2747299504"><ele>230.37</ele><time>2022-07-16T10:26:32Z</time></trkpt><trkpt lat="51.3884317037" lon="38.2744536828"><ele>231.81</ele><time>2022-07-16T10:26:46Z</time></trkpt><trkpt lat="51.3890093006" lon="38.2741859648"><ele>234.22</ele><time>2022-07-16T10:27:00Z</time></trkpt><trkpt lat="51.3895401265" lon="38.2739304006"><ele>235.18</ele><time>2022-07-16T10:27:13Z</time></trkpt><trkpt lat="51.3901914842" lon="38.2736306638"><ele>236.62</ele><time>2022-07-16T10:27:29Z</time></trkpt><trkpt lat="51.3904477190" lon="38.2735133171"><ele>236.62</ele><time>2022-07-16T10:27:35Z</time></trkpt><trkpt lat="51.3910917006" lon="38.2732430845"><ele>236.62</ele><time>2022-07-16T10:27:49Z</time></trkpt><trkpt lat="51.3918787614" lon="38.2728793938"><ele>234.22</ele><time>2022-07-16T10:28:05Z</time></trkpt><trkpt lat="51.3925353158" lon="38.2725701854"><ele>230.85</ele><time>2022-07-16T10:28:15Z</time></trkpt><trkpt lat="51.3926006109" lon="38.2725400105"><ele>230.85</ele><time>2022-07-16T10:28:16Z</time></trkpt><trkpt lat="51.3927950710" lon="38.2727044635"><ele>229.41</ele><time>2022-07-16T10:28:21Z</time></trkpt><trkpt lat="51.3928477094" lon="38.2737200148"><ele>231.33</ele><time>2022-07-16T10:28:36Z</time></trkpt><trkpt lat="51.3928969111" lon="38.2745867036"><ele>233.74</ele><time>2022-07-16T10:28:51Z</time></trkpt><trkpt lat="51.3929497171" lon="38.2755360380"><ele>235.18</ele><time>2022-07-16T10:29:06Z</time></trkpt><trkpt lat="51.3929730188" lon="38.2759584021"><ele>235.18</ele><time>2022-07-16T10:29:12Z</time></trkpt><trkpt lat="51.3930663932" lon="38.2772449404"><ele>236.14</ele><time>2022-07-16T10:29:30Z</time></trkpt><trkpt lat="51.3931532297" lon="38.2783919200"><ele>237.10</ele><time>2022-07-16T10:29:45Z</time></trkpt><trkpt lat="51.3931666408" lon="38.2786227576"><ele>236.62</ele><time>2022-07-16T10:29:48Z</time></trkpt><trkpt lat="51.3932738453" lon="38.2800941169"><ele>236.62</ele><time>2022-07-16T10:30:06Z</time></trkpt><trkpt lat="51.3933344465" lon="38.2807348296"><ele>236.14</ele><time>2022-07-16T10:30:14Z</time></trkpt><trkpt lat="51.3933454268" lon="38.2808974385"><ele>236.14</ele><time>2022-07-16T10:30:16Z</time></trkpt><trkpt lat="51.3933941256" lon="38.2812237460"><ele>235.66</ele><time>2022-07-16T10:30:20Z</time></trkpt><trkpt lat="51.3935011625" lon="38.2825959474"><ele>234.70</ele><time>2022-07-16T10:30:36Z</time></trkpt><trkpt lat="51.3936467562" lon="38.2843134832"><ele>232.30</ele><time>2022-07-16T10:30:55Z</time></trkpt><trkpt lat="51.3937786873" lon="38.2857855130"><ele>230.37</ele><time>2022-07-16T10:31:11Z</time></trkpt><trkpt lat="51.3939341716" lon="38.2873354107"><ele>228.93</ele><time>2022-07-16T10:31:28Z</time></trkpt><trkpt lat="51.3941143826" lon="38.2888691314"><ele>228.45</ele><time>2022-07-16T10:31:45Z</time></trkpt><trkpt lat="51.3942168094" lon="38.2902872656"><ele>227.01</ele><time>2022-07-16T10:32:01Z</time></trkpt><trkpt lat="51.3942465652" lon="38.2906645350"><ele>227.49</ele><time>2022-07-16T10:32:06Z</time></trkpt><trkpt lat="51.3943717908" lon="38.2920830883"><ele>228.93</ele><time>2022-07-16T10:32:25Z</time></trkpt><trkpt lat="51.3944166340" lon="38.2925941329"><ele>228.45</ele><time>2022-07-16T10:32:32Z</time></trkpt><trkpt lat="51.3944359124" lon="38.2933879830"><ele>229.41</ele><time>2022-07-16T10:32:43Z</time></trkpt><trkpt lat="51.3944018818" lon="38.2936518453"><ele>228.93</ele><time>2022-07-16T10:32:47Z</time></trkpt><trkpt lat="51.3943419512" lon="38.2938332297"><ele>228.93</ele><time>2022-07-16T10:32:50Z</time></trkpt><trkpt lat="51.3942843676" lon="38.2939435355"><ele>228.93</ele><time>2022-07-16T10:32:52Z</time></trkpt><trkpt lat="51.3937584031" lon="38.2945303526"><ele>227.49</ele><time>2022-07-16T10:33:05Z</time></trkpt><trkpt lat="51.3930694945" lon="38.2952646073"><ele>226.05</ele><time>2022-07-16T10:33:20Z</time></trkpt><trkpt lat="51.3924787380" lon="38.2959329803"><ele>224.61</ele><time>2022-07-16T10:33:33Z</time></trkpt><trkpt lat="51.3922615629" lon="38.2961878739"><ele>224.12</ele><time>2022-07-16T10:33:38Z</time></trkpt><trkpt lat="51.3918506820" lon="38.2965664845"><ele>223.16</ele><time>2022-07-16T10:33:48Z</time></trkpt><trkpt lat="51.3916558865" lon="38.2967321109"><ele>223.64</ele><time>2022-07-16T10:33:53Z</time></trkpt><trkpt lat="51.3914444949" lon="38.2969663851"><ele>224.12</ele><time>2022-07-16T10:33:59Z</time></trkpt><trkpt lat="51.3912350312" lon="38.2971880864"><ele>225.09</ele><time>2022-07-16T10:34:05Z</time></trkpt><trkpt lat="51.3908169419" lon="38.2976434752"><ele>226.05</ele><time>2022-07-16T10:34:17Z</time></trkpt><trkpt lat="51.3902860321" lon="38.2982071582"><ele>226.05</ele><time>2022-07-16T10:34:31Z</time></trkpt><trkpt lat="51.3897275459" lon="38.2988049556"><ele>227.01</ele><time>2022-07-16T10:34:44Z</time></trkpt><trkpt lat="51.3889995776" lon="38.2995600812"><ele>226.05</ele><time>2022-07-16T10:35:00Z</time></trkpt><trkpt lat="51.3883843459" lon="38.3001306374"><ele>226.05</ele><time>2022-07-16T10:35:13Z</time></trkpt><trkpt lat="51.3876806851" lon="38.3007554244"><ele>226.05</ele><time>2022-07-16T10:35:28Z</time></trkpt><trkpt lat="51.3874540385" lon="38.3009662293"><ele>225.57</ele><time>2022-07-16T10:35:33Z</time></trkpt><trkpt lat="51.3867899403" lon="38.3015630208"><ele>225.57</ele><time>2022-07-16T10:35:47Z</time></trkpt><trkpt lat="51.3860664144" lon="38.3022262808"><ele>224.12</ele><time>2022-07-16T10:36:02Z</time></trkpt><trkpt lat="51.3854961935" lon="38.3028221503"><ele>223.16</ele><time>2022-07-16T10:36:14Z</time></trkpt><trkpt lat="51.3850627653" lon="38.3032889385"><ele>222.20</ele><time>2022-07-16T10:36:23Z</time></trkpt><trkpt lat="51.3846973982" lon="38.3036940359"><ele>221.24</ele><time>2022-07-16T10:36:31Z</time></trkpt><trkpt lat="51.3846962247" lon="38.3041242789"><ele>220.28</ele><time>2022-07-16T10:36:37Z</time></trkpt><trkpt lat="51.3852170762" lon="38.3055152558"><ele>219.32</ele><time>2022-07-16T10:36:56Z</time></trkpt><trkpt lat="51.3857212476" lon="38.3067539334"><ele>216.43</ele><time>2022-07-16T10:37:13Z</time></trkpt><trkpt lat="51.3862726931" lon="38.3080560621"><ele>213.55</ele><time>2022-07-16T10:37:31Z</time></trkpt><trkpt lat="51.3864406664" lon="38.3084860537"><ele>213.55</ele><time>2022-07-16T10:37:37Z</time></trkpt><trkpt lat="51.3868929539" lon="38.3096742723"><ele>211.15</ele><time>2022-07-16T10:37:56Z</time></trkpt><trkpt lat="51.3870719075" lon="38.3101579919"><ele>210.67</ele><time>2022-07-16T10:38:04Z</time></trkpt><trkpt lat="51.3869789522" lon="38.3105872292"><ele>210.19</ele><time>2022-07-16T10:38:11Z</time></trkpt><trkpt lat="51.3863952365" lon="38.3111698553"><ele>208.74</ele><time>2022-07-16T10:38:25Z</time></trkpt><trkpt lat="51.3857867941" lon="38.3120610192"><ele>206.82</ele><time>2022-07-16T10:38:41Z</time></trkpt><trkpt lat="51.3857232593" lon="38.3121942915"><ele>206.34</ele><time>2022-07-16T10:38:43Z</time></trkpt><trkpt lat="51.3853117079" lon="38.3127594832"><ele>204.90</ele><time>2022-07-16T10:38:54Z</time></trkpt><trkpt lat="51.3849865738" lon="38.3133372478"><ele>203.46</ele><time>2022-07-16T10:39:07Z</time></trkpt><trkpt lat="51.3849266432" lon="38.3134152833"><ele>202.98</ele><time>2022-07-16T10:39:15Z</time></trkpt><trkpt lat="51.3849217817" lon="38.3134134393"><ele>202.98</ele><time>2022-07-16T10:39:26Z</time></trkpt><trkpt lat="51.3848879188" lon="38.3134745434"><ele>202.49</ele><time>2022-07-16T10:39:30Z</time></trkpt><trkpt lat="51.3847924490" lon="38.3137972467"><ele>202.01</ele><time>2022-07-16T10:39:38Z</time></trkpt><trkpt lat="51.3848850690" lon="38.3141103107"><ele>201.05</ele><time>2022-07-16T10:39:43Z</time></trkpt><trkpt lat="51.3852680381" lon="38.3152461424"><ele>197.69</ele><time>2022-07-16T10:39:56Z</time></trkpt><trkpt lat="51.3853124622" lon="38.3155458793"><ele>198.17</ele><time>2022-07-16T10:40:00Z</time></trkpt><trkpt lat="51.3855035696" lon="38.3160197921"><ele>195.77</ele><time>2022-07-16T10:40:06Z</time></trkpt><trkpt lat="51.3856716268" lon="38.3162405714"><ele>194.32</ele><time>2022-07-16T10:40:09Z</time></trkpt><trkpt lat="51.3858674280" lon="38.3165863249"><ele>192.88</ele><time>2022-07-16T10:40:13Z</time></trkpt><trkpt lat="51.3863258343" lon="38.3167957887"><ele>188.56</ele><time>2022-07-16T10:40:19Z</time></trkpt><trkpt lat="51.3867457677" lon="38.3168532047"><ele>188.08</ele><time>2022-07-16T10:40:24Z</time></trkpt><trkpt lat="51.3870619331" lon="38.3169973735"><ele>188.56</ele><time>2022-07-16T10:40:29Z</time></trkpt><trkpt lat="51.3877256121" lon="38.3170622494"><ele>189.04</ele><time>2022-07-16T10:40:43Z</time></trkpt><trkpt lat="51.3879585452" lon="38.3171914145"><ele>192.40</ele><time>2022-07-16T10:40:53Z</time></trkpt><trkpt lat="51.3880689349" lon="38.3172512613"><ele>194.32</ele><time>2022-07-16T10:40:59Z</time></trkpt><trkpt lat="51.3882683404" lon="38.3175192308"><ele>198.17</ele><time>2022-07-16T10:41:13Z</time></trkpt><trkpt lat="51.3883868605" lon="38.3177125175"><ele>202.01</ele><time>2022-07-16T10:41:22Z</time></trkpt><trkpt lat="51.3884830009" lon="38.3179934788"><ele>202.98</ele><time>2022-07-16T10:41:35Z</time></trkpt><trkpt lat="51.3884840067" lon="38.3180043753"><ele>202.98</ele><time>2022-07-16T10:41:49Z</time></trkpt><trkpt lat="51.3885056321" lon="38.3180342149"><ele>203.46</ele><time>2022-07-16T10:41:53Z</time></trkpt><trkpt lat="51.3885938935" lon="38.3183287550"><ele>204.42</ele><time>2022-07-16T10:42:07Z</time></trkpt><trkpt lat="51.3887487911" lon="38.3187534660"><ele>205.86</ele><time>2022-07-16T10:42:21Z</time></trkpt><trkpt lat="51.3889844902" lon="38.3193894010"><ele>209.22</ele><time>2022-07-16T10:42:38Z</time></trkpt><trkpt lat="51.3892214466" lon="38.3199784812"><ele>211.63</ele><time>2022-07-16T10:42:54Z</time></trkpt><trkpt lat="51.3894502725" lon="38.3205334470"><ele>214.51</ele><time>2022-07-16T10:43:09Z</time></trkpt><trkpt lat="51.3896842953" lon="38.3210803661"><ele>216.43</ele><time>2022-07-16T10:43:23Z</time></trkpt><trkpt lat="51.3900006283" lon="38.3217986953"><ele>218.36</ele><time>2022-07-16T10:43:40Z</time></trkpt><trkpt lat="51.3901916519" lon="38.3222350571"><ele>218.84</ele><time>2022-07-16T10:43:49Z</time></trkpt><trkpt lat="51.3904814981" lon="38.3231305797"><ele>218.84</ele><time>2022-07-16T10:44:04Z</time></trkpt><trkpt lat="51.3909296785" lon="38.3240469731"><ele>220.28</ele><time>2022-07-16T10:44:22Z</time></trkpt><trkpt lat="51.3915875740" lon="38.3250694815"><ele>220.76</ele><time>2022-07-16T10:44:43Z</time></trkpt><trkpt lat="51.3922092598" lon="38.3260408603"><ele>222.20</ele><time>2022-07-16T10:45:02Z</time></trkpt><trkpt lat="51.3927308656" lon="38.3268791344"><ele>224.12</ele><time>2022-07-16T10:45:19Z</time></trkpt><trkpt lat="51.3933621068" lon="38.3278402034"><ele>226.05</ele><time>2022-07-16T10:45:39Z</time></trkpt><trkpt lat="51.3940082677" lon="38.3285006136"><ele>227.49</ele><time>2022-07-16T10:45:55Z</time></trkpt><trkpt lat="51.3946841005" lon="38.3292497881"><ele>227.49</ele><time>2022-07-16T10:46:11Z</time></trkpt><trkpt lat="51.3954808004" lon="38.3297117148"><ele>227.49</ele><time>2022-07-16T10:46:27Z</time></trkpt><trkpt lat="51.3959711418" lon="38.3300692029"><ele>227.01</ele><time>2022-07-16T10:46:37Z</time></trkpt><trkpt lat="51.3962803502" lon="38.3302518446"><ele>226.05</ele><time>2022-07-16T10:46:43Z</time></trkpt><trkpt lat="51.3972311094" lon="38.3307958301"><ele>224.12</ele><time>2022-07-16T10:47:01Z</time></trkpt><trkpt lat="51.3982466608" lon="38.3313675597"><ele>222.68</ele><time>2022-07-16T10:47:20Z</time></trkpt><trkpt lat="51.3990543410" lon="38.3318097051"><ele>219.32</ele><time>2022-07-16T10:47:35Z</time></trkpt><trkpt lat="51.4002004825" lon="38.3325609751"><ele>216.43</ele><time>2022-07-16T10:47:57Z</time></trkpt><trkpt lat="51.4006667677" lon="38.3328172937"><ele>215.95</ele><time>2022-07-16T10:48:07Z</time></trkpt><trkpt lat="51.4012982603" lon="38.3335498720"><ele>217.88</ele><time>2022-07-16T10:48:25Z</time></trkpt><trkpt lat="51.4018943813" lon="38.3342171554"><ele>219.32</ele><time>2022-07-16T10:48:41Z</time></trkpt><trkpt lat="51.4024655242" lon="38.3346675988"><ele>219.80</ele><time>2022-07-16T10:48:55Z</time></trkpt><trkpt lat="51.4029942546" lon="38.3350790665"><ele>221.72</ele><time>2022-07-16T10:49:08Z</time></trkpt><trkpt lat="51.4038074668" lon="38.3357219584"><ele>221.72</ele><time>2022-07-16T10:49:27Z</time></trkpt><trkpt lat="51.4045290649" lon="38.3362444025"><ele>223.64</ele><time>2022-07-16T10:49:45Z</time></trkpt><trkpt lat="51.4049188234" lon="38.3365461510"><ele>224.61</ele><time>2022-07-16T10:49:55Z</time></trkpt><trkpt lat="51.4054928999" lon="38.3370181359"><ele>225.57</ele><time>2022-07-16T10:50:09Z</time></trkpt><trkpt lat="51.4057829976" lon="38.3373887837"><ele>225.09</ele><time>2022-07-16T10:50:17Z</time></trkpt><trkpt lat="51.4060374722" lon="38.3380905166"><ele>225.09</ele><time>2022-07-16T10:50:30Z</time></trkpt><trkpt lat="51.4062508754" lon="38.3392205648"><ele>224.12</ele><time>2022-07-16T10:50:44Z</time></trkpt><trkpt lat="51.4064424857" lon="38.3400652930"><ele>223.64</ele><time>2022-07-16T10:50:54Z</time></trkpt><trkpt lat="51.4067288116" lon="38.3413028810"><ele>221.24</ele><time>2022-07-16T10:51:09Z</time></trkpt><trkpt lat="51.4070264529" lon="38.3428087737"><ele>218.84</ele><time>2022-07-16T10:51:26Z</time></trkpt><trkpt lat="51.4071502537" lon="38.3434844390"><ele>218.36</ele><time>2022-07-16T10:51:34Z</time></trkpt><trkpt lat="51.4071466494" lon="38.3438715152"><ele>216.43</ele><time>2022-07-16T10:51:42Z</time></trkpt><trkpt lat="51.4071600605" lon="38.3437386621"><ele>216.43</ele><time>2022-07-16T10:51:49Z</time></trkpt><trkpt lat="51.4071707055" lon="38.3436831739"><ele>216.43</ele><time>2022-07-16T10:51:50Z</time></trkpt><trkpt lat="51.4074711129" lon="38.3432166371"><ele>217.40</ele><time>2022-07-16T10:52:02Z</time></trkpt><trkpt lat="51.4078107476" lon="38.3430776652"><ele>217.40</ele><time>2022-07-16T10:52:12Z</time></trkpt><trkpt lat="51.4080560021" lon="38.3432012983"><ele>216.91</ele><time>2022-07-16T10:52:19Z</time></trkpt><trkpt lat="51.4083577506" lon="38.3432611451"><ele>215.47</ele><time>2022-07-16T10:52:26Z</time></trkpt><trkpt lat="51.4085079543" lon="38.3432561159"><ele>213.55</ele><time>2022-07-16T10:52:29Z</time></trkpt><trkpt lat="51.4087598305" lon="38.3432796691"><ele>213.07</ele><time>2022-07-16T10:52:34Z</time></trkpt><trkpt lat="51.4089374430" lon="38.3429999650"><ele>213.55</ele><time>2022-07-16T10:52:41Z</time></trkpt><trkpt lat="51.4092097711" lon="38.3422149159"><ele>216.43</ele><time>2022-07-16T10:52:57Z</time></trkpt><trkpt lat="51.4096896350" lon="38.3415850997"><ele>218.36</ele><time>2022-07-16T10:53:14Z</time></trkpt><trkpt lat="51.4097251743" lon="38.3415623847"><ele>218.36</ele><time>2022-07-16T10:53:15Z</time></trkpt><trkpt lat="51.4100012742" lon="38.3414966706"><ele>218.84</ele><time>2022-07-16T10:53:22Z</time></trkpt><trkpt lat="51.4105903544" lon="38.3411476482"><ele>220.76</ele><time>2022-07-16T10:53:39Z</time></trkpt><trkpt lat="51.4110599924" lon="38.3413008694"><ele>222.20</ele><time>2022-07-16T10:53:52Z</time></trkpt><trkpt lat="51.4111755788" lon="38.3413428627"><ele>222.20</ele><time>2022-07-16T10:53:55Z</time></trkpt><trkpt lat="51.4112556260" lon="38.3413131069"><ele>222.20</ele><time>2022-07-16T10:53:57Z</time></trkpt><trkpt lat="51.4114928339" lon="38.3413878735"><ele>222.68</ele><time>2022-07-16T10:54:03Z</time></trkpt><trkpt lat="51.4117016271" lon="38.3416003548"><ele>223.16</ele><time>2022-07-16T10:54:09Z</time></trkpt><trkpt lat="51.4119707700" lon="38.3416414261"><ele>223.16</ele><time>2022-07-16T10:54:16Z</time></trkpt><trkpt lat="51.4120483864" lon="38.3415954933"><ele>223.64</ele><time>2022-07-16T10:54:18Z</time></trkpt><trkpt lat="51.4121334627" lon="38.3415566850"><ele>223.64</ele><time>2022-07-16T10:54:20Z</time></trkpt><trkpt lat="51.4123519789" lon="38.3415343054"><ele>223.64</ele><time>2022-07-16T10:54:25Z</time></trkpt><trkpt lat="51.4127979800" lon="38.3416773845"><ele>223.64</ele><time>2022-07-16T10:54:35Z</time></trkpt><trkpt lat="51.4130697213" lon="38.3416561782"><ele>224.12</ele><time>2022-07-16T10:54:41Z</time></trkpt><trkpt lat="51.4133783430" lon="38.3418235648"><ele>224.61</ele><time>2022-07-16T10:54:50Z</time></trkpt><trkpt lat="51.4134692866" lon="38.3418993372"><ele>224.61</ele><time>2022-07-16T10:54:53Z</time></trkpt><trkpt lat="51.4136107732" lon="38.3425319195"><ele>224.61</ele><time>2022-07-16T10:55:02Z</time></trkpt><trkpt lat="51.4140535053" lon="38.3439086471"><ele>223.16</ele><time>2022-07-16T10:55:20Z</time></trkpt><trkpt lat="51.4141907170" lon="38.3442968968"><ele>223.64</ele><time>2022-07-16T10:55:26Z</time></trkpt><trkpt lat="51.4143144339" lon="38.3445190173"><ele>223.64</ele><time>2022-07-16T10:55:30Z</time></trkpt><trkpt lat="51.4150141552" lon="38.3451572992"><ele>225.09</ele><time>2022-07-16T10:55:47Z</time></trkpt><trkpt lat="51.4155097771" lon="38.3455375861"><ele>226.53</ele><time>2022-07-16T10:56:00Z</time></trkpt><trkpt lat="51.4160745498" lon="38.3459775522"><ele>228.93</ele><time>2022-07-16T10:56:15Z</time></trkpt><trkpt lat="51.4162616339" lon="38.3460990898"><ele>229.41</ele><time>2022-07-16T10:56:20Z</time></trkpt><trkpt lat="51.4167627878" lon="38.3464311808"><ele>231.33</ele><time>2022-07-16T10:56:33Z</time></trkpt><trkpt lat="51.4168624487" lon="38.3467640262"><ele>231.81</ele><time>2022-07-16T10:56:39Z</time></trkpt><trkpt lat="51.4169093035" lon="38.3479484729"><ele>231.33</ele><time>2022-07-16T10:56:54Z</time></trkpt><trkpt lat="51.4169709105" lon="38.3490972128"><ele>231.33</ele><time>2022-07-16T10:57:08Z</time></trkpt><trkpt lat="51.4172069449" lon="38.3502664883"><ele>231.33</ele><time>2022-07-16T10:57:22Z</time></trkpt><trkpt lat="51.4176909160" lon="38.3516121190"><ele>232.30</ele><time>2022-07-16T10:57:40Z</time></trkpt><trkpt lat="51.4182148688" lon="38.3531242982"><ele>233.74</ele><time>2022-07-16T10:58:01Z</time></trkpt><trkpt lat="51.4186579362" lon="38.3543779794"><ele>234.70</ele><time>2022-07-16T10:58:18Z</time></trkpt><trkpt lat="51.4190626144" lon="38.3554603346"><ele>235.18</ele><time>2022-07-16T10:58:33Z</time></trkpt><trkpt lat="51.4196052589" lon="38.3565881196"><ele>234.70</ele><time>2022-07-16T10:58:49Z</time></trkpt><trkpt lat="51.4202130307" lon="38.3577241190"><ele>234.70</ele><time>2022-07-16T10:59:05Z</time></trkpt><trkpt lat="51.4208627958" lon="38.3589617908"><ele>235.66</ele><time>2022-07-16T10:59:23Z</time></trkpt><trkpt lat="51.4214438293" lon="38.3600781765"><ele>236.62</ele><time>2022-07-16T10:59:40Z</time></trkpt><trkpt lat="51.4219733141" lon="38.3610912133"><ele>236.62</ele><time>2022-07-16T10:59:55Z</time></trkpt><trkpt lat="51.4225715306" lon="38.3622723911"><ele>237.10</ele><time>2022-07-16T11:00:12Z</time></trkpt><trkpt lat="51.4231067151" lon="38.3633026946"><ele>236.62</ele><time>2022-07-16T11:00:27Z</time></trkpt><trkpt lat="51.4236779418" lon="38.3644435555"><ele>235.66</ele><time>2022-07-16T11:00:43Z</time></trkpt><trkpt lat="51.4243218396" lon="38.3656687383"><ele>233.74</ele><time>2022-07-16T11:01:00Z</time></trkpt><trkpt lat="51.4247216564" lon="38.3664381132"><ele>234.22</ele><time>2022-07-16T11:01:11Z</time></trkpt><trkpt lat="51.4254758600" lon="38.3679325227"><ele>234.22</ele><time>2022-07-16T11:01:31Z</time></trkpt><trkpt lat="51.4261721447" lon="38.3693086635"><ele>231.81</ele><time>2022-07-16T11:01:49Z</time></trkpt><trkpt lat="51.4267256018" lon="38.3703851514"><ele>228.93</ele><time>2022-07-16T11:02:02Z</time></trkpt><trkpt lat="51.4269587863" lon="38.3708376065"><ele>227.49</ele><time>2022-07-16T11:02:07Z</time></trkpt><trkpt lat="51.4277574141" lon="38.3723870013"><ele>225.09</ele><time>2022-07-16T11:02:25Z</time></trkpt><trkpt lat="51.4283430576" lon="38.3735369984"><ele>222.20</ele><time>2022-07-16T11:02:38Z</time></trkpt><trkpt lat="51.4290608000" lon="38.3749216050"><ele>220.76</ele><time>2022-07-16T11:02:55Z</time></trkpt><trkpt lat="51.4296705835" lon="38.3760561794"><ele>222.68</ele><time>2022-07-16T11:03:11Z</time></trkpt><trkpt lat="51.4298685640" lon="38.3764282521"><ele>222.68</ele><time>2022-07-16T11:03:17Z</time></trkpt><trkpt lat="51.4299512934" lon="38.3766144142"><ele>223.64</ele><time>2022-07-16T11:03:20Z</time></trkpt><trkpt lat="51.4301332645" lon="38.3769602515"><ele>224.61</ele><time>2022-07-16T11:03:26Z</time></trkpt><trkpt lat="51.4304514416" lon="38.3775818534"><ele>227.97</ele><time>2022-07-16T11:03:38Z</time></trkpt><trkpt lat="51.4307197463" lon="38.3780831750"><ele>230.85</ele><time>2022-07-16T11:03:49Z</time></trkpt><trkpt lat="51.4310840238" lon="38.3787860814"><ele>233.74</ele><time>2022-07-16T11:04:04Z</time></trkpt><trkpt lat="51.4314065594" lon="38.3794393670"><ele>236.14</ele><time>2022-07-16T11:04:17Z</time></trkpt><trkpt lat="51.4318750240" lon="38.3803401701"><ele>237.58</ele><time>2022-07-16T11:04:34Z</time></trkpt><trkpt lat="51.4324763417" lon="38.3815105353"><ele>237.10</ele><time>2022-07-16T11:04:53Z</time></trkpt><trkpt lat="51.4331706148" lon="38.3826072235"><ele>236.62</ele><time>2022-07-16T11:05:12Z</time></trkpt><trkpt lat="51.4332490694" lon="38.3827104047"><ele>237.10</ele><time>2022-07-16T11:05:14Z</time></trkpt><trkpt lat="51.4334672503" lon="38.3832141571"><ele>236.14</ele><time>2022-07-16T11:05:22Z</time></trkpt><trkpt lat="51.4335430227" lon="38.3835081942"><ele>236.14</ele><time>2022-07-16T11:05:26Z</time></trkpt><trkpt lat="51.4336198010" lon="38.3837267105"><ele>236.14</ele><time>2022-07-16T11:05:29Z</time></trkpt><trkpt lat="51.4338332042" lon="38.3841067459"><ele>235.18</ele><time>2022-07-16T11:05:35Z</time></trkpt><trkpt lat="51.4344332647" lon="38.3851477783"><ele>235.18</ele><time>2022-07-16T11:05:51Z</time></trkpt><trkpt lat="51.4351463970" lon="38.3863672614"><ele>232.30</ele><time>2022-07-16T11:06:09Z</time></trkpt><trkpt lat="51.4353217464" lon="38.3868586086"><ele>231.33</ele><time>2022-07-16T11:06:15Z</time></trkpt><trkpt lat="51.4354746323" lon="38.3883022238"><ele>228.93</ele><time>2022-07-16T11:06:31Z</time></trkpt><trkpt lat="51.4356386662" lon="38.3900335059"><ele>226.53</ele><time>2022-07-16T11:06:49Z</time></trkpt><trkpt lat="51.4358393289" lon="38.3915638737"><ele>224.12</ele><time>2022-07-16T11:07:05Z</time></trkpt><trkpt lat="51.4358477946" lon="38.3920218609"><ele>223.64</ele><time>2022-07-16T11:07:10Z</time></trkpt><trkpt lat="51.4357091580" lon="38.3928136993"><ele>223.16</ele><time>2022-07-16T11:07:19Z</time></trkpt><trkpt lat="51.4355095848" lon="38.3936083037"><ele>223.64</ele><time>2022-07-16T11:07:29Z</time></trkpt><trkpt lat="51.4354418591" lon="38.3938977309"><ele>223.16</ele><time>2022-07-16T11:07:33Z</time></trkpt><trkpt lat="51.4352930803" lon="38.3942088671"><ele>223.16</ele><time>2022-07-16T11:07:40Z</time></trkpt><trkpt lat="51.4353025518" lon="38.3943106234"><ele>223.16</ele><time>2022-07-16T11:07:44Z</time></trkpt><trkpt lat="51.4353974350" lon="38.3945344202"><ele>222.68</ele><time>2022-07-16T11:07:49Z</time></trkpt><trkpt lat="51.4354685135" lon="38.3947890624"><ele>222.20</ele><time>2022-07-16T11:07:53Z</time></trkpt><trkpt lat="51.4357168693" lon="38.3955379855"><ele>221.24</ele><time>2022-07-16T11:08:03Z</time></trkpt><trkpt lat="51.4361400716" lon="38.3965526149"><ele>217.88</ele><time>2022-07-16T11:08:16Z</time></trkpt><trkpt lat="51.4365874976" lon="38.3975591976"><ele>214.99</ele><time>2022-07-16T11:08:30Z</time></trkpt><trkpt lat="51.4368164074" lon="38.3980794623"><ele>213.07</ele><time>2022-07-16T11:08:37Z</time></trkpt><trkpt lat="51.4368414693" lon="38.3984320052"><ele>211.63</ele><time>2022-07-16T11:08:41Z</time></trkpt><trkpt lat="51.4367533755" lon="38.3987677842"><ele>210.19</ele><time>2022-07-16T11:08:46Z</time></trkpt><trkpt lat="51.4367322531" lon="38.3993613068"><ele>210.19</ele><time>2022-07-16T11:08:57Z</time></trkpt><trkpt lat="51.4367691334" lon="38.3998659812"><ele>208.74</ele><time>2022-07-16T11:09:05Z</time></trkpt><trkpt lat="51.4368521143" lon="38.4008535370"><ele>204.90</ele><time>2022-07-16T11:09:16Z</time></trkpt><trkpt lat="51.4369099494" lon="38.4014118556"><ele>202.49</ele><time>2022-07-16T11:09:21Z</time></trkpt><trkpt lat="51.4367688820" lon="38.4020062163"><ele>201.53</ele><time>2022-07-16T11:09:29Z</time></trkpt><trkpt lat="51.4365619328" lon="38.4024680592"><ele>200.57</ele><time>2022-07-16T11:09:36Z</time></trkpt><trkpt lat="51.4364586677" lon="38.4028967097"><ele>200.09</ele><time>2022-07-16T11:09:42Z</time></trkpt><trkpt lat="51.4364448376" lon="38.4030506015"><ele>199.13</ele><time>2022-07-16T11:09:44Z</time></trkpt><trkpt lat="51.4364569075" lon="38.4032133780"><ele>198.17</ele><time>2022-07-16T11:09:46Z</time></trkpt><trkpt lat="51.4365042653" lon="38.4035670105"><ele>195.77</ele><time>2022-07-16T11:09:50Z</time></trkpt><trkpt lat="51.4365512040" lon="38.4039524104"><ele>192.40</ele><time>2022-07-16T11:09:54Z</time></trkpt><trkpt lat="51.4365734998" lon="38.4042359702"><ele>190.00</ele><time>2022-07-16T11:09:57Z</time></trkpt><trkpt lat="51.4365690574" lon="38.4047318436"><ele>185.67</ele><time>2022-07-16T11:10:02Z</time></trkpt><trkpt lat="51.4365687221" lon="38.4048306663"><ele>184.71</ele><time>2022-07-16T11:10:03Z</time></trkpt><trkpt lat="51.4365983102" lon="38.4051721450"><ele>182.79</ele><time>2022-07-16T11:10:06Z</time></trkpt><trkpt lat="51.4366315026" lon="38.4055170603"><ele>181.35</ele><time>2022-07-16T11:10:09Z</time></trkpt><trkpt lat="51.4366332628" lon="38.4057432041"><ele>180.38</ele><time>2022-07-16T11:10:11Z</time></trkpt><trkpt lat="51.4365491085" lon="38.4066230524"><ele>180.38</ele><time>2022-07-16T11:10:22Z</time></trkpt><trkpt lat="51.4365303330" lon="38.4068420716"><ele>180.38</ele><time>2022-07-16T11:10:25Z</time></trkpt><trkpt lat="51.4364906866" lon="38.4075961076"><ele>180.38</ele><time>2022-07-16T11:10:35Z</time></trkpt><trkpt lat="51.4364445861" lon="38.4078915697"><ele>180.38</ele><time>2022-07-16T11:10:39Z</time></trkpt><trkpt lat="51.4361789636" lon="38.4087880142"><ele>177.02</ele><time>2022-07-16T11:10:49Z</time></trkpt><trkpt lat="51.4358768798" lon="38.4101545997"><ele>174.14</ele><time>2022-07-16T11:11:03Z</time></trkpt><trkpt lat="51.4357981738" lon="38.4110104758"><ele>174.14</ele><time>2022-07-16T11:11:15Z</time></trkpt><trkpt lat="51.4357903786" lon="38.4111538064"><ele>174.14</ele><time>2022-07-16T11:11:17Z</time></trkpt><trkpt lat="51.4357899595" lon="38.4114256315"><ele>174.14</ele><time>2022-07-16T11:11:21Z</time></trkpt><trkpt lat="51.4358021971" lon="38.4118394461"><ele>173.66</ele><time>2022-07-16T11:11:27Z</time></trkpt><trkpt lat="51.4358850941" lon="38.4126941487"><ele>172.69</ele><time>2022-07-16T11:11:39Z</time></trkpt><trkpt lat="51.4359714277" lon="38.4134811256"><ele>171.73</ele><time>2022-07-16T11:11:50Z</time></trkpt><trkpt lat="51.4359930530" lon="38.4137640987"><ele>170.77</ele><time>2022-07-16T11:11:54Z</time></trkpt><trkpt lat="51.4362728409" lon="38.4149525687"><ele>170.29</ele><time>2022-07-16T11:12:10Z</time></trkpt><trkpt lat="51.4364886750" lon="38.4155388828"><ele>168.85</ele><time>2022-07-16T11:12:18Z</time></trkpt><trkpt lat="51.4366856497" lon="38.4166524187"><ele>167.41</ele><time>2022-07-16T11:12:34Z</time></trkpt><trkpt lat="51.4367538784" lon="38.4170988388"><ele>166.93</ele><time>2022-07-16T11:12:46Z</time></trkpt><trkpt lat="51.4367550518" lon="38.4170917142"><ele>167.41</ele><time>2022-07-16T11:13:06Z</time></trkpt><trkpt lat="51.4367537946" lon="38.4172064625"><ele>166.93</ele><time>2022-07-16T11:13:10Z</time></trkpt><trkpt lat="51.4367605001" lon="38.4174718335"><ele>166.93</ele><time>2022-07-16T11:13:15Z</time></trkpt><trkpt lat="51.4367650263" lon="38.4176712390"><ele>166.93</ele><time>2022-07-16T11:13:18Z</time></trkpt><trkpt lat="51.4368727338" lon="38.4188980982"><ele>167.89</ele><time>2022-07-16T11:13:35Z</time></trkpt><trkpt lat="51.4369808603" lon="38.4200702235"><ele>166.93</ele><time>2022-07-16T11:13:51Z</time></trkpt><trkpt lat="51.4371429663" lon="38.4210056439"><ele>166.93</ele><time>2022-07-16T11:14:04Z</time></trkpt><trkpt lat="51.4372589719" lon="38.4222019091"><ele>166.93</ele><time>2022-07-16T11:14:20Z</time></trkpt><trkpt lat="51.4372319821" lon="38.4233615454"><ele>165.00</ele><time>2022-07-16T11:14:35Z</time></trkpt><trkpt lat="51.4372254442" lon="38.4238367155"><ele>164.52</ele><time>2022-07-16T11:14:41Z</time></trkpt><trkpt lat="51.4372432139" lon="38.4239905234"><ele>164.52</ele><time>2022-07-16T11:14:43Z</time></trkpt><trkpt lat="51.4372309763" lon="38.4247845411"><ele>163.08</ele><time>2022-07-16T11:14:54Z</time></trkpt><trkpt lat="51.4372179843" lon="38.4250556957"><ele>163.08</ele><time>2022-07-16T11:14:58Z</time></trkpt><trkpt lat="51.4372075070" lon="38.4253054764"><ele>163.08</ele><time>2022-07-16T11:15:02Z</time></trkpt><trkpt lat="51.4372241031" lon="38.4258149285"><ele>163.08</ele><time>2022-07-16T11:15:14Z</time></trkpt><trkpt lat="51.4372447226" lon="38.4258202091"><ele>163.08</ele><time>2022-07-16T11:15:27Z</time></trkpt><trkpt lat="51.4372303057" lon="38.4258211311"><ele>163.08</ele><time>2022-07-16T11:15:37Z</time></trkpt><trkpt lat="51.4372442197" lon="38.4258284234"><ele>163.56</ele><time>2022-07-16T11:15:39Z</time></trkpt><trkpt lat="51.4372591395" lon="38.4259069618"><ele>162.60</ele><time>2022-07-16T11:15:43Z</time></trkpt><trkpt lat="51.4372956008" lon="38.4260595962"><ele>162.12</ele><time>2022-07-16T11:15:48Z</time></trkpt><trkpt lat="51.4373343252" lon="38.4261232149"><ele>161.64</ele><time>2022-07-16T11:15:55Z</time></trkpt><trkpt lat="51.4373766538" lon="38.4263421502"><ele>162.60</ele><time>2022-07-16T11:16:06Z</time></trkpt><trkpt lat="51.4373784140" lon="38.4264386259"><ele>163.08</ele><time>2022-07-16T11:16:15Z</time></trkpt><trkpt lat="51.4373881370" lon="38.4265846387"><ele>165.00</ele><time>2022-07-16T11:16:25Z</time></trkpt><trkpt lat="51.4373912383" lon="38.4265864827"><ele>165.48</ele><time>2022-07-16T11:16:26Z</time></trkpt><trkpt lat="51.4374236763" lon="38.4266433120"><ele>166.93</ele><time>2022-07-16T11:16:35Z</time></trkpt><trkpt lat="51.4374306332" lon="38.4266597405"><ele>167.41</ele><time>2022-07-16T11:16:41Z</time></trkpt><trkpt lat="51.4374368358" lon="38.4267584793"><ele>168.37</ele><time>2022-07-16T11:16:48Z</time></trkpt><trkpt lat="51.4374337345" lon="38.4268107824"><ele>168.85</ele><time>2022-07-16T11:16:53Z</time></trkpt><trkpt lat="51.4374235924" lon="38.4268966131"><ele>169.33</ele><time>2022-07-16T11:16:57Z</time></trkpt><trkpt lat="51.4373947587" lon="38.4269759059"><ele>169.81</ele><time>2022-07-16T11:17:08Z</time></trkpt><trkpt lat="51.4373867959" lon="38.4269925859"><ele>170.29</ele><time>2022-07-16T11:17:12Z</time></trkpt><trkpt lat="51.4373718761" lon="38.4270526841"><ele>170.29</ele><time>2022-07-16T11:17:21Z</time></trkpt><trkpt lat="51.4373661764" lon="38.4270956833"><ele>170.77</ele><time>2022-07-16T11:17:33Z</time></trkpt><trkpt lat="51.4373831917" lon="38.4270873852"><ele>170.77</ele><time>2022-07-16T11:17:45Z</time></trkpt><trkpt lat="51.4373835269" lon="38.4270893969"><ele>171.73</ele><time>2022-07-16T11:17:56Z</time></trkpt><trkpt lat="51.4373863768" lon="38.4271048196"><ele>171.73</ele><time>2022-07-16T11:18:09Z</time></trkpt><trkpt lat="51.4373960998" lon="38.4271199070"><ele>172.69</ele><time>2022-07-16T11:18:20Z</time></trkpt><trkpt lat="51.4373765700" lon="38.4271417838"><ele>172.69</ele><time>2022-07-16T11:18:29Z</time></trkpt><trkpt lat="51.4373949263" lon="38.4271640796"><ele>173.66</ele><time>2022-07-16T11:18:32Z</time></trkpt><trkpt lat="51.4374095947" lon="38.4272204898"><ele>175.10</ele><time>2022-07-16T11:18:41Z</time></trkpt><trkpt lat="51.4373998716" lon="38.4272628184"><ele>175.58</ele><time>2022-07-16T11:18:51Z</time></trkpt><trkpt lat="51.4373974409" lon="38.4272694401"><ele>176.06</ele><time>2022-07-16T11:18:53Z</time></trkpt><trkpt lat="51.4373825211" lon="38.4273287002"><ele>176.06</ele><time>2022-07-16T11:18:59Z</time></trkpt><trkpt lat="51.4373800065" lon="38.4273721185"><ele>177.50</ele><time>2022-07-16T11:19:05Z</time></trkpt><trkpt lat="51.4373914897" lon="38.4273623116"><ele>177.98</ele><time>2022-07-16T11:19:08Z</time></trkpt><trkpt lat="51.4374049008" lon="38.4273290355"><ele>178.94</ele><time>2022-07-16T11:19:13Z</time></trkpt><trkpt lat="51.4374124445" lon="38.4273064043"><ele>179.42</ele><time>2022-07-16T11:19:16Z</time></trkpt><trkpt lat="51.4374313876" lon="38.4272685181"><ele>179.42</ele><time>2022-07-16T11:19:21Z</time></trkpt><trkpt lat="51.4374714531" lon="38.4272589628"><ele>180.87</ele><time>2022-07-16T11:19:28Z</time></trkpt><trkpt lat="51.4374971017" lon="38.4272450488"><ele>180.87</ele><time>2022-07-16T11:19:31Z</time></trkpt><trkpt lat="51.4375216607" lon="38.4272250999"><ele>180.87</ele><time>2022-07-16T11:19:35Z</time></trkpt><trkpt lat="51.4375650790" lon="38.4271934163"><ele>180.38</ele><time>2022-07-16T11:19:46Z</time></trkpt><trkpt lat="51.4376053121" lon="38.4272293746"><ele>182.31</ele><time>2022-07-16T11:19:57Z</time></trkpt><trkpt lat="51.4376105089" lon="38.4272293746"><ele>182.79</ele><time>2022-07-16T11:20:03Z</time></trkpt><trkpt lat="51.4376263507" lon="38.4272199031"><ele>183.27</ele><time>2022-07-16T11:20:05Z</time></trkpt><trkpt lat="51.4376300387" lon="38.4272428695"><ele>182.79</ele><time>2022-07-16T11:20:15Z</time></trkpt><trkpt lat="51.4376561902" lon="38.4272528440"><ele>183.75</ele><time>2022-07-16T11:20:29Z</time></trkpt><trkpt lat="51.4376818389" lon="38.4272432886"><ele>183.75</ele><time>2022-07-16T11:20:32Z</time></trkpt><trkpt lat="51.4376987703" lon="38.4272050671"><ele>183.75</ele><time>2022-07-16T11:20:35Z</time></trkpt><trkpt lat="51.4377532527" lon="38.4271945059"><ele>183.75</ele><time>2022-07-16T11:20:47Z</time></trkpt><trkpt lat="51.4377548452" lon="38.4271955956"><ele>184.23</ele><time>2022-07-16T11:20:48Z</time></trkpt><trkpt lat="51.4377581980" lon="38.4272375889"><ele>185.67</ele><time>2022-07-16T11:20:55Z</time></trkpt><trkpt lat="51.4377592038" lon="38.4272931609"><ele>187.11</ele><time>2022-07-16T11:21:02Z</time></trkpt><trkpt lat="51.4377762191" lon="38.4273353219"><ele>188.56</ele><time>2022-07-16T11:21:14Z</time></trkpt><trkpt lat="51.4377985988" lon="38.4273492359"><ele>189.04</ele><time>2022-07-16T11:21:18Z</time></trkpt><trkpt lat="51.4378164522" lon="38.4273706935"><ele>189.52</ele><time>2022-07-16T11:21:21Z</time></trkpt><trkpt lat="51.4378283545" lon="38.4274001978"><ele>190.00</ele><time>2022-07-16T11:21:23Z</time></trkpt><trkpt lat="51.4378266782" lon="38.4274284448"><ele>190.96</ele><time>2022-07-16T11:21:34Z</time></trkpt><trkpt lat="51.4378251694" lon="38.4274032991"><ele>191.44</ele><time>2022-07-16T11:21:45Z</time></trkpt><trkpt lat="51.4378222357" lon="38.4274142794"><ele>191.92</ele><time>2022-07-16T11:21:46Z</time></trkpt><trkpt lat="51.4377885405" lon="38.4274763893"><ele>191.92</ele><time>2022-07-16T11:21:51Z</time></trkpt><trkpt lat="51.4378141053" lon="38.4275011998"><ele>191.44</ele><time>2022-07-16T11:22:01Z</time></trkpt><trkpt lat="51.4377875347" lon="38.4275354818"><ele>191.92</ele><time>2022-07-16T11:22:09Z</time></trkpt><trkpt lat="51.4377680887" lon="38.4275830910"><ele>192.40</ele><time>2022-07-16T11:22:13Z</time></trkpt><trkpt lat="51.4377643168" lon="38.4276395012"><ele>192.88</ele><time>2022-07-16T11:22:17Z</time></trkpt><trkpt lat="51.4377680048" lon="38.4276728611"><ele>193.36</ele><time>2022-07-16T11:22:20Z</time></trkpt><trkpt lat="51.4377724472" lon="38.4277066402"><ele>193.84</ele><time>2022-07-16T11:22:23Z</time></trkpt><trkpt lat="51.4377915580" lon="38.4277809039"><ele>194.32</ele><time>2022-07-16T11:22:33Z</time></trkpt><trkpt lat="51.4377919771" lon="38.4277804010"><ele>194.80</ele><time>2022-07-16T11:22:35Z</time></trkpt><trkpt lat="51.4377779793" lon="38.4278722666"><ele>194.80</ele><time>2022-07-16T11:22:46Z</time></trkpt><trkpt lat="51.4378009457" lon="38.4278691653"><ele>195.77</ele><time>2022-07-16T11:22:55Z</time></trkpt><trkpt lat="51.4378797356" lon="38.4279031958"><ele>197.69</ele><time>2022-07-16T11:23:08Z</time></trkpt><trkpt lat="51.4379025344" lon="38.4279462788"><ele>198.17</ele><time>2022-07-16T11:23:22Z</time></trkpt><trkpt lat="51.4379055519" lon="38.4279427584"><ele>197.21</ele><time>2022-07-16T11:23:34Z</time></trkpt><trkpt lat="51.4379043784" lon="38.4279448539"><ele>198.17</ele><time>2022-07-16T11:23:46Z</time></trkpt><trkpt lat="51.4379295241" lon="38.4278863482"><ele>198.17</ele><time>2022-07-16T11:23:51Z</time></trkpt><trkpt lat="51.4379539154" lon="38.4278401639"><ele>197.69</ele><time>2022-07-16T11:23:55Z</time></trkpt><trkpt lat="51.4379720204" lon="38.4277751204"><ele>197.21</ele><time>2022-07-16T11:24:05Z</time></trkpt><trkpt lat="51.4379725233" lon="38.4277736116"><ele>197.21</ele><time>2022-07-16T11:24:07Z</time></trkpt><trkpt lat="51.4379892871" lon="38.4277385753"><ele>196.73</ele><time>2022-07-16T11:24:15Z</time></trkpt><trkpt lat="51.4380230661" lon="38.4276191331"><ele>195.77</ele><time>2022-07-16T11:24:24Z</time></trkpt><trkpt lat="51.4380166959" lon="38.4275504015"><ele>194.32</ele><time>2022-07-16T11:24:33Z</time></trkpt><trkpt lat="51.4380187914" lon="38.4275310393"><ele>195.28</ele><time>2022-07-16T11:24:49Z</time></trkpt><trkpt lat="51.4380157739" lon="38.4275133535"><ele>194.32</ele><time>2022-07-16T11:24:53Z</time></trkpt><trkpt lat="51.4379747864" lon="38.4274130221"><ele>191.92</ele><time>2022-07-16T11:25:05Z</time></trkpt><trkpt lat="51.4379726071" lon="38.4274037182"><ele>190.96</ele><time>2022-07-16T11:25:08Z</time></trkpt><trkpt lat="51.4379633870" lon="38.4273297898"><ele>188.08</ele><time>2022-07-16T11:25:19Z</time></trkpt><trkpt lat="51.4379309490" lon="38.4273036383"><ele>187.59</ele><time>2022-07-16T11:25:24Z</time></trkpt><trkpt lat="51.4379269257" lon="38.4272418637"><ele>186.15</ele><time>2022-07-16T11:25:27Z</time></trkpt><trkpt lat="51.4379034564" lon="38.4271804243"><ele>184.71</ele><time>2022-07-16T11:25:33Z</time></trkpt><trkpt lat="51.4379198011" lon="38.4271330666"><ele>183.27</ele><time>2022-07-16T11:25:38Z</time></trkpt><trkpt lat="51.4379199687" lon="38.4271308035"><ele>182.31</ele><time>2022-07-16T11:25:44Z</time></trkpt><trkpt lat="51.4378990140" lon="38.4271282051"><ele>181.35</ele><time>2022-07-16T11:25:53Z</time></trkpt><trkpt lat="51.4378566854" lon="38.4271055739"><ele>179.90</ele><time>2022-07-16T11:26:04Z</time></trkpt><trkpt lat="51.4378378261" lon="38.4270864632"><ele>179.42</ele><time>2022-07-16T11:26:08Z</time></trkpt><trkpt lat="51.4378019515" lon="38.4270010516"><ele>177.02</ele><time>2022-07-16T11:26:17Z</time></trkpt><trkpt lat="51.4377783984" lon="38.4269163944"><ele>175.10</ele><time>2022-07-16T11:26:25Z</time></trkpt><trkpt lat="51.4377763867" lon="38.4268942662"><ele>174.62</ele><time>2022-07-16T11:26:27Z</time></trkpt><trkpt lat="51.4377571084" lon="38.4267861396"><ele>171.25</ele><time>2022-07-16T11:26:35Z</time></trkpt><trkpt lat="51.4377607964" lon="38.4267397039"><ele>170.29</ele><time>2022-07-16T11:26:38Z</time></trkpt><trkpt lat="51.4377247542" lon="38.4265843034"><ele>168.85</ele><time>2022-07-16T11:26:46Z</time></trkpt><trkpt lat="51.4377040509" lon="38.4264990594"><ele>166.93</ele><time>2022-07-16T11:26:53Z</time></trkpt><trkpt lat="51.4376618899" lon="38.4263670444"><ele>165.00</ele><time>2022-07-16T11:27:00Z</time></trkpt><trkpt lat="51.4376556873" lon="38.4263499454"><ele>164.52</ele><time>2022-07-16T11:27:03Z</time></trkpt><trkpt lat="51.4376030490" lon="38.4262596723"><ele>163.56</ele><time>2022-07-16T11:27:08Z</time></trkpt><trkpt lat="51.4375690185" lon="38.4261363745"><ele>163.08</ele><time>2022-07-16T11:27:13Z</time></trkpt><trkpt lat="51.4375497401" lon="38.4260644577"><ele>162.12</ele><time>2022-07-16T11:27:17Z</time></trkpt><trkpt lat="51.4374478161" lon="38.4259264916"><ele>161.64</ele><time>2022-07-16T11:27:25Z</time></trkpt><trkpt lat="51.4373339899" lon="38.4258614480"><ele>162.12</ele><time>2022-07-16T11:27:35Z</time></trkpt><trkpt lat="51.4372543618" lon="38.4258430079"><ele>162.12</ele><time>2022-07-16T11:27:44Z</time></trkpt><trkpt lat="51.4372283779" lon="38.4258482046"><ele>160.68</ele><time>2022-07-16T11:27:51Z</time></trkpt><trkpt lat="51.4372204989" lon="38.4258436784"><ele>160.68</ele><time>2022-07-16T11:28:04Z</time></trkpt><trkpt lat="51.4372251928" lon="38.4258367214"><ele>160.68</ele><time>2022-07-16T11:28:29Z</time></trkpt><trkpt lat="51.4372302219" lon="38.4258334525"><ele>161.16</ele><time>2022-07-16T11:28:43Z</time></trkpt><trkpt lat="51.4372273721" lon="38.4258349612"><ele>161.16</ele><time>2022-07-16T11:29:16Z</time></trkpt><trkpt lat="51.4372239355" lon="38.4258167725"><ele>161.16</ele><time>2022-07-16T11:29:43Z</time></trkpt><trkpt lat="51.4372263663" lon="38.4258245677"><ele>161.16</ele><time>2022-07-16T11:29:57Z</time></trkpt><trkpt lat="51.4372264501" lon="38.4258247353"><ele>161.16</ele><time>2022-07-16T11:30:00Z</time></trkpt><trkpt lat="51.4372229297" lon="38.4258271661"><ele>161.16</ele><time>2022-07-16T11:30:09Z</time></trkpt><trkpt lat="51.4372290485" lon="38.4258348774"><ele>161.16</ele><time>2022-07-16T11:30:26Z</time></trkpt><trkpt lat="51.4372380171" lon="38.4258392360"><ele>160.20</ele><time>2022-07-16T11:30:51Z</time></trkpt><trkpt lat="51.4372386038" lon="38.4258395713"><ele>164.04</ele><time>2022-07-16T11:30:52Z</time></trkpt><trkpt lat="51.4372406155" lon="38.4258405771"><ele>160.68</ele><time>2022-07-16T11:30:57Z</time></trkpt><trkpt lat="51.4372405317" lon="38.4258283395"><ele>161.64</ele><time>2022-07-16T11:31:14Z</time></trkpt><trkpt lat="51.4372310601" lon="38.4258312732"><ele>161.64</ele><time>2022-07-16T11:31:40Z</time></trkpt><trkpt lat="51.4372348320" lon="38.4258294292"><ele>161.64</ele><time>2022-07-16T11:31:58Z</time></trkpt><trkpt lat="51.4372342452" lon="38.4258270822"><ele>161.64</ele><time>2022-07-16T11:32:15Z</time></trkpt><trkpt lat="51.4372386038" lon="38.4258352965"><ele>161.64</ele><time>2022-07-16T11:32:36Z</time></trkpt><trkpt lat="51.4372349158" lon="38.4258382302"><ele>162.60</ele><time>2022-07-16T11:32:55Z</time></trkpt><trkpt lat="51.4372284617" lon="38.4258410800"><ele>162.60</ele><time>2022-07-16T11:33:14Z</time></trkpt><trkpt lat="51.4370924234" lon="38.4259987436"><ele>161.16</ele><time>2022-07-16T11:33:21Z</time></trkpt><trkpt lat="51.4367698878" lon="38.4264812060"><ele>160.68</ele><time>2022-07-16T11:33:34Z</time></trkpt><trkpt lat="51.4366496913" lon="38.4268757422"><ele>160.68</ele><time>2022-07-16T11:33:43Z</time></trkpt><trkpt lat="51.4366860688" lon="38.4271367546"><ele>160.20</ele><time>2022-07-16T11:33:48Z</time></trkpt><trkpt lat="51.4366959594" lon="38.4278488811"><ele>160.20</ele><time>2022-07-16T11:34:01Z</time></trkpt><trkpt lat="51.4366647787" lon="38.4284766857"><ele>161.16</ele><time>2022-07-16T11:34:13Z</time></trkpt><trkpt lat="51.4366760105" lon="38.4292163048"><ele>162.12</ele><time>2022-07-16T11:34:28Z</time></trkpt><trkpt lat="51.4366996475" lon="38.4298108332"><ele>162.60</ele><time>2022-07-16T11:34:40Z</time></trkpt><trkpt lat="51.4367012400" lon="38.4304462653"><ele>163.08</ele><time>2022-07-16T11:34:53Z</time></trkpt><trkpt lat="51.4366918523" lon="38.4309573099"><ele>163.08</ele><time>2022-07-16T11:35:03Z</time></trkpt><trkpt lat="51.4366755914" lon="38.4316437040"><ele>163.56</ele><time>2022-07-16T11:35:16Z</time></trkpt><trkpt lat="51.4366902597" lon="38.4323900286"><ele>164.04</ele><time>2022-07-16T11:35:31Z</time></trkpt><trkpt lat="51.4366687182" lon="38.4326072037"><ele>164.04</ele><time>2022-07-16T11:35:35Z</time></trkpt><trkpt lat="51.4365406428" lon="38.4332265425"><ele>163.08</ele><time>2022-07-16T11:35:46Z</time></trkpt><trkpt lat="51.4364843164" lon="38.4334655944"><ele>162.12</ele><time>2022-07-16T11:35:50Z</time></trkpt><trkpt lat="51.4364010002" lon="38.4338975977"><ele>160.68</ele><time>2022-07-16T11:35:57Z</time></trkpt><trkpt lat="51.4363295026" lon="38.4349507838"><ele>157.79</ele><time>2022-07-16T11:36:12Z</time></trkpt><trkpt lat="51.4362958912" lon="38.4358691890"><ele>156.35</ele><time>2022-07-16T11:36:27Z</time></trkpt><trkpt lat="51.4361309353" lon="38.4363434371"><ele>156.83</ele><time>2022-07-16T11:36:38Z</time></trkpt><trkpt lat="51.4359148499" lon="38.4367212094"><ele>158.75</ele><time>2022-07-16T11:36:52Z</time></trkpt><trkpt lat="51.4355605468" lon="38.4370352793"><ele>157.79</ele><time>2022-07-16T11:37:06Z</time></trkpt><trkpt lat="51.4353793301" lon="38.4371899255"><ele>157.79</ele><time>2022-07-16T11:37:14Z</time></trkpt><trkpt lat="51.4353282005" lon="38.4372306615"><ele>157.79</ele><time>2022-07-16T11:37:16Z</time></trkpt><trkpt lat="51.4350844547" lon="38.4375186637"><ele>157.79</ele><time>2022-07-16T11:37:26Z</time></trkpt><trkpt lat="51.4348175749" lon="38.4379059914"><ele>157.31</ele><time>2022-07-16T11:37:38Z</time></trkpt><trkpt lat="51.4346055966" lon="38.4383286070"><ele>157.31</ele><time>2022-07-16T11:37:50Z</time></trkpt><trkpt lat="51.4343760163" lon="38.4388595168"><ele>157.79</ele><time>2022-07-16T11:38:05Z</time></trkpt><trkpt lat="51.4342487790" lon="38.4392355289"><ele>158.75</ele><time>2022-07-16T11:38:17Z</time></trkpt><trkpt lat="51.4341933746" lon="38.4393359441"><ele>158.27</ele><time>2022-07-16T11:38:22Z</time></trkpt><trkpt lat="51.4340186119" lon="38.4397754911"><ele>159.24</ele><time>2022-07-16T11:38:35Z</time></trkpt><trkpt lat="51.4338786341" lon="38.4401131142"><ele>159.24</ele><time>2022-07-16T11:38:45Z</time></trkpt><trkpt lat="51.4338230621" lon="38.4402643237"><ele>159.72</ele><time>2022-07-16T11:38:49Z</time></trkpt><trkpt lat="51.4336823300" lon="38.4408319462"><ele>160.68</ele><time>2022-07-16T11:39:05Z</time></trkpt><trkpt lat="51.4335896261" lon="38.4412998240"><ele>161.16</ele><time>2022-07-16T11:39:18Z</time></trkpt><trkpt lat="51.4335273486" lon="38.4417370241"><ele>161.16</ele><time>2022-07-16T11:39:29Z</time></trkpt><trkpt lat="51.4335000236" lon="38.4421905689"><ele>160.68</ele><time>2022-07-16T11:39:40Z</time></trkpt><trkpt lat="51.4334830921" lon="38.4426308703"><ele>160.20</ele><time>2022-07-16T11:39:51Z</time></trkpt><trkpt lat="51.4334550966" lon="38.4431344550"><ele>159.72</ele><time>2022-07-16T11:40:05Z</time></trkpt><trkpt lat="51.4334694296" lon="38.4434774425"><ele>159.72</ele><time>2022-07-16T11:40:15Z</time></trkpt><trkpt lat="51.4334783982" lon="38.4437175002"><ele>159.72</ele><time>2022-07-16T11:40:22Z</time></trkpt><trkpt lat="51.4334559347" lon="38.4442374296"><ele>159.72</ele><time>2022-07-16T11:40:35Z</time></trkpt><trkpt lat="51.4334170427" lon="38.4446704388"><ele>160.20</ele><time>2022-07-16T11:40:48Z</time></trkpt><trkpt lat="51.4333580341" lon="38.4451622888"><ele>161.16</ele><time>2022-07-16T11:41:04Z</time></trkpt><trkpt lat="51.4333496522" lon="38.4452357981"><ele>161.64</ele><time>2022-07-16T11:41:08Z</time></trkpt><trkpt lat="51.4333293680" lon="38.4453121573"><ele>161.64</ele><time>2022-07-16T11:41:12Z</time></trkpt><trkpt lat="51.4332984388" lon="38.4454813041"><ele>161.16</ele><time>2022-07-16T11:41:18Z</time></trkpt><trkpt lat="51.4332568645" lon="38.4455929510"><ele>161.16</ele><time>2022-07-16T11:41:23Z</time></trkpt><trkpt lat="51.4332469739" lon="38.4458881617"><ele>160.68</ele><time>2022-07-16T11:41:37Z</time></trkpt><trkpt lat="51.4332517516" lon="38.4460176621"><ele>160.20</ele><time>2022-07-16T11:41:43Z</time></trkpt><trkpt lat="51.4332433697" lon="38.4464323986"><ele>159.24</ele><time>2022-07-16T11:41:53Z</time></trkpt><trkpt lat="51.4332276955" lon="38.4466755576"><ele>158.75</ele><time>2022-07-16T11:42:03Z</time></trkpt><trkpt lat="51.4332199004" lon="38.4468190558"><ele>158.27</ele><time>2022-07-16T11:42:08Z</time></trkpt><trkpt lat="51.4332485665" lon="38.4470602870"><ele>157.31</ele><time>2022-07-16T11:42:18Z</time></trkpt><trkpt lat="51.4332843572" lon="38.4472078085"><ele>156.35</ele><time>2022-07-16T11:42:32Z</time></trkpt><trkpt lat="51.4332799148" lon="38.4472576808"><ele>156.35</ele><time>2022-07-16T11:43:03Z</time></trkpt><trkpt lat="51.4332779869" lon="38.4472715110"><ele>156.35</ele><time>2022-07-16T11:43:38Z</time></trkpt><trkpt lat="51.4332701080" lon="38.4472879395"><ele>156.35</ele><time>2022-07-16T11:43:59Z</time></trkpt><trkpt lat="51.4333541784" lon="38.4475917835"><ele>155.87</ele><time>2022-07-16T11:44:12Z</time></trkpt><trkpt lat="51.4334571082" lon="38.4479200188"><ele>154.91</ele><time>2022-07-16T11:44:23Z</time></trkpt><trkpt lat="51.4334918931" lon="38.4480199311"><ele>154.91</ele><time>2022-07-16T11:44:27Z</time></trkpt><trkpt lat="51.4335228223" lon="38.4480795264"><ele>154.91</ele><time>2022-07-16T11:44:31Z</time></trkpt><trkpt lat="51.4336214773" lon="38.4482569713"><ele>154.91</ele><time>2022-07-16T11:44:38Z</time></trkpt><trkpt lat="51.4336545020" lon="38.4483988769"><ele>154.43</ele><time>2022-07-16T11:44:44Z</time></trkpt><trkpt lat="51.4336808212" lon="38.4487624839"><ele>154.91</ele><time>2022-07-16T11:44:55Z</time></trkpt><trkpt lat="51.4336867724" lon="38.4489136934"><ele>154.91</ele><time>2022-07-16T11:45:00Z</time></trkpt><trkpt lat="51.4337840024" lon="38.4495055396"><ele>152.51</ele><time>2022-07-16T11:45:15Z</time></trkpt><trkpt lat="51.4337980002" lon="38.4495961480"><ele>152.03</ele><time>2022-07-16T11:45:18Z</time></trkpt><trkpt lat="51.4338461123" lon="38.4496964794"><ele>150.58</ele><time>2022-07-16T11:45:28Z</time></trkpt><trkpt lat="51.4338768739" lon="38.4498518799"><ele>150.10</ele><time>2022-07-16T11:45:39Z</time></trkpt><trkpt lat="51.4338880219" lon="38.4499269817"><ele>149.62</ele><time>2022-07-16T11:45:42Z</time></trkpt><trkpt lat="51.4339172747" lon="38.4503169078"><ele>148.66</ele><time>2022-07-16T11:45:54Z</time></trkpt><trkpt lat="51.4339591004" lon="38.4504539520"><ele>148.66</ele><time>2022-07-16T11:46:00Z</time></trkpt><trkpt lat="51.4339667279" lon="38.4505947679"><ele>148.66</ele><time>2022-07-16T11:46:05Z</time></trkpt><trkpt lat="51.4339787140" lon="38.4509725403"><ele>149.62</ele><time>2022-07-16T11:46:17Z</time></trkpt><trkpt lat="51.4340031892" lon="38.4511193074"><ele>150.58</ele><time>2022-07-16T11:46:23Z</time></trkpt><trkpt lat="51.4340167679" lon="38.4512521606"><ele>150.58</ele><time>2022-07-16T11:46:28Z</time></trkpt><trkpt lat="51.4340782072" lon="38.4516904503"><ele>151.54</ele><time>2022-07-16T11:46:45Z</time></trkpt><trkpt lat="51.4341176022" lon="38.4520125668"><ele>151.54</ele><time>2022-07-16T11:46:57Z</time></trkpt><trkpt lat="51.4341499563" lon="38.4524480905"><ele>151.06</ele><time>2022-07-16T11:47:10Z</time></trkpt><trkpt lat="51.4341883454" lon="38.4528954327"><ele>150.58</ele><time>2022-07-16T11:47:23Z</time></trkpt><trkpt lat="51.4342048578" lon="38.4532907233"><ele>150.58</ele><time>2022-07-16T11:47:36Z</time></trkpt><trkpt lat="51.4342012536" lon="38.4534229059"><ele>150.58</ele><time>2022-07-16T11:47:43Z</time></trkpt><trkpt lat="51.4342017565" lon="38.4534799028"><ele>150.58</ele><time>2022-07-16T11:47:46Z</time></trkpt><trkpt lat="51.4341712464" lon="38.4538080543"><ele>150.58</ele><time>2022-07-16T11:48:00Z</time></trkpt><trkpt lat="51.4341580030" lon="38.4538874310"><ele>151.06</ele><time>2022-07-16T11:48:03Z</time></trkpt><trkpt lat="51.4341461845" lon="38.4540254809"><ele>151.06</ele><time>2022-07-16T11:48:08Z</time></trkpt><trkpt lat="51.4341240562" lon="38.4543939494"><ele>152.03</ele><time>2022-07-16T11:48:20Z</time></trkpt><trkpt lat="51.4341087174" lon="38.4548008908"><ele>153.47</ele><time>2022-07-16T11:48:34Z</time></trkpt><trkpt lat="51.4340839069" lon="38.4552604705"><ele>156.83</ele><time>2022-07-16T11:48:50Z</time></trkpt><trkpt lat="51.4340938814" lon="38.4556838404"><ele>158.75</ele><time>2022-07-16T11:49:05Z</time></trkpt><trkpt lat="51.4340430871" lon="38.4561212081"><ele>158.75</ele><time>2022-07-16T11:49:19Z</time></trkpt><trkpt lat="51.4339821506" lon="38.4565944504"><ele>158.27</ele><time>2022-07-16T11:49:33Z</time></trkpt><trkpt lat="51.4339510538" lon="38.4571342450"><ele>158.27</ele><time>2022-07-16T11:49:48Z</time></trkpt><trkpt lat="51.4339432586" lon="38.4575691819"><ele>157.79</ele><time>2022-07-16T11:50:00Z</time></trkpt><trkpt lat="51.4339209627" lon="38.4580346290"><ele>158.27</ele><time>2022-07-16T11:50:13Z</time></trkpt><trkpt lat="51.4339372236" lon="38.4585881699"><ele>159.24</ele><time>2022-07-16T11:50:27Z</time></trkpt><trkpt lat="51.4339518081" lon="38.4587707277"><ele>159.24</ele><time>2022-07-16T11:50:32Z</time></trkpt><trkpt lat="51.4340674784" lon="38.4592925850"><ele>162.12</ele><time>2022-07-16T11:50:48Z</time></trkpt><trkpt lat="51.4341836516" lon="38.4597326349"><ele>165.00</ele><time>2022-07-16T11:51:02Z</time></trkpt><trkpt lat="51.4342851564" lon="38.4601415042"><ele>167.41</ele><time>2022-07-16T11:51:15Z</time></trkpt><trkpt lat="51.4344181772" lon="38.4606331028"><ele>170.29</ele><time>2022-07-16T11:51:31Z</time></trkpt><trkpt lat="51.4345216099" lon="38.4610594902"><ele>171.73</ele><time>2022-07-16T11:51:45Z</time></trkpt><trkpt lat="51.4346578158" lon="38.4615734685"><ele>173.17</ele><time>2022-07-16T11:52:02Z</time></trkpt><trkpt lat="51.4347794373" lon="38.4621479642"><ele>174.62</ele><time>2022-07-16T11:52:20Z</time></trkpt><trkpt lat="51.4349012263" lon="38.4625877626"><ele>175.58</ele><time>2022-07-16T11:52:35Z</time></trkpt><trkpt lat="51.4350190759" lon="38.4629617631"><ele>176.54</ele><time>2022-07-16T11:52:48Z</time></trkpt><trkpt lat="51.4350964408" lon="38.4632176626"><ele>177.02</ele><time>2022-07-16T11:52:57Z</time></trkpt><trkpt lat="51.4351305552" lon="38.4632678702"><ele>177.50</ele><time>2022-07-16T11:53:10Z</time></trkpt><trkpt lat="51.4351266995" lon="38.4632651880"><ele>177.50</ele><time>2022-07-16T11:53:35Z</time></trkpt><trkpt lat="51.4351270348" lon="38.4632651880"><ele>177.98</ele><time>2022-07-16T11:54:02Z</time></trkpt><trkpt lat="51.4351582155" lon="38.4632661100"><ele>177.98</ele><time>2022-07-16T11:54:16Z</time></trkpt><trkpt lat="51.4352257736" lon="38.4633160662"><ele>177.98</ele><time>2022-07-16T11:54:22Z</time></trkpt><trkpt lat="51.4353888016" lon="38.4635521006"><ele>179.90</ele><time>2022-07-16T11:54:35Z</time></trkpt><trkpt lat="51.4355738740" lon="38.4637549426"><ele>181.83</ele><time>2022-07-16T11:54:48Z</time></trkpt><trkpt lat="51.4357820805" lon="38.4640131053"><ele>184.23</ele><time>2022-07-16T11:55:03Z</time></trkpt><trkpt lat="51.4360023569" lon="38.4641967528"><ele>186.15</ele><time>2022-07-16T11:55:17Z</time></trkpt><trkpt lat="51.4361561649" lon="38.4643135127"><ele>187.59</ele><time>2022-07-16T11:55:28Z</time></trkpt><trkpt lat="51.4362088870" lon="38.4643354733"><ele>188.08</ele><time>2022-07-16T11:55:32Z</time></trkpt><trkpt lat="51.4364539739" lon="38.4644521493"><ele>190.96</ele><time>2022-07-16T11:55:47Z</time></trkpt><trkpt lat="51.4365099650" lon="38.4644798934"><ele>191.44</ele><time>2022-07-16T11:55:51Z</time></trkpt><trkpt lat="51.4367846400" lon="38.4645677358"><ele>193.36</ele><time>2022-07-16T11:56:07Z</time></trkpt><trkpt lat="51.4368020743" lon="38.4645707533"><ele>193.36</ele><time>2022-07-16T11:56:08Z</time></trkpt><trkpt lat="51.4368794393" lon="38.4646104835"><ele>194.32</ele><time>2022-07-16T11:56:13Z</time></trkpt><trkpt lat="51.4370991290" lon="38.4647647943"><ele>195.28</ele><time>2022-07-16T11:56:28Z</time></trkpt><trkpt lat="51.4372967742" lon="38.4649943747"><ele>196.25</ele><time>2022-07-16T11:56:43Z</time></trkpt><trkpt lat="51.4373859577" lon="38.4651754238"><ele>195.77</ele><time>2022-07-16T11:56:55Z</time></trkpt><trkpt lat="51.4374862891" lon="38.4653723985"><ele>195.28</ele><time>2022-07-16T11:57:06Z</time></trkpt><trkpt lat="51.4375489019" lon="38.4655886516"><ele>194.32</ele><time>2022-07-16T11:57:17Z</time></trkpt><trkpt lat="51.4376660809" lon="38.4658050723"><ele>194.32</ele><time>2022-07-16T11:57:30Z</time></trkpt><trkpt lat="51.4377068169" lon="38.4659054875"><ele>193.84</ele><time>2022-07-16T11:57:37Z</time></trkpt><trkpt lat="51.4377442840" lon="38.4660049807"><ele>193.84</ele><time>2022-07-16T11:57:43Z</time></trkpt><trkpt lat="51.4378632233" lon="38.4662835952"><ele>193.36</ele><time>2022-07-16T11:57:56Z</time></trkpt><trkpt lat="51.4379916340" lon="38.4664885327"><ele>193.84</ele><time>2022-07-16T11:58:10Z</time></trkpt><trkpt lat="51.4382834919" lon="38.4664465394"><ele>196.25</ele><time>2022-07-16T11:58:25Z</time></trkpt><trkpt lat="51.4385193586" lon="38.4664018638"><ele>198.17</ele><time>2022-07-16T11:58:36Z</time></trkpt><trkpt lat="51.4388305787" lon="38.4663318750"><ele>199.61</ele><time>2022-07-16T11:58:50Z</time></trkpt><trkpt lat="51.4391841274" lon="38.4662452061"><ele>202.01</ele><time>2022-07-16T11:59:06Z</time></trkpt><trkpt lat="51.4395438787" lon="38.4661198128"><ele>203.94</ele><time>2022-07-16T11:59:22Z</time></trkpt><trkpt lat="51.4398789033" lon="38.4660209063"><ele>204.90</ele><time>2022-07-16T11:59:37Z</time></trkpt><trkpt lat="51.4399711881" lon="38.4660315514"><ele>205.38</ele><time>2022-07-16T11:59:42Z</time></trkpt><trkpt lat="51.4400141034" lon="38.4660696890"><ele>205.38</ele><time>2022-07-16T11:59:46Z</time></trkpt><trkpt lat="51.4400256705" lon="38.4660460521"><ele>205.38</ele><time>2022-07-16T11:59:48Z</time></trkpt><trkpt lat="51.4400529116" lon="38.4659542702"><ele>205.86</ele><time>2022-07-16T11:59:52Z</time></trkpt><trkpt lat="51.4404037781" lon="38.4657657612"><ele>206.82</ele><time>2022-07-16T12:00:05Z</time></trkpt><trkpt lat="51.4409403037" lon="38.4655519389"><ele>207.30</ele><time>2022-07-16T12:00:17Z</time></trkpt><trkpt lat="51.4410397969" lon="38.4655275475"><ele>207.78</ele><time>2022-07-16T12:00:19Z</time></trkpt><trkpt lat="51.4414313156" lon="38.4653642680"><ele>207.78</ele><time>2022-07-16T12:00:27Z</time></trkpt><trkpt lat="51.4415924158" lon="38.4652893338"><ele>207.78</ele><time>2022-07-16T12:00:31Z</time></trkpt><trkpt lat="51.4419964235" lon="38.4651756752"><ele>207.78</ele><time>2022-07-16T12:00:40Z</time></trkpt><trkpt lat="51.4427528903" lon="38.4649414010"><ele>207.30</ele><time>2022-07-16T12:00:56Z</time></trkpt><trkpt lat="51.4431113005" lon="38.4648399800"><ele>206.82</ele><time>2022-07-16T12:01:04Z</time></trkpt><trkpt lat="51.4435145538" lon="38.4645943064"><ele>206.34</ele><time>2022-07-16T12:01:17Z</time></trkpt><trkpt lat="51.4436131250" lon="38.4646598529"><ele>205.86</ele><time>2022-07-16T12:01:23Z</time></trkpt><trkpt lat="51.4436302241" lon="38.4649880044"><ele>205.38</ele><time>2022-07-16T12:01:36Z</time></trkpt><trkpt lat="51.4436317328" lon="38.4650036786"><ele>205.86</ele><time>2022-07-16T12:01:49Z</time></trkpt><trkpt lat="51.4436334930" lon="38.4650103841"><ele>205.86</ele><time>2022-07-16T12:02:16Z</time></trkpt><trkpt lat="51.4436319843" lon="38.4650180116"><ele>205.86</ele><time>2022-07-16T12:02:41Z</time></trkpt><trkpt lat="51.4436277095" lon="38.4650977235"><ele>205.86</ele><time>2022-07-16T12:02:59Z</time></trkpt><trkpt lat="51.4436320681" lon="38.4652463347"><ele>205.86</ele><time>2022-07-16T12:03:14Z</time></trkpt><trkpt lat="51.4436573815" lon="38.4654872306"><ele>206.34</ele><time>2022-07-16T12:03:28Z</time></trkpt><trkpt lat="51.4436575491" lon="38.4654952772"><ele>205.38</ele><time>2022-07-16T12:03:39Z</time></trkpt><trkpt lat="51.4436505921" lon="38.4655008093"><ele>205.38</ele><time>2022-07-16T12:03:57Z</time></trkpt><trkpt lat="51.4436526876" lon="38.4655540343"><ele>205.38</ele><time>2022-07-16T12:04:18Z</time></trkpt><trkpt lat="51.4436733071" lon="38.4657031484"><ele>205.38</ele><time>2022-07-16T12:04:30Z</time></trkpt><trkpt lat="51.4436994586" lon="38.4658935014"><ele>205.38</ele><time>2022-07-16T12:04:41Z</time></trkpt><trkpt lat="51.4436914120" lon="38.4659048170"><ele>205.38</ele><time>2022-07-16T12:04:45Z</time></trkpt><trkpt lat="51.4437094331" lon="38.4662225749"><ele>205.38</ele><time>2022-07-16T12:05:01Z</time></trkpt><trkpt lat="51.4437281247" lon="38.4664723556"><ele>205.38</ele><time>2022-07-16T12:05:14Z</time></trkpt><trkpt lat="51.4437435474" lon="38.4667202923"><ele>205.86</ele><time>2022-07-16T12:05:28Z</time></trkpt><trkpt lat="51.4437676035" lon="38.4669612721"><ele>204.90</ele><time>2022-07-16T12:05:41Z</time></trkpt><trkpt lat="51.4437712077" lon="38.4671981446"><ele>204.90</ele><time>2022-07-16T12:05:54Z</time></trkpt><trkpt lat="51.4437813498" lon="38.4674466681"><ele>204.90</ele><time>2022-07-16T12:06:08Z</time></trkpt><trkpt lat="51.4437998738" lon="38.4676904976"><ele>204.90</ele><time>2022-07-16T12:06:21Z</time></trkpt><trkpt lat="51.4438154642" lon="38.4679412842"><ele>204.90</ele><time>2022-07-16T12:06:35Z</time></trkpt><trkpt lat="51.4438276179" lon="38.4681695234"><ele>204.90</ele><time>2022-07-16T12:06:46Z</time></trkpt><trkpt lat="51.4438515063" lon="38.4683990199"><ele>204.90</ele><time>2022-07-16T12:06:58Z</time></trkpt><trkpt lat="51.4438541885" lon="38.4684721101"><ele>205.38</ele><time>2022-07-16T12:07:04Z</time></trkpt><trkpt lat="51.4438707847" lon="38.4686527401"><ele>204.90</ele><time>2022-07-16T12:07:17Z</time></trkpt><trkpt lat="51.4439131133" lon="38.4689399041"><ele>206.34</ele><time>2022-07-16T12:07:29Z</time></trkpt><trkpt lat="51.4439406060" lon="38.4692201950"><ele>204.42</ele><time>2022-07-16T12:07:39Z</time></trkpt><trkpt lat="51.4439757261" lon="38.4693704825"><ele>204.90</ele><time>2022-07-16T12:07:46Z</time></trkpt><trkpt lat="51.4439810067" lon="38.4694441594"><ele>204.42</ele><time>2022-07-16T12:07:49Z</time></trkpt><trkpt lat="51.4440176357" lon="38.4697369393"><ele>204.42</ele><time>2022-07-16T12:07:58Z</time></trkpt><trkpt lat="51.4440383390" lon="38.4700298030"><ele>204.42</ele><time>2022-07-16T12:08:08Z</time></trkpt><trkpt lat="51.4440279454" lon="38.4701509215"><ele>203.94</ele><time>2022-07-16T12:08:11Z</time></trkpt><trkpt lat="51.4440545999" lon="38.4702348243"><ele>203.94</ele><time>2022-07-16T12:08:15Z</time></trkpt><trkpt lat="51.4440668374" lon="38.4703208227"><ele>203.94</ele><time>2022-07-16T12:08:18Z</time></trkpt><trkpt lat="51.4440654125" lon="38.4706694260"><ele>203.94</ele><time>2022-07-16T12:08:27Z</time></trkpt><trkpt lat="51.4440929890" lon="38.4709488787"><ele>203.94</ele><time>2022-07-16T12:08:35Z</time></trkpt><trkpt lat="51.4440993592" lon="38.4712555725"><ele>203.46</ele><time>2022-07-16T12:08:43Z</time></trkpt><trkpt lat="51.4441063162" lon="38.4713098872"><ele>203.46</ele><time>2022-07-16T12:08:45Z</time></trkpt><trkpt lat="51.4441175479" lon="38.4713837318"><ele>203.46</ele><time>2022-07-16T12:08:49Z</time></trkpt><trkpt lat="51.4440775663" lon="38.4715205245"><ele>203.94</ele><time>2022-07-16T12:09:03Z</time></trkpt><trkpt lat="51.4440711122" lon="38.4716224484"><ele>203.46</ele><time>2022-07-16T12:09:10Z</time></trkpt><trkpt lat="51.4441103395" lon="38.4720000532"><ele>202.98</ele><time>2022-07-16T12:09:23Z</time></trkpt><trkpt lat="51.4441941585" lon="38.4723536018"><ele>202.49</ele><time>2022-07-16T12:09:35Z</time></trkpt><trkpt lat="51.4441992715" lon="38.4727714397"><ele>202.49</ele><time>2022-07-16T12:09:45Z</time></trkpt><trkpt lat="51.4442130178" lon="38.4728374891"><ele>202.01</ele><time>2022-07-16T12:09:47Z</time></trkpt><trkpt lat="51.4442409296" lon="38.4732145071"><ele>202.01</ele><time>2022-07-16T12:09:55Z</time></trkpt><trkpt lat="51.4442655724" lon="38.4735689778"><ele>201.53</ele><time>2022-07-16T12:10:04Z</time></trkpt><trkpt lat="51.4442971721" lon="38.4742236882"><ele>201.05</ele><time>2022-07-16T12:10:18Z</time></trkpt><trkpt lat="51.4442894608" lon="38.4742723871"><ele>201.05</ele><time>2022-07-16T12:10:19Z</time></trkpt><trkpt lat="51.4442888740" lon="38.4744419530"><ele>201.05</ele><time>2022-07-16T12:10:23Z</time></trkpt><trkpt lat="51.4443098288" lon="38.4747766424"><ele>200.57</ele><time>2022-07-16T12:10:32Z</time></trkpt><trkpt lat="51.4442987647" lon="38.4750638064"><ele>200.57</ele><time>2022-07-16T12:10:44Z</time></trkpt><trkpt lat="51.4443073142" lon="38.4751261678"><ele>200.57</ele><time>2022-07-16T12:10:47Z</time></trkpt><trkpt lat="51.4442957472" lon="38.4752880223"><ele>200.57</ele><time>2022-07-16T12:10:56Z</time></trkpt><trkpt lat="51.4443205576" lon="38.4755577520"><ele>200.57</ele><time>2022-07-16T12:11:12Z</time></trkpt><trkpt lat="51.4443359803" lon="38.4757435787"><ele>200.09</ele><time>2022-07-16T12:11:27Z</time></trkpt><trkpt lat="51.4443453681" lon="38.4758972190"><ele>200.09</ele><time>2022-07-16T12:11:39Z</time></trkpt><trkpt lat="51.4443480503" lon="38.4759118874"><ele>200.09</ele><time>2022-07-16T12:11:45Z</time></trkpt><trkpt lat="51.4443715196" lon="38.4760560561"><ele>199.61</ele><time>2022-07-16T12:11:50Z</time></trkpt><trkpt lat="51.4443990123" lon="38.4763285518"><ele>199.61</ele><time>2022-07-16T12:11:58Z</time></trkpt><trkpt lat="51.4444156084" lon="38.4765445534"><ele>199.61</ele><time>2022-07-16T12:12:05Z</time></trkpt><trkpt lat="51.4444441907" lon="38.4767884668"><ele>199.13</ele><time>2022-07-16T12:12:11Z</time></trkpt><trkpt lat="51.4445120841" lon="38.4772961587"><ele>198.65</ele><time>2022-07-16T12:12:24Z</time></trkpt><trkpt lat="51.4445487130" lon="38.4778469335"><ele>198.17</ele><time>2022-07-16T12:12:37Z</time></trkpt><trkpt lat="51.4445908740" lon="38.4783853870"><ele>197.21</ele><time>2022-07-16T12:12:49Z</time></trkpt><trkpt lat="51.4446090627" lon="38.4785064217"><ele>197.21</ele><time>2022-07-16T12:12:52Z</time></trkpt><trkpt lat="51.4445806481" lon="38.4787172265"><ele>197.69</ele><time>2022-07-16T12:13:03Z</time></trkpt><trkpt lat="51.4445804805" lon="38.4788735490"><ele>197.21</ele><time>2022-07-16T12:13:14Z</time></trkpt><trkpt lat="51.4446213003" lon="38.4791264310"><ele>196.73</ele><time>2022-07-16T12:13:23Z</time></trkpt><trkpt lat="51.4446187019" lon="38.4796684049"><ele>196.25</ele><time>2022-07-16T12:13:36Z</time></trkpt><trkpt lat="51.4446392376" lon="38.4798918664"><ele>196.25</ele><time>2022-07-16T12:13:42Z</time></trkpt><trkpt lat="51.4446838293" lon="38.4801399708"><ele>195.77</ele><time>2022-07-16T12:13:51Z</time></trkpt><trkpt lat="51.4447204582" lon="38.4805577248"><ele>194.80</ele><time>2022-07-16T12:14:03Z</time></trkpt><trkpt lat="51.4447220508" lon="38.4806798492"><ele>194.32</ele><time>2022-07-16T12:14:06Z</time></trkpt><trkpt lat="51.4447508845" lon="38.4809233434"><ele>194.32</ele><time>2022-07-16T12:14:14Z</time></trkpt><trkpt lat="51.4447282534" lon="38.4814896248"><ele>193.36</ele><time>2022-07-16T12:14:25Z</time></trkpt><trkpt lat="51.4447165187" lon="38.4816725180"><ele>194.32</ele><time>2022-07-16T12:14:35Z</time></trkpt><trkpt lat="51.4447293431" lon="38.4816827439"><ele>193.84</ele><time>2022-07-16T12:14:55Z</time></trkpt><trkpt lat="51.4447343722" lon="38.4816636331"><ele>193.84</ele><time>2022-07-16T12:15:09Z</time></trkpt><trkpt lat="51.4447308518" lon="38.4816634655"><ele>193.84</ele><time>2022-07-16T12:15:37Z</time></trkpt><trkpt lat="51.4447255712" lon="38.4816597775"><ele>193.84</ele><time>2022-07-16T12:15:55Z</time></trkpt><trkpt lat="51.4447234757" lon="38.4816609509"><ele>193.84</ele><time>2022-07-16T12:16:01Z</time></trkpt><trkpt lat="51.4447223861" lon="38.4816505574"><ele>192.88</ele><time>2022-07-16T12:16:16Z</time></trkpt><trkpt lat="51.4447217993" lon="38.4816267528"><ele>192.40</ele><time>2022-07-16T12:16:54Z</time></trkpt><trkpt lat="51.4447298460" lon="38.4816545807"><ele>192.88</ele><time>2022-07-16T12:17:18Z</time></trkpt><trkpt lat="51.4447357971" lon="38.4816627949"><ele>193.36</ele><time>2022-07-16T12:17:47Z</time></trkpt><trkpt lat="51.4447375573" lon="38.4816552512"><ele>192.88</ele><time>2022-07-16T12:18:11Z</time></trkpt><trkpt lat="51.4447407424" lon="38.4816573467"><ele>192.88</ele><time>2022-07-16T12:18:30Z</time></trkpt><trkpt lat="51.4447414968" lon="38.4816507250"><ele>192.88</ele><time>2022-07-16T12:18:51Z</time></trkpt><trkpt lat="51.4447435085" lon="38.4816524014"><ele>192.88</ele><time>2022-07-16T12:19:04Z</time></trkpt><trkpt lat="51.4447462745" lon="38.4816593584"><ele>192.88</ele><time>2022-07-16T12:19:14Z</time></trkpt><trkpt lat="51.4447419159" lon="38.4816626273"><ele>192.88</ele><time>2022-07-16T12:19:38Z</time></trkpt><trkpt lat="51.4447380602" lon="38.4816701710"><ele>192.88</ele><time>2022-07-16T12:19:55Z</time></trkpt><trkpt lat="51.4447364677" lon="38.4816620406"><ele>192.40</ele><time>2022-07-16T12:20:05Z</time></trkpt><trkpt lat="51.4447322767" lon="38.4816561732"><ele>192.40</ele><time>2022-07-16T12:20:26Z</time></trkpt><trkpt lat="51.4447279181" lon="38.4816505574"><ele>192.40</ele><time>2022-07-16T12:20:46Z</time></trkpt><trkpt lat="51.4447248168" lon="38.4816479590"><ele>192.40</ele><time>2022-07-16T12:20:52Z</time></trkpt><trkpt lat="51.4447210450" lon="38.4816303570"><ele>192.40</ele><time>2022-07-16T12:21:04Z</time></trkpt><trkpt lat="51.4447261579" lon="38.4816425946"><ele>192.40</ele><time>2022-07-16T12:21:20Z</time></trkpt><trkpt lat="51.4447299298" lon="38.4816329554"><ele>192.88</ele><time>2022-07-16T12:21:35Z</time></trkpt><trkpt lat="51.4447106514" lon="38.4816881083"><ele>192.88</ele><time>2022-07-16T12:21:49Z</time></trkpt><trkpt lat="51.4447061252" lon="38.4817339573"><ele>192.40</ele><time>2022-07-16T12:21:53Z</time></trkpt><trkpt lat="51.4447056223" lon="38.4818135016"><ele>192.40</ele><time>2022-07-16T12:21:58Z</time></trkpt><trkpt lat="51.4447016828" lon="38.4819778707"><ele>191.92</ele><time>2022-07-16T12:22:08Z</time></trkpt><trkpt lat="51.4447061252" lon="38.4820624441"><ele>191.92</ele><time>2022-07-16T12:22:13Z</time></trkpt><trkpt lat="51.4447187819" lon="38.4822014160"><ele>191.44</ele><time>2022-07-16T12:22:21Z</time></trkpt><trkpt lat="51.4447270799" lon="38.4822664596"><ele>190.96</ele><time>2022-07-16T12:22:25Z</time></trkpt><trkpt lat="51.4447477832" lon="38.4824180882"><ele>190.96</ele><time>2022-07-16T12:22:34Z</time></trkpt><trkpt lat="51.4447636250" lon="38.4825604130"><ele>190.48</ele><time>2022-07-16T12:22:41Z</time></trkpt><trkpt lat="51.4447786286" lon="38.4826486744"><ele>190.48</ele><time>2022-07-16T12:22:46Z</time></trkpt><trkpt lat="51.4447820652" lon="38.4827511013"><ele>190.00</ele><time>2022-07-16T12:22:51Z</time></trkpt><trkpt lat="51.4448091388" lon="38.4830468986"><ele>189.04</ele><time>2022-07-16T12:23:07Z</time></trkpt><trkpt lat="51.4448146708" lon="38.4832009580"><ele>188.56</ele><time>2022-07-16T12:23:15Z</time></trkpt><trkpt lat="51.4448235556" lon="38.4832913987"><ele>188.08</ele><time>2022-07-16T12:23:20Z</time></trkpt><trkpt lat="51.4448266570" lon="38.4834090807"><ele>187.59</ele><time>2022-07-16T12:23:26Z</time></trkpt><trkpt lat="51.4448321052" lon="38.4836075641"><ele>187.11</ele><time>2022-07-16T12:23:36Z</time></trkpt><trkpt lat="51.4448605198" lon="38.4838133398"><ele>186.15</ele><time>2022-07-16T12:23:47Z</time></trkpt><trkpt lat="51.4448679797" lon="38.4839880187"><ele>185.67</ele><time>2022-07-16T12:23:56Z</time></trkpt><trkpt lat="51.4448756911" lon="38.4842530545"><ele>184.71</ele><time>2022-07-16T12:24:10Z</time></trkpt><trkpt lat="51.4448826481" lon="38.4843539726"><ele>184.23</ele><time>2022-07-16T12:24:15Z</time></trkpt><trkpt lat="51.4448881801" lon="38.4845670406"><ele>183.27</ele><time>2022-07-16T12:24:26Z</time></trkpt><trkpt lat="51.4448888507" lon="38.4846066870"><ele>183.27</ele><time>2022-07-16T12:24:28Z</time></trkpt><trkpt lat="51.4449018426" lon="38.4847408812"><ele>182.79</ele><time>2022-07-16T12:24:35Z</time></trkpt><trkpt lat="51.4449183550" lon="38.4850529395"><ele>181.35</ele><time>2022-07-16T12:24:51Z</time></trkpt><trkpt lat="51.4449331071" lon="38.4852694441"><ele>180.38</ele><time>2022-07-16T12:25:02Z</time></trkpt><trkpt lat="51.4449378848" lon="38.4853245132"><ele>179.90</ele><time>2022-07-16T12:25:05Z</time></trkpt><trkpt lat="51.4449362922" lon="38.4853627346"><ele>179.90</ele><time>2022-07-16T12:25:07Z</time></trkpt><trkpt lat="51.4449435007" lon="38.4854209889"><ele>179.42</ele><time>2022-07-16T12:25:10Z</time></trkpt><trkpt lat="51.4449502062" lon="38.4855320491"><ele>178.94</ele><time>2022-07-16T12:25:15Z</time></trkpt><trkpt lat="51.4449553192" lon="38.4856623877"><ele>178.46</ele><time>2022-07-16T12:25:22Z</time></trkpt><trkpt lat="51.4449681435" lon="38.4857934806"><ele>177.98</ele><time>2022-07-16T12:25:29Z</time></trkpt><trkpt lat="51.4449691493" lon="38.4860412497"><ele>177.50</ele><time>2022-07-16T12:25:43Z</time></trkpt><trkpt lat="51.4449909423" lon="38.4863540623"><ele>177.50</ele><time>2022-07-16T12:25:59Z</time></trkpt><trkpt lat="51.4450018387" lon="38.4865571558"><ele>177.02</ele><time>2022-07-16T12:26:10Z</time></trkpt><trkpt lat="51.4450213686" lon="38.4866335150"><ele>177.02</ele><time>2022-07-16T12:26:16Z</time></trkpt><trkpt lat="51.4450282417" lon="38.4867154900"><ele>176.54</ele><time>2022-07-16T12:26:20Z</time></trkpt><trkpt lat="51.4450349472" lon="38.4868516959"><ele>176.54</ele><time>2022-07-16T12:26:27Z</time></trkpt><trkpt lat="51.4450379647" lon="38.4869065974"><ele>176.54</ele><time>2022-07-16T12:26:30Z</time></trkpt><trkpt lat="51.4450417366" lon="38.4869443998"><ele>176.06</ele><time>2022-07-16T12:26:32Z</time></trkpt><trkpt lat="51.4450383000" lon="38.4869790170"><ele>176.06</ele><time>2022-07-16T12:26:34Z</time></trkpt><trkpt lat="51.4450391382" lon="38.4872403648"><ele>175.58</ele><time>2022-07-16T12:26:47Z</time></trkpt><trkpt lat="51.4450376295" lon="38.4873219207"><ele>175.58</ele><time>2022-07-16T12:26:51Z</time></trkpt><trkpt lat="51.4450423233" lon="38.4873838630"><ele>175.10</ele><time>2022-07-16T12:26:54Z</time></trkpt><trkpt lat="51.4450510405" lon="38.4876261000"><ele>174.62</ele><time>2022-07-16T12:27:06Z</time></trkpt><trkpt lat="51.4450623561" lon="38.4878540039"><ele>174.14</ele><time>2022-07-16T12:27:18Z</time></trkpt><trkpt lat="51.4450729173" lon="38.4880131762"><ele>174.14</ele><time>2022-07-16T12:27:31Z</time></trkpt><trkpt lat="51.4450821374" lon="38.4880327061"><ele>173.66</ele><time>2022-07-16T12:27:33Z</time></trkpt><trkpt lat="51.4451033436" lon="38.4881948959"><ele>173.17</ele><time>2022-07-16T12:27:42Z</time></trkpt><trkpt lat="51.4451123122" lon="38.4883364663"><ele>172.69</ele><time>2022-07-16T12:27:49Z</time></trkpt><trkpt lat="51.4451434929" lon="38.4885276575"><ele>172.21</ele><time>2022-07-16T12:27:59Z</time></trkpt><trkpt lat="51.4451535512" lon="38.4888081998"><ele>171.25</ele><time>2022-07-16T12:28:14Z</time></trkpt><trkpt lat="51.4451594185" lon="38.4888357762"><ele>171.25</ele><time>2022-07-16T12:28:16Z</time></trkpt><trkpt lat="51.4451812115" lon="38.4891200904"><ele>170.77</ele><time>2022-07-16T12:28:33Z</time></trkpt><trkpt lat="51.4451793674" lon="38.4891345073"><ele>170.29</ele><time>2022-07-16T12:28:36Z</time></trkpt><trkpt lat="51.4451861568" lon="38.4891709685"><ele>170.29</ele><time>2022-07-16T12:28:38Z</time></trkpt><trkpt lat="51.4452035911" lon="38.4893945977"><ele>169.81</ele><time>2022-07-16T12:28:50Z</time></trkpt><trkpt lat="51.4452004060" lon="38.4894914087"><ele>169.33</ele><time>2022-07-16T12:29:03Z</time></trkpt><trkpt lat="51.4452033397" lon="38.4894955996"><ele>169.33</ele><time>2022-07-16T12:29:16Z</time></trkpt><trkpt lat="51.4452031720" lon="38.4894930013"><ele>169.33</ele><time>2022-07-16T12:29:29Z</time></trkpt><trkpt lat="51.4452138171" lon="38.4895422868"><ele>169.81</ele><time>2022-07-16T12:29:41Z</time></trkpt><trkpt lat="51.4452164154" lon="38.4895780776"><ele>169.33</ele><time>2022-07-16T12:29:43Z</time></trkpt><trkpt lat="51.4452131465" lon="38.4896558616"><ele>169.33</ele><time>2022-07-16T12:29:47Z</time></trkpt><trkpt lat="51.4452185947" lon="38.4899535868"><ele>168.85</ele><time>2022-07-16T12:30:02Z</time></trkpt><trkpt lat="51.4452353586" lon="38.4902915452"><ele>168.37</ele><time>2022-07-16T12:30:19Z</time></trkpt><trkpt lat="51.4452575706" lon="38.4905922040"><ele>167.41</ele><time>2022-07-16T12:30:33Z</time></trkpt><trkpt lat="51.4452522900" lon="38.4906755202"><ele>167.41</ele><time>2022-07-16T12:30:37Z</time></trkpt><trkpt lat="51.4452599175" lon="38.4908947069"><ele>166.45</ele><time>2022-07-16T12:30:48Z</time></trkpt><trkpt lat="51.4452730771" lon="38.4909763467"><ele>165.96</ele><time>2022-07-16T12:30:52Z</time></trkpt><trkpt lat="51.4452682156" lon="38.4910159092"><ele>165.96</ele><time>2022-07-16T12:30:54Z</time></trkpt><trkpt lat="51.4452829678" lon="38.4911745787"><ele>165.96</ele><time>2022-07-16T12:31:03Z</time></trkpt><trkpt lat="51.4452936128" lon="38.4912537038"><ele>165.48</ele><time>2022-07-16T12:31:07Z</time></trkpt><trkpt lat="51.4453164954" lon="38.4915863816"><ele>164.52</ele><time>2022-07-16T12:31:23Z</time></trkpt><trkpt lat="51.4453323372" lon="38.4918259364"><ele>164.04</ele><time>2022-07-16T12:31:35Z</time></trkpt><trkpt lat="51.4453508612" lon="38.4920224082"><ele>163.08</ele><time>2022-07-16T12:31:45Z</time></trkpt><trkpt lat="51.4453506097" lon="38.4921216499"><ele>163.08</ele><time>2022-07-16T12:31:50Z</time></trkpt><trkpt lat="51.4453572314" lon="38.4922338836"><ele>162.60</ele><time>2022-07-16T12:31:56Z</time></trkpt><trkpt lat="51.4453632664" lon="38.4923301917"><ele>162.12</ele><time>2022-07-16T12:32:01Z</time></trkpt><trkpt lat="51.4453627635" lon="38.4924383182"><ele>162.12</ele><time>2022-07-16T12:32:07Z</time></trkpt><trkpt lat="51.4453754202" lon="38.4925083909"><ele>161.64</ele><time>2022-07-16T12:32:11Z</time></trkpt><trkpt lat="51.4453818742" lon="38.4926175233"><ele>161.16</ele><time>2022-07-16T12:32:17Z</time></trkpt><trkpt lat="51.4453869034" lon="38.4927049465"><ele>161.16</ele><time>2022-07-16T12:32:21Z</time></trkpt><trkpt lat="51.4453795273" lon="38.4927670565"><ele>161.16</ele><time>2022-07-16T12:32:25Z</time></trkpt><trkpt lat="51.4453907590" lon="38.4929116443"><ele>160.68</ele><time>2022-07-16T12:32:32Z</time></trkpt><trkpt lat="51.4454206824" lon="38.4932076931"><ele>160.20</ele><time>2022-07-16T12:32:47Z</time></trkpt><trkpt lat="51.4454301540" lon="38.4933901671"><ele>159.72</ele><time>2022-07-16T12:32:56Z</time></trkpt><trkpt lat="51.4454289805" lon="38.4935147222"><ele>159.24</ele><time>2022-07-16T12:33:02Z</time></trkpt><trkpt lat="51.4454371110" lon="38.4935742337"><ele>158.75</ele><time>2022-07-16T12:33:05Z</time></trkpt><trkpt lat="51.4454451576" lon="38.4937040694"><ele>158.75</ele><time>2022-07-16T12:33:12Z</time></trkpt><trkpt lat="51.4454514440" lon="38.4938044008"><ele>158.75</ele><time>2022-07-16T12:33:17Z</time></trkpt><trkpt lat="51.4454517793" lon="38.4939220827"><ele>158.27</ele><time>2022-07-16T12:33:23Z</time></trkpt><trkpt lat="51.4454577304" lon="38.4940275270"><ele>157.79</ele><time>2022-07-16T12:33:28Z</time></trkpt><trkpt lat="51.4454609994" lon="38.4941483941"><ele>157.31</ele><time>2022-07-16T12:33:34Z</time></trkpt><trkpt lat="51.4454693813" lon="38.4942157008"><ele>156.83</ele><time>2022-07-16T12:33:37Z</time></trkpt><trkpt lat="51.4454800263" lon="38.4942724463"><ele>156.35</ele><time>2022-07-16T12:33:40Z</time></trkpt><trkpt lat="51.4454864804" lon="38.4944523219"><ele>155.39</ele><time>2022-07-16T12:33:49Z</time></trkpt><trkpt lat="51.4455102850" lon="38.4946884401"><ele>154.91</ele><time>2022-07-16T12:34:02Z</time></trkpt><trkpt lat="51.4455084410" lon="38.4948090557"><ele>154.91</ele><time>2022-07-16T12:34:08Z</time></trkpt><trkpt lat="51.4455326647" lon="38.4950909391"><ele>154.43</ele><time>2022-07-16T12:34:23Z</time></trkpt><trkpt lat="51.4455314912" lon="38.4951295797"><ele>154.43</ele><time>2022-07-16T12:34:25Z</time></trkpt><trkpt lat="51.4455386158" lon="38.4952304978"><ele>154.43</ele><time>2022-07-16T12:34:30Z</time></trkpt><trkpt lat="51.4455652703" lon="38.4955048375"><ele>153.47</ele><time>2022-07-16T12:34:44Z</time></trkpt><trkpt lat="51.4455686230" lon="38.4955221880"><ele>153.47</ele><time>2022-07-16T12:34:45Z</time></trkpt><trkpt lat="51.4455803577" lon="38.4958004672"><ele>152.99</ele><time>2022-07-16T12:34:59Z</time></trkpt><trkpt lat="51.4455899131" lon="38.4960071649"><ele>152.51</ele><time>2022-07-16T12:35:09Z</time></trkpt><trkpt lat="51.4455954451" lon="38.4961254336"><ele>152.03</ele><time>2022-07-16T12:35:15Z</time></trkpt><trkpt lat="51.4455894940" lon="38.4961991943"><ele>152.03</ele><time>2022-07-16T12:35:19Z</time></trkpt><trkpt lat="51.4455933496" lon="38.4962960891"><ele>152.03</ele><time>2022-07-16T12:35:24Z</time></trkpt><trkpt lat="51.4456024021" lon="38.4964440297"><ele>151.54</ele><time>2022-07-16T12:35:31Z</time></trkpt><trkpt lat="51.4456125442" lon="38.4965749551"><ele>151.54</ele><time>2022-07-16T12:35:37Z</time></trkpt><trkpt lat="51.4456098620" lon="38.4966174513"><ele>151.06</ele><time>2022-07-16T12:35:39Z</time></trkpt><trkpt lat="51.4456272963" lon="38.4968682379"><ele>150.58</ele><time>2022-07-16T12:35:51Z</time></trkpt><trkpt lat="51.4456337504" lon="38.4969254024"><ele>150.58</ele><time>2022-07-16T12:35:54Z</time></trkpt><trkpt lat="51.4456546213" lon="38.4972881712"><ele>149.62</ele><time>2022-07-16T12:36:12Z</time></trkpt><trkpt lat="51.4456561301" lon="38.4974610899"><ele>149.14</ele><time>2022-07-16T12:36:20Z</time></trkpt><trkpt lat="51.4457003027" lon="38.4977495950"><ele>148.18</ele><time>2022-07-16T12:36:35Z</time></trkpt><trkpt lat="51.4457341656" lon="38.4980339929"><ele>146.74</ele><time>2022-07-16T12:36:50Z</time></trkpt><trkpt lat="51.4457446430" lon="38.4980883915"><ele>146.74</ele><time>2022-07-16T12:36:53Z</time></trkpt><trkpt lat="51.4458021428" lon="38.4982252680"><ele>146.74</ele><time>2022-07-16T12:37:03Z</time></trkpt><trkpt lat="51.4458147157" lon="38.4982686024"><ele>145.78</ele><time>2022-07-16T12:37:08Z</time></trkpt><trkpt lat="51.4458147157" lon="38.4983573668"><ele>145.78</ele><time>2022-07-16T12:37:14Z</time></trkpt><trkpt lat="51.4458425436" lon="38.4985239990"><ele>144.82</ele><time>2022-07-16T12:37:27Z</time></trkpt><trkpt lat="51.4458479919" lon="38.4985278547"><ele>144.82</ele><time>2022-07-16T12:37:49Z</time></trkpt><trkpt lat="51.4458484948" lon="38.4985282738"><ele>144.82</ele><time>2022-07-16T12:38:16Z</time></trkpt><trkpt lat="51.4458486624" lon="38.4985296987"><ele>144.82</ele><time>2022-07-16T12:38:37Z</time></trkpt><trkpt lat="51.4458515123" lon="38.4985280223"><ele>144.82</ele><time>2022-07-16T12:38:56Z</time></trkpt><trkpt lat="51.4458523504" lon="38.4985282738"><ele>144.82</ele><time>2022-07-16T12:39:13Z</time></trkpt><trkpt lat="51.4458549488" lon="38.4985288605"><ele>143.85</ele><time>2022-07-16T12:39:31Z</time></trkpt><trkpt lat="51.4458571281" lon="38.4985208139"><ele>144.82</ele><time>2022-07-16T12:39:59Z</time></trkpt><trkpt lat="51.4458826091" lon="38.4984886274"><ele>144.82</ele><time>2022-07-16T12:40:08Z</time></trkpt><trkpt lat="51.4460255206" lon="38.4983790759"><ele>144.82</ele><time>2022-07-16T12:40:20Z</time></trkpt><trkpt lat="51.4461850282" lon="38.4983492363"><ele>144.34</ele><time>2022-07-16T12:40:33Z</time></trkpt><trkpt lat="51.4461847767" lon="38.4983559418"><ele>144.34</ele><time>2022-07-16T12:40:44Z</time></trkpt><trkpt lat="51.4463467989" lon="38.4982511681"><ele>144.34</ele><time>2022-07-16T12:40:57Z</time></trkpt><trkpt lat="51.4464996848" lon="38.4980918281"><ele>144.34</ele><time>2022-07-16T12:41:10Z</time></trkpt><trkpt lat="51.4465561789" lon="38.4980314784"><ele>144.34</ele><time>2022-07-16T12:41:14Z</time></trkpt><trkpt lat="51.4466759562" lon="38.4979668539"><ele>143.37</ele><time>2022-07-16T12:41:23Z</time></trkpt><trkpt lat="51.4467529859" lon="38.4979263693"><ele>142.89</ele><time>2022-07-16T12:41:29Z</time></trkpt><trkpt lat="51.4468607772" lon="38.4978267923"><ele>141.93</ele><time>2022-07-16T12:41:39Z</time></trkpt><trkpt lat="51.4468893595" lon="38.4977697115"><ele>140.49</ele><time>2022-07-16T12:41:42Z</time></trkpt><trkpt lat="51.4469035249" lon="38.4977041651"><ele>140.97</ele><time>2022-07-16T12:41:54Z</time></trkpt><trkpt lat="51.4469118230" lon="38.4976665303"><ele>140.97</ele><time>2022-07-16T12:42:06Z</time></trkpt><trkpt lat="51.4469285030" lon="38.4976672847"><ele>140.97</ele><time>2022-07-16T12:42:12Z</time></trkpt><trkpt lat="51.4470772818" lon="38.4975924343"><ele>140.97</ele><time>2022-07-16T12:42:25Z</time></trkpt><trkpt lat="51.4472364541" lon="38.4974677954"><ele>140.97</ele><time>2022-07-16T12:42:38Z</time></trkpt><trkpt lat="51.4473709837" lon="38.4972881712"><ele>140.49</ele><time>2022-07-16T12:42:51Z</time></trkpt><trkpt lat="51.4474293217" lon="38.4971923660"><ele>140.97</ele><time>2022-07-16T12:42:58Z</time></trkpt><trkpt lat="51.4474596642" lon="38.4971600957"><ele>140.97</ele><time>2022-07-16T12:43:01Z</time></trkpt><trkpt lat="51.4476140589" lon="38.4971466847"><ele>139.53</ele><time>2022-07-16T12:43:15Z</time></trkpt><trkpt lat="51.4477473311" lon="38.4970278293"><ele>139.53</ele><time>2022-07-16T12:43:28Z</time></trkpt><trkpt lat="51.4478092734" lon="38.4970187768"><ele>139.53</ele><time>2022-07-16T12:43:35Z</time></trkpt><trkpt lat="51.4478759095" lon="38.4969254024"><ele>140.01</ele><time>2022-07-16T12:43:47Z</time></trkpt><trkpt lat="51.4479547832" lon="38.4968226403"><ele>140.01</ele><time>2022-07-16T12:43:58Z</time></trkpt><trkpt lat="51.4479607344" lon="38.4968164377"><ele>140.01</ele><time>2022-07-16T12:43:59Z</time></trkpt><trkpt lat="51.4481250197" lon="38.4967889450"><ele>139.53</ele><time>2022-07-16T12:44:14Z</time></trkpt><trkpt lat="51.4481204096" lon="38.4967913758"><ele>139.53</ele><time>2022-07-16T12:44:22Z</time></trkpt><trkpt lat="51.4481281210" lon="38.4967952315"><ele>139.53</ele><time>2022-07-16T12:44:42Z</time></trkpt><trkpt lat="51.4481388498" lon="38.4967990872"><ele>139.53</ele><time>2022-07-16T12:44:47Z</time></trkpt><trkpt lat="51.4481627382" lon="38.4968130849"><ele>139.53</ele><time>2022-07-16T12:44:52Z</time></trkpt><trkpt lat="51.4481877163" lon="38.4968496300"><ele>139.05</ele><time>2022-07-16T12:44:55Z</time></trkpt><trkpt lat="51.4482303802" lon="38.4969296772"><ele>138.57</ele><time>2022-07-16T12:45:05Z</time></trkpt><trkpt lat="51.4482568670" lon="38.4970159270"><ele>138.57</ele><time>2022-07-16T12:45:14Z</time></trkpt><trkpt lat="51.4483193960" lon="38.4971705731"><ele>138.57</ele><time>2022-07-16T12:45:27Z</time></trkpt><trkpt lat="51.4483457152" lon="38.4973093774"><ele>138.09</ele><time>2022-07-16T12:45:40Z</time></trkpt><trkpt lat="51.4483543485" lon="38.4973459225"><ele>138.09</ele><time>2022-07-16T12:45:50Z</time></trkpt><trkpt lat="51.4483943302" lon="38.4974271432"><ele>138.09</ele><time>2022-07-16T12:45:58Z</time></trkpt><trkpt lat="51.4484317135" lon="38.4975168295"><ele>138.09</ele><time>2022-07-16T12:46:09Z</time></trkpt><trkpt lat="51.4484634809" lon="38.4976003133"><ele>138.09</ele><time>2022-07-16T12:46:21Z</time></trkpt><trkpt lat="51.4485322125" lon="38.4977729805"><ele>138.09</ele><time>2022-07-16T12:46:35Z</time></trkpt><trkpt lat="51.4485490602" lon="38.4979163948"><ele>138.09</ele><time>2022-07-16T12:46:48Z</time></trkpt><trkpt lat="51.4485456236" lon="38.4979487490"><ele>138.09</ele><time>2022-07-16T12:47:02Z</time></trkpt><trkpt lat="51.4485481381" lon="38.4979985375"><ele>138.09</ele><time>2022-07-16T12:47:14Z</time></trkpt><trkpt lat="51.4485574421" lon="38.4980842005"><ele>138.09</ele><time>2022-07-16T12:47:25Z</time></trkpt><trkpt lat="51.4485618845" lon="38.4981479030"><ele>138.09</ele><time>2022-07-16T12:47:37Z</time></trkpt><trkpt lat="51.4485505689" lon="38.4982903115"><ele>138.09</ele><time>2022-07-16T12:47:49Z</time></trkpt><trkpt lat="51.4485703502" lon="38.4983939119"><ele>138.09</ele><time>2022-07-16T12:48:00Z</time></trkpt><trkpt lat="51.4485937357" lon="38.4984799940"><ele>138.57</ele><time>2022-07-16T12:48:13Z</time></trkpt><trkpt lat="51.4486291911" lon="38.4984382521"><ele>139.05</ele><time>2022-07-16T12:48:25Z</time></trkpt><trkpt lat="51.4486854337" lon="38.4984115139"><ele>139.53</ele><time>2022-07-16T12:48:34Z</time></trkpt><trkpt lat="51.4487591106" lon="38.4983960073"><ele>140.01</ele><time>2022-07-16T12:48:46Z</time></trkpt><trkpt lat="51.4487966616" lon="38.4984043892"><ele>140.97</ele><time>2022-07-16T12:48:57Z</time></trkpt><trkpt lat="51.4488518145" lon="38.4984053113"><ele>141.45</ele><time>2022-07-16T12:49:12Z</time></trkpt><trkpt lat="51.4489057101" lon="38.4983693529"><ele>141.45</ele><time>2022-07-16T12:49:22Z</time></trkpt><trkpt lat="51.4489938878" lon="38.4982864559"><ele>141.45</ele><time>2022-07-16T12:49:33Z</time></trkpt><trkpt lat="51.4490548242" lon="38.4982244298"><ele>141.93</ele><time>2022-07-16T12:49:44Z</time></trkpt><trkpt lat="51.4490957279" lon="38.4982604720"><ele>142.89</ele><time>2022-07-16T12:49:53Z</time></trkpt><trkpt lat="51.4491789602" lon="38.4983425308"><ele>143.85</ele><time>2022-07-16T12:50:07Z</time></trkpt><trkpt lat="51.4492584206" lon="38.4983049799"><ele>144.34</ele><time>2022-07-16T12:50:19Z</time></trkpt><trkpt lat="51.4492890984" lon="38.4983561933"><ele>145.30</ele><time>2022-07-16T12:50:31Z</time></trkpt><trkpt lat="51.4492874220" lon="38.4983663354"><ele>145.30</ele><time>2022-07-16T12:50:32Z</time></trkpt><trkpt lat="51.4492900204" lon="38.4984045569"><ele>144.82</ele><time>2022-07-16T12:50:44Z</time></trkpt><trkpt lat="51.4493056946" lon="38.4984149504"><ele>144.82</ele><time>2022-07-16T12:50:57Z</time></trkpt><trkpt lat="51.4493096340" lon="38.4984170459"><ele>145.30</ele><time>2022-07-16T12:51:09Z</time></trkpt><trkpt lat="51.4493352827" lon="38.4984498192"><ele>146.26</ele><time>2022-07-16T12:51:20Z</time></trkpt><trkpt lat="51.4493535552" lon="38.4984821733"><ele>146.26</ele><time>2022-07-16T12:51:24Z</time></trkpt><trkpt lat="51.4494338538" lon="38.4985811636"><ele>147.70</ele><time>2022-07-16T12:51:37Z</time></trkpt><trkpt lat="51.4494979754" lon="38.4986055549"><ele>148.66</ele><time>2022-07-16T12:51:46Z</time></trkpt><trkpt lat="51.4495838061" lon="38.4986668266"><ele>150.10</ele><time>2022-07-16T12:51:58Z</time></trkpt><trkpt lat="51.4496670384" lon="38.4986174572"><ele>151.54</ele><time>2022-07-16T12:52:09Z</time></trkpt><trkpt lat="51.4497864805" lon="38.4985335544"><ele>153.95</ele><time>2022-07-16T12:52:25Z</time></trkpt><trkpt lat="51.4498939365" lon="38.4984546807"><ele>156.35</ele><time>2022-07-16T12:52:40Z</time></trkpt><trkpt lat="51.4499829523" lon="38.4983927384"><ele>158.27</ele><time>2022-07-16T12:52:55Z</time></trkpt><trkpt lat="51.4500077628" lon="38.4983743820"><ele>158.75</ele><time>2022-07-16T12:53:17Z</time></trkpt><trkpt lat="51.4500064217" lon="38.4983615577"><ele>158.75</ele><time>2022-07-16T12:53:29Z</time></trkpt><trkpt lat="51.4500029851" lon="38.4983528405"><ele>158.75</ele><time>2022-07-16T12:53:54Z</time></trkpt><trkpt lat="51.4500000514" lon="38.4983478952"><ele>159.24</ele><time>2022-07-16T12:54:22Z</time></trkpt><trkpt lat="51.4500008058" lon="38.4983494040"><ele>158.75</ele><time>2022-07-16T12:54:44Z</time></trkpt><trkpt lat="51.4500223473" lon="38.4983706102"><ele>159.72</ele><time>2022-07-16T12:54:59Z</time></trkpt><trkpt lat="51.4501355030" lon="38.4984064847"><ele>162.60</ele><time>2022-07-16T12:55:13Z</time></trkpt><trkpt lat="51.4502484910" lon="38.4984140284"><ele>165.48</ele><time>2022-07-16T12:55:27Z</time></trkpt><trkpt lat="51.4503572043" lon="38.4984465502"><ele>167.89</ele><time>2022-07-16T12:55:41Z</time></trkpt><trkpt lat="51.4504929911" lon="38.4984793235"><ele>169.81</ele><time>2022-07-16T12:55:57Z</time></trkpt><trkpt lat="51.4506229106" lon="38.4985265136"><ele>172.21</ele><time>2022-07-16T12:56:13Z</time></trkpt><trkpt lat="51.4506333880" lon="38.4985051397"><ele>172.69</ele><time>2022-07-16T12:56:15Z</time></trkpt><trkpt lat="51.4507578593" lon="38.4983750526"><ele>174.62</ele><time>2022-07-16T12:56:32Z</time></trkpt><trkpt lat="51.4507947396" lon="38.4983535949"><ele>175.10</ele><time>2022-07-16T12:56:44Z</time></trkpt><trkpt lat="51.4508439414" lon="38.4982904792"><ele>175.58</ele><time>2022-07-16T12:56:53Z</time></trkpt><trkpt lat="51.4510272536" lon="38.4981814306"><ele>177.50</ele><time>2022-07-16T12:57:08Z</time></trkpt><trkpt lat="51.4510777127" lon="38.4981460590"><ele>178.46</ele><time>2022-07-16T12:57:13Z</time></trkpt><trkpt lat="51.4511767868" lon="38.4981437959"><ele>179.42</ele><time>2022-07-16T12:57:20Z</time></trkpt><trkpt lat="51.4512533136" lon="38.4981495794"><ele>180.87</ele><time>2022-07-16T12:57:27Z</time></trkpt><trkpt lat="51.4513090532" lon="38.4981573746"><ele>181.83</ele><time>2022-07-16T12:57:32Z</time></trkpt><trkpt lat="51.4514599275" lon="38.4981992003"><ele>183.75</ele><time>2022-07-16T12:57:45Z</time></trkpt><trkpt lat="51.4515652880" lon="38.4982254356"><ele>184.71</ele><time>2022-07-16T12:57:55Z</time></trkpt><trkpt lat="51.4517426491" lon="38.4982865397"><ele>186.63</ele><time>2022-07-16T12:58:10Z</time></trkpt><trkpt lat="51.4518304076" lon="38.4983211569"><ele>188.08</ele><time>2022-07-16T12:58:18Z</time></trkpt><trkpt lat="51.4519794378" lon="38.4983613901"><ele>189.52</ele><time>2022-07-16T12:58:31Z</time></trkpt><trkpt lat="51.4520266280" lon="38.4983755555"><ele>190.48</ele><time>2022-07-16T12:58:35Z</time></trkpt><trkpt lat="51.4521055855" lon="38.4984268527"><ele>190.96</ele><time>2022-07-16T12:58:42Z</time></trkpt><trkpt lat="51.4521627501" lon="38.4985087439"><ele>191.92</ele><time>2022-07-16T12:58:48Z</time></trkpt><trkpt lat="51.4522222616" lon="38.4985184669"><ele>192.40</ele><time>2022-07-16T12:58:53Z</time></trkpt><trkpt lat="51.4522733912" lon="38.4985418525"><ele>193.36</ele><time>2022-07-16T12:59:06Z</time></trkpt><trkpt lat="51.4523031469" lon="38.4985370748"><ele>193.36</ele><time>2022-07-16T12:59:17Z</time></trkpt><trkpt lat="51.4523637481" lon="38.4985359013"><ele>194.32</ele><time>2022-07-16T12:59:22Z</time></trkpt><trkpt lat="51.4525831863" lon="38.4986000229"><ele>195.77</ele><time>2022-07-16T12:59:39Z</time></trkpt><trkpt lat="51.4527539257" lon="38.4987165313"><ele>197.21</ele><time>2022-07-16T12:59:52Z</time></trkpt><trkpt lat="51.4529966656" lon="38.4986468777"><ele>198.17</ele><time>2022-07-16T13:00:07Z</time></trkpt><trkpt lat="51.4532005135" lon="38.4986432735"><ele>199.13</ele><time>2022-07-16T13:00:19Z</time></trkpt><trkpt lat="51.4534242265" lon="38.4988769609"><ele>199.61</ele><time>2022-07-16T13:00:34Z</time></trkpt><trkpt lat="51.4534350391" lon="38.4988812357"><ele>199.61</ele><time>2022-07-16T13:00:48Z</time></trkpt><trkpt lat="51.4535249770" lon="38.4989908710"><ele>199.61</ele><time>2022-07-16T13:00:54Z</time></trkpt><trkpt lat="51.4536895137" lon="38.4992227983"><ele>200.09</ele><time>2022-07-16T13:01:07Z</time></trkpt><trkpt lat="51.4538569842" lon="38.4995993134"><ele>200.09</ele><time>2022-07-16T13:01:23Z</time></trkpt><trkpt lat="51.4539475925" lon="38.4999342542"><ele>200.57</ele><time>2022-07-16T13:01:35Z</time></trkpt><trkpt lat="51.4540029131" lon="38.5002323985"><ele>199.61</ele><time>2022-07-16T13:01:47Z</time></trkpt><trkpt lat="51.4541494288" lon="38.5006401781"><ele>199.61</ele><time>2022-07-16T13:02:02Z</time></trkpt><trkpt lat="51.4543304779" lon="38.5011181142"><ele>199.61</ele><time>2022-07-16T13:02:19Z</time></trkpt><trkpt lat="51.4544699527" lon="38.5015271511"><ele>199.61</ele><time>2022-07-16T13:02:33Z</time></trkpt><trkpt lat="51.4545938373" lon="38.5019840486"><ele>199.13</ele><time>2022-07-16T13:02:48Z</time></trkpt><trkpt lat="51.4547103457" lon="38.5024052393"><ele>199.13</ele><time>2022-07-16T13:03:02Z</time></trkpt><trkpt lat="51.4548259322" lon="38.5028005298"><ele>198.65</ele><time>2022-07-16T13:03:17Z</time></trkpt><trkpt lat="51.4548330568" lon="38.5028321296"><ele>198.65</ele><time>2022-07-16T13:03:18Z</time></trkpt><trkpt lat="51.4549705200" lon="38.5032798070"><ele>198.17</ele><time>2022-07-16T13:03:32Z</time></trkpt><trkpt lat="51.4549858589" lon="38.5034107324"><ele>198.65</ele><time>2022-07-16T13:03:35Z</time></trkpt><trkpt lat="51.4550405089" lon="38.5036057793"><ele>197.21</ele><time>2022-07-16T13:03:40Z</time></trkpt><trkpt lat="51.4552761242" lon="38.5043813568"><ele>196.25</ele><time>2022-07-16T13:03:57Z</time></trkpt><trkpt lat="51.4554956462" lon="38.5049741250"><ele>195.77</ele><time>2022-07-16T13:04:11Z</time></trkpt><trkpt lat="51.4557462651" lon="38.5055844951"><ele>194.32</ele><time>2022-07-16T13:04:24Z</time></trkpt><trkpt lat="51.4560567308" lon="38.5063400399"><ele>193.36</ele><time>2022-07-16T13:04:39Z</time></trkpt><trkpt lat="51.4563089423" lon="38.5069811717"><ele>191.92</ele><time>2022-07-16T13:04:51Z</time></trkpt><trkpt lat="51.4565769956" lon="38.5077870078"><ele>189.52</ele><time>2022-07-16T13:05:06Z</time></trkpt><trkpt lat="51.4568473119" lon="38.5085143056"><ele>187.59</ele><time>2022-07-16T13:05:19Z</time></trkpt><trkpt lat="51.4572169539" lon="38.5090135317"><ele>185.67</ele><time>2022-07-16T13:05:32Z</time></trkpt><trkpt lat="51.4575756993" lon="38.5094642267"><ele>183.75</ele><time>2022-07-16T13:05:46Z</time></trkpt><trkpt lat="51.4578246418" lon="38.5096316133"><ele>181.83</ele><time>2022-07-16T13:05:56Z</time></trkpt><trkpt lat="51.4582618419" lon="38.5101931170"><ele>178.46</ele><time>2022-07-16T13:06:11Z</time></trkpt><trkpt lat="51.4583457448" lon="38.5103525408"><ele>177.02</ele><time>2022-07-16T13:06:15Z</time></trkpt><trkpt lat="51.4584819507" lon="38.5106881522"><ele>173.17</ele><time>2022-07-16T13:06:22Z</time></trkpt><trkpt lat="51.4585626684" lon="38.5109070875"><ele>169.33</ele><time>2022-07-16T13:06:26Z</time></trkpt><trkpt lat="51.4586576354" lon="38.5112402681"><ele>165.96</ele><time>2022-07-16T13:06:31Z</time></trkpt><trkpt lat="51.4587403648" lon="38.5116816591"><ele>163.56</ele><time>2022-07-16T13:06:36Z</time></trkpt><trkpt lat="51.4589208271" lon="38.5125407204"><ele>161.64</ele><time>2022-07-16T13:06:47Z</time></trkpt><trkpt lat="51.4590145368" lon="38.5136132687"><ele>159.72</ele><time>2022-07-16T13:07:03Z</time></trkpt><trkpt lat="51.4590983558" lon="38.5142695718"><ele>157.79</ele><time>2022-07-16T13:07:12Z</time></trkpt><trkpt lat="51.4591525029" lon="38.5152795073"><ele>155.87</ele><time>2022-07-16T13:07:27Z</time></trkpt><trkpt lat="51.4591688477" lon="38.5160543304"><ele>154.43</ele><time>2022-07-16T13:07:38Z</time></trkpt><trkpt lat="51.4591624774" lon="38.5168932751"><ele>153.95</ele><time>2022-07-16T13:07:51Z</time></trkpt><trkpt lat="51.4591587055" lon="38.5169547144"><ele>153.95</ele><time>2022-07-16T13:07:52Z</time></trkpt><trkpt lat="51.4591581188" lon="38.5172111169"><ele>153.95</ele><time>2022-07-16T13:07:56Z</time></trkpt><trkpt lat="51.4591417741" lon="38.5181935597"><ele>152.51</ele><time>2022-07-16T13:08:12Z</time></trkpt><trkpt lat="51.4591680095" lon="38.5190764256"><ele>150.10</ele><time>2022-07-16T13:08:26Z</time></trkpt><trkpt lat="51.4591631480" lon="38.5197111033"><ele>150.10</ele><time>2022-07-16T13:08:37Z</time></trkpt><trkpt lat="51.4591852762" lon="38.5205549095"><ele>147.70</ele><time>2022-07-16T13:08:51Z</time></trkpt><trkpt lat="51.4589326456" lon="38.5214632563"><ele>146.74</ele><time>2022-07-16T13:09:07Z</time></trkpt><trkpt lat="51.4587148838" lon="38.5220749676"><ele>146.74</ele><time>2022-07-16T13:09:19Z</time></trkpt><trkpt lat="51.4586423803" lon="38.5227574222"><ele>145.78</ele><time>2022-07-16T13:09:31Z</time></trkpt><trkpt lat="51.4585630875" lon="38.5238816869"><ele>144.34</ele><time>2022-07-16T13:09:49Z</time></trkpt><trkpt lat="51.4582916815" lon="38.5246580187"><ele>143.37</ele><time>2022-07-16T13:10:03Z</time></trkpt><trkpt lat="51.4582438208" lon="38.5248409957"><ele>142.89</ele><time>2022-07-16T13:10:06Z</time></trkpt><trkpt lat="51.4581303298" lon="38.5256588180"><ele>141.93</ele><time>2022-07-16T13:10:20Z</time></trkpt><trkpt lat="51.4581398852" lon="38.5266491398"><ele>140.49</ele><time>2022-07-16T13:10:36Z</time></trkpt><trkpt lat="51.4581755083" lon="38.5274962988"><ele>139.53</ele><time>2022-07-16T13:10:50Z</time></trkpt><trkpt lat="51.4581629355" lon="38.5281710420"><ele>139.05</ele><time>2022-07-16T13:11:01Z</time></trkpt><trkpt lat="51.4580823854" lon="38.5290473700"><ele>138.09</ele><time>2022-07-16T13:11:15Z</time></trkpt><trkpt lat="51.4580434933" lon="38.5293654632"><ele>137.13</ele><time>2022-07-16T13:11:20Z</time></trkpt><trkpt lat="51.4578456804" lon="38.5303485766"><ele>137.13</ele><time>2022-07-16T13:11:36Z</time></trkpt><trkpt lat="51.4576687384" lon="38.5311105754"><ele>135.20</ele><time>2022-07-16T13:11:49Z</time></trkpt><trkpt lat="51.4576224703" lon="38.5319114663"><ele>135.68</ele><time>2022-07-16T13:12:03Z</time></trkpt><trkpt lat="51.4576622006" lon="38.5326712858"><ele>136.16</ele><time>2022-07-16T13:12:16Z</time></trkpt><trkpt lat="51.4577365480" lon="38.5334213823"><ele>137.13</ele><time>2022-07-16T13:12:29Z</time></trkpt><trkpt lat="51.4578492846" lon="38.5341549665"><ele>138.57</ele><time>2022-07-16T13:12:44Z</time></trkpt><trkpt lat="51.4580030087" lon="38.5347565357"><ele>140.97</ele><time>2022-07-16T13:12:59Z</time></trkpt><trkpt lat="51.4580756798" lon="38.5354057979"><ele>140.97</ele><time>2022-07-16T13:13:13Z</time></trkpt><trkpt lat="51.4581464231" lon="38.5360551439"><ele>139.05</ele><time>2022-07-16T13:13:26Z</time></trkpt><trkpt lat="51.4582354389" lon="38.5369740520"><ele>135.68</ele><time>2022-07-16T13:13:42Z</time></trkpt><trkpt lat="51.4582920168" lon="38.5375295207"><ele>134.24</ele><time>2022-07-16T13:13:51Z</time></trkpt><trkpt lat="51.4584168233" lon="38.5380206164"><ele>133.28</ele><time>2022-07-16T13:13:59Z</time></trkpt><trkpt lat="51.4586341660" lon="38.5388956871"><ele>131.36</ele><time>2022-07-16T13:14:14Z</time></trkpt><trkpt lat="51.4587505069" lon="38.5394159518"><ele>130.40</ele><time>2022-07-16T13:14:23Z</time></trkpt><trkpt lat="51.4591276925" lon="38.5400047805"><ele>129.92</ele><time>2022-07-16T13:14:37Z</time></trkpt><trkpt lat="51.4593555126" lon="38.5403834749"><ele>129.92</ele><time>2022-07-16T13:14:49Z</time></trkpt><trkpt lat="51.4593701810" lon="38.5404366162"><ele>130.88</ele><time>2022-07-16T13:14:51Z</time></trkpt><trkpt lat="51.4593814965" lon="38.5407100338"><ele>130.40</ele><time>2022-07-16T13:14:59Z</time></trkpt><trkpt lat="51.4595117513" lon="38.5409207549"><ele>130.88</ele><time>2022-07-16T13:15:09Z</time></trkpt><trkpt lat="51.4595029503" lon="38.5410039872"><ele>130.88</ele><time>2022-07-16T13:15:13Z</time></trkpt><trkpt lat="51.4596108254" lon="38.5415539239"><ele>129.43</ele><time>2022-07-16T13:15:25Z</time></trkpt><trkpt lat="51.4596538246" lon="38.5417425167"><ele>129.92</ele><time>2022-07-16T13:15:29Z</time></trkpt><trkpt lat="51.4597310219" lon="38.5418162774"><ele>130.40</ele><time>2022-07-16T13:15:33Z</time></trkpt><trkpt lat="51.4597630408" lon="38.5418606177"><ele>131.36</ele><time>2022-07-16T13:15:36Z</time></trkpt><trkpt lat="51.4597883541" lon="38.5419562552"><ele>130.40</ele><time>2022-07-16T13:15:40Z</time></trkpt><trkpt lat="51.4598094765" lon="38.5420504678"><ele>129.92</ele><time>2022-07-16T13:15:42Z</time></trkpt><trkpt lat="51.4598150086" lon="38.5421099793"><ele>129.92</ele><time>2022-07-16T13:15:49Z</time></trkpt><trkpt lat="51.4598080516" lon="38.5421321914"><ele>129.43</ele><time>2022-07-16T13:15:51Z</time></trkpt><trkpt lat="51.4597620349" lon="38.5422509629"><ele>129.43</ele><time>2022-07-16T13:16:02Z</time></trkpt><trkpt lat="51.4597120788" lon="38.5423767753"><ele>128.95</ele><time>2022-07-16T13:16:07Z</time></trkpt><trkpt lat="51.4596618712" lon="38.5426450800"><ele>130.40</ele><time>2022-07-16T13:16:15Z</time></trkpt><trkpt lat="51.4597418346" lon="38.5427695513"><ele>131.36</ele><time>2022-07-16T13:16:24Z</time></trkpt><trkpt lat="51.4601971395" lon="38.5426740814"><ele>134.24</ele><time>2022-07-16T13:16:40Z</time></trkpt><trkpt lat="51.4606902469" lon="38.5430512670"><ele>136.64</ele><time>2022-07-16T13:16:56Z</time></trkpt><trkpt lat="51.4611235913" lon="38.5436484776"><ele>137.61</ele><time>2022-07-16T13:17:10Z</time></trkpt><trkpt lat="51.4616175368" lon="38.5443722550"><ele>138.57</ele><time>2022-07-16T13:17:25Z</time></trkpt><trkpt lat="51.4621788729" lon="38.5451008100"><ele>139.05</ele><time>2022-07-16T13:17:40Z</time></trkpt><trkpt lat="51.4629084338" lon="38.5458077397"><ele>139.05</ele><time>2022-07-16T13:17:57Z</time></trkpt><trkpt lat="51.4636829216" lon="38.5463388171"><ele>140.97</ele><time>2022-07-16T13:18:14Z</time></trkpt><trkpt lat="51.4644635282" lon="38.5467152484"><ele>143.37</ele><time>2022-07-16T13:18:31Z</time></trkpt><trkpt lat="51.4647487644" lon="38.5468009952"><ele>144.34</ele><time>2022-07-16T13:18:37Z</time></trkpt><trkpt lat="51.4653833583" lon="38.5469822958"><ele>146.74</ele><time>2022-07-16T13:18:52Z</time></trkpt><trkpt lat="51.4660072234" lon="38.5470682103"><ele>148.66</ele><time>2022-07-16T13:19:07Z</time></trkpt><trkpt lat="51.4666818827" lon="38.5471255425"><ele>150.58</ele><time>2022-07-16T13:19:23Z</time></trkpt><trkpt lat="51.4667888358" lon="38.5471176635"><ele>150.58</ele><time>2022-07-16T13:19:26Z</time></trkpt><trkpt lat="51.4669003990" lon="38.5472047515"><ele>151.06</ele><time>2022-07-16T13:19:36Z</time></trkpt><trkpt lat="51.4668969624" lon="38.5472036619"><ele>151.06</ele><time>2022-07-16T13:20:00Z</time></trkpt><trkpt lat="51.4669048414" lon="38.5471850540"><ele>151.54</ele><time>2022-07-16T13:20:30Z</time></trkpt><trkpt lat="51.4669144806" lon="38.5471814498"><ele>151.54</ele><time>2022-07-16T13:20:58Z</time></trkpt><trkpt lat="51.4669118822" lon="38.5471963696"><ele>151.54</ele><time>2022-07-16T13:21:23Z</time></trkpt><trkpt lat="51.4669012371" lon="38.5471899994"><ele>151.54</ele><time>2022-07-16T13:21:45Z</time></trkpt><trkpt lat="51.4669029135" lon="38.5471845511"><ele>151.54</ele><time>2022-07-16T13:22:11Z</time></trkpt><trkpt lat="51.4669034164" lon="38.5471879039"><ele>151.54</ele><time>2022-07-16T13:22:34Z</time></trkpt><trkpt lat="51.4668998122" lon="38.5471735708"><ele>151.54</ele><time>2022-07-16T13:22:59Z</time></trkpt><trkpt lat="51.4668954536" lon="38.5471687093"><ele>151.54</ele><time>2022-07-16T13:23:23Z</time></trkpt><trkpt lat="51.4668900892" lon="38.5471641831"><ele>151.54</ele><time>2022-07-16T13:23:49Z</time></trkpt><trkpt lat="51.4668917656" lon="38.5471449886"><ele>151.54</ele><time>2022-07-16T13:24:16Z</time></trkpt><trkpt lat="51.4668946154" lon="38.5471438151"><ele>151.54</ele><time>2022-07-16T13:24:20Z</time></trkpt><trkpt lat="51.4669706393" lon="38.5470844712"><ele>151.54</ele><time>2022-07-16T13:24:26Z</time></trkpt><trkpt lat="51.4673955180" lon="38.5470283125"><ele>152.03</ele><time>2022-07-16T13:24:40Z</time></trkpt><trkpt lat="51.4680192154" lon="38.5468858201"><ele>152.51</ele><time>2022-07-16T13:24:54Z</time></trkpt><trkpt lat="51.4688118082" lon="38.5464888532"><ele>152.99</ele><time>2022-07-16T13:25:10Z</time></trkpt><trkpt lat="51.4693339169" lon="38.5461653117"><ele>153.95</ele><time>2022-07-16T13:25:22Z</time></trkpt><trkpt lat="51.4700096659" lon="38.5457319673"><ele>155.87</ele><time>2022-07-16T13:25:38Z</time></trkpt><trkpt lat="51.4708002470" lon="38.5452037398"><ele>156.35</ele><time>2022-07-16T13:25:55Z</time></trkpt><trkpt lat="51.4712940250" lon="38.5448413063"><ele>156.83</ele><time>2022-07-16T13:26:05Z</time></trkpt><trkpt lat="51.4713899978" lon="38.5447806213"><ele>157.31</ele><time>2022-07-16T13:26:07Z</time></trkpt><trkpt lat="51.4715244435" lon="38.5446722433"><ele>157.79</ele><time>2022-07-16T13:26:10Z</time></trkpt><trkpt lat="51.4721871167" lon="38.5440104920"><ele>160.20</ele><time>2022-07-16T13:26:26Z</time></trkpt><trkpt lat="51.4729941264" lon="38.5431690328"><ele>162.12</ele><time>2022-07-16T13:26:45Z</time></trkpt><trkpt lat="51.4730818011" lon="38.5430716351"><ele>162.12</ele><time>2022-07-16T13:26:47Z</time></trkpt><trkpt lat="51.4738547802" lon="38.5422825627"><ele>163.08</ele><time>2022-07-16T13:27:04Z</time></trkpt><trkpt lat="51.4746083971" lon="38.5415043030"><ele>163.08</ele><time>2022-07-16T13:27:19Z</time></trkpt><trkpt lat="51.4747130033" lon="38.5413988587"><ele>163.08</ele><time>2022-07-16T13:27:21Z</time></trkpt><trkpt lat="51.4755314123" lon="38.5405343492"><ele>164.04</ele><time>2022-07-16T13:27:37Z</time></trkpt><trkpt lat="51.4762876276" lon="38.5397674050"><ele>163.56</ele><time>2022-07-16T13:27:52Z</time></trkpt><trkpt lat="51.4771435875" lon="38.5389412008"><ele>163.56</ele><time>2022-07-16T13:28:08Z</time></trkpt><trkpt lat="51.4779444784" lon="38.5381664615"><ele>162.60</ele><time>2022-07-16T13:28:23Z</time></trkpt><trkpt lat="51.4789498039" lon="38.5372381657"><ele>160.68</ele><time>2022-07-16T13:28:41Z</time></trkpt><trkpt lat="51.4797334280" lon="38.5365017317"><ele>158.75</ele><time>2022-07-16T13:28:55Z</time></trkpt><trkpt lat="51.4805403538" lon="38.5357440915"><ele>158.75</ele><time>2022-07-16T13:29:10Z</time></trkpt><trkpt lat="51.4808477182" lon="38.5354604479"><ele>158.75</ele><time>2022-07-16T13:29:16Z</time></trkpt><trkpt lat="51.4815018419" lon="38.5348613095"><ele>159.72</ele><time>2022-07-16T13:29:31Z</time></trkpt><trkpt lat="51.4816709887" lon="38.5347037297"><ele>160.68</ele><time>2022-07-16T13:29:40Z</time></trkpt><trkpt lat="51.4816709887" lon="38.5347035620"><ele>160.68</ele><time>2022-07-16T13:29:58Z</time></trkpt><trkpt lat="51.4816685580" lon="38.5347030591"><ele>160.68</ele><time>2022-07-16T13:30:20Z</time></trkpt><trkpt lat="51.4817254711" lon="38.5346515104"><ele>160.68</ele><time>2022-07-16T13:30:43Z</time></trkpt><trkpt lat="51.4818819612" lon="38.5344804358"><ele>160.20</ele><time>2022-07-16T13:30:48Z</time></trkpt><trkpt lat="51.4819691330" lon="38.5344192479"><ele>160.20</ele><time>2022-07-16T13:30:50Z</time></trkpt><trkpt lat="51.4824022260" lon="38.5340175871"><ele>160.20</ele><time>2022-07-16T13:30:59Z</time></trkpt><trkpt lat="51.4826017153" lon="38.5338320117"><ele>160.68</ele><time>2022-07-16T13:31:03Z</time></trkpt><trkpt lat="51.4832297713" lon="38.5332616232"><ele>162.12</ele><time>2022-07-16T13:31:16Z</time></trkpt><trkpt lat="51.4840339310" lon="38.5325934179"><ele>163.08</ele><time>2022-07-16T13:31:32Z</time></trkpt><trkpt lat="51.4845190756" lon="38.5322288051"><ele>163.56</ele><time>2022-07-16T13:31:41Z</time></trkpt><trkpt lat="51.4853929728" lon="38.5316222068"><ele>162.60</ele><time>2022-07-16T13:31:57Z</time></trkpt><trkpt lat="51.4864225220" lon="38.5309308674"><ele>161.64</ele><time>2022-07-16T13:32:15Z</time></trkpt><trkpt lat="51.4869242627" lon="38.5306022130"><ele>161.16</ele><time>2022-07-16T13:32:24Z</time></trkpt><trkpt lat="51.4879437536" lon="38.5299098678"><ele>160.20</ele><time>2022-07-16T13:32:42Z</time></trkpt><trkpt lat="51.4889273699" lon="38.5292616952"><ele>158.75</ele><time>2022-07-16T13:32:59Z</time></trkpt><trkpt lat="51.4899039455" lon="38.5286155343"><ele>157.31</ele><time>2022-07-16T13:33:15Z</time></trkpt><trkpt lat="51.4911012165" lon="38.5278085247"><ele>154.91</ele><time>2022-07-16T13:33:34Z</time></trkpt><trkpt lat="51.4919455256" lon="38.5272352025"><ele>151.54</ele><time>2022-07-16T13:33:47Z</time></trkpt><trkpt lat="51.4926656988" lon="38.5267373174"><ele>148.18</ele><time>2022-07-16T13:33:57Z</time></trkpt><trkpt lat="51.4927445725" lon="38.5266805720"><ele>147.70</ele><time>2022-07-16T13:33:58Z</time></trkpt><trkpt lat="51.4933344070" lon="38.5263088346"><ele>144.34</ele><time>2022-07-16T13:34:06Z</time></trkpt><trkpt lat="51.4936448727" lon="38.5260945093"><ele>140.97</ele><time>2022-07-16T13:34:10Z</time></trkpt><trkpt lat="51.4941692445" lon="38.5257415473"><ele>137.61</ele><time>2022-07-16T13:34:16Z</time></trkpt><trkpt lat="51.4944413211" lon="38.5255493503"><ele>135.68</ele><time>2022-07-16T13:34:19Z</time></trkpt><trkpt lat="51.4954738040" lon="38.5248558316"><ele>132.80</ele><time>2022-07-16T13:34:31Z</time></trkpt><trkpt lat="51.4961837512" lon="38.5243783146"><ele>131.36</ele><time>2022-07-16T13:34:40Z</time></trkpt><trkpt lat="51.4972163178" lon="38.5236716364"><ele>130.88</ele><time>2022-07-16T13:34:55Z</time></trkpt><trkpt lat="51.4981855173" lon="38.5230314266"><ele>129.43</ele><time>2022-07-16T13:35:10Z</time></trkpt><trkpt lat="51.4990151580" lon="38.5224551708"><ele>128.47</ele><time>2022-07-16T13:35:23Z</time></trkpt><trkpt lat="51.4993308205" lon="38.5222357325"><ele>127.99</ele><time>2022-07-16T13:35:28Z</time></trkpt><trkpt lat="51.5001511574" lon="38.5217086785"><ele>127.03</ele><time>2022-07-16T13:35:41Z</time></trkpt><trkpt lat="51.5005310252" lon="38.5214883182"><ele>127.03</ele><time>2022-07-16T13:35:47Z</time></trkpt><trkpt lat="51.5012707282" lon="38.5211783554"><ele>126.55</ele><time>2022-07-16T13:35:59Z</time></trkpt><trkpt lat="51.5018965211" lon="38.5211081151"><ele>126.07</ele><time>2022-07-16T13:36:09Z</time></trkpt><trkpt lat="51.5027445182" lon="38.5214803554"><ele>125.11</ele><time>2022-07-16T13:36:23Z</time></trkpt><trkpt lat="51.5031403117" lon="38.5218084231"><ele>124.63</ele><time>2022-07-16T13:36:30Z</time></trkpt><trkpt lat="51.5040118620" lon="38.5226554144"><ele>123.67</ele><time>2022-07-16T13:36:46Z</time></trkpt><trkpt lat="51.5050758608" lon="38.5236758273"><ele>122.71</ele><time>2022-07-16T13:37:05Z</time></trkpt><trkpt lat="51.5060183220" lon="38.5245778877"><ele>122.71</ele><time>2022-07-16T13:37:23Z</time></trkpt><trkpt lat="51.5067420993" lon="38.5253140703"><ele>123.67</ele><time>2022-07-16T13:37:38Z</time></trkpt><trkpt lat="51.5076240432" lon="38.5261450522"><ele>122.71</ele><time>2022-07-16T13:37:56Z</time></trkpt><trkpt lat="51.5078841336" lon="38.5264059808"><ele>122.71</ele><time>2022-07-16T13:38:02Z</time></trkpt><trkpt lat="51.5087803267" lon="38.5274049360"><ele>120.30</ele><time>2022-07-16T13:38:20Z</time></trkpt><trkpt lat="51.5092309378" lon="38.5281469859"><ele>120.30</ele><time>2022-07-16T13:38:31Z</time></trkpt><trkpt lat="51.5095328540" lon="38.5287996847"><ele>120.30</ele><time>2022-07-16T13:38:40Z</time></trkpt><trkpt lat="51.5099029150" lon="38.5294517130"><ele>120.78</ele><time>2022-07-16T13:38:50Z</time></trkpt><trkpt lat="51.5100310743" lon="38.5296259727"><ele>120.78</ele><time>2022-07-16T13:38:53Z</time></trkpt><trkpt lat="51.5101604071" lon="38.5297886655"><ele>120.78</ele><time>2022-07-16T13:38:56Z</time></trkpt><trkpt lat="51.5106832702" lon="38.5303108580"><ele>121.74</ele><time>2022-07-16T13:39:08Z</time></trkpt><trkpt lat="51.5115012601" lon="38.5310327075"><ele>121.26</ele><time>2022-07-16T13:39:25Z</time></trkpt><trkpt lat="51.5122001432" lon="38.5316660441"><ele>124.15</ele><time>2022-07-16T13:39:42Z</time></trkpt><trkpt lat="51.5127504990" lon="38.5321590677"><ele>127.51</ele><time>2022-07-16T13:39:59Z</time></trkpt><trkpt lat="51.5127795003" lon="38.5321963672"><ele>127.51</ele><time>2022-07-16T13:40:00Z</time></trkpt><trkpt lat="51.5127942525" lon="38.5324236006"><ele>128.47</ele><time>2022-07-16T13:40:04Z</time></trkpt><trkpt lat="51.5125785861" lon="38.5334422532"><ele>128.47</ele><time>2022-07-16T13:40:20Z</time></trkpt><trkpt lat="51.5122744069" lon="38.5349908099"><ele>128.47</ele><time>2022-07-16T13:40:41Z</time></trkpt><trkpt lat="51.5122370236" lon="38.5351986811"><ele>127.99</ele><time>2022-07-16T13:40:44Z</time></trkpt><trkpt lat="51.5121957846" lon="38.5354511440"><ele>127.99</ele><time>2022-07-16T13:40:48Z</time></trkpt><trkpt lat="51.5121686272" lon="38.5357194487"><ele>127.99</ele><time>2022-07-16T13:40:52Z</time></trkpt><trkpt lat="51.5120716486" lon="38.5365190823"><ele>127.51</ele><time>2022-07-16T13:41:04Z</time></trkpt><trkpt lat="51.5120465029" lon="38.5367496684"><ele>127.51</ele><time>2022-07-16T13:41:07Z</time></trkpt><trkpt lat="51.5120156575" lon="38.5369714536"><ele>127.51</ele><time>2022-07-16T13:41:10Z</time></trkpt><trkpt lat="51.5119667072" lon="38.5375914630"><ele>127.03</ele><time>2022-07-16T13:41:18Z</time></trkpt><trkpt lat="51.5119380411" lon="38.5379828978"><ele>127.51</ele><time>2022-07-16T13:41:23Z</time></trkpt><trkpt lat="51.5119697247" lon="38.5384560563"><ele>127.51</ele><time>2022-07-16T13:41:29Z</time></trkpt><trkpt lat="51.5120677091" lon="38.5388865508"><ele>127.51</ele><time>2022-07-16T13:41:35Z</time></trkpt><trkpt lat="51.5123063419" lon="38.5397462826"><ele>127.51</ele><time>2022-07-16T13:41:47Z</time></trkpt><trkpt lat="51.5123841260" lon="38.5403232928"><ele>126.55</ele><time>2022-07-16T13:41:54Z</time></trkpt><trkpt lat="51.5123809408" lon="38.5405943636"><ele>126.07</ele><time>2022-07-16T13:41:57Z</time></trkpt><trkpt lat="51.5123255365" lon="38.5411240999"><ele>125.59</ele><time>2022-07-16T13:42:03Z</time></trkpt><trkpt lat="51.5118703153" lon="38.5427252110"><ele>122.71</ele><time>2022-07-16T13:42:22Z</time></trkpt><trkpt lat="51.5116784535" lon="38.5440101568"><ele>120.78</ele><time>2022-07-16T13:42:36Z</time></trkpt><trkpt lat="51.5116857458" lon="38.5449380334"><ele>119.82</ele><time>2022-07-16T13:42:46Z</time></trkpt><trkpt lat="51.5118621849" lon="38.5454313923"><ele>119.34</ele><time>2022-07-16T13:42:52Z</time></trkpt><trkpt lat="51.5126905683" lon="38.5466518812"><ele>119.34</ele><time>2022-07-16T13:43:11Z</time></trkpt><trkpt lat="51.5130959172" lon="38.5473163147"><ele>119.34</ele><time>2022-07-16T13:43:21Z</time></trkpt><trkpt lat="51.5138750151" lon="38.5483472049"><ele>118.38</ele><time>2022-07-16T13:43:38Z</time></trkpt><trkpt lat="51.5143012349" lon="38.5486883484"><ele>119.82</ele><time>2022-07-16T13:43:47Z</time></trkpt><trkpt lat="51.5152341407" lon="38.5491160769"><ele>121.74</ele><time>2022-07-16T13:44:06Z</time></trkpt><trkpt lat="51.5161248855" lon="38.5496171471"><ele>122.22</ele><time>2022-07-16T13:44:24Z</time></trkpt><trkpt lat="51.5161722433" lon="38.5496568773"><ele>122.22</ele><time>2022-07-16T13:44:25Z</time></trkpt><trkpt lat="51.5169474855" lon="38.5502312891"><ele>123.19</ele><time>2022-07-16T13:44:41Z</time></trkpt><trkpt lat="51.5178236458" lon="38.5509961378"><ele>123.19</ele><time>2022-07-16T13:45:00Z</time></trkpt><trkpt lat="51.5180524718" lon="38.5511919390"><ele>122.71</ele><time>2022-07-16T13:45:05Z</time></trkpt><trkpt lat="51.5181916952" lon="38.5512807034"><ele>122.22</ele><time>2022-07-16T13:45:08Z</time></trkpt><trkpt lat="51.5183181781" lon="38.5513858963"><ele>122.22</ele><time>2022-07-16T13:45:11Z</time></trkpt><trkpt lat="51.5189245250" lon="38.5519624874"><ele>123.19</ele><time>2022-07-16T13:45:25Z</time></trkpt><trkpt lat="51.5191713721" lon="38.5521618929"><ele>124.15</ele><time>2022-07-16T13:45:31Z</time></trkpt><trkpt lat="51.5192972682" lon="38.5527109914"><ele>123.67</ele><time>2022-07-16T13:45:39Z</time></trkpt><trkpt lat="51.5193641558" lon="38.5529318545"><ele>123.19</ele><time>2022-07-16T13:45:42Z</time></trkpt><trkpt lat="51.5200714208" lon="38.5540035646"><ele>123.19</ele><time>2022-07-16T13:46:00Z</time></trkpt><trkpt lat="51.5205262229" lon="38.5545230750"><ele>124.63</ele><time>2022-07-16T13:46:11Z</time></trkpt><trkpt lat="51.5213827696" lon="38.5554928612"><ele>125.11</ele><time>2022-07-16T13:46:31Z</time></trkpt><trkpt lat="51.5221668966" lon="38.5563954245"><ele>125.11</ele><time>2022-07-16T13:46:49Z</time></trkpt><trkpt lat="51.5227179229" lon="38.5570176970"><ele>124.15</ele><time>2022-07-16T13:47:01Z</time></trkpt><trkpt lat="51.5228040051" lon="38.5571099818"><ele>124.15</ele><time>2022-07-16T13:47:03Z</time></trkpt><trkpt lat="51.5232190769" lon="38.5571902804"><ele>123.67</ele><time>2022-07-16T13:47:11Z</time></trkpt><trkpt lat="51.5237073228" lon="38.5569236521"><ele>122.71</ele><time>2022-07-16T13:47:20Z</time></trkpt><trkpt lat="51.5238094982" lon="38.5569113307"><ele>122.71</ele><time>2022-07-16T13:47:22Z</time></trkpt><trkpt lat="51.5241684951" lon="38.5570684075"><ele>122.71</ele><time>2022-07-16T13:47:29Z</time></trkpt><trkpt lat="51.5243470296" lon="38.5573847406"><ele>122.71</ele><time>2022-07-16T13:47:34Z</time></trkpt><trkpt lat="51.5248529613" lon="38.5586173832"><ele>122.71</ele><time>2022-07-16T13:47:51Z</time></trkpt><trkpt lat="51.5249787737" lon="38.5588876158"><ele>122.71</ele><time>2022-07-16T13:47:55Z</time></trkpt><trkpt lat="51.5252055880" lon="38.5593509674"><ele>122.71</ele><time>2022-07-16T13:48:02Z</time></trkpt><trkpt lat="51.5253356751" lon="38.5595973954"><ele>122.71</ele><time>2022-07-16T13:48:07Z</time></trkpt><trkpt lat="51.5254416224" lon="38.5597816296"><ele>122.22</ele><time>2022-07-16T13:48:10Z</time></trkpt><trkpt lat="51.5255931672" lon="38.5600787681"><ele>122.71</ele><time>2022-07-16T13:48:15Z</time></trkpt><trkpt lat="51.5257262718" lon="38.5602832865"><ele>122.71</ele><time>2022-07-16T13:48:19Z</time></trkpt><trkpt lat="51.5260379110" lon="38.5605328996"><ele>122.71</ele><time>2022-07-16T13:48:26Z</time></trkpt><trkpt lat="51.5266916994" lon="38.5610312037"><ele>123.19</ele><time>2022-07-16T13:48:40Z</time></trkpt><trkpt lat="51.5275371820" lon="38.5618465953"><ele>124.15</ele><time>2022-07-16T13:48:58Z</time></trkpt><trkpt lat="51.5283614583" lon="38.5626275372"><ele>123.19</ele><time>2022-07-16T13:49:16Z</time></trkpt><trkpt lat="51.5287779551" lon="38.5630674195"><ele>122.71</ele><time>2022-07-16T13:49:25Z</time></trkpt><trkpt lat="51.5294835437" lon="38.5638686456"><ele>122.71</ele><time>2022-07-16T13:49:41Z</time></trkpt><trkpt lat="51.5302804951" lon="38.5647092666"><ele>122.71</ele><time>2022-07-16T13:49:58Z</time></trkpt><trkpt lat="51.5311369579" lon="38.5655980837"><ele>124.63</ele><time>2022-07-16T13:50:18Z</time></trkpt><trkpt lat="51.5315923467" lon="38.5665164888"><ele>123.67</ele><time>2022-07-16T13:50:32Z</time></trkpt><trkpt lat="51.5321039781" lon="38.5679192841"><ele>124.63</ele><time>2022-07-16T13:50:50Z</time></trkpt><trkpt lat="51.5325819142" lon="38.5691168904"><ele>124.63</ele><time>2022-07-16T13:51:06Z</time></trkpt><trkpt lat="51.5328552481" lon="38.5697534122"><ele>124.63</ele><time>2022-07-16T13:51:15Z</time></trkpt><trkpt lat="51.5330528095" lon="38.5709749069"><ele>124.63</ele><time>2022-07-16T13:51:29Z</time></trkpt><trkpt lat="51.5332313441" lon="38.5723030195"><ele>124.63</ele><time>2022-07-16T13:51:45Z</time></trkpt><trkpt lat="51.5333528817" lon="38.5728279781"><ele>124.15</ele><time>2022-07-16T13:51:51Z</time></trkpt><trkpt lat="51.5333937854" lon="38.5729982983"><ele>124.15</ele><time>2022-07-16T13:51:53Z</time></trkpt><trkpt lat="51.5336589050" lon="38.5740511492"><ele>123.67</ele><time>2022-07-16T13:52:05Z</time></trkpt><trkpt lat="51.5339370165" lon="38.5754096042"><ele>122.22</ele><time>2022-07-16T13:52:20Z</time></trkpt><trkpt lat="51.5340786707" lon="38.5759000294"><ele>122.71</ele><time>2022-07-16T13:52:26Z</time></trkpt><trkpt lat="51.5345063154" lon="38.5769302491"><ele>122.71</ele><time>2022-07-16T13:52:41Z</time></trkpt><trkpt lat="51.5349680744" lon="38.5781403445"><ele>124.63</ele><time>2022-07-16T13:52:59Z</time></trkpt><trkpt lat="51.5353441704" lon="38.5794310737"><ele>127.03</ele><time>2022-07-16T13:53:18Z</time></trkpt><trkpt lat="51.5357226972" lon="38.5807620361"><ele>127.51</ele><time>2022-07-16T13:53:36Z</time></trkpt><trkpt lat="51.5360485017" lon="38.5823045578"><ele>126.07</ele><time>2022-07-16T13:53:55Z</time></trkpt><trkpt lat="51.5361381881" lon="38.5837354325"><ele>125.59</ele><time>2022-07-16T13:54:12Z</time></trkpt><trkpt lat="51.5359887388" lon="38.5849355534"><ele>125.11</ele><time>2022-07-16T13:54:27Z</time></trkpt><trkpt lat="51.5358267166" lon="38.5863726307"><ele>123.19</ele><time>2022-07-16T13:54:43Z</time></trkpt><trkpt lat="51.5357254632" lon="38.5878220294"><ele>122.22</ele><time>2022-07-16T13:54:59Z</time></trkpt><trkpt lat="51.5357075259" lon="38.5881837923"><ele>122.22</ele><time>2022-07-16T13:55:03Z</time></trkpt><trkpt lat="51.5356677957" lon="38.5884391051"><ele>121.74</ele><time>2022-07-16T13:55:06Z</time></trkpt><trkpt lat="51.5356324241" lon="38.5890667420"><ele>121.26</ele><time>2022-07-16T13:55:13Z</time></trkpt><trkpt lat="51.5356070269" lon="38.5894086398"><ele>121.26</ele><time>2022-07-16T13:55:17Z</time></trkpt><trkpt lat="51.5356049314" lon="38.5907597188"><ele>120.30</ele><time>2022-07-16T13:55:32Z</time></trkpt><trkpt lat="51.5356443264" lon="38.5911085736"><ele>119.82</ele><time>2022-07-16T13:55:36Z</time></trkpt><trkpt lat="51.5356577374" lon="38.5913762078"><ele>119.82</ele><time>2022-07-16T13:55:39Z</time></trkpt><trkpt lat="51.5356539655" lon="38.5915460251"><ele>120.30</ele><time>2022-07-16T13:55:41Z</time></trkpt><trkpt lat="51.5356315020" lon="38.5927224252"><ele>119.82</ele><time>2022-07-16T13:55:55Z</time></trkpt><trkpt lat="51.5356838051" lon="38.5930204857"><ele>119.82</ele><time>2022-07-16T13:55:59Z</time></trkpt><trkpt lat="51.5357988048" lon="38.5932856891"><ele>119.82</ele><time>2022-07-16T13:56:03Z</time></trkpt><trkpt lat="51.5361340810" lon="38.5942730773"><ele>121.74</ele><time>2022-07-16T13:56:19Z</time></trkpt><trkpt lat="51.5364294592" lon="38.5953783151"><ele>122.22</ele><time>2022-07-16T13:56:35Z</time></trkpt><trkpt lat="51.5365949180" lon="38.5959496256"><ele>122.22</ele><time>2022-07-16T13:56:43Z</time></trkpt><trkpt lat="51.5367400926" lon="38.5967081040"><ele>122.22</ele><time>2022-07-16T13:56:53Z</time></trkpt><trkpt lat="51.5368066449" lon="38.5973611381"><ele>122.22</ele><time>2022-07-16T13:57:02Z</time></trkpt><trkpt lat="51.5368788131" lon="38.5976401716"><ele>122.22</ele><time>2022-07-16T13:57:06Z</time></trkpt><trkpt lat="51.5370898694" lon="38.5989984591"><ele>120.78</ele><time>2022-07-16T13:57:23Z</time></trkpt><trkpt lat="51.5372003429" lon="38.5999300238"><ele>121.26</ele><time>2022-07-16T13:57:35Z</time></trkpt><trkpt lat="51.5373275802" lon="38.6008750834"><ele>121.26</ele><time>2022-07-16T13:57:47Z</time></trkpt><trkpt lat="51.5374358743" lon="38.6018543411"><ele>120.78</ele><time>2022-07-16T13:58:00Z</time></trkpt><trkpt lat="51.5375339426" lon="38.6026704032"><ele>121.26</ele><time>2022-07-16T13:58:11Z</time></trkpt><trkpt lat="51.5377206076" lon="38.6036107689"><ele>122.22</ele><time>2022-07-16T13:58:24Z</time></trkpt><trkpt lat="51.5377478488" lon="38.6044219695"><ele>121.74</ele><time>2022-07-16T13:58:34Z</time></trkpt><trkpt lat="51.5378404688" lon="38.6056692805"><ele>122.22</ele><time>2022-07-16T13:58:50Z</time></trkpt><trkpt lat="51.5379084460" lon="38.6061033793"><ele>122.22</ele><time>2022-07-16T13:58:56Z</time></trkpt><trkpt lat="51.5380809456" lon="38.6062931456"><ele>123.19</ele><time>2022-07-16T13:59:01Z</time></trkpt><trkpt lat="51.5382112842" lon="38.6062738672"><ele>123.67</ele><time>2022-07-16T13:59:04Z</time></trkpt><trkpt lat="51.5390621312" lon="38.6060779821"><ele>126.55</ele><time>2022-07-16T13:59:24Z</time></trkpt><trkpt lat="51.5397135727" lon="38.6060088314"><ele>128.95</ele><time>2022-07-16T13:59:40Z</time></trkpt><trkpt lat="51.5405420400" lon="38.6059898045"><ele>132.32</ele><time>2022-07-16T14:00:00Z</time></trkpt><trkpt lat="51.5410951618" lon="38.6059891339"><ele>133.28</ele><time>2022-07-16T14:00:13Z</time></trkpt><trkpt lat="51.5414839145" lon="38.6063673254"><ele>132.32</ele><time>2022-07-16T14:00:24Z</time></trkpt><trkpt lat="51.5413086489" lon="38.6067633703"><ele>130.88</ele><time>2022-07-16T14:00:30Z</time></trkpt><trkpt lat="51.5411591157" lon="38.6070436612"><ele>129.92</ele><time>2022-07-16T14:00:34Z</time></trkpt><trkpt lat="51.5411150269" lon="38.6072409712"><ele>128.95</ele><time>2022-07-16T14:00:36Z</time></trkpt><trkpt lat="51.5411073156" lon="38.6080047302"><ele>124.15</ele><time>2022-07-16T14:00:42Z</time></trkpt><trkpt lat="51.5411532484" lon="38.6084824149"><ele>120.78</ele><time>2022-07-16T14:00:45Z</time></trkpt><trkpt lat="51.5413095709" lon="38.6101182271"><ele>119.82</ele><time>2022-07-16T14:00:57Z</time></trkpt><trkpt lat="51.5414506383" lon="38.6111358739"><ele>121.74</ele><time>2022-07-16T14:01:09Z</time></trkpt><trkpt lat="51.5416298434" lon="38.6120837834"><ele>124.15</ele><time>2022-07-16T14:01:24Z</time></trkpt><trkpt lat="51.5417447593" lon="38.6126142740"><ele>126.07</ele><time>2022-07-16T14:01:33Z</time></trkpt><trkpt lat="51.5418055281" lon="38.6129780486"><ele>127.03</ele><time>2022-07-16T14:01:39Z</time></trkpt><trkpt lat="51.5417799633" lon="38.6131813936"><ele>128.47</ele><time>2022-07-16T14:01:42Z</time></trkpt><trkpt lat="51.5416981559" lon="38.6134119797"><ele>127.99</ele><time>2022-07-16T14:01:46Z</time></trkpt><trkpt lat="51.5416305978" lon="38.6135147419"><ele>128.47</ele><time>2022-07-16T14:01:48Z</time></trkpt><trkpt lat="51.5408762265" lon="38.6143747251"><ele>127.99</ele><time>2022-07-16T14:02:06Z</time></trkpt><trkpt lat="51.5403051674" lon="38.6150326207"><ele>128.47</ele><time>2022-07-16T14:02:19Z</time></trkpt><trkpt lat="51.5396735072" lon="38.6158205196"><ele>129.43</ele><time>2022-07-16T14:02:35Z</time></trkpt><trkpt lat="51.5392695833" lon="38.6171066388"><ele>130.88</ele><time>2022-07-16T14:02:53Z</time></trkpt><trkpt lat="51.5389054734" lon="38.6184347514"><ele>131.84</ele><time>2022-07-16T14:03:11Z</time></trkpt><trkpt lat="51.5385160502" lon="38.6198817194"><ele>131.36</ele><time>2022-07-16T14:03:30Z</time></trkpt><trkpt lat="51.5381148923" lon="38.6213679146"><ele>129.43</ele><time>2022-07-16T14:03:48Z</time></trkpt><trkpt lat="51.5380811132" lon="38.6215233989"><ele>129.43</ele><time>2022-07-16T14:03:50Z</time></trkpt><trkpt lat="51.5377548058" lon="38.6228648387"><ele>127.51</ele><time>2022-07-16T14:04:07Z</time></trkpt><trkpt lat="51.5376323462" lon="38.6235214770"><ele>127.03</ele><time>2022-07-16T14:04:15Z</time></trkpt><trkpt lat="51.5376128163" lon="38.6237678211"><ele>126.55</ele><time>2022-07-16T14:04:18Z</time></trkpt><trkpt lat="51.5376222041" lon="38.6240831483"><ele>127.03</ele><time>2022-07-16T14:04:22Z</time></trkpt><trkpt lat="51.5374494530" lon="38.6246758327"><ele>126.07</ele><time>2022-07-16T14:04:31Z</time></trkpt><trkpt lat="51.5369846765" lon="38.6249536090"><ele>123.67</ele><time>2022-07-16T14:04:39Z</time></trkpt><trkpt lat="51.5366149507" lon="38.6256020330"><ele>122.22</ele><time>2022-07-16T14:04:48Z</time></trkpt><trkpt lat="51.5366057307" lon="38.6256907135"><ele>121.74</ele><time>2022-07-16T14:04:49Z</time></trkpt><trkpt lat="51.5365996119" lon="38.6271430459"><ele>122.22</ele><time>2022-07-16T14:05:06Z</time></trkpt><trkpt lat="51.5365981869" lon="38.6275372468"><ele>122.22</ele><time>2022-07-16T14:05:13Z</time></trkpt><trkpt lat="51.5365822613" lon="38.6276329681"><ele>122.71</ele><time>2022-07-16T14:05:21Z</time></trkpt><trkpt lat="51.5366307925" lon="38.6276525818"><ele>122.71</ele><time>2022-07-16T14:05:25Z</time></trkpt><trkpt lat="51.5367151983" lon="38.6276572756"><ele>123.19</ele><time>2022-07-16T14:05:30Z</time></trkpt><trkpt lat="51.5367291961" lon="38.6275944952"><ele>123.19</ele><time>2022-07-16T14:05:40Z</time></trkpt><trkpt lat="51.5367376618" lon="38.6275795754"><ele>123.19</ele><time>2022-07-16T14:06:05Z</time></trkpt><trkpt lat="51.5367270168" lon="38.6275843531"><ele>123.19</ele><time>2022-07-16T14:06:32Z</time></trkpt><trkpt lat="51.5367206465" lon="38.6276048888"><ele>123.19</ele><time>2022-07-16T14:07:02Z</time></trkpt><trkpt lat="51.5367311239" lon="38.6276002787"><ele>123.19</ele><time>2022-07-16T14:07:29Z</time></trkpt><trkpt lat="51.5367395058" lon="38.6275964230"><ele>123.67</ele><time>2022-07-16T14:07:54Z</time></trkpt><trkpt lat="51.5367392544" lon="38.6275933217"><ele>123.67</ele><time>2022-07-16T14:08:23Z</time></trkpt><trkpt lat="51.5367370751" lon="38.6275870353"><ele>123.67</ele><time>2022-07-16T14:08:46Z</time></trkpt><trkpt lat="51.5367315430" lon="38.6275824253"><ele>123.67</ele><time>2022-07-16T14:09:14Z</time></trkpt><trkpt lat="51.5367286094" lon="38.6275785696"><ele>123.67</ele><time>2022-07-16T14:09:38Z</time></trkpt><trkpt lat="51.5367360692" lon="38.6275792401"><ele>123.67</ele><time>2022-07-16T14:10:05Z</time></trkpt><trkpt lat="51.5367467143" lon="38.6275671702"><ele>123.19</ele><time>2022-07-16T14:10:39Z</time></trkpt><trkpt lat="51.5367339738" lon="38.6275795754"><ele>123.19</ele><time>2022-07-16T14:11:13Z</time></trkpt><trkpt lat="51.5367256757" lon="38.6275917292"><ele>123.19</ele><time>2022-07-16T14:11:46Z</time></trkpt><trkpt lat="51.5367258433" lon="38.6275908072"><ele>123.19</ele><time>2022-07-16T14:11:50Z</time></trkpt><trkpt lat="51.5366121847" lon="38.6276115943"><ele>123.19</ele><time>2022-07-16T14:12:08Z</time></trkpt><trkpt lat="51.5365994442" lon="38.6276079062"><ele>123.19</ele><time>2022-07-16T14:12:37Z</time></trkpt><trkpt lat="51.5365971811" lon="38.6276210658"><ele>123.19</ele><time>2022-07-16T14:13:01Z</time></trkpt><trkpt lat="51.5366020426" lon="38.6276318785"><ele>123.19</ele><time>2022-07-16T14:13:20Z</time></trkpt><trkpt lat="51.5366007853" lon="38.6276350636"><ele>123.19</ele><time>2022-07-16T14:13:34Z</time></trkpt><trkpt lat="51.5366011206" lon="38.6276397575"><ele>123.19</ele><time>2022-07-16T14:13:41Z</time></trkpt><trkpt lat="51.5366090834" lon="38.6277337186"><ele>123.19</ele><time>2022-07-16T14:13:45Z</time></trkpt><trkpt lat="51.5366068203" lon="38.6286426522"><ele>122.71</ele><time>2022-07-16T14:14:01Z</time></trkpt><trkpt lat="51.5365981869" lon="38.6298649851"><ele>122.22</ele><time>2022-07-16T14:14:17Z</time></trkpt><trkpt lat="51.5366052277" lon="38.6317117698"><ele>122.22</ele><time>2022-07-16T14:14:41Z</time></trkpt><trkpt lat="51.5366497356" lon="38.6331516132"><ele>121.26</ele><time>2022-07-16T14:14:59Z</time></trkpt><trkpt lat="51.5367456246" lon="38.6344764568"><ele>120.78</ele><time>2022-07-16T14:15:15Z</time></trkpt><trkpt lat="51.5369712655" lon="38.6357163917"><ele>119.82</ele><time>2022-07-16T14:15:30Z</time></trkpt><trkpt lat="51.5374202840" lon="38.6372876633"><ele>120.30</ele><time>2022-07-16T14:15:50Z</time></trkpt><trkpt lat="51.5377326775" lon="38.6385153607"><ele>120.30</ele><time>2022-07-16T14:16:05Z</time></trkpt><trkpt lat="51.5381795168" lon="38.6399650946"><ele>120.78</ele><time>2022-07-16T14:16:23Z</time></trkpt><trkpt lat="51.5386893880" lon="38.6412256490"><ele>121.26</ele><time>2022-07-16T14:16:40Z</time></trkpt><trkpt lat="51.5391759574" lon="38.6425776500"><ele>121.26</ele><time>2022-07-16T14:16:58Z</time></trkpt><trkpt lat="51.5394937992" lon="38.6437721550"><ele>121.74</ele><time>2022-07-16T14:17:13Z</time></trkpt><trkpt lat="51.5397343598" lon="38.6453504674"><ele>120.78</ele><time>2022-07-16T14:17:31Z</time></trkpt><trkpt lat="51.5397181828" lon="38.6466913205"><ele>120.30</ele><time>2022-07-16T14:17:46Z</time></trkpt><trkpt lat="51.5396246407" lon="38.6474987492"><ele>120.30</ele><time>2022-07-16T14:17:55Z</time></trkpt><trkpt lat="51.5396065358" lon="38.6482125521"><ele>119.82</ele><time>2022-07-16T14:18:03Z</time></trkpt><trkpt lat="51.5395861678" lon="38.6489092559"><ele>119.82</ele><time>2022-07-16T14:18:11Z</time></trkpt><trkpt lat="51.5395277459" lon="38.6499047745"><ele>120.30</ele><time>2022-07-16T14:18:23Z</time></trkpt><trkpt lat="51.5394989960" lon="38.6502330936"><ele>120.78</ele><time>2022-07-16T14:18:27Z</time></trkpt><trkpt lat="51.5394385625" lon="38.6508588027"><ele>121.26</ele><time>2022-07-16T14:18:38Z</time></trkpt><trkpt lat="51.5394012630" lon="38.6514267605"><ele>120.78</ele><time>2022-07-16T14:18:49Z</time></trkpt><trkpt lat="51.5393492952" lon="38.6518699117"><ele>120.78</ele><time>2022-07-16T14:18:55Z</time></trkpt><trkpt lat="51.5393224731" lon="38.6520225462"><ele>120.78</ele><time>2022-07-16T14:18:57Z</time></trkpt><trkpt lat="51.5391235705" lon="38.6535476334"><ele>121.26</ele><time>2022-07-16T14:19:16Z</time></trkpt><trkpt lat="51.5390359797" lon="38.6547335889"><ele>120.78</ele><time>2022-07-16T14:19:30Z</time></trkpt><trkpt lat="51.5388799086" lon="38.6564484425"><ele>120.30</ele><time>2022-07-16T14:19:50Z</time></trkpt><trkpt lat="51.5388727002" lon="38.6565405596"><ele>120.30</ele><time>2022-07-16T14:19:51Z</time></trkpt><trkpt lat="51.5386727080" lon="38.6581305228"><ele>119.34</ele><time>2022-07-16T14:20:09Z</time></trkpt><trkpt lat="51.5385696106" lon="38.6595572066"><ele>118.38</ele><time>2022-07-16T14:20:25Z</time></trkpt><trkpt lat="51.5385203250" lon="38.6609252170"><ele>117.42</ele><time>2022-07-16T14:20:40Z</time></trkpt><trkpt lat="51.5385137033" lon="38.6610119697"><ele>117.42</ele><time>2022-07-16T14:20:41Z</time></trkpt><trkpt lat="51.5385101829" lon="38.6612726469"><ele>117.42</ele><time>2022-07-16T14:20:44Z</time></trkpt><trkpt lat="51.5384951793" lon="38.6616236810"><ele>117.42</ele><time>2022-07-16T14:20:48Z</time></trkpt><trkpt lat="51.5384538565" lon="38.6629291624"><ele>116.94</ele><time>2022-07-16T14:21:03Z</time></trkpt><trkpt lat="51.5384407807" lon="38.6634459905"><ele>116.46</ele><time>2022-07-16T14:21:09Z</time></trkpt><trkpt lat="51.5384448040" lon="38.6636133771"><ele>116.94</ele><time>2022-07-16T14:21:11Z</time></trkpt><trkpt lat="51.5384386014" lon="38.6649172660"><ele>116.46</ele><time>2022-07-16T14:21:26Z</time></trkpt><trkpt lat="51.5385217499" lon="38.6661542673"><ele>116.46</ele><time>2022-07-16T14:21:40Z</time></trkpt><trkpt lat="51.5386817604" lon="38.6674988922"><ele>115.98</ele><time>2022-07-16T14:21:56Z</time></trkpt><trkpt lat="51.5387412719" lon="38.6683025490"><ele>114.53</ele><time>2022-07-16T14:22:05Z</time></trkpt><trkpt lat="51.5386979375" lon="38.6693862453"><ele>113.09</ele><time>2022-07-16T14:22:18Z</time></trkpt><trkpt lat="51.5386314690" lon="38.6697154865"><ele>113.09</ele><time>2022-07-16T14:22:22Z</time></trkpt><trkpt lat="51.5385974385" lon="38.6706300359"><ele>112.13</ele><time>2022-07-16T14:22:32Z</time></trkpt><trkpt lat="51.5389205609" lon="38.6716421507"><ele>112.13</ele><time>2022-07-16T14:22:45Z</time></trkpt><trkpt lat="51.5394253191" lon="38.6728614662"><ele>112.61</ele><time>2022-07-16T14:23:03Z</time></trkpt><trkpt lat="51.5395716671" lon="38.6732037831"><ele>112.61</ele><time>2022-07-16T14:23:08Z</time></trkpt><trkpt lat="51.5397160035" lon="38.6735079624"><ele>113.57</ele><time>2022-07-16T14:23:15Z</time></trkpt><trkpt lat="51.5399365313" lon="38.6739043426"><ele>113.09</ele><time>2022-07-16T14:23:22Z</time></trkpt><trkpt lat="51.5404821932" lon="38.6750269309"><ele>113.09</ele><time>2022-07-16T14:23:38Z</time></trkpt><trkpt lat="51.5406029765" lon="38.6752899550"><ele>112.61</ele><time>2022-07-16T14:23:42Z</time></trkpt><trkpt lat="51.5410657413" lon="38.6762301531"><ele>113.09</ele><time>2022-07-16T14:23:56Z</time></trkpt><trkpt lat="51.5412029531" lon="38.6764809396"><ele>113.09</ele><time>2022-07-16T14:24:00Z</time></trkpt><trkpt lat="51.5418978967" lon="38.6772665754"><ele>113.09</ele><time>2022-07-16T14:24:16Z</time></trkpt><trkpt lat="51.5419803746" lon="38.6773691699"><ele>113.09</ele><time>2022-07-16T14:24:18Z</time></trkpt><trkpt lat="51.5421438217" lon="38.6775490455"><ele>113.57</ele><time>2022-07-16T14:24:22Z</time></trkpt><trkpt lat="51.5423780959" lon="38.6778022628"><ele>114.05</ele><time>2022-07-16T14:24:28Z</time></trkpt><trkpt lat="51.5427084267" lon="38.6780884210"><ele>114.53</ele><time>2022-07-16T14:24:36Z</time></trkpt><trkpt lat="51.5435730200" lon="38.6784041673"><ele>115.98</ele><time>2022-07-16T14:24:55Z</time></trkpt><trkpt lat="51.5442238748" lon="38.6786778364"><ele>115.98</ele><time>2022-07-16T14:25:08Z</time></trkpt><trkpt lat="51.5449480712" lon="38.6790494062"><ele>116.46</ele><time>2022-07-16T14:25:23Z</time></trkpt><trkpt lat="51.5451419447" lon="38.6792900506"><ele>115.01</ele><time>2022-07-16T14:25:27Z</time></trkpt><trkpt lat="51.5453080740" lon="38.6798018496"><ele>114.53</ele><time>2022-07-16T14:25:33Z</time></trkpt><trkpt lat="51.5453701001" lon="38.6800512951"><ele>114.05</ele><time>2022-07-16T14:25:36Z</time></trkpt><trkpt lat="51.5455700923" lon="38.6806667782"><ele>114.53</ele><time>2022-07-16T14:25:45Z</time></trkpt><trkpt lat="51.5457027778" lon="38.6810047366"><ele>114.53</ele><time>2022-07-16T14:25:50Z</time></trkpt><trkpt lat="51.5457706712" lon="38.6812111828"><ele>114.53</ele><time>2022-07-16T14:25:53Z</time></trkpt><trkpt lat="51.5459254850" lon="38.6815813277"><ele>115.01</ele><time>2022-07-16T14:25:59Z</time></trkpt><trkpt lat="51.5459679812" lon="38.6817033682"><ele>115.50</ele><time>2022-07-16T14:26:01Z</time></trkpt><trkpt lat="51.5465225279" lon="38.6825755052"><ele>117.90</ele><time>2022-07-16T14:26:20Z</time></trkpt><trkpt lat="51.5468117036" lon="38.6831204966"><ele>119.34</ele><time>2022-07-16T14:26:33Z</time></trkpt><trkpt lat="51.5467505157" lon="38.6837598681"><ele>122.22</ele><time>2022-07-16T14:26:46Z</time></trkpt><trkpt lat="51.5466210153" lon="38.6845537182"><ele>125.11</ele><time>2022-07-16T14:27:03Z</time></trkpt><trkpt lat="51.5463933628" lon="38.6850237753"><ele>126.55</ele><time>2022-07-16T14:27:16Z</time></trkpt><trkpt lat="51.5461341105" lon="38.6851598974"><ele>124.63</ele><time>2022-07-16T14:27:21Z</time></trkpt><trkpt lat="51.5456370637" lon="38.6855223309"><ele>122.22</ele><time>2022-07-16T14:27:32Z</time></trkpt><trkpt lat="51.5456218086" lon="38.6855209060"><ele>122.22</ele><time>2022-07-16T14:27:34Z</time></trkpt><trkpt lat="51.5454587806" lon="38.6856411025"><ele>121.26</ele><time>2022-07-16T14:27:40Z</time></trkpt><trkpt lat="51.5453150310" lon="38.6862556636"><ele>120.30</ele><time>2022-07-16T14:27:49Z</time></trkpt><trkpt lat="51.5453136899" lon="38.6863416620"><ele>120.30</ele><time>2022-07-16T14:27:50Z</time></trkpt><trkpt lat="51.5453483071" lon="38.6875889730"><ele>121.26</ele><time>2022-07-16T14:28:05Z</time></trkpt><trkpt lat="51.5452763066" lon="38.6887096334"><ele>119.82</ele><time>2022-07-16T14:28:17Z</time></trkpt><trkpt lat="51.5452426113" lon="38.6889868230"><ele>119.82</ele><time>2022-07-16T14:28:20Z</time></trkpt><trkpt lat="51.5450261068" lon="38.6905308533"><ele>116.94</ele><time>2022-07-16T14:28:37Z</time></trkpt><trkpt lat="51.5450398531" lon="38.6914754100"><ele>116.46</ele><time>2022-07-16T14:28:48Z</time></trkpt><trkpt lat="51.5450507496" lon="38.6927378923"><ele>115.50</ele><time>2022-07-16T14:29:03Z</time></trkpt><trkpt lat="51.5451472253" lon="38.6941960081"><ele>115.01</ele><time>2022-07-16T14:29:20Z</time></trkpt><trkpt lat="51.5451637376" lon="38.6943605449"><ele>115.50</ele><time>2022-07-16T14:29:22Z</time></trkpt><trkpt lat="51.5452203993" lon="38.6950767785"><ele>115.98</ele><time>2022-07-16T14:29:31Z</time></trkpt><trkpt lat="51.5453127678" lon="38.6959746480"><ele>116.94</ele><time>2022-07-16T14:29:42Z</time></trkpt><trkpt lat="51.5454079863" lon="38.6976404674"><ele>116.94</ele><time>2022-07-16T14:30:02Z</time></trkpt><trkpt lat="51.5454824176" lon="38.6987298634"><ele>116.94</ele><time>2022-07-16T14:30:15Z</time></trkpt><trkpt lat="51.5454069804" lon="38.6996021681"><ele>115.01</ele><time>2022-07-16T14:30:24Z</time></trkpt><trkpt lat="51.5453904681" lon="38.6998118833"><ele>115.01</ele><time>2022-07-16T14:30:26Z</time></trkpt><trkpt lat="51.5453201439" lon="38.7008157838"><ele>115.01</ele><time>2022-07-16T14:30:36Z</time></trkpt><trkpt lat="51.5452990215" lon="38.7011076417"><ele>114.53</ele><time>2022-07-16T14:30:39Z</time></trkpt><trkpt lat="51.5455384087" lon="38.7024678569"><ele>115.50</ele><time>2022-07-16T14:30:54Z</time></trkpt><trkpt lat="51.5458078869" lon="38.7036535610"><ele>115.01</ele><time>2022-07-16T14:31:08Z</time></trkpt><trkpt lat="51.5458637942" lon="38.7038950436"><ele>115.50</ele><time>2022-07-16T14:31:11Z</time></trkpt><trkpt lat="51.5459841583" lon="38.7045448087"><ele>115.01</ele><time>2022-07-16T14:31:19Z</time></trkpt><trkpt lat="51.5461190231" lon="38.7060631067"><ele>114.53</ele><time>2022-07-16T14:31:36Z</time></trkpt><trkpt lat="51.5461330209" lon="38.7061524577"><ele>114.53</ele><time>2022-07-16T14:31:37Z</time></trkpt><trkpt lat="51.5463404730" lon="38.7068168074"><ele>114.05</ele><time>2022-07-16T14:31:45Z</time></trkpt><trkpt lat="51.5467179101" lon="38.7079301756"><ele>115.01</ele><time>2022-07-16T14:32:00Z</time></trkpt><trkpt lat="51.5469888132" lon="38.7088003848"><ele>115.50</ele><time>2022-07-16T14:32:12Z</time></trkpt><trkpt lat="51.5471402742" lon="38.7097557541"><ele>115.98</ele><time>2022-07-16T14:32:23Z</time></trkpt><trkpt lat="51.5471573733" lon="38.7110444717"><ele>115.98</ele><time>2022-07-16T14:32:37Z</time></trkpt><trkpt lat="51.5472080000" lon="38.7125892565"><ele>115.50</ele><time>2022-07-16T14:32:54Z</time></trkpt><trkpt lat="51.5473390929" lon="38.7141549960"><ele>115.50</ele><time>2022-07-16T14:33:12Z</time></trkpt><trkpt lat="51.5475781448" lon="38.7158825062"><ele>115.50</ele><time>2022-07-16T14:33:32Z</time></trkpt><trkpt lat="51.5477055497" lon="38.7167325150"><ele>116.46</ele><time>2022-07-16T14:33:42Z</time></trkpt><trkpt lat="51.5477429330" lon="38.7168964650"><ele>116.46</ele><time>2022-07-16T14:33:44Z</time></trkpt><trkpt lat="51.5479526483" lon="38.7180775590"><ele>116.46</ele><time>2022-07-16T14:33:58Z</time></trkpt><trkpt lat="51.5483049396" lon="38.7197736371"><ele>116.94</ele><time>2022-07-16T14:34:17Z</time></trkpt><trkpt lat="51.5485512838" lon="38.7212067749"><ele>116.94</ele><time>2022-07-16T14:34:34Z</time></trkpt><trkpt lat="51.5485704783" lon="38.7213516142"><ele>116.94</ele><time>2022-07-16T14:34:36Z</time></trkpt><trkpt lat="51.5486015752" lon="38.7216945179"><ele>116.46</ele><time>2022-07-16T14:34:40Z</time></trkpt><trkpt lat="51.5486289840" lon="38.7220340688"><ele>116.94</ele><time>2022-07-16T14:34:44Z</time></trkpt><trkpt lat="51.5487619210" lon="38.7234636024"><ele>116.46</ele><time>2022-07-16T14:35:00Z</time></trkpt><trkpt lat="51.5489420481" lon="38.7251609378"><ele>115.98</ele><time>2022-07-16T14:35:18Z</time></trkpt><trkpt lat="51.5491310600" lon="38.7270098180"><ele>115.50</ele><time>2022-07-16T14:35:38Z</time></trkpt><trkpt lat="51.5491996240" lon="38.7275362015"><ele>115.01</ele><time>2022-07-16T14:35:44Z</time></trkpt><trkpt lat="51.5493266098" lon="38.7286017090"><ele>115.01</ele><time>2022-07-16T14:35:56Z</time></trkpt><trkpt lat="51.5493923239" lon="38.7290178705"><ele>115.01</ele><time>2022-07-16T14:36:01Z</time></trkpt><trkpt lat="51.5495831799" lon="38.7300494313"><ele>114.53</ele><time>2022-07-16T14:36:13Z</time></trkpt><trkpt lat="51.5498542506" lon="38.7314394861"><ele>114.05</ele><time>2022-07-16T14:36:30Z</time></trkpt><trkpt lat="51.5501147602" lon="38.7328930758"><ele>113.57</ele><time>2022-07-16T14:36:47Z</time></trkpt><trkpt lat="51.5504631959" lon="38.7342535425"><ele>112.61</ele><time>2022-07-16T14:37:03Z</time></trkpt><trkpt lat="51.5505964682" lon="38.7346132100"><ele>112.61</ele><time>2022-07-16T14:37:08Z</time></trkpt><trkpt lat="51.5506962128" lon="38.7348584644"><ele>112.61</ele><time>2022-07-16T14:37:12Z</time></trkpt><trkpt lat="51.5508933552" lon="38.7352695130"><ele>112.61</ele><time>2022-07-16T14:37:21Z</time></trkpt><trkpt lat="51.5510544553" lon="38.7355762906"><ele>112.61</ele><time>2022-07-16T14:37:28Z</time></trkpt><trkpt lat="51.5511353407" lon="38.7357549090"><ele>112.61</ele><time>2022-07-16T14:37:31Z</time></trkpt><trkpt lat="51.5512659308" lon="38.7359994091"><ele>113.09</ele><time>2022-07-16T14:37:35Z</time></trkpt><trkpt lat="51.5515999496" lon="38.7369092647"><ele>113.09</ele><time>2022-07-16T14:37:48Z</time></trkpt><trkpt lat="51.5519748721" lon="38.7374768872"><ele>114.05</ele><time>2022-07-16T14:37:58Z</time></trkpt><trkpt lat="51.5521767084" lon="38.7375897914"><ele>114.05</ele><time>2022-07-16T14:38:02Z</time></trkpt><trkpt lat="51.5524026845" lon="38.7376318686"><ele>113.57</ele><time>2022-07-16T14:38:06Z</time></trkpt><trkpt lat="51.5528759267" lon="38.7378135044"><ele>114.53</ele><time>2022-07-16T14:38:15Z</time></trkpt><trkpt lat="51.5530698001" lon="38.7379514705"><ele>115.01</ele><time>2022-07-16T14:38:19Z</time></trkpt><trkpt lat="51.5531837940" lon="38.7381163426"><ele>115.01</ele><time>2022-07-16T14:38:22Z</time></trkpt><trkpt lat="51.5534112789" lon="38.7391562853"><ele>115.01</ele><time>2022-07-16T14:38:35Z</time></trkpt><trkpt lat="51.5536369197" lon="38.7407128885"><ele>114.53</ele><time>2022-07-16T14:38:53Z</time></trkpt><trkpt lat="51.5536954254" lon="38.7411450595"><ele>114.53</ele><time>2022-07-16T14:38:58Z</time></trkpt><trkpt lat="51.5537345689" lon="38.7414904777"><ele>114.53</ele><time>2022-07-16T14:39:02Z</time></trkpt><trkpt lat="51.5538177174" lon="38.7421356328"><ele>114.53</ele><time>2022-07-16T14:39:10Z</time></trkpt><trkpt lat="51.5540063940" lon="38.7433332391"><ele>114.05</ele><time>2022-07-16T14:39:25Z</time></trkpt><trkpt lat="51.5540676657" lon="38.7435670104"><ele>114.05</ele><time>2022-07-16T14:39:28Z</time></trkpt><trkpt lat="51.5543034486" lon="38.7444138341"><ele>113.57</ele><time>2022-07-16T14:39:39Z</time></trkpt><trkpt lat="51.5543981642" lon="38.7449094560"><ele>113.09</ele><time>2022-07-16T14:39:49Z</time></trkpt><trkpt lat="51.5544084739" lon="38.7449687999"><ele>113.09</ele><time>2022-07-16T14:39:50Z</time></trkpt><trkpt lat="51.5544571728" lon="38.7451581471"><ele>112.61</ele><time>2022-07-16T14:39:53Z</time></trkpt><trkpt lat="51.5548288263" lon="38.7462679949"><ele>113.57</ele><time>2022-07-16T14:40:09Z</time></trkpt><trkpt lat="51.5550414752" lon="38.7467124034"><ele>113.57</ele><time>2022-07-16T14:40:16Z</time></trkpt><trkpt lat="51.5554858837" lon="38.7476197444"><ele>114.05</ele><time>2022-07-16T14:40:31Z</time></trkpt><trkpt lat="51.5557032265" lon="38.7480157893"><ele>114.05</ele><time>2022-07-16T14:40:37Z</time></trkpt><trkpt lat="51.5562420152" lon="38.7489838153"><ele>114.05</ele><time>2022-07-16T14:40:52Z</time></trkpt><trkpt lat="51.5569951292" lon="38.7501301244"><ele>114.53</ele><time>2022-07-16T14:41:11Z</time></trkpt><trkpt lat="51.5576202516" lon="38.7509562448"><ele>114.05</ele><time>2022-07-16T14:41:26Z</time></trkpt><trkpt lat="51.5584669076" lon="38.7520624883"><ele>114.53</ele><time>2022-07-16T14:41:46Z</time></trkpt><trkpt lat="51.5591149963" lon="38.7529199570"><ele>115.50</ele><time>2022-07-16T14:42:02Z</time></trkpt><trkpt lat="51.5593964607" lon="38.7532481924"><ele>115.98</ele><time>2022-07-16T14:42:09Z</time></trkpt><trkpt lat="51.5598018933" lon="38.7533081230"><ele>115.98</ele><time>2022-07-16T14:42:17Z</time></trkpt><trkpt lat="51.5606022812" lon="38.7526168674"><ele>118.86</ele><time>2022-07-16T14:42:36Z</time></trkpt><trkpt lat="51.5607524011" lon="38.7524796557"><ele>119.34</ele><time>2022-07-16T14:42:40Z</time></trkpt><trkpt lat="51.5609507170" lon="38.7525982596"><ele>119.34</ele><time>2022-07-16T14:42:46Z</time></trkpt><trkpt lat="51.5609792992" lon="38.7528513931"><ele>118.86</ele><time>2022-07-16T14:42:49Z</time></trkpt><trkpt lat="51.5609843284" lon="38.7543419469"><ele>117.42</ele><time>2022-07-16T14:43:06Z</time></trkpt><trkpt lat="51.5610488690" lon="38.7560037430"><ele>116.46</ele><time>2022-07-16T14:43:24Z</time></trkpt><trkpt lat="51.5612377971" lon="38.7573893555"><ele>115.01</ele><time>2022-07-16T14:43:39Z</time></trkpt><trkpt lat="51.5612713248" lon="38.7578618433"><ele>114.53</ele><time>2022-07-16T14:43:44Z</time></trkpt><trkpt lat="51.5612614341" lon="38.7582224328"><ele>114.05</ele><time>2022-07-16T14:43:48Z</time></trkpt><trkpt lat="51.5611282457" lon="38.7604251131"><ele>111.17</ele><time>2022-07-16T14:44:12Z</time></trkpt><trkpt lat="51.5610634536" lon="38.7617502082"><ele>110.21</ele><time>2022-07-16T14:44:26Z</time></trkpt><trkpt lat="51.5610259026" lon="38.7622977141"><ele>109.73</ele><time>2022-07-16T14:44:35Z</time></trkpt><trkpt lat="51.5610260703" lon="38.7625802681"><ele>109.25</ele><time>2022-07-16T14:44:39Z</time></trkpt><trkpt lat="51.5610493720" lon="38.7627754826"><ele>109.25</ele><time>2022-07-16T14:44:42Z</time></trkpt><trkpt lat="51.5611295868" lon="38.7632857729"><ele>109.25</ele><time>2022-07-16T14:44:53Z</time></trkpt><trkpt lat="51.5612761024" lon="38.7635689974"><ele>109.25</ele><time>2022-07-16T14:45:03Z</time></trkpt><trkpt lat="51.5614822973" lon="38.7640024256"><ele>109.25</ele><time>2022-07-16T14:45:13Z</time></trkpt><trkpt lat="51.5617768373" lon="38.7645659409"><ele>109.73</ele><time>2022-07-16T14:45:25Z</time></trkpt><trkpt lat="51.5622290410" lon="38.7655000202"><ele>113.09</ele><time>2022-07-16T14:45:43Z</time></trkpt><trkpt lat="51.5627485514" lon="38.7663720734"><ele>115.98</ele><time>2022-07-16T14:46:03Z</time></trkpt><trkpt lat="51.5632609371" lon="38.7672218308"><ele>118.86</ele><time>2022-07-16T14:46:23Z</time></trkpt><trkpt lat="51.5635465086" lon="38.7681454327"><ele>121.26</ele><time>2022-07-16T14:46:40Z</time></trkpt><trkpt lat="51.5635578241" lon="38.7682064530"><ele>121.74</ele><time>2022-07-16T14:46:41Z</time></trkpt><trkpt lat="51.5636950359" lon="38.7691268697"><ele>123.19</ele><time>2022-07-16T14:46:55Z</time></trkpt><trkpt lat="51.5638749953" lon="38.7704105582"><ele>125.11</ele><time>2022-07-16T14:47:14Z</time></trkpt><trkpt lat="51.5640445612" lon="38.7714616489"><ele>126.07</ele><time>2022-07-16T14:47:29Z</time></trkpt><trkpt lat="51.5641438030" lon="38.7717117649"><ele>126.55</ele><time>2022-07-16T14:47:33Z</time></trkpt><trkpt lat="51.5642096847" lon="38.7718148623"><ele>127.03</ele><time>2022-07-16T14:47:35Z</time></trkpt><trkpt lat="51.5644799173" lon="38.7720084004"><ele>127.99</ele><time>2022-07-16T14:47:42Z</time></trkpt><trkpt lat="51.5648737829" lon="38.7721415889"><ele>128.47</ele><time>2022-07-16T14:47:54Z</time></trkpt><trkpt lat="51.5648919716" lon="38.7721898686"><ele>129.43</ele><time>2022-07-16T14:48:04Z</time></trkpt><trkpt lat="51.5649099089" lon="38.7721820734"><ele>129.43</ele><time>2022-07-16T14:48:20Z</time></trkpt><trkpt lat="51.5648967493" lon="38.7722179480"><ele>129.43</ele><time>2022-07-16T14:49:00Z</time></trkpt><trkpt lat="51.5649052151" lon="38.7721979152"><ele>128.95</ele><time>2022-07-16T14:49:34Z</time></trkpt><trkpt lat="51.5648958273" lon="38.7721800618"><ele>129.43</ele><time>2022-07-16T14:50:08Z</time></trkpt><trkpt lat="51.5648967493" lon="38.7721909583"><ele>129.43</ele><time>2022-07-16T14:50:31Z</time></trkpt><trkpt lat="51.5648980066" lon="38.7721993402"><ele>129.43</ele><time>2022-07-16T14:51:07Z</time></trkpt><trkpt lat="51.5649066400" lon="38.7722188700"><ele>129.43</ele><time>2022-07-16T14:51:43Z</time></trkpt><trkpt lat="51.5649050474" lon="38.7722043693"><ele>129.43</ele><time>2022-07-16T14:52:18Z</time></trkpt><trkpt lat="51.5649002697" lon="38.7721963227"><ele>129.43</ele><time>2022-07-16T14:52:51Z</time></trkpt><trkpt lat="51.5648973361" lon="38.7721959874"><ele>129.43</ele><time>2022-07-16T14:53:23Z</time></trkpt><trkpt lat="51.5648909658" lon="38.7721924670"><ele>129.43</ele><time>2022-07-16T14:53:55Z</time></trkpt><trkpt lat="51.5648836736" lon="38.7721997593"><ele>129.43</ele><time>2022-07-16T14:54:29Z</time></trkpt><trkpt lat="51.5648952406" lon="38.7722011842"><ele>129.92</ele><time>2022-07-16T14:55:04Z</time></trkpt><trkpt lat="51.5648888703" lon="38.7721948139"><ele>129.92</ele><time>2022-07-16T14:55:39Z</time></trkpt><trkpt lat="51.5648841765" lon="38.7722064648"><ele>129.92</ele><time>2022-07-16T14:56:18Z</time></trkpt><trkpt lat="51.5648867749" lon="38.7722136732"><ele>129.43</ele><time>2022-07-16T14:56:53Z</time></trkpt><trkpt lat="51.5648960788" lon="38.7722118292"><ele>129.43</ele><time>2022-07-16T14:57:25Z</time></trkpt><trkpt lat="51.5648947377" lon="38.7722124998"><ele>129.43</ele><time>2022-07-16T14:57:55Z</time></trkpt><trkpt lat="51.5648866910" lon="38.7722086441"><ele>129.43</ele><time>2022-07-16T14:58:32Z</time></trkpt><trkpt lat="51.5648980904" lon="38.7722122483"><ele>129.43</ele><time>2022-07-16T14:59:08Z</time></trkpt><trkpt lat="51.5649009403" lon="38.7722078897"><ele>129.43</ele><time>2022-07-16T14:59:42Z</time></trkpt><trkpt lat="51.5648922231" lon="38.7721974123"><ele>129.43</ele><time>2022-07-16T15:00:13Z</time></trkpt><trkpt lat="51.5648896247" lon="38.7721876055"><ele>129.43</ele><time>2022-07-16T15:00:48Z</time></trkpt><trkpt lat="51.5649025328" lon="38.7722101528"><ele>129.43</ele><time>2022-07-16T15:01:03Z</time></trkpt><trkpt lat="51.5649266727" lon="38.7722920440"><ele>129.43</ele><time>2022-07-16T15:01:07Z</time></trkpt><trkpt lat="51.5650184546" lon="38.7725800462"><ele>129.43</ele><time>2022-07-16T15:01:15Z</time></trkpt><trkpt lat="51.5650352184" lon="38.7727878336"><ele>128.95</ele><time>2022-07-16T15:01:20Z</time></trkpt><trkpt lat="51.5649350546" lon="38.7734747306"><ele>127.99</ele><time>2022-07-16T15:01:32Z</time></trkpt><trkpt lat="51.5646784008" lon="38.7748959661"><ele>126.55</ele><time>2022-07-16T15:01:50Z</time></trkpt><trkpt lat="51.5644303802" lon="38.7762505654"><ele>125.59</ele><time>2022-07-16T15:02:06Z</time></trkpt><trkpt lat="51.5641421266" lon="38.7778824382"><ele>124.15</ele><time>2022-07-16T15:02:24Z</time></trkpt><trkpt lat="51.5640997980" lon="38.7781649083"><ele>123.67</ele><time>2022-07-16T15:02:27Z</time></trkpt><trkpt lat="51.5642301366" lon="38.7790839002"><ele>122.71</ele><time>2022-07-16T15:02:37Z</time></trkpt><trkpt lat="51.5648787282" lon="38.7803014554"><ele>121.74</ele><time>2022-07-16T15:02:53Z</time></trkpt><trkpt lat="51.5652178600" lon="38.7809456885"><ele>120.78</ele><time>2022-07-16T15:03:01Z</time></trkpt><trkpt lat="51.5660311561" lon="38.7825163733"><ele>118.38</ele><time>2022-07-16T15:03:20Z</time></trkpt><trkpt lat="51.5669255052" lon="38.7843935005"><ele>115.98</ele><time>2022-07-16T15:03:42Z</time></trkpt><trkpt lat="51.5675628651" lon="38.7859867327"><ele>113.57</ele><time>2022-07-16T15:04:01Z</time></trkpt><trkpt lat="51.5679449122" lon="38.7865266111"><ele>113.09</ele><time>2022-07-16T15:04:10Z</time></trkpt><trkpt lat="51.5688002016" lon="38.7868340593"><ele>113.57</ele><time>2022-07-16T15:04:25Z</time></trkpt><trkpt lat="51.5695194528" lon="38.7871652283"><ele>114.53</ele><time>2022-07-16T15:04:39Z</time></trkpt><trkpt lat="51.5697350353" lon="38.7874120753"><ele>115.01</ele><time>2022-07-16T15:04:44Z</time></trkpt><trkpt lat="51.5705739800" lon="38.7885549478"><ele>115.01</ele><time>2022-07-16T15:05:04Z</time></trkpt><trkpt lat="51.5712858550" lon="38.7894037832"><ele>115.50</ele><time>2022-07-16T15:05:20Z</time></trkpt><trkpt lat="51.5713891201" lon="38.7894725986"><ele>115.50</ele><time>2022-07-16T15:05:22Z</time></trkpt><trkpt lat="51.5716586821" lon="38.7895264104"><ele>115.98</ele><time>2022-07-16T15:05:27Z</time></trkpt><trkpt lat="51.5725636762" lon="38.7891700119"><ele>117.90</ele><time>2022-07-16T15:05:45Z</time></trkpt><trkpt lat="51.5731728729" lon="38.7889554352"><ele>120.78</ele><time>2022-07-16T15:06:00Z</time></trkpt><trkpt lat="51.5736669861" lon="38.7891849317"><ele>122.71</ele><time>2022-07-16T15:06:14Z</time></trkpt><trkpt lat="51.5740638692" lon="38.7896923721"><ele>123.67</ele><time>2022-07-16T15:06:26Z</time></trkpt><trkpt lat="51.5743602533" lon="38.7897482794"><ele>125.11</ele><time>2022-07-16T15:06:34Z</time></trkpt><trkpt lat="51.5749044903" lon="38.7895804737"><ele>127.99</ele><time>2022-07-16T15:06:51Z</time></trkpt><trkpt lat="51.5749839507" lon="38.7900389638"><ele>127.51</ele><time>2022-07-16T15:07:00Z</time></trkpt><trkpt lat="51.5751525946" lon="38.7907790020"><ele>126.07</ele><time>2022-07-16T15:07:13Z</time></trkpt><trkpt lat="51.5752180573" lon="38.7911944091"><ele>125.11</ele><time>2022-07-16T15:07:20Z</time></trkpt><trkpt lat="51.5751059912" lon="38.7915163580"><ele>124.15</ele><time>2022-07-16T15:07:25Z</time></trkpt><trkpt lat="51.5750146285" lon="38.7916803919"><ele>123.67</ele><time>2022-07-16T15:07:28Z</time></trkpt><trkpt lat="51.5748821106" lon="38.7920323480"><ele>122.22</ele><time>2022-07-16T15:07:35Z</time></trkpt><trkpt lat="51.5749020595" lon="38.7921849824"><ele>122.22</ele><time>2022-07-16T15:07:38Z</time></trkpt><trkpt lat="51.5749188233" lon="38.7925707176"><ele>120.78</ele><time>2022-07-16T15:07:46Z</time></trkpt><trkpt lat="51.5749744792" lon="38.7927320693"><ele>120.30</ele><time>2022-07-16T15:07:49Z</time></trkpt><trkpt lat="51.5751205757" lon="38.7929501664"><ele>120.78</ele><time>2022-07-16T15:07:55Z</time></trkpt><trkpt lat="51.5752831846" lon="38.7929758150"><ele>121.74</ele><time>2022-07-16T15:08:02Z</time></trkpt><trkpt lat="51.5754365735" lon="38.7932414375"><ele>121.74</ele><time>2022-07-16T15:08:08Z</time></trkpt><trkpt lat="51.5756160300" lon="38.7936402485"><ele>121.26</ele><time>2022-07-16T15:08:15Z</time></trkpt><trkpt lat="51.5759644657" lon="38.7942785304"><ele>120.78</ele><time>2022-07-16T15:08:27Z</time></trkpt><trkpt lat="51.5761764441" lon="38.7946569733"><ele>119.82</ele><time>2022-07-16T15:08:37Z</time></trkpt><trkpt lat="51.5762034338" lon="38.7947234418"><ele>119.34</ele><time>2022-07-16T15:08:50Z</time></trkpt><trkpt lat="51.5763501171" lon="38.7951017171"><ele>118.38</ele><time>2022-07-16T15:08:59Z</time></trkpt><trkpt lat="51.5765264723" lon="38.7955112569"><ele>118.86</ele><time>2022-07-16T15:09:09Z</time></trkpt><trkpt lat="51.5765324235" lon="38.7955384981"><ele>119.34</ele><time>2022-07-16T15:09:10Z</time></trkpt><trkpt lat="51.5767549630" lon="38.7959161866"><ele>118.86</ele><time>2022-07-16T15:09:18Z</time></trkpt><trkpt lat="51.5768186655" lon="38.7960228045"><ele>118.86</ele><time>2022-07-16T15:09:20Z</time></trkpt><trkpt lat="51.5769938473" lon="38.7963818014"><ele>118.38</ele><time>2022-07-16T15:09:26Z</time></trkpt><trkpt lat="51.5770515148" lon="38.7964848150"><ele>118.38</ele><time>2022-07-16T15:09:28Z</time></trkpt><trkpt lat="51.5772426222" lon="38.7969026528"><ele>118.38</ele><time>2022-07-16T15:09:35Z</time></trkpt><trkpt lat="51.5772994515" lon="38.7970243581"><ele>118.38</ele><time>2022-07-16T15:09:37Z</time></trkpt><trkpt lat="51.5774207376" lon="38.7972443830"><ele>118.38</ele><time>2022-07-16T15:09:41Z</time></trkpt><trkpt lat="51.5777631383" lon="38.7981891073"><ele>117.90</ele><time>2022-07-16T15:09:56Z</time></trkpt><trkpt lat="51.5782345366" lon="38.7996821757"><ele>116.46</ele><time>2022-07-16T15:10:15Z</time></trkpt><trkpt lat="51.5786611754" lon="38.8011583127"><ele>115.01</ele><time>2022-07-16T15:10:32Z</time></trkpt><trkpt lat="51.5791046619" lon="38.8025541510"><ele>113.57</ele><time>2022-07-16T15:10:48Z</time></trkpt><trkpt lat="51.5795328096" lon="38.8038818445"><ele>114.53</ele><time>2022-07-16T15:11:04Z</time></trkpt><trkpt lat="51.5796403494" lon="38.8041706849"><ele>115.01</ele><time>2022-07-16T15:11:08Z</time></trkpt><trkpt lat="51.5800579358" lon="38.8051600009"><ele>115.98</ele><time>2022-07-16T15:11:22Z</time></trkpt><trkpt lat="51.5800907090" lon="38.8055050839"><ele>115.50</ele><time>2022-07-16T15:11:26Z</time></trkpt><trkpt lat="51.5797507390" lon="38.8070676383"><ele>111.65</ele><time>2022-07-16T15:11:43Z</time></trkpt><trkpt lat="51.5797335561" lon="38.8071814645"><ele>111.17</ele><time>2022-07-16T15:11:44Z</time></trkpt><trkpt lat="51.5797187202" lon="38.8078097720"><ele>109.25</ele><time>2022-07-16T15:11:49Z</time></trkpt><trkpt lat="51.5797386691" lon="38.8083292823"><ele>107.32</ele><time>2022-07-16T15:11:53Z</time></trkpt><trkpt lat="51.5797742084" lon="38.8099030685"><ele>106.36</ele><time>2022-07-16T15:12:07Z</time></trkpt><trkpt lat="51.5798212308" lon="38.8106351439"><ele>107.32</ele><time>2022-07-16T15:12:15Z</time></trkpt><trkpt lat="51.5799909644" lon="38.8120395318"><ele>109.25</ele><time>2022-07-16T15:12:31Z</time></trkpt><trkpt lat="51.5802244842" lon="38.8135890942"><ele>110.21</ele><time>2022-07-16T15:12:49Z</time></trkpt><trkpt lat="51.5806367900" lon="38.8153815642"><ele>109.73</ele><time>2022-07-16T15:13:09Z</time></trkpt><trkpt lat="51.5811672807" lon="38.8165317290"><ele>109.73</ele><time>2022-07-16T15:13:24Z</time></trkpt><trkpt lat="51.5819725301" lon="38.8176585082"><ele>108.77</ele><time>2022-07-16T15:13:41Z</time></trkpt><trkpt lat="51.5824072156" lon="38.8183893263"><ele>108.77</ele><time>2022-07-16T15:13:51Z</time></trkpt><trkpt lat="51.5826568287" lon="38.8186348323"><ele>108.77</ele><time>2022-07-16T15:13:56Z</time></trkpt><trkpt lat="51.5829223674" lon="38.8187228423"><ele>108.77</ele><time>2022-07-16T15:14:01Z</time></trkpt><trkpt lat="51.5836149640" lon="38.8185117859"><ele>111.17</ele><time>2022-07-16T15:14:16Z</time></trkpt><trkpt lat="51.5841395874" lon="38.8186184037"><ele>114.05</ele><time>2022-07-16T15:14:30Z</time></trkpt><trkpt lat="51.5846816450" lon="38.8192815799"><ele>115.01</ele><time>2022-07-16T15:14:46Z</time></trkpt><trkpt lat="51.5852344315" lon="38.8199533056"><ele>115.50</ele><time>2022-07-16T15:15:01Z</time></trkpt><trkpt lat="51.5857837815" lon="38.8206910808"><ele>115.50</ele><time>2022-07-16T15:15:16Z</time></trkpt><trkpt lat="51.5864706784" lon="38.8216584362"><ele>116.46</ele><time>2022-07-16T15:15:35Z</time></trkpt><trkpt lat="51.5867630392" lon="38.8221732527"><ele>116.94</ele><time>2022-07-16T15:15:44Z</time></trkpt><trkpt lat="51.5871588327" lon="38.8235485554"><ele>118.38</ele><time>2022-07-16T15:16:03Z</time></trkpt><trkpt lat="51.5875192545" lon="38.8250038214"><ele>117.90</ele><time>2022-07-16T15:16:22Z</time></trkpt><trkpt lat="51.5877993777" lon="38.8262918685"><ele>117.42</ele><time>2022-07-16T15:16:38Z</time></trkpt><trkpt lat="51.5879277047" lon="38.8277545106"><ele>116.46</ele><time>2022-07-16T15:16:55Z</time></trkpt><trkpt lat="51.5877428837" lon="38.8290246204"><ele>116.46</ele><time>2022-07-16T15:17:10Z</time></trkpt><trkpt lat="51.5874532051" lon="38.8302552514"><ele>117.42</ele><time>2022-07-16T15:17:26Z</time></trkpt><trkpt lat="51.5873859823" lon="38.8305054512"><ele>116.46</ele><time>2022-07-16T15:17:29Z</time></trkpt><trkpt lat="51.5870372951" lon="38.8314809371"><ele>115.01</ele><time>2022-07-16T15:17:41Z</time></trkpt><trkpt lat="51.5869028494" lon="38.8327909447"><ele>113.57</ele><time>2022-07-16T15:17:55Z</time></trkpt><trkpt lat="51.5868811402" lon="38.8342294469"><ele>111.65</ele><time>2022-07-16T15:18:10Z</time></trkpt><trkpt lat="51.5868748538" lon="38.8360139541"><ele>109.73</ele><time>2022-07-16T15:18:28Z</time></trkpt><trkpt lat="51.5868391469" lon="38.8368341234"><ele>108.77</ele><time>2022-07-16T15:18:36Z</time></trkpt><trkpt lat="51.5867175255" lon="38.8372932002"><ele>108.29</ele><time>2022-07-16T15:18:41Z</time></trkpt><trkpt lat="51.5866747778" lon="38.8376449887"><ele>108.29</ele><time>2022-07-16T15:18:45Z</time></trkpt><trkpt lat="51.5867083892" lon="38.8379864674"><ele>108.77</ele><time>2022-07-16T15:18:49Z</time></trkpt><trkpt lat="51.5867371392" lon="38.8381496631"><ele>108.29</ele><time>2022-07-16T15:18:51Z</time></trkpt><trkpt lat="51.5868219640" lon="38.8388026133"><ele>109.25</ele><time>2022-07-16T15:19:01Z</time></trkpt><trkpt lat="51.5868311003" lon="38.8389395736"><ele>109.73</ele><time>2022-07-16T15:19:03Z</time></trkpt><trkpt lat="51.5869052801" lon="38.8395707309"><ele>110.21</ele><time>2022-07-16T15:19:13Z</time></trkpt><trkpt lat="51.5870783664" lon="38.8405856956"><ele>111.65</ele><time>2022-07-16T15:19:28Z</time></trkpt><trkpt lat="51.5871712379" lon="38.8411448523"><ele>112.13</ele><time>2022-07-16T15:19:37Z</time></trkpt><trkpt lat="51.5873095393" lon="38.8416558970"><ele>113.09</ele><time>2022-07-16T15:19:48Z</time></trkpt><trkpt lat="51.5873376187" lon="38.8419065159"><ele>113.09</ele><time>2022-07-16T15:19:52Z</time></trkpt><trkpt lat="51.5874747466" lon="38.8424948417"><ele>113.09</ele><time>2022-07-16T15:20:03Z</time></trkpt><trkpt lat="51.5875576437" lon="38.8427877892"><ele>113.57</ele><time>2022-07-16T15:20:08Z</time></trkpt><trkpt lat="51.5875993855" lon="38.8430503104"><ele>113.57</ele><time>2022-07-16T15:20:12Z</time></trkpt><trkpt lat="51.5878934227" lon="38.8444077596"><ele>113.57</ele><time>2022-07-16T15:20:31Z</time></trkpt><trkpt lat="51.5881489869" lon="38.8455245644"><ele>113.09</ele><time>2022-07-16T15:20:46Z</time></trkpt><trkpt lat="51.5882392600" lon="38.8459123112"><ele>113.57</ele><time>2022-07-16T15:20:51Z</time></trkpt><trkpt lat="51.5885719378" lon="38.8473155256"><ele>113.09</ele><time>2022-07-16T15:21:09Z</time></trkpt><trkpt lat="51.5888912044" lon="38.8484656066"><ele>112.13</ele><time>2022-07-16T15:21:24Z</time></trkpt><trkpt lat="51.5892569907" lon="38.8495892007"><ele>111.17</ele><time>2022-07-16T15:21:39Z</time></trkpt><trkpt lat="51.5892802086" lon="38.8496653084"><ele>111.17</ele><time>2022-07-16T15:21:40Z</time></trkpt><trkpt lat="51.5895417240" lon="38.8498646300"><ele>111.17</ele><time>2022-07-16T15:21:46Z</time></trkpt><trkpt lat="51.5898700431" lon="38.8498044480"><ele>111.65</ele><time>2022-07-16T15:21:53Z</time></trkpt><trkpt lat="51.5903627314" lon="38.8499092218"><ele>113.09</ele><time>2022-07-16T15:22:05Z</time></trkpt><trkpt lat="51.5906193014" lon="38.8501217030"><ele>113.57</ele><time>2022-07-16T15:22:13Z</time></trkpt><trkpt lat="51.5908726864" lon="38.8507212605"><ele>114.05</ele><time>2022-07-16T15:22:25Z</time></trkpt><trkpt lat="51.5910884365" lon="38.8511800859"><ele>114.05</ele><time>2022-07-16T15:22:34Z</time></trkpt><trkpt lat="51.5916089527" lon="38.8523939531"><ele>113.09</ele><time>2022-07-16T15:22:51Z</time></trkpt><trkpt lat="51.5917641856" lon="38.8528864738"><ele>113.57</ele><time>2022-07-16T15:22:59Z</time></trkpt><trkpt lat="51.5918598231" lon="38.8532111887"><ele>113.57</ele><time>2022-07-16T15:23:04Z</time></trkpt><trkpt lat="51.5920557920" lon="38.8537019491"><ele>113.57</ele><time>2022-07-16T15:23:12Z</time></trkpt><trkpt lat="51.5921572968" lon="38.8539435156"><ele>113.57</ele><time>2022-07-16T15:23:16Z</time></trkpt><trkpt lat="51.5923960973" lon="38.8545075338"><ele>114.05</ele><time>2022-07-16T15:23:27Z</time></trkpt><trkpt lat="51.5924751386" lon="38.8547437359"><ele>114.05</ele><time>2022-07-16T15:23:32Z</time></trkpt><trkpt lat="51.5926121827" lon="38.8548255432"><ele>114.05</ele><time>2022-07-16T15:23:36Z</time></trkpt><trkpt lat="51.5927224047" lon="38.8550345879"><ele>114.05</ele><time>2022-07-16T15:23:41Z</time></trkpt><trkpt lat="51.5928534977" lon="38.8555400167"><ele>115.01</ele><time>2022-07-16T15:23:52Z</time></trkpt><trkpt lat="51.5930711757" lon="38.8561555836"><ele>114.05</ele><time>2022-07-16T15:24:04Z</time></trkpt><trkpt lat="51.5931352135" lon="38.8563538156"><ele>114.05</ele><time>2022-07-16T15:24:10Z</time></trkpt><trkpt lat="51.5932617802" lon="38.8567081187"><ele>113.57</ele><time>2022-07-16T15:24:21Z</time></trkpt><trkpt lat="51.5932735149" lon="38.8567563985"><ele>113.57</ele><time>2022-07-16T15:24:22Z</time></trkpt><trkpt lat="51.5933632012" lon="38.8573199976"><ele>111.65</ele><time>2022-07-16T15:24:30Z</time></trkpt><trkpt lat="51.5934159234" lon="38.8579916395"><ele>109.73</ele><time>2022-07-16T15:24:41Z</time></trkpt><trkpt lat="51.5934257302" lon="38.8588036783"><ele>107.81</ele><time>2022-07-16T15:24:54Z</time></trkpt><trkpt lat="51.5934203658" lon="38.8589452486"><ele>108.29</ele><time>2022-07-16T15:24:56Z</time></trkpt><trkpt lat="51.5934141632" lon="38.8592598215"><ele>107.81</ele><time>2022-07-16T15:25:01Z</time></trkpt><trkpt lat="51.5935797058" lon="38.8598712813"><ele>109.25</ele><time>2022-07-16T15:25:13Z</time></trkpt><trkpt lat="51.5936273150" lon="38.8599485625"><ele>110.21</ele><time>2022-07-16T15:25:15Z</time></trkpt><trkpt lat="51.5937775187" lon="38.8602651469"><ele>113.57</ele><time>2022-07-16T15:25:25Z</time></trkpt><trkpt lat="51.5938950330" lon="38.8605675660"><ele>116.94</ele><time>2022-07-16T15:25:34Z</time></trkpt><trkpt lat="51.5939029120" lon="38.8606028538"><ele>117.42</ele><time>2022-07-16T15:25:35Z</time></trkpt><trkpt lat="51.5938447416" lon="38.8611957897"><ele>119.82</ele><time>2022-07-16T15:25:49Z</time></trkpt><trkpt lat="51.5935129020" lon="38.8617193233"><ele>121.26</ele><time>2022-07-16T15:26:04Z</time></trkpt><trkpt lat="51.5931863431" lon="38.8621834293"><ele>123.67</ele><time>2022-07-16T15:26:18Z</time></trkpt><trkpt lat="51.5929554217" lon="38.8626778778"><ele>126.55</ele><time>2022-07-16T15:26:31Z</time></trkpt><trkpt lat="51.5926877875" lon="38.8634261303"><ele>126.07</ele><time>2022-07-16T15:26:44Z</time></trkpt><trkpt lat="51.5925978497" lon="38.8636833709"><ele>125.59</ele><time>2022-07-16T15:26:48Z</time></trkpt><trkpt lat="51.5923909843" lon="38.8642343972"><ele>123.67</ele><time>2022-07-16T15:26:56Z</time></trkpt><trkpt lat="51.5922721289" lon="38.8645397499"><ele>123.19</ele><time>2022-07-16T15:27:00Z</time></trkpt><trkpt lat="51.5921014734" lon="38.8650242239"><ele>121.74</ele><time>2022-07-16T15:27:06Z</time></trkpt><trkpt lat="51.5919929277" lon="38.8655542955"><ele>120.78</ele><time>2022-07-16T15:27:12Z</time></trkpt><trkpt lat="51.5919226035" lon="38.8665021211"><ele>118.86</ele><time>2022-07-16T15:27:22Z</time></trkpt><trkpt lat="51.5917710587" lon="38.8671291713"><ele>116.94</ele><time>2022-07-16T15:27:29Z</time></trkpt><trkpt lat="51.5917418897" lon="38.8677025773"><ele>116.46</ele><time>2022-07-16T15:27:35Z</time></trkpt><trkpt lat="51.5920156427" lon="38.8688318711"><ele>115.50</ele><time>2022-07-16T15:27:49Z</time></trkpt><trkpt lat="51.5920919180" lon="38.8690194581"><ele>116.94</ele><time>2022-07-16T15:27:52Z</time></trkpt><trkpt lat="51.5922353324" lon="38.8694124017"><ele>115.50</ele><time>2022-07-16T15:27:58Z</time></trkpt><trkpt lat="51.5923667606" lon="38.8697320875"><ele>115.01</ele><time>2022-07-16T15:28:03Z</time></trkpt><trkpt lat="51.5924997814" lon="38.8700418826"><ele>115.01</ele><time>2022-07-16T15:28:08Z</time></trkpt><trkpt lat="51.5928457025" lon="38.8711833302"><ele>115.98</ele><time>2022-07-16T15:28:26Z</time></trkpt><trkpt lat="51.5930286795" lon="38.8717934489"><ele>116.94</ele><time>2022-07-16T15:28:37Z</time></trkpt><trkpt lat="51.5930440184" lon="38.8718472607"><ele>116.94</ele><time>2022-07-16T15:28:38Z</time></trkpt><trkpt lat="51.5933122393" lon="38.8728711940"><ele>118.38</ele><time>2022-07-16T15:28:54Z</time></trkpt><trkpt lat="51.5937013272" lon="38.8740263879"><ele>118.38</ele><time>2022-07-16T15:29:11Z</time></trkpt><trkpt lat="51.5941624995" lon="38.8754564244"><ele>118.38</ele><time>2022-07-16T15:29:30Z</time></trkpt><trkpt lat="51.5943186544" lon="38.8759811316"><ele>118.38</ele><time>2022-07-16T15:29:37Z</time></trkpt><trkpt lat="51.5946639050" lon="38.8769883011"><ele>117.42</ele><time>2022-07-16T15:29:51Z</time></trkpt><trkpt lat="51.5947624762" lon="38.8772585336"><ele>117.42</ele><time>2022-07-16T15:29:55Z</time></trkpt><trkpt lat="51.5949038789" lon="38.8777285907"><ele>116.94</ele><time>2022-07-16T15:30:02Z</time></trkpt><trkpt lat="51.5949299466" lon="38.8781319279"><ele>115.50</ele><time>2022-07-16T15:30:07Z</time></trkpt><trkpt lat="51.5949388314" lon="38.8784123026"><ele>114.05</ele><time>2022-07-16T15:30:10Z</time></trkpt><trkpt lat="51.5949732810" lon="38.8788080961"><ele>112.13</ele><time>2022-07-16T15:30:14Z</time></trkpt><trkpt lat="51.5949842613" lon="38.8790505845"><ele>112.61</ele><time>2022-07-16T15:30:17Z</time></trkpt><trkpt lat="51.5950556751" lon="38.8794351462"><ele>115.98</ele><time>2022-07-16T15:30:23Z</time></trkpt><trkpt lat="51.5951182041" lon="38.8795773033"><ele>116.46</ele><time>2022-07-16T15:30:26Z</time></trkpt><trkpt lat="51.5952720121" lon="38.8796996791"><ele>118.38</ele><time>2022-07-16T15:30:31Z</time></trkpt><trkpt lat="51.5954451822" lon="38.8804392982"><ele>120.78</ele><time>2022-07-16T15:30:45Z</time></trkpt><trkpt lat="51.5954680648" lon="38.8809223473"><ele>121.26</ele><time>2022-07-16T15:30:53Z</time></trkpt><trkpt lat="51.5955939610" lon="38.8820243999"><ele>121.26</ele><time>2022-07-16T15:31:09Z</time></trkpt><trkpt lat="51.5957496129" lon="38.8829904981"><ele>122.71</ele><time>2022-07-16T15:31:23Z</time></trkpt><trkpt lat="51.5959498566" lon="38.8838431053"><ele>124.15</ele><time>2022-07-16T15:31:35Z</time></trkpt><trkpt lat="51.5959879942" lon="38.8840617053"><ele>124.63</ele><time>2022-07-16T15:31:38Z</time></trkpt><trkpt lat="51.5961247031" lon="38.8846749254"><ele>126.55</ele><time>2022-07-16T15:31:47Z</time></trkpt><trkpt lat="51.5962896589" lon="38.8856011257"><ele>127.03</ele><time>2022-07-16T15:31:59Z</time></trkpt><trkpt lat="51.5963220969" lon="38.8859251700"><ele>127.03</ele><time>2022-07-16T15:32:03Z</time></trkpt><trkpt lat="51.5961555485" lon="38.8872313220"><ele>127.03</ele><time>2022-07-16T15:32:18Z</time></trkpt><trkpt lat="51.5959102940" lon="38.8888487779"><ele>127.03</ele><time>2022-07-16T15:32:37Z</time></trkpt><trkpt lat="51.5957940370" lon="38.8903448638"><ele>127.51</ele><time>2022-07-16T15:32:54Z</time></trkpt><trkpt lat="51.5957875829" lon="38.8906789664"><ele>127.51</ele><time>2022-07-16T15:32:58Z</time></trkpt><trkpt lat="51.5958383773" lon="38.8912744168"><ele>127.99</ele><time>2022-07-16T15:33:05Z</time></trkpt><trkpt lat="51.5962119587" lon="38.8928293437"><ele>127.03</ele><time>2022-07-16T15:33:23Z</time></trkpt><trkpt lat="51.5962999687" lon="38.8931061979"><ele>126.55</ele><time>2022-07-16T15:33:26Z</time></trkpt><trkpt lat="51.5964791737" lon="38.8933884166"><ele>126.07</ele><time>2022-07-16T15:33:30Z</time></trkpt><trkpt lat="51.5971152764" lon="38.8939527702"><ele>127.03</ele><time>2022-07-16T15:33:42Z</time></trkpt><trkpt lat="51.5978368744" lon="38.8943705242"><ele>129.92</ele><time>2022-07-16T15:33:57Z</time></trkpt><trkpt lat="51.5980346035" lon="38.8944444526"><ele>129.92</ele><time>2022-07-16T15:34:01Z</time></trkpt><trkpt lat="51.5981853940" lon="38.8945316244"><ele>129.92</ele><time>2022-07-16T15:34:04Z</time></trkpt><trkpt lat="51.5988298785" lon="38.8952342793"><ele>130.88</ele><time>2022-07-16T15:34:19Z</time></trkpt><trkpt lat="51.5992759634" lon="38.8959368505"><ele>130.88</ele><time>2022-07-16T15:34:31Z</time></trkpt><trkpt lat="51.5999320988" lon="38.8970214687"><ele>131.36</ele><time>2022-07-16T15:34:48Z</time></trkpt><trkpt lat="51.6001553088" lon="38.8974140771"><ele>131.36</ele><time>2022-07-16T15:34:54Z</time></trkpt><trkpt lat="51.6003335081" lon="38.8978740759"><ele>131.36</ele><time>2022-07-16T15:35:00Z</time></trkpt><trkpt lat="51.6005467437" lon="38.8983952627"><ele>131.36</ele><time>2022-07-16T15:35:07Z</time></trkpt><trkpt lat="51.6010331456" lon="38.8996727485"><ele>130.40</ele><time>2022-07-16T15:35:24Z</time></trkpt><trkpt lat="51.6014743689" lon="38.9008271880"><ele>130.40</ele><time>2022-07-16T15:35:39Z</time></trkpt><trkpt lat="51.6016093176" lon="38.9010789804"><ele>131.36</ele><time>2022-07-16T15:35:43Z</time></trkpt><trkpt lat="51.6017057095" lon="38.9011817425"><ele>130.88</ele><time>2022-07-16T15:35:45Z</time></trkpt><trkpt lat="51.6019865870" lon="38.9012807328"><ele>131.36</ele><time>2022-07-16T15:35:50Z</time></trkpt><trkpt lat="51.6027039941" lon="38.9011778869"><ele>134.24</ele><time>2022-07-16T15:36:05Z</time></trkpt><trkpt lat="51.6033130232" lon="38.9010066446"><ele>136.16</ele><time>2022-07-16T15:36:19Z</time></trkpt><trkpt lat="51.6033548489" lon="38.9009951614"><ele>136.16</ele><time>2022-07-16T15:36:20Z</time></trkpt><trkpt lat="51.6038862616" lon="38.9010504819"><ele>136.64</ele><time>2022-07-16T15:36:31Z</time></trkpt><trkpt lat="51.6040563304" lon="38.9012121689"><ele>136.16</ele><time>2022-07-16T15:36:35Z</time></trkpt><trkpt lat="51.6042139102" lon="38.9014556631"><ele>135.68</ele><time>2022-07-16T15:36:39Z</time></trkpt><trkpt lat="51.6044051014" lon="38.9016029332"><ele>135.68</ele><time>2022-07-16T15:36:43Z</time></trkpt><trkpt lat="51.6053967644" lon="38.9017050248"><ele>136.16</ele><time>2022-07-16T15:37:01Z</time></trkpt><trkpt lat="51.6055069026" lon="38.9016583376"><ele>136.16</ele><time>2022-07-16T15:37:03Z</time></trkpt><trkpt lat="51.6062489524" lon="38.9010410942"><ele>135.68</ele><time>2022-07-16T15:37:18Z</time></trkpt><trkpt lat="51.6070613265" lon="38.9001407102"><ele>134.72</ele><time>2022-07-16T15:37:34Z</time></trkpt><trkpt lat="51.6079581901" lon="38.8991253264"><ele>133.28</ele><time>2022-07-16T15:37:52Z</time></trkpt><trkpt lat="51.6087111365" lon="38.8982375152"><ele>131.84</ele><time>2022-07-16T15:38:07Z</time></trkpt><trkpt lat="51.6090611648" lon="38.8978444040"><ele>131.36</ele><time>2022-07-16T15:38:14Z</time></trkpt><trkpt lat="51.6093562078" lon="38.8979731500"><ele>130.88</ele><time>2022-07-16T15:38:20Z</time></trkpt><trkpt lat="51.6094633285" lon="38.8983025588"><ele>130.88</ele><time>2022-07-16T15:38:24Z</time></trkpt><trkpt lat="51.6098467167" lon="38.8985525072"><ele>130.40</ele><time>2022-07-16T15:38:32Z</time></trkpt><trkpt lat="51.6099538375" lon="38.8984748907"><ele>130.88</ele><time>2022-07-16T15:38:34Z</time></trkpt><trkpt lat="51.6107320134" lon="38.8978721481"><ele>128.95</ele><time>2022-07-16T15:38:48Z</time></trkpt><trkpt lat="51.6109756753" lon="38.8978588209"><ele>128.95</ele><time>2022-07-16T15:38:52Z</time></trkpt><trkpt lat="51.6118380893" lon="38.8981999643"><ele>127.99</ele><time>2022-07-16T15:39:06Z</time></trkpt><trkpt lat="51.6124704201" lon="38.8985079993"><ele>127.51</ele><time>2022-07-16T15:39:17Z</time></trkpt><trkpt lat="51.6128152516" lon="38.8986884616"><ele>127.99</ele><time>2022-07-16T15:39:23Z</time></trkpt><trkpt lat="51.6129244678" lon="38.8987646531"><ele>127.99</ele><time>2022-07-16T15:39:25Z</time></trkpt><trkpt lat="51.6131050978" lon="38.8989975024"><ele>127.99</ele><time>2022-07-16T15:39:29Z</time></trkpt><trkpt lat="51.6133862268" lon="38.8994858321"><ele>128.47</ele><time>2022-07-16T15:39:36Z</time></trkpt><trkpt lat="51.6134564672" lon="38.8996248040"><ele>128.47</ele><time>2022-07-16T15:39:38Z</time></trkpt><trkpt lat="51.6136343312" lon="38.8999897521"><ele>127.99</ele><time>2022-07-16T15:39:43Z</time></trkpt><trkpt lat="51.6136460658" lon="38.9003769122"><ele>127.51</ele><time>2022-07-16T15:39:47Z</time></trkpt><trkpt lat="51.6140321363" lon="38.9012613706"><ele>126.55</ele><time>2022-07-16T15:39:59Z</time></trkpt><trkpt lat="51.6146572586" lon="38.9024616592"><ele>127.03</ele><time>2022-07-16T15:40:16Z</time></trkpt><trkpt lat="51.6150991526" lon="38.9033875242"><ele>128.95</ele><time>2022-07-16T15:40:32Z</time></trkpt><trkpt lat="51.6151267290" lon="38.9035265800"><ele>129.43</ele><time>2022-07-16T15:40:35Z</time></trkpt><trkpt lat="51.6153140645" lon="38.9040531311"><ele>128.95</ele><time>2022-07-16T15:40:46Z</time></trkpt><trkpt lat="51.6153634340" lon="38.9041662868"><ele>128.95</ele><time>2022-07-16T15:40:48Z</time></trkpt><trkpt lat="51.6155134700" lon="38.9045807719"><ele>128.95</ele><time>2022-07-16T15:40:55Z</time></trkpt><trkpt lat="51.6159928311" lon="38.9052875340"><ele>129.43</ele><time>2022-07-16T15:41:10Z</time></trkpt><trkpt lat="51.6166268382" lon="38.9061240479"><ele>129.43</ele><time>2022-07-16T15:41:26Z</time></trkpt><trkpt lat="51.6175891645" lon="38.9068065025"><ele>130.40</ele><time>2022-07-16T15:41:45Z</time></trkpt><trkpt lat="51.6179655958" lon="38.9068847056"><ele>131.36</ele><time>2022-07-16T15:41:52Z</time></trkpt><trkpt lat="51.6181252711" lon="38.9068799280"><ele>131.36</ele><time>2022-07-16T15:41:55Z</time></trkpt><trkpt lat="51.6183753032" lon="38.9069256093"><ele>132.32</ele><time>2022-07-16T15:42:00Z</time></trkpt><trkpt lat="51.6192573309" lon="38.9075376559"><ele>133.28</ele><time>2022-07-16T15:42:18Z</time></trkpt><trkpt lat="51.6199881490" lon="38.9083882514"><ele>132.80</ele><time>2022-07-16T15:42:34Z</time></trkpt><trkpt lat="51.6207079869" lon="38.9096768014"><ele>129.43</ele><time>2022-07-16T15:42:50Z</time></trkpt><trkpt lat="51.6214233823" lon="38.9109319076"><ele>126.55</ele><time>2022-07-16T15:43:05Z</time></trkpt><trkpt lat="51.6221719701" lon="38.9122628700"><ele>123.67</ele><time>2022-07-16T15:43:21Z</time></trkpt><trkpt lat="51.6227516625" lon="38.9132978674"><ele>120.30</ele><time>2022-07-16T15:43:33Z</time></trkpt><trkpt lat="51.6234363802" lon="38.9144999161"><ele>117.42</ele><time>2022-07-16T15:43:47Z</time></trkpt><trkpt lat="51.6243714653" lon="38.9161449485"><ele>114.53</ele><time>2022-07-16T15:44:07Z</time></trkpt><trkpt lat="51.6245489940" lon="38.9164585993"><ele>114.05</ele><time>2022-07-16T15:44:11Z</time></trkpt><trkpt lat="51.6249494813" lon="38.9172179159"><ele>114.53</ele><time>2022-07-16T15:44:22Z</time></trkpt><trkpt lat="51.6255802196" lon="38.9183041267"><ele>114.53</ele><time>2022-07-16T15:44:37Z</time></trkpt><trkpt lat="51.6258495301" lon="38.9187895227"><ele>114.05</ele><time>2022-07-16T15:44:43Z</time></trkpt><trkpt lat="51.6260019131" lon="38.9190110564"><ele>113.57</ele><time>2022-07-16T15:44:46Z</time></trkpt><trkpt lat="51.6268021334" lon="38.9204041287"><ele>110.69</ele><time>2022-07-16T15:45:03Z</time></trkpt><trkpt lat="51.6275492124" lon="38.9218264539"><ele>108.77</ele><time>2022-07-16T15:45:20Z</time></trkpt><trkpt lat="51.6279752646" lon="38.9229425881"><ele>110.69</ele><time>2022-07-16T15:45:34Z</time></trkpt><trkpt lat="51.6284411307" lon="38.9238897432"><ele>113.09</ele><time>2022-07-16T15:45:50Z</time></trkpt><trkpt lat="51.6292531695" lon="38.9251967333"><ele>115.50</ele><time>2022-07-16T15:46:13Z</time></trkpt><trkpt lat="51.6299931239" lon="38.9263669308"><ele>117.90</ele><time>2022-07-16T15:46:33Z</time></trkpt><trkpt lat="51.6308398638" lon="38.9276919421"><ele>119.82</ele><time>2022-07-16T15:46:55Z</time></trkpt><trkpt lat="51.6312790755" lon="38.9283527713"><ele>120.30</ele><time>2022-07-16T15:47:06Z</time></trkpt><trkpt lat="51.6314823367" lon="38.9285140391"><ele>120.30</ele><time>2022-07-16T15:47:10Z</time></trkpt><trkpt lat="51.6327075195" lon="38.9288001973"><ele>120.78</ele><time>2022-07-16T15:47:31Z</time></trkpt><trkpt lat="51.6338731069" lon="38.9291023649"><ele>121.26</ele><time>2022-07-16T15:47:50Z</time></trkpt><trkpt lat="51.6348209325" lon="38.9294440113"><ele>121.26</ele><time>2022-07-16T15:48:07Z</time></trkpt><trkpt lat="51.6355997790" lon="38.9300646074"><ele>121.26</ele><time>2022-07-16T15:48:22Z</time></trkpt><trkpt lat="51.6361594386" lon="38.9306266978"><ele>121.26</ele><time>2022-07-16T15:48:35Z</time></trkpt><trkpt lat="51.6362290923" lon="38.9309259318"><ele>120.78</ele><time>2022-07-16T15:48:40Z</time></trkpt><trkpt lat="51.6361187864" lon="38.9320120588"><ele>117.90</ele><time>2022-07-16T15:48:52Z</time></trkpt><trkpt lat="51.6360084806" lon="38.9330775663"><ele>115.01</ele><time>2022-07-16T15:49:03Z</time></trkpt><trkpt lat="51.6359488852" lon="38.9333452843"><ele>115.01</ele><time>2022-07-16T15:49:10Z</time></trkpt><trkpt lat="51.6359441914" lon="38.9333774708"><ele>114.53</ele><time>2022-07-16T15:49:12Z</time></trkpt><trkpt lat="51.6359591112" lon="38.9334779698"><ele>114.53</ele><time>2022-07-16T15:49:19Z</time></trkpt><trkpt lat="51.6361609474" lon="38.9335734397"><ele>114.05</ele><time>2022-07-16T15:49:24Z</time></trkpt><trkpt lat="51.6363437567" lon="38.9336713403"><ele>113.57</ele><time>2022-07-16T15:49:28Z</time></trkpt><trkpt lat="51.6369327530" lon="38.9343466703"><ele>113.09</ele><time>2022-07-16T15:49:41Z</time></trkpt><trkpt lat="51.6374938376" lon="38.9349986147"><ele>112.61</ele><time>2022-07-16T15:49:53Z</time></trkpt><trkpt lat="51.6383368894" lon="38.9358824864"><ele>111.17</ele><time>2022-07-16T15:50:10Z</time></trkpt><trkpt lat="51.6389966290" lon="38.9365176670"><ele>111.17</ele><time>2022-07-16T15:50:24Z</time></trkpt><trkpt lat="51.6390923504" lon="38.9366422221"><ele>111.17</ele><time>2022-07-16T15:50:27Z</time></trkpt><trkpt lat="51.6397920717" lon="38.9374462143"><ele>110.21</ele><time>2022-07-16T15:50:44Z</time></trkpt><trkpt lat="51.6404637974" lon="38.9384953771"><ele>106.84</ele><time>2022-07-16T15:51:00Z</time></trkpt><trkpt lat="51.6407406516" lon="38.9392385166"><ele>103.48</ele><time>2022-07-16T15:51:07Z</time></trkpt><trkpt lat="51.6409821343" lon="38.9399873558"><ele>100.11</ele><time>2022-07-16T15:51:13Z</time></trkpt><trkpt lat="51.6410946194" lon="38.9403282478"><ele>100.11</ele><time>2022-07-16T15:51:16Z</time></trkpt><trkpt lat="51.6413328331" lon="38.9407475945"><ele>100.60</ele><time>2022-07-16T15:51:21Z</time></trkpt><trkpt lat="51.6414646804" lon="38.9409377798"><ele>102.04</ele><time>2022-07-16T15:51:24Z</time></trkpt><trkpt lat="51.6417500842" lon="38.9412176516"><ele>105.40</ele><time>2022-07-16T15:51:31Z</time></trkpt><trkpt lat="51.6419654153" lon="38.9413701184"><ele>106.84</ele><time>2022-07-16T15:51:36Z</time></trkpt><trkpt lat="51.6420994420" lon="38.9414766524"><ele>107.81</ele><time>2022-07-16T15:51:39Z</time></trkpt><trkpt lat="51.6423412599" lon="38.9416813385"><ele>109.73</ele><time>2022-07-16T15:51:44Z</time></trkpt><trkpt lat="51.6429181024" lon="38.9427014161"><ele>110.69</ele><time>2022-07-16T15:52:00Z</time></trkpt><trkpt lat="51.6432800330" lon="38.9434026461"><ele>109.73</ele><time>2022-07-16T15:52:10Z</time></trkpt><trkpt lat="51.6435324121" lon="38.9439547621"><ele>109.73</ele><time>2022-07-16T15:52:18Z</time></trkpt><trkpt lat="51.6435951088" lon="38.9441721048"><ele>109.73</ele><time>2022-07-16T15:52:21Z</time></trkpt><trkpt lat="51.6435218509" lon="38.9443724323"><ele>109.73</ele><time>2022-07-16T15:52:25Z</time></trkpt><trkpt lat="51.6431258898" lon="38.9448093809"><ele>106.84</ele><time>2022-07-16T15:52:33Z</time></trkpt><trkpt lat="51.6428660508" lon="38.9451124705"><ele>103.48</ele><time>2022-07-16T15:52:37Z</time></trkpt><trkpt lat="51.6426157672" lon="38.9454723895"><ele>101.56</ele><time>2022-07-16T15:52:41Z</time></trkpt><trkpt lat="51.6423063073" lon="38.9461719431"><ele>100.11</ele><time>2022-07-16T15:52:48Z</time></trkpt><trkpt lat="51.6420229990" lon="38.9465713408"><ele>100.11</ele><time>2022-07-16T15:52:55Z</time></trkpt><trkpt lat="51.6417688597" lon="38.9468356222"><ele>100.60</ele><time>2022-07-16T15:53:01Z</time></trkpt><trkpt lat="51.6412227787" lon="38.9470006619"><ele>101.56</ele><time>2022-07-16T15:53:11Z</time></trkpt><trkpt lat="51.6407245584" lon="38.9475635905"><ele>104.44</ele><time>2022-07-16T15:53:24Z</time></trkpt><trkpt lat="51.6401743703" lon="38.9482385851"><ele>107.81</ele><time>2022-07-16T15:53:39Z</time></trkpt><trkpt lat="51.6400580294" lon="38.9484135993"><ele>107.81</ele><time>2022-07-16T15:53:44Z</time></trkpt><trkpt lat="51.6400992684" lon="38.9487343747"><ele>107.81</ele><time>2022-07-16T15:53:50Z</time></trkpt><trkpt lat="51.6401703469" lon="38.9489217103"><ele>107.32</ele><time>2022-07-16T15:53:54Z</time></trkpt><trkpt lat="51.6402011085" lon="38.9490673877"><ele>108.29</ele><time>2022-07-16T15:54:04Z</time></trkpt><trkpt lat="51.6402135137" lon="38.9490812179"><ele>107.81</ele><time>2022-07-16T15:54:35Z</time></trkpt><trkpt lat="51.6402137652" lon="38.9490798768"><ele>108.29</ele><time>2022-07-16T15:55:04Z</time></trkpt><trkpt lat="51.6402155254" lon="38.9490808826"><ele>107.81</ele><time>2022-07-16T15:55:10Z</time></trkpt><trkpt lat="51.6403791402" lon="38.9492817130"><ele>107.32</ele><time>2022-07-16T15:55:18Z</time></trkpt><trkpt lat="51.6406336986" lon="38.9498479106"><ele>107.32</ele><time>2022-07-16T15:55:28Z</time></trkpt><trkpt lat="51.6411408037" lon="38.9511715807"><ele>107.81</ele><time>2022-07-16T15:55:46Z</time></trkpt><trkpt lat="51.6416677739" lon="38.9525719453"><ele>108.77</ele><time>2022-07-16T15:56:05Z</time></trkpt><trkpt lat="51.6421066504" lon="38.9537595771"><ele>109.73</ele><time>2022-07-16T15:56:21Z</time></trkpt><trkpt lat="51.6426471993" lon="38.9555460960"><ele>109.73</ele><time>2022-07-16T15:56:42Z</time></trkpt><trkpt lat="51.6429966409" lon="38.9569117595"><ele>107.81</ele><time>2022-07-16T15:56:57Z</time></trkpt><trkpt lat="51.6433541290" lon="38.9582588989"><ele>108.77</ele><time>2022-07-16T15:57:11Z</time></trkpt><trkpt lat="51.6438254435" lon="38.9595870953"><ele>109.73</ele><time>2022-07-16T15:57:28Z</time></trkpt><trkpt lat="51.6443104204" lon="38.9611796569"><ele>107.32</ele><time>2022-07-16T15:57:45Z</time></trkpt><trkpt lat="51.6444590315" lon="38.9617568348"><ele>106.84</ele><time>2022-07-16T15:57:51Z</time></trkpt><trkpt lat="51.6451990698" lon="38.9630219154"><ele>104.92</ele><time>2022-07-16T15:58:07Z</time></trkpt><trkpt lat="51.6456386168" lon="38.9642512053"><ele>104.44</ele><time>2022-07-16T15:58:20Z</time></trkpt><trkpt lat="51.6458046623" lon="38.9646739047"><ele>105.88</ele><time>2022-07-16T15:58:26Z</time></trkpt><trkpt lat="51.6460184846" lon="38.9651424531"><ele>110.21</ele><time>2022-07-16T15:58:35Z</time></trkpt><trkpt lat="51.6462296247" lon="38.9655719418"><ele>113.09</ele><time>2022-07-16T15:58:45Z</time></trkpt><trkpt lat="51.6464431956" lon="38.9660272468"><ele>116.46</ele><time>2022-07-16T15:58:56Z</time></trkpt><trkpt lat="51.6467317846" lon="38.9665713161"><ele>119.34</ele><time>2022-07-16T15:59:09Z</time></trkpt><trkpt lat="51.6469610296" lon="38.9670645073"><ele>121.74</ele><time>2022-07-16T15:59:19Z</time></trkpt><trkpt lat="51.6473955475" lon="38.9678771328"><ele>124.15</ele><time>2022-07-16T15:59:34Z</time></trkpt><trkpt lat="51.6479526088" lon="38.9690217655"><ele>125.59</ele><time>2022-07-16T15:59:55Z</time></trkpt><trkpt lat="51.6484601330" lon="38.9701378159"><ele>122.22</ele><time>2022-07-16T16:00:10Z</time></trkpt><trkpt lat="51.6493101418" lon="38.9718960878"><ele>120.78</ele><time>2022-07-16T16:00:31Z</time></trkpt><trkpt lat="51.6496963799" lon="38.9725566655"><ele>120.30</ele><time>2022-07-16T16:00:40Z</time></trkpt><trkpt lat="51.6503692791" lon="38.9738214947"><ele>120.30</ele><time>2022-07-16T16:00:57Z</time></trkpt><trkpt lat="51.6506411880" lon="38.9744047914"><ele>120.30</ele><time>2022-07-16T16:01:05Z</time></trkpt><trkpt lat="51.6511551663" lon="38.9755495079"><ele>120.78</ele><time>2022-07-16T16:01:21Z</time></trkpt><trkpt lat="51.6516449209" lon="38.9768130798"><ele>120.30</ele><time>2022-07-16T16:01:37Z</time></trkpt><trkpt lat="51.6521153972" lon="38.9780468121"><ele>119.82</ele><time>2022-07-16T16:01:53Z</time></trkpt><trkpt lat="51.6522856336" lon="38.9784843475"><ele>120.30</ele><time>2022-07-16T16:01:59Z</time></trkpt><trkpt lat="51.6523433011" lon="38.9786115848"><ele>120.78</ele><time>2022-07-16T16:02:01Z</time></trkpt><trkpt lat="51.6524779145" lon="38.9789654687"><ele>124.15</ele><time>2022-07-16T16:02:08Z</time></trkpt><trkpt lat="51.6527090035" lon="38.9792473521"><ele>127.03</ele><time>2022-07-16T16:02:17Z</time></trkpt><trkpt lat="51.6529986821" lon="38.9794547204"><ele>127.99</ele><time>2022-07-16T16:02:26Z</time></trkpt><trkpt lat="51.6531565133" lon="38.9796103723"><ele>125.59</ele><time>2022-07-16T16:02:30Z</time></trkpt><trkpt lat="51.6533262469" lon="38.9798085205"><ele>122.71</ele><time>2022-07-16T16:02:34Z</time></trkpt><trkpt lat="51.6534120776" lon="38.9798751567"><ele>121.74</ele><time>2022-07-16T16:02:36Z</time></trkpt><trkpt lat="51.6537316795" lon="38.9800080936"><ele>121.26</ele><time>2022-07-16T16:02:44Z</time></trkpt><trkpt lat="51.6539312527" lon="38.9804482274"><ele>122.22</ele><time>2022-07-16T16:02:53Z</time></trkpt><trkpt lat="51.6539994814" lon="38.9809329528"><ele>124.15</ele><time>2022-07-16T16:03:03Z</time></trkpt><trkpt lat="51.6538728308" lon="38.9816278964"><ele>126.55</ele><time>2022-07-16T16:03:17Z</time></trkpt><trkpt lat="51.6537591722" lon="38.9825881273"><ele>129.43</ele><time>2022-07-16T16:03:35Z</time></trkpt><trkpt lat="51.6539781075" lon="38.9833144192"><ele>132.32</ele><time>2022-07-16T16:03:50Z</time></trkpt><trkpt lat="51.6544401180" lon="38.9838438202"><ele>133.76</ele><time>2022-07-16T16:04:05Z</time></trkpt><trkpt lat="51.6549895518" lon="38.9847667515"><ele>135.68</ele><time>2022-07-16T16:04:24Z</time></trkpt><trkpt lat="51.6555332858" lon="38.9859144855"><ele>134.72</ele><time>2022-07-16T16:04:41Z</time></trkpt><trkpt lat="51.6557142511" lon="38.9863072615"><ele>134.24</ele><time>2022-07-16T16:04:46Z</time></trkpt><trkpt lat="51.6557906102" lon="38.9864584710"><ele>134.24</ele><time>2022-07-16T16:04:48Z</time></trkpt><trkpt lat="51.6563189216" lon="38.9876350388"><ele>134.24</ele><time>2022-07-16T16:05:03Z</time></trkpt><trkpt lat="51.6568246018" lon="38.9882920124"><ele>134.72</ele><time>2022-07-16T16:05:14Z</time></trkpt><trkpt lat="51.6569499113" lon="38.9888569526"><ele>136.64</ele><time>2022-07-16T16:05:22Z</time></trkpt><trkpt lat="51.6569524258" lon="38.9891794883"><ele>138.09</ele><time>2022-07-16T16:05:27Z</time></trkpt><trkpt lat="51.6570557747" lon="38.9899776131"><ele>139.53</ele><time>2022-07-16T16:05:39Z</time></trkpt><trkpt lat="51.6571162920" lon="38.9902641065"><ele>140.01</ele><time>2022-07-16T16:05:43Z</time></trkpt><trkpt lat="51.6571661644" lon="38.9905756619"><ele>140.01</ele><time>2022-07-16T16:05:47Z</time></trkpt><trkpt lat="51.6574137658" lon="38.9919017628"><ele>141.45</ele><time>2022-07-16T16:06:04Z</time></trkpt><trkpt lat="51.6576472856" lon="38.9930668473"><ele>144.34</ele><time>2022-07-16T16:06:21Z</time></trkpt><trkpt lat="51.6575227305" lon="38.9938824903"><ele>147.22</ele><time>2022-07-16T16:06:37Z</time></trkpt><trkpt lat="51.6572524980" lon="38.9948190004"><ele>149.62</ele><time>2022-07-16T16:06:55Z</time></trkpt><trkpt lat="51.6570004541" lon="38.9958642237"><ele>152.03</ele><time>2022-07-16T16:07:14Z</time></trkpt><trkpt lat="51.6567852069" lon="38.9968552999"><ele>153.47</ele><time>2022-07-16T16:07:31Z</time></trkpt><trkpt lat="51.6565856338" lon="38.9977939054"><ele>156.83</ele><time>2022-07-16T16:07:48Z</time></trkpt><trkpt lat="51.6564913373" lon="38.9982697461"><ele>159.72</ele><time>2022-07-16T16:07:57Z</time></trkpt><trkpt lat="51.6563993040" lon="38.9990819525"><ele>162.60</ele><time>2022-07-16T16:08:12Z</time></trkpt><trkpt lat="51.6566251963" lon="38.9996152092"><ele>164.52</ele><time>2022-07-16T16:08:23Z</time></trkpt><trkpt lat="51.6567608155" lon="38.9997665025"><ele>165.00</ele><time>2022-07-16T16:08:27Z</time></trkpt><trkpt lat="51.6576153506" lon="39.0007357020"><ele>165.48</ele><time>2022-07-16T16:08:48Z</time></trkpt><trkpt lat="51.6584014893" lon="39.0015868004"><ele>165.00</ele><time>2022-07-16T16:09:04Z</time></trkpt><trkpt lat="51.6589485761" lon="39.0021880344"><ele>164.52</ele><time>2022-07-16T16:09:15Z</time></trkpt><trkpt lat="51.6595763806" lon="39.0035414603"><ele>164.52</ele><time>2022-07-16T16:09:32Z</time></trkpt><trkpt lat="51.6599532310" lon="39.0050417371"><ele>163.56</ele><time>2022-07-16T16:09:48Z</time></trkpt><trkpt lat="51.6600466054" lon="39.0054168273"><ele>163.56</ele><time>2022-07-16T16:09:52Z</time></trkpt><trkpt lat="51.6601987369" lon="39.0062457975"><ele>164.04</ele><time>2022-07-16T16:10:01Z</time></trkpt><trkpt lat="51.6604295745" lon="39.0073617641"><ele>164.52</ele><time>2022-07-16T16:10:14Z</time></trkpt><trkpt lat="51.6607688740" lon="39.0089343768"><ele>164.04</ele><time>2022-07-16T16:10:31Z</time></trkpt><trkpt lat="51.6610572953" lon="39.0104152076"><ele>162.60</ele><time>2022-07-16T16:10:48Z</time></trkpt><trkpt lat="51.6610952653" lon="39.0105878748"><ele>162.12</ele><time>2022-07-16T16:10:50Z</time></trkpt><trkpt lat="51.6613057349" lon="39.0109214745"><ele>160.68</ele><time>2022-07-16T16:10:55Z</time></trkpt><trkpt lat="51.6613749694" lon="39.0109451953"><ele>159.72</ele><time>2022-07-16T16:10:56Z</time></trkpt><trkpt lat="51.6618759558" lon="39.0110358037"><ele>155.87</ele><time>2022-07-16T16:11:02Z</time></trkpt><trkpt lat="51.6623767745" lon="39.0111414157"><ele>152.03</ele><time>2022-07-16T16:11:07Z</time></trkpt><trkpt lat="51.6629872285" lon="39.0112855844"><ele>148.66</ele><time>2022-07-16T16:11:13Z</time></trkpt><trkpt lat="51.6632753983" lon="39.0113951359"><ele>147.70</ele><time>2022-07-16T16:11:16Z</time></trkpt><trkpt lat="51.6637286916" lon="39.0118012391"><ele>143.37</ele><time>2022-07-16T16:11:21Z</time></trkpt><trkpt lat="51.6638101637" lon="39.0119050071"><ele>142.89</ele><time>2022-07-16T16:11:22Z</time></trkpt><trkpt lat="51.6641340405" lon="39.0125188977"><ele>140.97</ele><time>2022-07-16T16:11:27Z</time></trkpt><trkpt lat="51.6643543169" lon="39.0138867404"><ele>139.05</ele><time>2022-07-16T16:11:38Z</time></trkpt><trkpt lat="51.6644024290" lon="39.0143433865"><ele>137.13</ele><time>2022-07-16T16:11:42Z</time></trkpt><trkpt lat="51.6647408064" lon="39.0149421059"><ele>132.80</ele><time>2022-07-16T16:11:48Z</time></trkpt><trkpt lat="51.6651505139" lon="39.0152363107"><ele>127.99</ele><time>2022-07-16T16:11:52Z</time></trkpt><trkpt lat="51.6654806770" lon="39.0154682379"><ele>123.67</ele><time>2022-07-16T16:11:55Z</time></trkpt><trkpt lat="51.6658106726" lon="39.0157055296"><ele>121.26</ele><time>2022-07-16T16:11:58Z</time></trkpt><trkpt lat="51.6663965676" lon="39.0166205820"><ele>116.46</ele><time>2022-07-16T16:12:05Z</time></trkpt><trkpt lat="51.6665249784" lon="39.0169010404"><ele>116.46</ele><time>2022-07-16T16:12:07Z</time></trkpt><trkpt lat="51.6670602467" lon="39.0183640178"><ele>115.50</ele><time>2022-07-16T16:12:19Z</time></trkpt><trkpt lat="51.6673904099" lon="39.0195299406"><ele>115.50</ele><time>2022-07-16T16:12:32Z</time></trkpt><trkpt lat="51.6678799968" lon="39.0209005494"><ele>115.01</ele><time>2022-07-16T16:12:49Z</time></trkpt><trkpt lat="51.6681292746" lon="39.0211572032"><ele>114.05</ele><time>2022-07-16T16:12:54Z</time></trkpt><trkpt lat="51.6686835699" lon="39.0213642363"><ele>110.21</ele><time>2022-07-16T16:13:02Z</time></trkpt><trkpt lat="51.6691573989" lon="39.0216104966"><ele>107.32</ele><time>2022-07-16T16:13:08Z</time></trkpt><trkpt lat="51.6700247582" lon="39.0224698093"><ele>105.40</ele><time>2022-07-16T16:13:21Z</time></trkpt><trkpt lat="51.6709155031" lon="39.0232207440"><ele>104.92</ele><time>2022-07-16T16:13:37Z</time></trkpt><trkpt lat="51.6714350972" lon="39.0235412680"><ele>104.92</ele><time>2022-07-16T16:13:46Z</time></trkpt><trkpt lat="51.6717985366" lon="39.0238425136"><ele>104.92</ele><time>2022-07-16T16:13:53Z</time></trkpt><trkpt lat="51.6724821646" lon="39.0247703064"><ele>104.92</ele><time>2022-07-16T16:14:08Z</time></trkpt><trkpt lat="51.6729926225" lon="39.0260127559"><ele>104.92</ele><time>2022-07-16T16:14:24Z</time></trkpt><trkpt lat="51.6735478397" lon="39.0275293775"><ele>104.44</ele><time>2022-07-16T16:14:42Z</time></trkpt><trkpt lat="51.6739383526" lon="39.0291620884"><ele>102.04</ele><time>2022-07-16T16:15:00Z</time></trkpt><trkpt lat="51.6741811763" lon="39.0304952301"><ele>101.08</ele><time>2022-07-16T16:15:14Z</time></trkpt><trkpt lat="51.6744109243" lon="39.0319629014"><ele>101.08</ele><time>2022-07-16T16:15:31Z</time></trkpt><trkpt lat="51.6744650714" lon="39.0324166976"><ele>101.08</ele><time>2022-07-16T16:15:37Z</time></trkpt><trkpt lat="51.6745184641" lon="39.0327176079"><ele>101.08</ele><time>2022-07-16T16:15:42Z</time></trkpt><trkpt lat="51.6745316237" lon="39.0327673126"><ele>101.56</ele><time>2022-07-16T16:15:44Z</time></trkpt><trkpt lat="51.6746991780" lon="39.0327645466"><ele>101.56</ele><time>2022-07-16T16:15:49Z</time></trkpt><trkpt lat="51.6753450874" lon="39.0321049746"><ele>101.56</ele><time>2022-07-16T16:16:05Z</time></trkpt><trkpt lat="51.6761083435" lon="39.0313146450"><ele>101.08</ele><time>2022-07-16T16:16:22Z</time></trkpt><trkpt lat="51.6769787204" lon="39.0304588526"><ele>103.48</ele><time>2022-07-16T16:16:43Z</time></trkpt><trkpt lat="51.6774247214" lon="39.0301590320"><ele>106.84</ele><time>2022-07-16T16:16:56Z</time></trkpt><trkpt lat="51.6779744066" lon="39.0301302820"><ele>108.77</ele><time>2022-07-16T16:17:11Z</time></trkpt><trkpt lat="51.6780140530" lon="39.0301292762"><ele>109.25</ele><time>2022-07-16T16:17:12Z</time></trkpt><trkpt lat="51.6781108640" lon="39.0302767977"><ele>108.77</ele><time>2022-07-16T16:17:16Z</time></trkpt><trkpt lat="51.6781128757" lon="39.0316111967"><ele>105.88</ele><time>2022-07-16T16:17:32Z</time></trkpt><trkpt lat="51.6781179886" lon="39.0321960021"><ele>104.92</ele><time>2022-07-16T16:17:38Z</time></trkpt><trkpt lat="51.6781370156" lon="39.0323944017"><ele>104.44</ele><time>2022-07-16T16:17:40Z</time></trkpt><trkpt lat="51.6782066692" lon="39.0327414125"><ele>104.44</ele><time>2022-07-16T16:17:44Z</time></trkpt><trkpt lat="51.6785178892" lon="39.0334376972"><ele>105.40</ele><time>2022-07-16T16:17:54Z</time></trkpt><trkpt lat="51.6787677538" lon="39.0339699481"><ele>105.40</ele><time>2022-07-16T16:18:02Z</time></trkpt><trkpt lat="51.6791001800" lon="39.0346909594"><ele>104.92</ele><time>2022-07-16T16:18:14Z</time></trkpt><trkpt lat="51.6792804748" lon="39.0346855950"><ele>105.40</ele><time>2022-07-16T16:18:19Z</time></trkpt><trkpt lat="51.6799697187" lon="39.0342994407"><ele>108.29</ele><time>2022-07-16T16:18:37Z</time></trkpt><trkpt lat="51.6801292263" lon="39.0342373308"><ele>108.77</ele><time>2022-07-16T16:18:41Z</time></trkpt><trkpt lat="51.6802474950" lon="39.0345914662"><ele>108.29</ele><time>2022-07-16T16:18:48Z</time></trkpt><trkpt lat="51.6803433001" lon="39.0353475139"><ele>107.32</ele><time>2022-07-16T16:18:57Z</time></trkpt><trkpt lat="51.6806838568" lon="39.0372263175"><ele>103.96</ele><time>2022-07-16T16:19:18Z</time></trkpt><trkpt lat="51.6808635648" lon="39.0378842130"><ele>103.48</ele><time>2022-07-16T16:19:26Z</time></trkpt><trkpt lat="51.6810948215" lon="39.0384203196"><ele>103.00</ele><time>2022-07-16T16:19:33Z</time></trkpt><trkpt lat="51.6813381482" lon="39.0394960530"><ele>100.60</ele><time>2022-07-16T16:19:45Z</time></trkpt><trkpt lat="51.6815358773" lon="39.0405967645"><ele>99.63</ele><time>2022-07-16T16:19:57Z</time></trkpt><trkpt lat="51.6815636214" lon="39.0409377404"><ele>99.15</ele><time>2022-07-16T16:20:01Z</time></trkpt><trkpt lat="51.6815591790" lon="39.0413916204"><ele>98.67</ele><time>2022-07-16T16:20:06Z</time></trkpt><trkpt lat="51.6815711651" lon="39.0420312434"><ele>97.71</ele><time>2022-07-16T16:20:13Z</time></trkpt><trkpt lat="51.6815955564" lon="39.0426347405"><ele>97.71</ele><time>2022-07-16T16:20:20Z</time></trkpt><trkpt lat="51.6818025894" lon="39.0427023824"><ele>98.19</ele><time>2022-07-16T16:20:26Z</time></trkpt><trkpt lat="51.6818900127" lon="39.0426246822"><ele>98.19</ele><time>2022-07-16T16:20:28Z</time></trkpt><trkpt lat="51.6821234487" lon="39.0424707904"><ele>98.19</ele><time>2022-07-16T16:20:33Z</time></trkpt><trkpt lat="51.6822571401" lon="39.0423666872"><ele>98.67</ele><time>2022-07-16T16:20:36Z</time></trkpt><trkpt lat="51.6825408675" lon="39.0419827122"><ele>100.11</ele><time>2022-07-16T16:20:44Z</time></trkpt><trkpt lat="51.6828353237" lon="39.0417176764"><ele>101.08</ele><time>2022-07-16T16:20:52Z</time></trkpt><trkpt lat="51.6833048780" lon="39.0414285846"><ele>104.92</ele><time>2022-07-16T16:21:07Z</time></trkpt></trkseg></trk></gpx>